<?xml version="1.0" encoding="UTF-8" standalone="no" ?>
<gpx xmlns="http://www.topografix.com/GPX/1/1" xmlns:xsi="http://www.w3.org/2001/XMLSchema-instance" xsi:schemaLocation="http://www.topografix.com/GPX/1/1 http://www.topografix.com/GPX/1/1/gpx.xsd" version="1.1" creator="VisuGPX - https://www.visugpx.com">
  <metadata>
    <name>lundi 2015 07 13</name>
    <desc><![CDATA[rando du lundi]]></desc>
  </metadata>
  <trk>
    <name><![CDATA[2 Place du Châtelet]]></name>
    <desc><![CDATA[]]></desc>
    <trkseg>
      <trkpt lat="48.85742" lon="2.34733">
        <ele>91.5</ele>
        <time>2015-07-13T18:19:13.146Z</time>
      </trkpt>
      <trkpt lat="48.85742" lon="2.34731">
        <ele>90.7</ele>
        <time>2015-07-13T18:19:58.891Z</time>
      </trkpt>
      <trkpt lat="48.85742" lon="2.34731">
        <ele>90.8</ele>
        <time>2015-07-13T18:19:59.938Z</time>
      </trkpt>
      <trkpt lat="48.85741" lon="2.3473">
        <ele>90.7</ele>
        <time>2015-07-13T18:20:01.856Z</time>
      </trkpt>
      <trkpt lat="48.85742" lon="2.3473">
        <ele>90.8</ele>
        <time>2015-07-13T18:20:02.869Z</time>
      </trkpt>
      <trkpt lat="48.85742" lon="2.34729">
        <ele>90.8</ele>
        <time>2015-07-13T18:20:04.888Z</time>
      </trkpt>
      <trkpt lat="48.85742" lon="2.3473">
        <ele>90.9</ele>
        <time>2015-07-13T18:20:05.958Z</time>
      </trkpt>
      <trkpt lat="48.85742" lon="2.3473">
        <ele>90.9</ele>
        <time>2015-07-13T18:20:09.873Z</time>
      </trkpt>
      <trkpt lat="48.85743" lon="2.34729">
        <ele>90.8</ele>
        <time>2015-07-13T18:20:10.951Z</time>
      </trkpt>
      <trkpt lat="48.85744" lon="2.34729">
        <ele>90.6</ele>
        <time>2015-07-13T18:20:18.371Z</time>
      </trkpt>
      <trkpt lat="48.85743" lon="2.34731">
        <ele>90.6</ele>
        <time>2015-07-13T18:20:18.950Z</time>
      </trkpt>
      <trkpt lat="48.85743" lon="2.34732">
        <ele>90.7</ele>
        <time>2015-07-13T18:20:27.905Z</time>
      </trkpt>
      <trkpt lat="48.8574" lon="2.34739">
        <ele>91.3</ele>
        <time>2015-07-13T18:20:28.911Z</time>
      </trkpt>
      <trkpt lat="48.8574" lon="2.34738">
        <ele>91.4</ele>
        <time>2015-07-13T18:20:29.939Z</time>
      </trkpt>
      <trkpt lat="48.8574" lon="2.34737">
        <ele>91.5</ele>
        <time>2015-07-13T18:20:30.940Z</time>
      </trkpt>
      <trkpt lat="48.85741" lon="2.34738">
        <ele>91.6</ele>
        <time>2015-07-13T18:20:31.947Z</time>
      </trkpt>
      <trkpt lat="48.85741" lon="2.34737">
        <ele>91.6</ele>
        <time>2015-07-13T18:20:32.869Z</time>
      </trkpt>
      <trkpt lat="48.85742" lon="2.34737">
        <ele>91.5</ele>
        <time>2015-07-13T18:20:33.895Z</time>
      </trkpt>
      <trkpt lat="48.85741" lon="2.34738">
        <ele>91.4</ele>
        <time>2015-07-13T18:21:14.894Z</time>
      </trkpt>
      <trkpt lat="48.8574" lon="2.34735">
        <ele>88</ele>
        <time>2015-07-13T18:21:15.914Z</time>
      </trkpt>
      <trkpt lat="48.85744" lon="2.34744">
        <ele>88.3</ele>
        <time>2015-07-13T18:21:23.924Z</time>
      </trkpt>
      <trkpt lat="48.85746" lon="2.34745">
        <ele>87.6</ele>
        <time>2015-07-13T18:21:24.926Z</time>
      </trkpt>
      <trkpt lat="48.85754" lon="2.34749">
        <ele>86.4</ele>
        <time>2015-07-13T18:21:30.883Z</time>
      </trkpt>
      <trkpt lat="48.85756" lon="2.3475">
        <ele>86.2</ele>
        <time>2015-07-13T18:21:31.882Z</time>
      </trkpt>
      <trkpt lat="48.85764" lon="2.34753">
        <ele>86.3</ele>
        <time>2015-07-13T18:21:37.854Z</time>
      </trkpt>
      <trkpt lat="48.85765" lon="2.34753">
        <ele>86.5</ele>
        <time>2015-07-13T18:21:38.925Z</time>
      </trkpt>
      <trkpt lat="48.85768" lon="2.34764">
        <ele>89.2</ele>
        <time>2015-07-13T18:21:49.862Z</time>
      </trkpt>
      <trkpt lat="48.85768" lon="2.34766">
        <ele>89.2</ele>
        <time>2015-07-13T18:21:50.862Z</time>
      </trkpt>
      <trkpt lat="48.85774" lon="2.3477">
        <ele>89.6</ele>
        <time>2015-07-13T18:21:53.958Z</time>
      </trkpt>
      <trkpt lat="48.85776" lon="2.34772">
        <ele>89.8</ele>
        <time>2015-07-13T18:21:54.973Z</time>
      </trkpt>
      <trkpt lat="48.85782" lon="2.34776">
        <ele>89.9</ele>
        <time>2015-07-13T18:21:56.908Z</time>
      </trkpt>
      <trkpt lat="48.85785" lon="2.34779">
        <ele>90</ele>
        <time>2015-07-13T18:21:57.915Z</time>
      </trkpt>
      <trkpt lat="48.85791" lon="2.34785">
        <ele>90.2</ele>
        <time>2015-07-13T18:21:59.985Z</time>
      </trkpt>
      <trkpt lat="48.85794" lon="2.34787">
        <ele>90.1</ele>
        <time>2015-07-13T18:22:01.075Z</time>
      </trkpt>
      <trkpt lat="48.85802" lon="2.34792">
        <ele>90.5</ele>
        <time>2015-07-13T18:22:02.887Z</time>
      </trkpt>
      <trkpt lat="48.85805" lon="2.34795">
        <ele>90.6</ele>
        <time>2015-07-13T18:22:03.933Z</time>
      </trkpt>
      <trkpt lat="48.85812" lon="2.34799">
        <ele>90.9</ele>
        <time>2015-07-13T18:22:05.983Z</time>
      </trkpt>
      <trkpt lat="48.85816" lon="2.34801">
        <ele>91</ele>
        <time>2015-07-13T18:22:06.898Z</time>
      </trkpt>
      <trkpt lat="48.85823" lon="2.34805">
        <ele>91.1</ele>
        <time>2015-07-13T18:22:08.858Z</time>
      </trkpt>
      <trkpt lat="48.85826" lon="2.34806">
        <ele>91.1</ele>
        <time>2015-07-13T18:22:09.906Z</time>
      </trkpt>
      <trkpt lat="48.85834" lon="2.3481">
        <ele>91.3</ele>
        <time>2015-07-13T18:22:13.184Z</time>
      </trkpt>
      <trkpt lat="48.85836" lon="2.34811">
        <ele>91.4</ele>
        <time>2015-07-13T18:22:13.975Z</time>
      </trkpt>
      <trkpt lat="48.85841" lon="2.34821">
        <ele>92.7</ele>
        <time>2015-07-13T18:22:17.936Z</time>
      </trkpt>
      <trkpt lat="48.85842" lon="2.34823">
        <ele>93.3</ele>
        <time>2015-07-13T18:22:18.930Z</time>
      </trkpt>
      <trkpt lat="48.8585" lon="2.34827">
        <ele>93.8</ele>
        <time>2015-07-13T18:22:33.947Z</time>
      </trkpt>
      <trkpt lat="48.85853" lon="2.34828">
        <ele>93.8</ele>
        <time>2015-07-13T18:22:34.846Z</time>
      </trkpt>
      <trkpt lat="48.85859" lon="2.34831">
        <ele>93.6</ele>
        <time>2015-07-13T18:22:36.946Z</time>
      </trkpt>
      <trkpt lat="48.85862" lon="2.34833">
        <ele>93.8</ele>
        <time>2015-07-13T18:22:37.915Z</time>
      </trkpt>
      <trkpt lat="48.8587" lon="2.34838">
        <ele>94.1</ele>
        <time>2015-07-13T18:22:39.910Z</time>
      </trkpt>
      <trkpt lat="48.85874" lon="2.3484">
        <ele>94.4</ele>
        <time>2015-07-13T18:22:40.937Z</time>
      </trkpt>
      <trkpt lat="48.85882" lon="2.34844">
        <ele>95.2</ele>
        <time>2015-07-13T18:22:42.888Z</time>
      </trkpt>
      <trkpt lat="48.85885" lon="2.34845">
        <ele>95.4</ele>
        <time>2015-07-13T18:22:43.936Z</time>
      </trkpt>
      <trkpt lat="48.85892" lon="2.34849">
        <ele>95.4</ele>
        <time>2015-07-13T18:22:45.908Z</time>
      </trkpt>
      <trkpt lat="48.85896" lon="2.3485">
        <ele>95.3</ele>
        <time>2015-07-13T18:22:46.935Z</time>
      </trkpt>
      <trkpt lat="48.85903" lon="2.34853">
        <ele>95.1</ele>
        <time>2015-07-13T18:22:48.891Z</time>
      </trkpt>
      <trkpt lat="48.85906" lon="2.34855">
        <ele>95.1</ele>
        <time>2015-07-13T18:22:49.960Z</time>
      </trkpt>
      <trkpt lat="48.85914" lon="2.34859">
        <ele>95.2</ele>
        <time>2015-07-13T18:22:51.906Z</time>
      </trkpt>
      <trkpt lat="48.85917" lon="2.34861">
        <ele>95.4</ele>
        <time>2015-07-13T18:22:52.926Z</time>
      </trkpt>
      <trkpt lat="48.85925" lon="2.34864">
        <ele>95.5</ele>
        <time>2015-07-13T18:22:54.898Z</time>
      </trkpt>
      <trkpt lat="48.85928" lon="2.34866">
        <ele>95.7</ele>
        <time>2015-07-13T18:22:55.927Z</time>
      </trkpt>
      <trkpt lat="48.85933" lon="2.34868">
        <ele>95.7</ele>
        <time>2015-07-13T18:22:57.945Z</time>
      </trkpt>
      <trkpt lat="48.85937" lon="2.3487">
        <ele>95.4</ele>
        <time>2015-07-13T18:22:58.980Z</time>
      </trkpt>
      <trkpt lat="48.85943" lon="2.34873">
        <ele>95.7</ele>
        <time>2015-07-13T18:23:00.850Z</time>
      </trkpt>
      <trkpt lat="48.85947" lon="2.34874">
        <ele>95.9</ele>
        <time>2015-07-13T18:23:01.863Z</time>
      </trkpt>
      <trkpt lat="48.85951" lon="2.34876">
        <ele>96</ele>
        <time>2015-07-13T18:23:02.886Z</time>
      </trkpt>
      <trkpt lat="48.85956" lon="2.34877">
        <ele>96.1</ele>
        <time>2015-07-13T18:23:03.899Z</time>
      </trkpt>
      <trkpt lat="48.85961" lon="2.3488">
        <ele>96.3</ele>
        <time>2015-07-13T18:23:04.075Z</time>
      </trkpt>
      <trkpt lat="48.85965" lon="2.34883">
        <ele>96.4</ele>
        <time>2015-07-13T18:23:05.950Z</time>
      </trkpt>
      <trkpt lat="48.8597" lon="2.34886">
        <ele>96.5</ele>
        <time>2015-07-13T18:23:06.898Z</time>
      </trkpt>
      <trkpt lat="48.85975" lon="2.34889">
        <ele>96.5</ele>
        <time>2015-07-13T18:23:07.903Z</time>
      </trkpt>
      <trkpt lat="48.8598" lon="2.34891">
        <ele>96.4</ele>
        <time>2015-07-13T18:23:08.928Z</time>
      </trkpt>
      <trkpt lat="48.85986" lon="2.34895">
        <ele>96.5</ele>
        <time>2015-07-13T18:23:09.942Z</time>
      </trkpt>
      <trkpt lat="48.85991" lon="2.34898">
        <ele>96.1</ele>
        <time>2015-07-13T18:23:10.965Z</time>
      </trkpt>
      <trkpt lat="48.85996" lon="2.34901">
        <ele>95.8</ele>
        <time>2015-07-13T18:23:11.976Z</time>
      </trkpt>
      <trkpt lat="48.86001" lon="2.34904">
        <ele>96</ele>
        <time>2015-07-13T18:23:13.309Z</time>
      </trkpt>
      <trkpt lat="48.86006" lon="2.34907">
        <ele>96.1</ele>
        <time>2015-07-13T18:23:13.899Z</time>
      </trkpt>
      <trkpt lat="48.86011" lon="2.34911">
        <ele>96.4</ele>
        <time>2015-07-13T18:23:14.897Z</time>
      </trkpt>
      <trkpt lat="48.86016" lon="2.34914">
        <ele>96.5</ele>
        <time>2015-07-13T18:23:15.926Z</time>
      </trkpt>
      <trkpt lat="48.86022" lon="2.34916">
        <ele>96.8</ele>
        <time>2015-07-13T18:23:16.937Z</time>
      </trkpt>
      <trkpt lat="48.86028" lon="2.34919">
        <ele>96.8</ele>
        <time>2015-07-13T18:23:17.943Z</time>
      </trkpt>
      <trkpt lat="48.86034" lon="2.34921">
        <ele>97.2</ele>
        <time>2015-07-13T18:23:18.886Z</time>
      </trkpt>
      <trkpt lat="48.86039" lon="2.34922">
        <ele>97</ele>
        <time>2015-07-13T18:23:19.861Z</time>
      </trkpt>
      <trkpt lat="48.86046" lon="2.34926">
        <ele>96.9</ele>
        <time>2015-07-13T18:23:21.893Z</time>
      </trkpt>
      <trkpt lat="48.86051" lon="2.34929">
        <ele>97.1</ele>
        <time>2015-07-13T18:23:22.904Z</time>
      </trkpt>
      <trkpt lat="48.86055" lon="2.34932">
        <ele>97.3</ele>
        <time>2015-07-13T18:23:23.953Z</time>
      </trkpt>
      <trkpt lat="48.86061" lon="2.34934">
        <ele>97.5</ele>
        <time>2015-07-13T18:23:24.938Z</time>
      </trkpt>
      <trkpt lat="48.86066" lon="2.34937">
        <ele>97.7</ele>
        <time>2015-07-13T18:23:25.957Z</time>
      </trkpt>
      <trkpt lat="48.8607" lon="2.34941">
        <ele>97.8</ele>
        <time>2015-07-13T18:23:26.961Z</time>
      </trkpt>
      <trkpt lat="48.86077" lon="2.34945">
        <ele>98.3</ele>
        <time>2015-07-13T18:23:27.895Z</time>
      </trkpt>
      <trkpt lat="48.86083" lon="2.34948">
        <ele>98.6</ele>
        <time>2015-07-13T18:23:28.892Z</time>
      </trkpt>
      <trkpt lat="48.86088" lon="2.3495">
        <ele>98.9</ele>
        <time>2015-07-13T18:23:29.961Z</time>
      </trkpt>
      <trkpt lat="48.86094" lon="2.34953">
        <ele>99.1</ele>
        <time>2015-07-13T18:23:30.964Z</time>
      </trkpt>
      <trkpt lat="48.861" lon="2.34956">
        <ele>99.5</ele>
        <time>2015-07-13T18:23:31.895Z</time>
      </trkpt>
      <trkpt lat="48.86106" lon="2.34959">
        <ele>99.5</ele>
        <time>2015-07-13T18:23:32.894Z</time>
      </trkpt>
      <trkpt lat="48.86112" lon="2.34963">
        <ele>99.7</ele>
        <time>2015-07-13T18:23:33.905Z</time>
      </trkpt>
      <trkpt lat="48.86118" lon="2.34965">
        <ele>99.7</ele>
        <time>2015-07-13T18:23:34.913Z</time>
      </trkpt>
      <trkpt lat="48.86123" lon="2.34967">
        <ele>99.6</ele>
        <time>2015-07-13T18:23:35.962Z</time>
      </trkpt>
      <trkpt lat="48.86128" lon="2.34971">
        <ele>99.6</ele>
        <time>2015-07-13T18:23:36.883Z</time>
      </trkpt>
      <trkpt lat="48.86133" lon="2.34975">
        <ele>99.7</ele>
        <time>2015-07-13T18:23:37.889Z</time>
      </trkpt>
      <trkpt lat="48.86139" lon="2.34978">
        <ele>99.9</ele>
        <time>2015-07-13T18:23:38.889Z</time>
      </trkpt>
      <trkpt lat="48.86144" lon="2.34981">
        <ele>100</ele>
        <time>2015-07-13T18:23:39.921Z</time>
      </trkpt>
      <trkpt lat="48.8615" lon="2.34984">
        <ele>100</ele>
        <time>2015-07-13T18:23:40.934Z</time>
      </trkpt>
      <trkpt lat="48.86155" lon="2.34987">
        <ele>100.1</ele>
        <time>2015-07-13T18:23:41.941Z</time>
      </trkpt>
      <trkpt lat="48.8616" lon="2.34988">
        <ele>100.3</ele>
        <time>2015-07-13T18:23:42.950Z</time>
      </trkpt>
      <trkpt lat="48.86168" lon="2.3499">
        <ele>100.9</ele>
        <time>2015-07-13T18:23:44.881Z</time>
      </trkpt>
      <trkpt lat="48.86172" lon="2.34992">
        <ele>100.9</ele>
        <time>2015-07-13T18:23:45.891Z</time>
      </trkpt>
      <trkpt lat="48.86181" lon="2.34995">
        <ele>101.3</ele>
        <time>2015-07-13T18:23:48.856Z</time>
      </trkpt>
      <trkpt lat="48.86183" lon="2.34997">
        <ele>101.6</ele>
        <time>2015-07-13T18:23:49.898Z</time>
      </trkpt>
      <trkpt lat="48.8619" lon="2.35">
        <ele>102.1</ele>
        <time>2015-07-13T18:23:53.950Z</time>
      </trkpt>
      <trkpt lat="48.86191" lon="2.35001">
        <ele>102.3</ele>
        <time>2015-07-13T18:23:54.958Z</time>
      </trkpt>
      <trkpt lat="48.86197" lon="2.35007">
        <ele>102.8</ele>
        <time>2015-07-13T18:23:57.894Z</time>
      </trkpt>
      <trkpt lat="48.862" lon="2.35009">
        <ele>102.9</ele>
        <time>2015-07-13T18:23:58.931Z</time>
      </trkpt>
      <trkpt lat="48.86206" lon="2.35012">
        <ele>103.1</ele>
        <time>2015-07-13T18:24:00.883Z</time>
      </trkpt>
      <trkpt lat="48.8621" lon="2.35015">
        <ele>103.3</ele>
        <time>2015-07-13T18:24:01.889Z</time>
      </trkpt>
      <trkpt lat="48.86215" lon="2.35017">
        <ele>103.5</ele>
        <time>2015-07-13T18:24:03.987Z</time>
      </trkpt>
      <trkpt lat="48.86219" lon="2.35019">
        <ele>103.5</ele>
        <time>2015-07-13T18:24:04.893Z</time>
      </trkpt>
      <trkpt lat="48.86226" lon="2.35022">
        <ele>103.9</ele>
        <time>2015-07-13T18:24:06.939Z</time>
      </trkpt>
      <trkpt lat="48.8623" lon="2.35023">
        <ele>103.5</ele>
        <time>2015-07-13T18:24:07.949Z</time>
      </trkpt>
      <trkpt lat="48.86235" lon="2.35025">
        <ele>103.3</ele>
        <time>2015-07-13T18:24:09.020Z</time>
      </trkpt>
      <trkpt lat="48.8624" lon="2.35027">
        <ele>103.3</ele>
        <time>2015-07-13T18:24:09.889Z</time>
      </trkpt>
      <trkpt lat="48.86247" lon="2.35032">
        <ele>103.4</ele>
        <time>2015-07-13T18:24:11.950Z</time>
      </trkpt>
      <trkpt lat="48.86252" lon="2.35035">
        <ele>103.5</ele>
        <time>2015-07-13T18:24:12.955Z</time>
      </trkpt>
      <trkpt lat="48.86257" lon="2.35038">
        <ele>104.3</ele>
        <time>2015-07-13T18:24:14.329Z</time>
      </trkpt>
      <trkpt lat="48.86261" lon="2.35041">
        <ele>104.7</ele>
        <time>2015-07-13T18:24:14.890Z</time>
      </trkpt>
      <trkpt lat="48.86266" lon="2.35044">
        <ele>104.9</ele>
        <time>2015-07-13T18:24:15.909Z</time>
      </trkpt>
      <trkpt lat="48.8627" lon="2.35047">
        <ele>105</ele>
        <time>2015-07-13T18:24:16.925Z</time>
      </trkpt>
      <trkpt lat="48.86275" lon="2.3505">
        <ele>104.8</ele>
        <time>2015-07-13T18:24:18.564Z</time>
      </trkpt>
      <trkpt lat="48.86279" lon="2.35053">
        <ele>104.9</ele>
        <time>2015-07-13T18:24:18.941Z</time>
      </trkpt>
      <trkpt lat="48.86283" lon="2.35056">
        <ele>105.1</ele>
        <time>2015-07-13T18:24:19.872Z</time>
      </trkpt>
      <trkpt lat="48.86288" lon="2.3506">
        <ele>105.2</ele>
        <time>2015-07-13T18:24:20.988Z</time>
      </trkpt>
      <trkpt lat="48.86292" lon="2.35064">
        <ele>105.5</ele>
        <time>2015-07-13T18:24:21.869Z</time>
      </trkpt>
      <trkpt lat="48.86297" lon="2.35066">
        <ele>105.6</ele>
        <time>2015-07-13T18:24:22.950Z</time>
      </trkpt>
      <trkpt lat="48.86303" lon="2.35071">
        <ele>106</ele>
        <time>2015-07-13T18:24:24.952Z</time>
      </trkpt>
      <trkpt lat="48.86306" lon="2.35072">
        <ele>106.1</ele>
        <time>2015-07-13T18:24:25.855Z</time>
      </trkpt>
      <trkpt lat="48.86312" lon="2.35076">
        <ele>106.3</ele>
        <time>2015-07-13T18:24:28.634Z</time>
      </trkpt>
      <trkpt lat="48.86318" lon="2.35085">
        <ele>105.2</ele>
        <time>2015-07-13T18:24:28.931Z</time>
      </trkpt>
      <trkpt lat="48.86321" lon="2.35093">
        <ele>104.3</ele>
        <time>2015-07-13T18:24:29.972Z</time>
      </trkpt>
      <trkpt lat="48.86323" lon="2.35101">
        <ele>103.9</ele>
        <time>2015-07-13T18:24:31.024Z</time>
      </trkpt>
      <trkpt lat="48.86324" lon="2.35108">
        <ele>103.5</ele>
        <time>2015-07-13T18:24:31.941Z</time>
      </trkpt>
      <trkpt lat="48.86326" lon="2.35116">
        <ele>103.7</ele>
        <time>2015-07-13T18:24:32.963Z</time>
      </trkpt>
      <trkpt lat="48.86327" lon="2.35129">
        <ele>103.8</ele>
        <time>2015-07-13T18:24:34.893Z</time>
      </trkpt>
      <trkpt lat="48.86327" lon="2.35135">
        <ele>104.2</ele>
        <time>2015-07-13T18:24:35.961Z</time>
      </trkpt>
      <trkpt lat="48.86326" lon="2.35149">
        <ele>105.2</ele>
        <time>2015-07-13T18:24:37.955Z</time>
      </trkpt>
      <trkpt lat="48.86325" lon="2.35156">
        <ele>105.6</ele>
        <time>2015-07-13T18:24:38.850Z</time>
      </trkpt>
      <trkpt lat="48.86324" lon="2.35163">
        <ele>105.7</ele>
        <time>2015-07-13T18:24:39.883Z</time>
      </trkpt>
      <trkpt lat="48.86322" lon="2.35171">
        <ele>106</ele>
        <time>2015-07-13T18:24:40.971Z</time>
      </trkpt>
      <trkpt lat="48.86321" lon="2.35179">
        <ele>106.2</ele>
        <time>2015-07-13T18:24:41.948Z</time>
      </trkpt>
      <trkpt lat="48.8632" lon="2.35186">
        <ele>106.3</ele>
        <time>2015-07-13T18:24:42.959Z</time>
      </trkpt>
      <trkpt lat="48.86316" lon="2.35197">
        <ele>106.4</ele>
        <time>2015-07-13T18:24:44.902Z</time>
      </trkpt>
      <trkpt lat="48.86314" lon="2.35203">
        <ele>106.6</ele>
        <time>2015-07-13T18:24:45.922Z</time>
      </trkpt>
      <trkpt lat="48.86315" lon="2.35211">
        <ele>106.3</ele>
        <time>2015-07-13T18:24:46.923Z</time>
      </trkpt>
      <trkpt lat="48.86315" lon="2.35216">
        <ele>106.1</ele>
        <time>2015-07-13T18:24:47.939Z</time>
      </trkpt>
      <trkpt lat="48.86316" lon="2.35228">
        <ele>105.8</ele>
        <time>2015-07-13T18:24:50.931Z</time>
      </trkpt>
      <trkpt lat="48.86315" lon="2.35231">
        <ele>105.9</ele>
        <time>2015-07-13T18:24:51.956Z</time>
      </trkpt>
      <trkpt lat="48.86317" lon="2.35242">
        <ele>105.8</ele>
        <time>2015-07-13T18:24:54.917Z</time>
      </trkpt>
      <trkpt lat="48.86317" lon="2.35248">
        <ele>105.6</ele>
        <time>2015-07-13T18:24:55.894Z</time>
      </trkpt>
      <trkpt lat="48.86317" lon="2.35259">
        <ele>105.5</ele>
        <time>2015-07-13T18:24:57.937Z</time>
      </trkpt>
      <trkpt lat="48.86316" lon="2.35265">
        <ele>105.6</ele>
        <time>2015-07-13T18:24:58.950Z</time>
      </trkpt>
      <trkpt lat="48.86315" lon="2.35276">
        <ele>106</ele>
        <time>2015-07-13T18:25:00.848Z</time>
      </trkpt>
      <trkpt lat="48.86314" lon="2.35282">
        <ele>105.8</ele>
        <time>2015-07-13T18:25:01.885Z</time>
      </trkpt>
      <trkpt lat="48.86313" lon="2.35294">
        <ele>105.9</ele>
        <time>2015-07-13T18:25:03.894Z</time>
      </trkpt>
      <trkpt lat="48.86313" lon="2.35301">
        <ele>106.2</ele>
        <time>2015-07-13T18:25:04.958Z</time>
      </trkpt>
      <trkpt lat="48.86313" lon="2.35314">
        <ele>106.8</ele>
        <time>2015-07-13T18:25:05.368Z</time>
      </trkpt>
      <trkpt lat="48.86311" lon="2.3532">
        <ele>107</ele>
        <time>2015-07-13T18:25:07.863Z</time>
      </trkpt>
      <trkpt lat="48.86308" lon="2.35332">
        <ele>107.1</ele>
        <time>2015-07-13T18:25:10.455Z</time>
      </trkpt>
      <trkpt lat="48.86307" lon="2.35338">
        <ele>107.5</ele>
        <time>2015-07-13T18:25:10.995Z</time>
      </trkpt>
      <trkpt lat="48.86303" lon="2.3535">
        <ele>107.7</ele>
        <time>2015-07-13T18:25:13.372Z</time>
      </trkpt>
      <trkpt lat="48.86302" lon="2.35357">
        <ele>107.9</ele>
        <time>2015-07-13T18:25:13.907Z</time>
      </trkpt>
      <trkpt lat="48.86299" lon="2.35369">
        <ele>108.3</ele>
        <time>2015-07-13T18:25:15.916Z</time>
      </trkpt>
      <trkpt lat="48.86298" lon="2.35376">
        <ele>108.5</ele>
        <time>2015-07-13T18:25:16.889Z</time>
      </trkpt>
      <trkpt lat="48.86295" lon="2.35388">
        <ele>108.9</ele>
        <time>2015-07-13T18:25:18.914Z</time>
      </trkpt>
      <trkpt lat="48.86293" lon="2.35395">
        <ele>108.9</ele>
        <time>2015-07-13T18:25:19.885Z</time>
      </trkpt>
      <trkpt lat="48.86292" lon="2.35401">
        <ele>109.1</ele>
        <time>2015-07-13T18:25:20.870Z</time>
      </trkpt>
      <trkpt lat="48.86289" lon="2.35407">
        <ele>109.5</ele>
        <time>2015-07-13T18:25:21.918Z</time>
      </trkpt>
      <trkpt lat="48.86284" lon="2.35411">
        <ele>109.8</ele>
        <time>2015-07-13T18:25:23.485Z</time>
      </trkpt>
      <trkpt lat="48.8628" lon="2.35414">
        <ele>109.7</ele>
        <time>2015-07-13T18:25:23.964Z</time>
      </trkpt>
      <trkpt lat="48.86275" lon="2.35414">
        <ele>109.4</ele>
        <time>2015-07-13T18:25:24.892Z</time>
      </trkpt>
      <trkpt lat="48.8627" lon="2.35414">
        <ele>109.5</ele>
        <time>2015-07-13T18:25:25.926Z</time>
      </trkpt>
      <trkpt lat="48.86265" lon="2.35412">
        <ele>109.4</ele>
        <time>2015-07-13T18:25:26.936Z</time>
      </trkpt>
      <trkpt lat="48.86259" lon="2.35409">
        <ele>109.2</ele>
        <time>2015-07-13T18:25:27.974Z</time>
      </trkpt>
      <trkpt lat="48.86253" lon="2.35407">
        <ele>108.8</ele>
        <time>2015-07-13T18:25:28.855Z</time>
      </trkpt>
      <trkpt lat="48.86246" lon="2.35406">
        <ele>108.2</ele>
        <time>2015-07-13T18:25:29.991Z</time>
      </trkpt>
      <trkpt lat="48.8624" lon="2.35405">
        <ele>107.8</ele>
        <time>2015-07-13T18:25:30.959Z</time>
      </trkpt>
      <trkpt lat="48.86233" lon="2.35404">
        <ele>107.4</ele>
        <time>2015-07-13T18:25:31.887Z</time>
      </trkpt>
      <trkpt lat="48.86227" lon="2.35403">
        <ele>107</ele>
        <time>2015-07-13T18:25:33.573Z</time>
      </trkpt>
      <trkpt lat="48.86221" lon="2.35402">
        <ele>106.5</ele>
        <time>2015-07-13T18:25:33.895Z</time>
      </trkpt>
      <trkpt lat="48.86214" lon="2.354">
        <ele>106.1</ele>
        <time>2015-07-13T18:25:34.901Z</time>
      </trkpt>
      <trkpt lat="48.86208" lon="2.35399">
        <ele>105.9</ele>
        <time>2015-07-13T18:25:35.930Z</time>
      </trkpt>
      <trkpt lat="48.86202" lon="2.35397">
        <ele>105.8</ele>
        <time>2015-07-13T18:25:36.941Z</time>
      </trkpt>
      <trkpt lat="48.86196" lon="2.35395">
        <ele>105.5</ele>
        <time>2015-07-13T18:25:37.949Z</time>
      </trkpt>
      <trkpt lat="48.8619" lon="2.35392">
        <ele>105.2</ele>
        <time>2015-07-13T18:25:38.958Z</time>
      </trkpt>
      <trkpt lat="48.86185" lon="2.35389">
        <ele>105.2</ele>
        <time>2015-07-13T18:25:39.882Z</time>
      </trkpt>
      <trkpt lat="48.86179" lon="2.35386">
        <ele>105.2</ele>
        <time>2015-07-13T18:25:40.925Z</time>
      </trkpt>
      <trkpt lat="48.86174" lon="2.35383">
        <ele>105</ele>
        <time>2015-07-13T18:25:41.936Z</time>
      </trkpt>
      <trkpt lat="48.86169" lon="2.35382">
        <ele>104.7</ele>
        <time>2015-07-13T18:25:42.948Z</time>
      </trkpt>
      <trkpt lat="48.86163" lon="2.35381">
        <ele>104.6</ele>
        <time>2015-07-13T18:25:43.995Z</time>
      </trkpt>
      <trkpt lat="48.86158" lon="2.35379">
        <ele>104.4</ele>
        <time>2015-07-13T18:25:44.873Z</time>
      </trkpt>
      <trkpt lat="48.86152" lon="2.35377">
        <ele>104.2</ele>
        <time>2015-07-13T18:25:45.907Z</time>
      </trkpt>
      <trkpt lat="48.86147" lon="2.35374">
        <ele>104.1</ele>
        <time>2015-07-13T18:25:46.910Z</time>
      </trkpt>
      <trkpt lat="48.86142" lon="2.35372">
        <ele>104.2</ele>
        <time>2015-07-13T18:25:47.925Z</time>
      </trkpt>
      <trkpt lat="48.86138" lon="2.35369">
        <ele>104.4</ele>
        <time>2015-07-13T18:25:48.923Z</time>
      </trkpt>
      <trkpt lat="48.86133" lon="2.35365">
        <ele>105</ele>
        <time>2015-07-13T18:25:49.931Z</time>
      </trkpt>
      <trkpt lat="48.86124" lon="2.35361">
        <ele>105.5</ele>
        <time>2015-07-13T18:25:51.962Z</time>
      </trkpt>
      <trkpt lat="48.8612" lon="2.3536">
        <ele>105.6</ele>
        <time>2015-07-13T18:25:52.914Z</time>
      </trkpt>
      <trkpt lat="48.86112" lon="2.35356">
        <ele>106.7</ele>
        <time>2015-07-13T18:25:54.888Z</time>
      </trkpt>
      <trkpt lat="48.86108" lon="2.35355">
        <ele>107.3</ele>
        <time>2015-07-13T18:25:55.920Z</time>
      </trkpt>
      <trkpt lat="48.86103" lon="2.35356">
        <ele>107.8</ele>
        <time>2015-07-13T18:25:56.954Z</time>
      </trkpt>
      <trkpt lat="48.86098" lon="2.35357">
        <ele>108.3</ele>
        <time>2015-07-13T18:25:57.965Z</time>
      </trkpt>
      <trkpt lat="48.86093" lon="2.3536">
        <ele>108.5</ele>
        <time>2015-07-13T18:25:58.882Z</time>
      </trkpt>
      <trkpt lat="48.86088" lon="2.35363">
        <ele>108.7</ele>
        <time>2015-07-13T18:25:59.964Z</time>
      </trkpt>
      <trkpt lat="48.86083" lon="2.35367">
        <ele>108.7</ele>
        <time>2015-07-13T18:26:00.879Z</time>
      </trkpt>
      <trkpt lat="48.86079" lon="2.35372">
        <ele>109</ele>
        <time>2015-07-13T18:26:01.881Z</time>
      </trkpt>
      <trkpt lat="48.86075" lon="2.35377">
        <ele>109.1</ele>
        <time>2015-07-13T18:26:02.933Z</time>
      </trkpt>
      <trkpt lat="48.8607" lon="2.35381">
        <ele>109.2</ele>
        <time>2015-07-13T18:26:03.878Z</time>
      </trkpt>
      <trkpt lat="48.86066" lon="2.35387">
        <ele>109.6</ele>
        <time>2015-07-13T18:26:04.876Z</time>
      </trkpt>
      <trkpt lat="48.86062" lon="2.35392">
        <ele>109.8</ele>
        <time>2015-07-13T18:26:05.931Z</time>
      </trkpt>
      <trkpt lat="48.86058" lon="2.35398">
        <ele>110.1</ele>
        <time>2015-07-13T18:26:06.849Z</time>
      </trkpt>
      <trkpt lat="48.86056" lon="2.35405">
        <ele>110.2</ele>
        <time>2015-07-13T18:26:07.881Z</time>
      </trkpt>
      <trkpt lat="48.86053" lon="2.35412">
        <ele>110.3</ele>
        <time>2015-07-13T18:26:08.880Z</time>
      </trkpt>
      <trkpt lat="48.86051" lon="2.35419">
        <ele>110.4</ele>
        <time>2015-07-13T18:26:09.881Z</time>
      </trkpt>
      <trkpt lat="48.86048" lon="2.35426">
        <ele>110.4</ele>
        <time>2015-07-13T18:26:10.896Z</time>
      </trkpt>
      <trkpt lat="48.86046" lon="2.35432">
        <ele>110.3</ele>
        <time>2015-07-13T18:26:11.936Z</time>
      </trkpt>
      <trkpt lat="48.86044" lon="2.3544">
        <ele>110.3</ele>
        <time>2015-07-13T18:26:12.932Z</time>
      </trkpt>
      <trkpt lat="48.86043" lon="2.35447">
        <ele>110.3</ele>
        <time>2015-07-13T18:26:13.862Z</time>
      </trkpt>
      <trkpt lat="48.86041" lon="2.35454">
        <ele>110.2</ele>
        <time>2015-07-13T18:26:14.874Z</time>
      </trkpt>
      <trkpt lat="48.86039" lon="2.35462">
        <ele>110.2</ele>
        <time>2015-07-13T18:26:15.883Z</time>
      </trkpt>
      <trkpt lat="48.86037" lon="2.35469">
        <ele>109.9</ele>
        <time>2015-07-13T18:26:16.912Z</time>
      </trkpt>
      <trkpt lat="48.86039" lon="2.35479">
        <ele>109.3</ele>
        <time>2015-07-13T18:26:17.929Z</time>
      </trkpt>
      <trkpt lat="48.86051" lon="2.35498">
        <ele>107.5</ele>
        <time>2015-07-13T18:26:18.975Z</time>
      </trkpt>
      <trkpt lat="48.86056" lon="2.35509">
        <ele>106.5</ele>
        <time>2015-07-13T18:26:19.884Z</time>
      </trkpt>
      <trkpt lat="48.86056" lon="2.35518">
        <ele>106.2</ele>
        <time>2015-07-13T18:26:20.910Z</time>
      </trkpt>
      <trkpt lat="48.86054" lon="2.35525">
        <ele>106.3</ele>
        <time>2015-07-13T18:26:21.851Z</time>
      </trkpt>
      <trkpt lat="48.86053" lon="2.35532">
        <ele>106.2</ele>
        <time>2015-07-13T18:26:22.880Z</time>
      </trkpt>
      <trkpt lat="48.8605" lon="2.35539">
        <ele>106.2</ele>
        <time>2015-07-13T18:26:23.930Z</time>
      </trkpt>
      <trkpt lat="48.86048" lon="2.35547">
        <ele>106.2</ele>
        <time>2015-07-13T18:26:24.925Z</time>
      </trkpt>
      <trkpt lat="48.86045" lon="2.35553">
        <ele>106.1</ele>
        <time>2015-07-13T18:26:25.931Z</time>
      </trkpt>
      <trkpt lat="48.86042" lon="2.3556">
        <ele>106.1</ele>
        <time>2015-07-13T18:26:26.943Z</time>
      </trkpt>
      <trkpt lat="48.86038" lon="2.35565">
        <ele>106</ele>
        <time>2015-07-13T18:26:27.950Z</time>
      </trkpt>
      <trkpt lat="48.86035" lon="2.35571">
        <ele>105.9</ele>
        <time>2015-07-13T18:26:28.851Z</time>
      </trkpt>
      <trkpt lat="48.86031" lon="2.35577">
        <ele>105.7</ele>
        <time>2015-07-13T18:26:29.961Z</time>
      </trkpt>
      <trkpt lat="48.86028" lon="2.35584">
        <ele>105.8</ele>
        <time>2015-07-13T18:26:30.957Z</time>
      </trkpt>
      <trkpt lat="48.86025" lon="2.3559">
        <ele>105.9</ele>
        <time>2015-07-13T18:26:31.864Z</time>
      </trkpt>
      <trkpt lat="48.86022" lon="2.35596">
        <ele>105.9</ele>
        <time>2015-07-13T18:26:32.868Z</time>
      </trkpt>
      <trkpt lat="48.86019" lon="2.35602">
        <ele>105.8</ele>
        <time>2015-07-13T18:26:33.883Z</time>
      </trkpt>
      <trkpt lat="48.86017" lon="2.35608">
        <ele>105.8</ele>
        <time>2015-07-13T18:26:34.887Z</time>
      </trkpt>
      <trkpt lat="48.86017" lon="2.35616">
        <ele>105.9</ele>
        <time>2015-07-13T18:26:35.915Z</time>
      </trkpt>
      <trkpt lat="48.86015" lon="2.35623">
        <ele>105.7</ele>
        <time>2015-07-13T18:26:36.912Z</time>
      </trkpt>
      <trkpt lat="48.86012" lon="2.35629">
        <ele>105.6</ele>
        <time>2015-07-13T18:26:37.938Z</time>
      </trkpt>
      <trkpt lat="48.8601" lon="2.35635">
        <ele>105.5</ele>
        <time>2015-07-13T18:26:38.951Z</time>
      </trkpt>
      <trkpt lat="48.86005" lon="2.35646">
        <ele>105.5</ele>
        <time>2015-07-13T18:26:40.894Z</time>
      </trkpt>
      <trkpt lat="48.86003" lon="2.35651">
        <ele>105.6</ele>
        <time>2015-07-13T18:26:41.918Z</time>
      </trkpt>
      <trkpt lat="48.86" lon="2.35661">
        <ele>105.5</ele>
        <time>2015-07-13T18:26:43.941Z</time>
      </trkpt>
      <trkpt lat="48.86" lon="2.35666">
        <ele>105.6</ele>
        <time>2015-07-13T18:26:44.872Z</time>
      </trkpt>
      <trkpt lat="48.86003" lon="2.35673">
        <ele>104.9</ele>
        <time>2015-07-13T18:26:45.869Z</time>
      </trkpt>
      <trkpt lat="48.86006" lon="2.35679">
        <ele>103.8</ele>
        <time>2015-07-13T18:26:46.884Z</time>
      </trkpt>
      <trkpt lat="48.86009" lon="2.3569">
        <ele>101.5</ele>
        <time>2015-07-13T18:26:50.888Z</time>
      </trkpt>
      <trkpt lat="48.86007" lon="2.35693">
        <ele>101.6</ele>
        <time>2015-07-13T18:26:51.886Z</time>
      </trkpt>
      <trkpt lat="48.86002" lon="2.357">
        <ele>101.9</ele>
        <time>2015-07-13T18:26:53.939Z</time>
      </trkpt>
      <trkpt lat="48.86" lon="2.35705">
        <ele>102.1</ele>
        <time>2015-07-13T18:26:54.912Z</time>
      </trkpt>
      <trkpt lat="48.85995" lon="2.35714">
        <ele>102</ele>
        <time>2015-07-13T18:26:56.902Z</time>
      </trkpt>
      <trkpt lat="48.85992" lon="2.35718">
        <ele>101.9</ele>
        <time>2015-07-13T18:26:57.921Z</time>
      </trkpt>
      <trkpt lat="48.85989" lon="2.35722">
        <ele>101.8</ele>
        <time>2015-07-13T18:26:58.859Z</time>
      </trkpt>
      <trkpt lat="48.85985" lon="2.35727">
        <ele>101.9</ele>
        <time>2015-07-13T18:26:59.989Z</time>
      </trkpt>
      <trkpt lat="48.8598" lon="2.3573">
        <ele>101.8</ele>
        <time>2015-07-13T18:27:00.860Z</time>
      </trkpt>
      <trkpt lat="48.85975" lon="2.35732">
        <ele>101.8</ele>
        <time>2015-07-13T18:27:01.874Z</time>
      </trkpt>
      <trkpt lat="48.85969" lon="2.35736">
        <ele>101.7</ele>
        <time>2015-07-13T18:27:02.879Z</time>
      </trkpt>
      <trkpt lat="48.85965" lon="2.3574">
        <ele>101.6</ele>
        <time>2015-07-13T18:27:03.891Z</time>
      </trkpt>
      <trkpt lat="48.8596" lon="2.35744">
        <ele>101.5</ele>
        <time>2015-07-13T18:27:04.900Z</time>
      </trkpt>
      <trkpt lat="48.85955" lon="2.35749">
        <ele>101.4</ele>
        <time>2015-07-13T18:27:05.920Z</time>
      </trkpt>
      <trkpt lat="48.85949" lon="2.35754">
        <ele>101.3</ele>
        <time>2015-07-13T18:27:06.937Z</time>
      </trkpt>
      <trkpt lat="48.85945" lon="2.35759">
        <ele>101.1</ele>
        <time>2015-07-13T18:27:07.846Z</time>
      </trkpt>
      <trkpt lat="48.8594" lon="2.35765">
        <ele>101.1</ele>
        <time>2015-07-13T18:27:08.964Z</time>
      </trkpt>
      <trkpt lat="48.85936" lon="2.3577">
        <ele>101</ele>
        <time>2015-07-13T18:27:09.848Z</time>
      </trkpt>
      <trkpt lat="48.85931" lon="2.35775">
        <ele>101</ele>
        <time>2015-07-13T18:27:10.904Z</time>
      </trkpt>
      <trkpt lat="48.85926" lon="2.3578">
        <ele>100.9</ele>
        <time>2015-07-13T18:27:11.921Z</time>
      </trkpt>
      <trkpt lat="48.85921" lon="2.35785">
        <ele>100.8</ele>
        <time>2015-07-13T18:27:12.906Z</time>
      </trkpt>
      <trkpt lat="48.85915" lon="2.3579">
        <ele>100.8</ele>
        <time>2015-07-13T18:27:13.913Z</time>
      </trkpt>
      <trkpt lat="48.8591" lon="2.35794">
        <ele>100.7</ele>
        <time>2015-07-13T18:27:14.942Z</time>
      </trkpt>
      <trkpt lat="48.85904" lon="2.35796">
        <ele>100.7</ele>
        <time>2015-07-13T18:27:15.946Z</time>
      </trkpt>
      <trkpt lat="48.859" lon="2.35801">
        <ele>100.8</ele>
        <time>2015-07-13T18:27:16.871Z</time>
      </trkpt>
      <trkpt lat="48.85896" lon="2.35807">
        <ele>100.9</ele>
        <time>2015-07-13T18:27:17.966Z</time>
      </trkpt>
      <trkpt lat="48.85892" lon="2.35814">
        <ele>101.1</ele>
        <time>2015-07-13T18:27:18.866Z</time>
      </trkpt>
      <trkpt lat="48.8589" lon="2.35821">
        <ele>101.5</ele>
        <time>2015-07-13T18:27:19.879Z</time>
      </trkpt>
      <trkpt lat="48.85886" lon="2.35832">
        <ele>102</ele>
        <time>2015-07-13T18:27:21.904Z</time>
      </trkpt>
      <trkpt lat="48.85885" lon="2.35838">
        <ele>102.1</ele>
        <time>2015-07-13T18:27:22.911Z</time>
      </trkpt>
      <trkpt lat="48.8588" lon="2.35849">
        <ele>102.3</ele>
        <time>2015-07-13T18:27:24.862Z</time>
      </trkpt>
      <trkpt lat="48.85878" lon="2.35855">
        <ele>103</ele>
        <time>2015-07-13T18:27:25.890Z</time>
      </trkpt>
      <trkpt lat="48.85872" lon="2.35864">
        <ele>103.3</ele>
        <time>2015-07-13T18:27:27.876Z</time>
      </trkpt>
      <trkpt lat="48.8587" lon="2.35868">
        <ele>103.2</ele>
        <time>2015-07-13T18:27:28.895Z</time>
      </trkpt>
      <trkpt lat="48.85873" lon="2.35878">
        <ele>101</ele>
        <time>2015-07-13T18:27:30.018Z</time>
      </trkpt>
      <trkpt lat="48.85871" lon="2.35882">
        <ele>100.3</ele>
        <time>2015-07-13T18:27:30.886Z</time>
      </trkpt>
      <trkpt lat="48.85865" lon="2.35891">
        <ele>99.7</ele>
        <time>2015-07-13T18:27:32.879Z</time>
      </trkpt>
      <trkpt lat="48.85862" lon="2.35895">
        <ele>99.5</ele>
        <time>2015-07-13T18:27:33.922Z</time>
      </trkpt>
      <trkpt lat="48.85858" lon="2.35899">
        <ele>99.4</ele>
        <time>2015-07-13T18:27:34.932Z</time>
      </trkpt>
      <trkpt lat="48.85854" lon="2.35904">
        <ele>99.2</ele>
        <time>2015-07-13T18:27:35.954Z</time>
      </trkpt>
      <trkpt lat="48.85851" lon="2.35908">
        <ele>99.1</ele>
        <time>2015-07-13T18:27:36.866Z</time>
      </trkpt>
      <trkpt lat="48.85847" lon="2.35913">
        <ele>99.1</ele>
        <time>2015-07-13T18:27:37.858Z</time>
      </trkpt>
      <trkpt lat="48.85844" lon="2.35918">
        <ele>98.8</ele>
        <time>2015-07-13T18:27:38.880Z</time>
      </trkpt>
      <trkpt lat="48.85841" lon="2.35924">
        <ele>98.8</ele>
        <time>2015-07-13T18:27:39.896Z</time>
      </trkpt>
      <trkpt lat="48.85839" lon="2.35931">
        <ele>98.6</ele>
        <time>2015-07-13T18:27:40.919Z</time>
      </trkpt>
      <trkpt lat="48.85837" lon="2.35937">
        <ele>98.4</ele>
        <time>2015-07-13T18:27:41.942Z</time>
      </trkpt>
      <trkpt lat="48.85835" lon="2.35943">
        <ele>98.2</ele>
        <time>2015-07-13T18:27:42.861Z</time>
      </trkpt>
      <trkpt lat="48.85833" lon="2.3595">
        <ele>98</ele>
        <time>2015-07-13T18:27:43.859Z</time>
      </trkpt>
      <trkpt lat="48.85832" lon="2.35957">
        <ele>97.9</ele>
        <time>2015-07-13T18:27:44.898Z</time>
      </trkpt>
      <trkpt lat="48.85829" lon="2.35962">
        <ele>97.8</ele>
        <time>2015-07-13T18:27:45.907Z</time>
      </trkpt>
      <trkpt lat="48.85824" lon="2.35973">
        <ele>97.7</ele>
        <time>2015-07-13T18:27:47.953Z</time>
      </trkpt>
      <trkpt lat="48.85821" lon="2.35978">
        <ele>97.8</ele>
        <time>2015-07-13T18:27:48.883Z</time>
      </trkpt>
      <trkpt lat="48.85814" lon="2.35986">
        <ele>97.7</ele>
        <time>2015-07-13T18:27:50.897Z</time>
      </trkpt>
      <trkpt lat="48.8581" lon="2.3599">
        <ele>97.8</ele>
        <time>2015-07-13T18:27:51.920Z</time>
      </trkpt>
      <trkpt lat="48.85806" lon="2.35994">
        <ele>98</ele>
        <time>2015-07-13T18:27:52.958Z</time>
      </trkpt>
      <trkpt lat="48.85802" lon="2.35998">
        <ele>98.6</ele>
        <time>2015-07-13T18:27:53.967Z</time>
      </trkpt>
      <trkpt lat="48.85798" lon="2.3601">
        <ele>99.9</ele>
        <time>2015-07-13T18:27:55.891Z</time>
      </trkpt>
      <trkpt lat="48.85796" lon="2.36015">
        <ele>100.2</ele>
        <time>2015-07-13T18:27:56.935Z</time>
      </trkpt>
      <trkpt lat="48.85792" lon="2.36024">
        <ele>100.2</ele>
        <time>2015-07-13T18:27:58.875Z</time>
      </trkpt>
      <trkpt lat="48.85791" lon="2.3603">
        <ele>100.2</ele>
        <time>2015-07-13T18:27:59.975Z</time>
      </trkpt>
      <trkpt lat="48.85786" lon="2.36039">
        <ele>100.4</ele>
        <time>2015-07-13T18:28:02.923Z</time>
      </trkpt>
      <trkpt lat="48.85784" lon="2.36041">
        <ele>100.3</ele>
        <time>2015-07-13T18:28:03.937Z</time>
      </trkpt>
      <trkpt lat="48.8578" lon="2.36049">
        <ele>100.4</ele>
        <time>2015-07-13T18:28:05.961Z</time>
      </trkpt>
      <trkpt lat="48.85779" lon="2.36054">
        <ele>100.1</ele>
        <time>2015-07-13T18:28:06.912Z</time>
      </trkpt>
      <trkpt lat="48.85775" lon="2.36066">
        <ele>100</ele>
        <time>2015-07-13T18:28:09.909Z</time>
      </trkpt>
      <trkpt lat="48.85773" lon="2.36069">
        <ele>100</ele>
        <time>2015-07-13T18:28:10.929Z</time>
      </trkpt>
      <trkpt lat="48.85769" lon="2.36076">
        <ele>100.2</ele>
        <time>2015-07-13T18:28:12.883Z</time>
      </trkpt>
      <trkpt lat="48.85766" lon="2.3608">
        <ele>100.3</ele>
        <time>2015-07-13T18:28:13.886Z</time>
      </trkpt>
      <trkpt lat="48.85762" lon="2.36089">
        <ele>101</ele>
        <time>2015-07-13T18:28:16.929Z</time>
      </trkpt>
      <trkpt lat="48.8576" lon="2.36092">
        <ele>101.2</ele>
        <time>2015-07-13T18:28:17.973Z</time>
      </trkpt>
      <trkpt lat="48.85756" lon="2.36101">
        <ele>101.6</ele>
        <time>2015-07-13T18:28:20.910Z</time>
      </trkpt>
      <trkpt lat="48.85755" lon="2.36104">
        <ele>101.4</ele>
        <time>2015-07-13T18:28:21.933Z</time>
      </trkpt>
      <trkpt lat="48.85749" lon="2.36115">
        <ele>101.3</ele>
        <time>2015-07-13T18:28:24.940Z</time>
      </trkpt>
      <trkpt lat="48.85748" lon="2.3612">
        <ele>101.4</ele>
        <time>2015-07-13T18:28:25.915Z</time>
      </trkpt>
      <trkpt lat="48.85743" lon="2.36131">
        <ele>101.4</ele>
        <time>2015-07-13T18:28:28.924Z</time>
      </trkpt>
      <trkpt lat="48.85741" lon="2.36133">
        <ele>101.3</ele>
        <time>2015-07-13T18:28:30.015Z</time>
      </trkpt>
      <trkpt lat="48.85738" lon="2.36144">
        <ele>100.8</ele>
        <time>2015-07-13T18:28:37.899Z</time>
      </trkpt>
      <trkpt lat="48.85737" lon="2.36147">
        <ele>100.5</ele>
        <time>2015-07-13T18:28:38.922Z</time>
      </trkpt>
      <trkpt lat="48.85732" lon="2.36156">
        <ele>99.6</ele>
        <time>2015-07-13T18:28:41.971Z</time>
      </trkpt>
      <trkpt lat="48.85734" lon="2.36162">
        <ele>99.1</ele>
        <time>2015-07-13T18:28:42.893Z</time>
      </trkpt>
      <trkpt lat="48.8573" lon="2.3617">
        <ele>98.9</ele>
        <time>2015-07-13T18:28:44.930Z</time>
      </trkpt>
      <trkpt lat="48.85729" lon="2.36174">
        <ele>99</ele>
        <time>2015-07-13T18:28:45.940Z</time>
      </trkpt>
      <trkpt lat="48.85727" lon="2.36185">
        <ele>98.9</ele>
        <time>2015-07-13T18:28:47.999Z</time>
      </trkpt>
      <trkpt lat="48.85726" lon="2.36191">
        <ele>99.1</ele>
        <time>2015-07-13T18:28:48.921Z</time>
      </trkpt>
      <trkpt lat="48.85724" lon="2.36202">
        <ele>99.5</ele>
        <time>2015-07-13T18:28:50.916Z</time>
      </trkpt>
      <trkpt lat="48.85722" lon="2.36209">
        <ele>99.7</ele>
        <time>2015-07-13T18:28:51.928Z</time>
      </trkpt>
      <trkpt lat="48.8572" lon="2.36215">
        <ele>99.7</ele>
        <time>2015-07-13T18:28:52.941Z</time>
      </trkpt>
      <trkpt lat="48.85716" lon="2.36221">
        <ele>99.6</ele>
        <time>2015-07-13T18:28:53.966Z</time>
      </trkpt>
      <trkpt lat="48.8571" lon="2.36231">
        <ele>99.6</ele>
        <time>2015-07-13T18:28:55.910Z</time>
      </trkpt>
      <trkpt lat="48.85707" lon="2.36236">
        <ele>99.8</ele>
        <time>2015-07-13T18:28:56.908Z</time>
      </trkpt>
      <trkpt lat="48.85702" lon="2.36245">
        <ele>100.1</ele>
        <time>2015-07-13T18:28:58.936Z</time>
      </trkpt>
      <trkpt lat="48.857" lon="2.3625">
        <ele>100.2</ele>
        <time>2015-07-13T18:28:59.972Z</time>
      </trkpt>
      <trkpt lat="48.85697" lon="2.36257">
        <ele>100.9</ele>
        <time>2015-07-13T18:28:59.798Z</time>
      </trkpt>
      <trkpt lat="48.85697" lon="2.36264">
        <ele>100.8</ele>
        <time>2015-07-13T18:29:01.898Z</time>
      </trkpt>
      <trkpt lat="48.85693" lon="2.36272">
        <ele>100.9</ele>
        <time>2015-07-13T18:29:03.893Z</time>
      </trkpt>
      <trkpt lat="48.85692" lon="2.36275">
        <ele>101.1</ele>
        <time>2015-07-13T18:29:04.935Z</time>
      </trkpt>
      <trkpt lat="48.8569" lon="2.36286">
        <ele>101.3</ele>
        <time>2015-07-13T18:29:06.862Z</time>
      </trkpt>
      <trkpt lat="48.85687" lon="2.36291">
        <ele>101.2</ele>
        <time>2015-07-13T18:29:07.910Z</time>
      </trkpt>
      <trkpt lat="48.85682" lon="2.363">
        <ele>101.5</ele>
        <time>2015-07-13T18:29:10.025Z</time>
      </trkpt>
      <trkpt lat="48.85679" lon="2.36305">
        <ele>101.7</ele>
        <time>2015-07-13T18:29:10.895Z</time>
      </trkpt>
      <trkpt lat="48.85675" lon="2.36311">
        <ele>101.6</ele>
        <time>2015-07-13T18:29:11.919Z</time>
      </trkpt>
      <trkpt lat="48.85673" lon="2.36316">
        <ele>101.8</ele>
        <time>2015-07-13T18:29:12.966Z</time>
      </trkpt>
      <trkpt lat="48.85671" lon="2.36321">
        <ele>102</ele>
        <time>2015-07-13T18:29:13.886Z</time>
      </trkpt>
      <trkpt lat="48.85668" lon="2.36328">
        <ele>102.3</ele>
        <time>2015-07-13T18:29:14.849Z</time>
      </trkpt>
      <trkpt lat="48.85665" lon="2.36336">
        <ele>102.1</ele>
        <time>2015-07-13T18:29:15.891Z</time>
      </trkpt>
      <trkpt lat="48.85662" lon="2.36344">
        <ele>102</ele>
        <time>2015-07-13T18:29:16.916Z</time>
      </trkpt>
      <trkpt lat="48.8566" lon="2.36352">
        <ele>101.6</ele>
        <time>2015-07-13T18:29:18.271Z</time>
      </trkpt>
      <trkpt lat="48.85659" lon="2.36361">
        <ele>101.6</ele>
        <time>2015-07-13T18:29:18.905Z</time>
      </trkpt>
      <trkpt lat="48.85659" lon="2.36369">
        <ele>101.7</ele>
        <time>2015-07-13T18:29:19.942Z</time>
      </trkpt>
      <trkpt lat="48.85658" lon="2.36378">
        <ele>101.9</ele>
        <time>2015-07-13T18:29:20.947Z</time>
      </trkpt>
      <trkpt lat="48.85657" lon="2.36385">
        <ele>102</ele>
        <time>2015-07-13T18:29:21.870Z</time>
      </trkpt>
      <trkpt lat="48.85655" lon="2.36393">
        <ele>101.9</ele>
        <time>2015-07-13T18:29:22.871Z</time>
      </trkpt>
      <trkpt lat="48.85655" lon="2.36403">
        <ele>101.3</ele>
        <time>2015-07-13T18:29:23.919Z</time>
      </trkpt>
      <trkpt lat="48.85659" lon="2.36416">
        <ele>100.4</ele>
        <time>2015-07-13T18:29:24.917Z</time>
      </trkpt>
      <trkpt lat="48.85656" lon="2.36426">
        <ele>100.5</ele>
        <time>2015-07-13T18:29:25.924Z</time>
      </trkpt>
      <trkpt lat="48.85654" lon="2.36432">
        <ele>100.6</ele>
        <time>2015-07-13T18:29:26.926Z</time>
      </trkpt>
      <trkpt lat="48.85652" lon="2.36438">
        <ele>100.7</ele>
        <time>2015-07-13T18:29:27.942Z</time>
      </trkpt>
      <trkpt lat="48.85648" lon="2.36443">
        <ele>100.6</ele>
        <time>2015-07-13T18:29:28.956Z</time>
      </trkpt>
      <trkpt lat="48.85644" lon="2.36448">
        <ele>100.7</ele>
        <time>2015-07-13T18:29:29.968Z</time>
      </trkpt>
      <trkpt lat="48.8564" lon="2.36454">
        <ele>100.8</ele>
        <time>2015-07-13T18:29:30.876Z</time>
      </trkpt>
      <trkpt lat="48.85638" lon="2.3646">
        <ele>101</ele>
        <time>2015-07-13T18:29:31.893Z</time>
      </trkpt>
      <trkpt lat="48.85636" lon="2.36466">
        <ele>101.1</ele>
        <time>2015-07-13T18:29:32.918Z</time>
      </trkpt>
      <trkpt lat="48.85634" lon="2.36473">
        <ele>101</ele>
        <time>2015-07-13T18:29:33.955Z</time>
      </trkpt>
      <trkpt lat="48.85632" lon="2.3648">
        <ele>101.1</ele>
        <time>2015-07-13T18:29:34.865Z</time>
      </trkpt>
      <trkpt lat="48.85632" lon="2.36488">
        <ele>100.9</ele>
        <time>2015-07-13T18:29:35.876Z</time>
      </trkpt>
      <trkpt lat="48.85631" lon="2.36497">
        <ele>100.8</ele>
        <time>2015-07-13T18:29:36.865Z</time>
      </trkpt>
      <trkpt lat="48.85628" lon="2.36504">
        <ele>100.7</ele>
        <time>2015-07-13T18:29:37.871Z</time>
      </trkpt>
      <trkpt lat="48.85627" lon="2.36513">
        <ele>100.7</ele>
        <time>2015-07-13T18:29:38.878Z</time>
      </trkpt>
      <trkpt lat="48.85626" lon="2.36521">
        <ele>100.6</ele>
        <time>2015-07-13T18:29:39.891Z</time>
      </trkpt>
      <trkpt lat="48.85624" lon="2.36529">
        <ele>100.4</ele>
        <time>2015-07-13T18:29:40.908Z</time>
      </trkpt>
      <trkpt lat="48.85623" lon="2.36536">
        <ele>99.9</ele>
        <time>2015-07-13T18:29:42.029Z</time>
      </trkpt>
      <trkpt lat="48.85622" lon="2.36544">
        <ele>100</ele>
        <time>2015-07-13T18:29:42.921Z</time>
      </trkpt>
      <trkpt lat="48.8562" lon="2.36553">
        <ele>99.9</ele>
        <time>2015-07-13T18:29:43.935Z</time>
      </trkpt>
      <trkpt lat="48.85619" lon="2.36561">
        <ele>100</ele>
        <time>2015-07-13T18:29:44.948Z</time>
      </trkpt>
      <trkpt lat="48.85618" lon="2.36569">
        <ele>100</ele>
        <time>2015-07-13T18:29:45.970Z</time>
      </trkpt>
      <trkpt lat="48.85617" lon="2.36577">
        <ele>100</ele>
        <time>2015-07-13T18:29:46.836Z</time>
      </trkpt>
      <trkpt lat="48.85616" lon="2.36586">
        <ele>99.9</ele>
        <time>2015-07-13T18:29:47.910Z</time>
      </trkpt>
      <trkpt lat="48.85615" lon="2.36594">
        <ele>99.9</ele>
        <time>2015-07-13T18:29:48.910Z</time>
      </trkpt>
      <trkpt lat="48.85614" lon="2.36603">
        <ele>100</ele>
        <time>2015-07-13T18:29:49.931Z</time>
      </trkpt>
      <trkpt lat="48.85612" lon="2.3661">
        <ele>99.8</ele>
        <time>2015-07-13T18:29:50.936Z</time>
      </trkpt>
      <trkpt lat="48.85611" lon="2.36618">
        <ele>99.5</ele>
        <time>2015-07-13T18:29:51.834Z</time>
      </trkpt>
      <trkpt lat="48.85609" lon="2.36626">
        <ele>99.4</ele>
        <time>2015-07-13T18:29:52.867Z</time>
      </trkpt>
      <trkpt lat="48.85608" lon="2.36634">
        <ele>99.2</ele>
        <time>2015-07-13T18:29:53.912Z</time>
      </trkpt>
      <trkpt lat="48.85608" lon="2.36642">
        <ele>99</ele>
        <time>2015-07-13T18:29:54.922Z</time>
      </trkpt>
      <trkpt lat="48.85606" lon="2.36649">
        <ele>98.9</ele>
        <time>2015-07-13T18:29:55.931Z</time>
      </trkpt>
      <trkpt lat="48.85606" lon="2.36656">
        <ele>98.9</ele>
        <time>2015-07-13T18:29:56.950Z</time>
      </trkpt>
      <trkpt lat="48.85605" lon="2.36664">
        <ele>98.8</ele>
        <time>2015-07-13T18:29:57.881Z</time>
      </trkpt>
      <trkpt lat="48.85605" lon="2.36671">
        <ele>98.7</ele>
        <time>2015-07-13T18:29:58.866Z</time>
      </trkpt>
      <trkpt lat="48.85604" lon="2.36679">
        <ele>98.8</ele>
        <time>2015-07-13T18:29:59.932Z</time>
      </trkpt>
      <trkpt lat="48.85603" lon="2.36685">
        <ele>98.7</ele>
        <time>2015-07-13T18:30:00.950Z</time>
      </trkpt>
      <trkpt lat="48.85601" lon="2.36697">
        <ele>98.7</ele>
        <time>2015-07-13T18:30:02.879Z</time>
      </trkpt>
      <trkpt lat="48.856" lon="2.36703">
        <ele>98.6</ele>
        <time>2015-07-13T18:30:03.882Z</time>
      </trkpt>
      <trkpt lat="48.85599" lon="2.36715">
        <ele>97.8</ele>
        <time>2015-07-13T18:30:05.921Z</time>
      </trkpt>
      <trkpt lat="48.85598" lon="2.3672">
        <ele>97.8</ele>
        <time>2015-07-13T18:30:06.926Z</time>
      </trkpt>
      <trkpt lat="48.85596" lon="2.3673">
        <ele>98.1</ele>
        <time>2015-07-13T18:30:08.875Z</time>
      </trkpt>
      <trkpt lat="48.85596" lon="2.36735">
        <ele>98.1</ele>
        <time>2015-07-13T18:30:09.883Z</time>
      </trkpt>
      <trkpt lat="48.85594" lon="2.36747">
        <ele>98.2</ele>
        <time>2015-07-13T18:30:11.900Z</time>
      </trkpt>
      <trkpt lat="48.85593" lon="2.36753">
        <ele>98.3</ele>
        <time>2015-07-13T18:30:12.906Z</time>
      </trkpt>
      <trkpt lat="48.8559" lon="2.36765">
        <ele>98.5</ele>
        <time>2015-07-13T18:30:14.920Z</time>
      </trkpt>
      <trkpt lat="48.85588" lon="2.3677">
        <ele>98.4</ele>
        <time>2015-07-13T18:30:15.932Z</time>
      </trkpt>
      <trkpt lat="48.85584" lon="2.3678">
        <ele>98.4</ele>
        <time>2015-07-13T18:30:17.864Z</time>
      </trkpt>
      <trkpt lat="48.85583" lon="2.36786">
        <ele>98.6</ele>
        <time>2015-07-13T18:30:18.866Z</time>
      </trkpt>
      <trkpt lat="48.85581" lon="2.36797">
        <ele>98.8</ele>
        <time>2015-07-13T18:30:20.905Z</time>
      </trkpt>
      <trkpt lat="48.85578" lon="2.36802">
        <ele>98.7</ele>
        <time>2015-07-13T18:30:21.914Z</time>
      </trkpt>
      <trkpt lat="48.8558" lon="2.3681">
        <ele>98</ele>
        <time>2015-07-13T18:30:22.924Z</time>
      </trkpt>
      <trkpt lat="48.85583" lon="2.36817">
        <ele>96.8</ele>
        <time>2015-07-13T18:30:23.936Z</time>
      </trkpt>
      <trkpt lat="48.85587" lon="2.36825">
        <ele>96.5</ele>
        <time>2015-07-13T18:30:25.853Z</time>
      </trkpt>
      <trkpt lat="48.85589" lon="2.36828">
        <ele>96.3</ele>
        <time>2015-07-13T18:30:26.877Z</time>
      </trkpt>
      <trkpt lat="48.85591" lon="2.36841">
        <ele>97.2</ele>
        <time>2015-07-13T18:30:36.910Z</time>
      </trkpt>
      <trkpt lat="48.85594" lon="2.3684">
        <ele>97.4</ele>
        <time>2015-07-13T18:30:37.909Z</time>
      </trkpt>
      <trkpt lat="48.85603" lon="2.36838">
        <ele>98.3</ele>
        <time>2015-07-13T18:30:40.945Z</time>
      </trkpt>
      <trkpt lat="48.85607" lon="2.36838">
        <ele>98.6</ele>
        <time>2015-07-13T18:30:41.992Z</time>
      </trkpt>
      <trkpt lat="48.85614" lon="2.36836">
        <ele>98.9</ele>
        <time>2015-07-13T18:30:43.896Z</time>
      </trkpt>
      <trkpt lat="48.85618" lon="2.36836">
        <ele>99.2</ele>
        <time>2015-07-13T18:30:44.966Z</time>
      </trkpt>
      <trkpt lat="48.85626" lon="2.36834">
        <ele>99.9</ele>
        <time>2015-07-13T18:30:46.879Z</time>
      </trkpt>
      <trkpt lat="48.8563" lon="2.36833">
        <ele>100.1</ele>
        <time>2015-07-13T18:30:47.951Z</time>
      </trkpt>
      <trkpt lat="48.85635" lon="2.36831">
        <ele>100.4</ele>
        <time>2015-07-13T18:30:48.892Z</time>
      </trkpt>
      <trkpt lat="48.8564" lon="2.3683">
        <ele>100.6</ele>
        <time>2015-07-13T18:30:49.902Z</time>
      </trkpt>
      <trkpt lat="48.85644" lon="2.36829">
        <ele>100.8</ele>
        <time>2015-07-13T18:30:50.913Z</time>
      </trkpt>
      <trkpt lat="48.85649" lon="2.36827">
        <ele>101.1</ele>
        <time>2015-07-13T18:30:51.926Z</time>
      </trkpt>
      <trkpt lat="48.85654" lon="2.36824">
        <ele>101.7</ele>
        <time>2015-07-13T18:30:52.940Z</time>
      </trkpt>
      <trkpt lat="48.85658" lon="2.36821">
        <ele>102.3</ele>
        <time>2015-07-13T18:30:53.944Z</time>
      </trkpt>
      <trkpt lat="48.85663" lon="2.3682">
        <ele>103.1</ele>
        <time>2015-07-13T18:30:54.957Z</time>
      </trkpt>
      <trkpt lat="48.85668" lon="2.36818">
        <ele>103.5</ele>
        <time>2015-07-13T18:30:55.954Z</time>
      </trkpt>
      <trkpt lat="48.85672" lon="2.36817">
        <ele>103.7</ele>
        <time>2015-07-13T18:30:56.879Z</time>
      </trkpt>
      <trkpt lat="48.85677" lon="2.36816">
        <ele>103.8</ele>
        <time>2015-07-13T18:30:57.884Z</time>
      </trkpt>
      <trkpt lat="48.85682" lon="2.36816">
        <ele>103.9</ele>
        <time>2015-07-13T18:30:58.928Z</time>
      </trkpt>
      <trkpt lat="48.85687" lon="2.36817">
        <ele>103.8</ele>
        <time>2015-07-13T18:30:59.977Z</time>
      </trkpt>
      <trkpt lat="48.85693" lon="2.36825">
        <ele>103.8</ele>
        <time>2015-07-13T18:31:01.874Z</time>
      </trkpt>
      <trkpt lat="48.85696" lon="2.36833">
        <ele>103.5</ele>
        <time>2015-07-13T18:31:02.884Z</time>
      </trkpt>
      <trkpt lat="48.85699" lon="2.36841">
        <ele>103.6</ele>
        <time>2015-07-13T18:31:03.895Z</time>
      </trkpt>
      <trkpt lat="48.85702" lon="2.36848">
        <ele>103.8</ele>
        <time>2015-07-13T18:31:04.941Z</time>
      </trkpt>
      <trkpt lat="48.85704" lon="2.36855">
        <ele>103.8</ele>
        <time>2015-07-13T18:31:05.976Z</time>
      </trkpt>
      <trkpt lat="48.85706" lon="2.36861">
        <ele>103.8</ele>
        <time>2015-07-13T18:31:06.880Z</time>
      </trkpt>
      <trkpt lat="48.85709" lon="2.36871">
        <ele>103.7</ele>
        <time>2015-07-13T18:31:08.903Z</time>
      </trkpt>
      <trkpt lat="48.85711" lon="2.36876">
        <ele>103.7</ele>
        <time>2015-07-13T18:31:09.915Z</time>
      </trkpt>
      <trkpt lat="48.85714" lon="2.36885">
        <ele>103.4</ele>
        <time>2015-07-13T18:31:11.969Z</time>
      </trkpt>
      <trkpt lat="48.85716" lon="2.36891">
        <ele>103.2</ele>
        <time>2015-07-13T18:31:12.906Z</time>
      </trkpt>
      <trkpt lat="48.85717" lon="2.36897">
        <ele>103.2</ele>
        <time>2015-07-13T18:31:13.877Z</time>
      </trkpt>
      <trkpt lat="48.85719" lon="2.36903">
        <ele>103</ele>
        <time>2015-07-13T18:31:14.891Z</time>
      </trkpt>
      <trkpt lat="48.85721" lon="2.3691">
        <ele>102.9</ele>
        <time>2015-07-13T18:31:15.908Z</time>
      </trkpt>
      <trkpt lat="48.85724" lon="2.36916">
        <ele>102.7</ele>
        <time>2015-07-13T18:31:16.918Z</time>
      </trkpt>
      <trkpt lat="48.85726" lon="2.36922">
        <ele>102.6</ele>
        <time>2015-07-13T18:31:17.949Z</time>
      </trkpt>
      <trkpt lat="48.85729" lon="2.3693">
        <ele>102.6</ele>
        <time>2015-07-13T18:31:18.913Z</time>
      </trkpt>
      <trkpt lat="48.85732" lon="2.36938">
        <ele>102.4</ele>
        <time>2015-07-13T18:31:19.898Z</time>
      </trkpt>
      <trkpt lat="48.85735" lon="2.36945">
        <ele>102.4</ele>
        <time>2015-07-13T18:31:20.905Z</time>
      </trkpt>
      <trkpt lat="48.85737" lon="2.36953">
        <ele>102.2</ele>
        <time>2015-07-13T18:31:21.961Z</time>
      </trkpt>
      <trkpt lat="48.8574" lon="2.36961">
        <ele>102.2</ele>
        <time>2015-07-13T18:31:22.895Z</time>
      </trkpt>
      <trkpt lat="48.85742" lon="2.36968">
        <ele>102.4</ele>
        <time>2015-07-13T18:31:23.920Z</time>
      </trkpt>
      <trkpt lat="48.85744" lon="2.36975">
        <ele>102.7</ele>
        <time>2015-07-13T18:31:24.950Z</time>
      </trkpt>
      <trkpt lat="48.85747" lon="2.36983">
        <ele>103.5</ele>
        <time>2015-07-13T18:31:25.984Z</time>
      </trkpt>
      <trkpt lat="48.8575" lon="2.36991">
        <ele>103.2</ele>
        <time>2015-07-13T18:31:26.877Z</time>
      </trkpt>
      <trkpt lat="48.85752" lon="2.36999">
        <ele>103</ele>
        <time>2015-07-13T18:31:27.879Z</time>
      </trkpt>
      <trkpt lat="48.85755" lon="2.37007">
        <ele>102.9</ele>
        <time>2015-07-13T18:31:28.892Z</time>
      </trkpt>
      <trkpt lat="48.85759" lon="2.37014">
        <ele>103</ele>
        <time>2015-07-13T18:31:29.953Z</time>
      </trkpt>
      <trkpt lat="48.85762" lon="2.37022">
        <ele>103.3</ele>
        <time>2015-07-13T18:31:30.947Z</time>
      </trkpt>
      <trkpt lat="48.85764" lon="2.3703">
        <ele>103.5</ele>
        <time>2015-07-13T18:31:31.955Z</time>
      </trkpt>
      <trkpt lat="48.85767" lon="2.37037">
        <ele>103.7</ele>
        <time>2015-07-13T18:31:32.839Z</time>
      </trkpt>
      <trkpt lat="48.85769" lon="2.37044">
        <ele>103.8</ele>
        <time>2015-07-13T18:31:33.870Z</time>
      </trkpt>
      <trkpt lat="48.85771" lon="2.3705">
        <ele>103.8</ele>
        <time>2015-07-13T18:31:34.884Z</time>
      </trkpt>
      <trkpt lat="48.85776" lon="2.37062">
        <ele>104.1</ele>
        <time>2015-07-13T18:31:36.948Z</time>
      </trkpt>
      <trkpt lat="48.85777" lon="2.37067">
        <ele>103.9</ele>
        <time>2015-07-13T18:31:37.904Z</time>
      </trkpt>
      <trkpt lat="48.85781" lon="2.37079">
        <ele>103.8</ele>
        <time>2015-07-13T18:31:41.925Z</time>
      </trkpt>
      <trkpt lat="48.85781" lon="2.3708">
        <ele>103.6</ele>
        <time>2015-07-13T18:31:42.963Z</time>
      </trkpt>
      <trkpt lat="48.85784" lon="2.3709">
        <ele>97.9</ele>
        <time>2015-07-13T18:32:02.984Z</time>
      </trkpt>
      <trkpt lat="48.85785" lon="2.37094">
        <ele>97.7</ele>
        <time>2015-07-13T18:32:03.836Z</time>
      </trkpt>
      <trkpt lat="48.85788" lon="2.37102">
        <ele>97.7</ele>
        <time>2015-07-13T18:32:05.890Z</time>
      </trkpt>
      <trkpt lat="48.85789" lon="2.37107">
        <ele>97.8</ele>
        <time>2015-07-13T18:32:06.904Z</time>
      </trkpt>
      <trkpt lat="48.85791" lon="2.37116">
        <ele>97.8</ele>
        <time>2015-07-13T18:32:08.983Z</time>
      </trkpt>
      <trkpt lat="48.85792" lon="2.37121">
        <ele>97.7</ele>
        <time>2015-07-13T18:32:09.864Z</time>
      </trkpt>
      <trkpt lat="48.85793" lon="2.37128">
        <ele>97.8</ele>
        <time>2015-07-13T18:32:10.886Z</time>
      </trkpt>
      <trkpt lat="48.85793" lon="2.37135">
        <ele>97.8</ele>
        <time>2015-07-13T18:32:11.911Z</time>
      </trkpt>
      <trkpt lat="48.85795" lon="2.37148">
        <ele>97.9</ele>
        <time>2015-07-13T18:32:13.936Z</time>
      </trkpt>
      <trkpt lat="48.85796" lon="2.37154">
        <ele>97.9</ele>
        <time>2015-07-13T18:32:14.896Z</time>
      </trkpt>
      <trkpt lat="48.85798" lon="2.37166">
        <ele>97.8</ele>
        <time>2015-07-13T18:32:16.889Z</time>
      </trkpt>
      <trkpt lat="48.858" lon="2.37171">
        <ele>97.7</ele>
        <time>2015-07-13T18:32:17.902Z</time>
      </trkpt>
      <trkpt lat="48.85803" lon="2.37177">
        <ele>97.6</ele>
        <time>2015-07-13T18:32:18.916Z</time>
      </trkpt>
      <trkpt lat="48.85806" lon="2.37183">
        <ele>97.5</ele>
        <time>2015-07-13T18:32:19.935Z</time>
      </trkpt>
      <trkpt lat="48.8581" lon="2.37189">
        <ele>97.5</ele>
        <time>2015-07-13T18:32:20.864Z</time>
      </trkpt>
      <trkpt lat="48.85814" lon="2.37195">
        <ele>97.5</ele>
        <time>2015-07-13T18:32:21.891Z</time>
      </trkpt>
      <trkpt lat="48.85817" lon="2.37203">
        <ele>97.6</ele>
        <time>2015-07-13T18:32:22.903Z</time>
      </trkpt>
      <trkpt lat="48.8582" lon="2.37211">
        <ele>97.6</ele>
        <time>2015-07-13T18:32:23.933Z</time>
      </trkpt>
      <trkpt lat="48.85825" lon="2.3722">
        <ele>97.6</ele>
        <time>2015-07-13T18:32:24.843Z</time>
      </trkpt>
      <trkpt lat="48.85828" lon="2.37228">
        <ele>97.7</ele>
        <time>2015-07-13T18:32:25.878Z</time>
      </trkpt>
      <trkpt lat="48.85832" lon="2.37238">
        <ele>97.7</ele>
        <time>2015-07-13T18:32:25.525Z</time>
      </trkpt>
      <trkpt lat="48.85836" lon="2.37247">
        <ele>97.8</ele>
        <time>2015-07-13T18:32:27.898Z</time>
      </trkpt>
      <trkpt lat="48.85839" lon="2.37256">
        <ele>97.9</ele>
        <time>2015-07-13T18:32:28.909Z</time>
      </trkpt>
      <trkpt lat="48.85843" lon="2.37265">
        <ele>97.9</ele>
        <time>2015-07-13T18:32:29.960Z</time>
      </trkpt>
      <trkpt lat="48.85846" lon="2.37275">
        <ele>98</ele>
        <time>2015-07-13T18:32:30.876Z</time>
      </trkpt>
      <trkpt lat="48.8585" lon="2.37283">
        <ele>98</ele>
        <time>2015-07-13T18:32:31.867Z</time>
      </trkpt>
      <trkpt lat="48.85853" lon="2.37291">
        <ele>98</ele>
        <time>2015-07-13T18:32:32.875Z</time>
      </trkpt>
      <trkpt lat="48.85857" lon="2.373">
        <ele>98</ele>
        <time>2015-07-13T18:32:33.916Z</time>
      </trkpt>
      <trkpt lat="48.8586" lon="2.37309">
        <ele>98</ele>
        <time>2015-07-13T18:32:34.938Z</time>
      </trkpt>
      <trkpt lat="48.85862" lon="2.37318">
        <ele>97.9</ele>
        <time>2015-07-13T18:32:35.953Z</time>
      </trkpt>
      <trkpt lat="48.85866" lon="2.37327">
        <ele>98</ele>
        <time>2015-07-13T18:32:36.870Z</time>
      </trkpt>
      <trkpt lat="48.85869" lon="2.37336">
        <ele>98.1</ele>
        <time>2015-07-13T18:32:37.863Z</time>
      </trkpt>
      <trkpt lat="48.85875" lon="2.37344">
        <ele>98.3</ele>
        <time>2015-07-13T18:32:38.906Z</time>
      </trkpt>
      <trkpt lat="48.85878" lon="2.37353">
        <ele>98.3</ele>
        <time>2015-07-13T18:32:39.924Z</time>
      </trkpt>
      <trkpt lat="48.8588" lon="2.37362">
        <ele>98.2</ele>
        <time>2015-07-13T18:32:40.931Z</time>
      </trkpt>
      <trkpt lat="48.85882" lon="2.37371">
        <ele>98.1</ele>
        <time>2015-07-13T18:32:41.946Z</time>
      </trkpt>
      <trkpt lat="48.85885" lon="2.3738">
        <ele>98.1</ele>
        <time>2015-07-13T18:32:42.850Z</time>
      </trkpt>
      <trkpt lat="48.85888" lon="2.37388">
        <ele>98.2</ele>
        <time>2015-07-13T18:32:43.863Z</time>
      </trkpt>
      <trkpt lat="48.8589" lon="2.37397">
        <ele>98.2</ele>
        <time>2015-07-13T18:32:44.875Z</time>
      </trkpt>
      <trkpt lat="48.85893" lon="2.37404">
        <ele>98.2</ele>
        <time>2015-07-13T18:32:45.886Z</time>
      </trkpt>
      <trkpt lat="48.85896" lon="2.37411">
        <ele>98.2</ele>
        <time>2015-07-13T18:32:46.895Z</time>
      </trkpt>
      <trkpt lat="48.85898" lon="2.37418">
        <ele>98.2</ele>
        <time>2015-07-13T18:32:47.912Z</time>
      </trkpt>
      <trkpt lat="48.859" lon="2.37425">
        <ele>97.9</ele>
        <time>2015-07-13T18:32:48.918Z</time>
      </trkpt>
      <trkpt lat="48.85903" lon="2.37433">
        <ele>97.8</ele>
        <time>2015-07-13T18:32:49.927Z</time>
      </trkpt>
      <trkpt lat="48.85905" lon="2.3744">
        <ele>97.9</ele>
        <time>2015-07-13T18:32:50.936Z</time>
      </trkpt>
      <trkpt lat="48.85909" lon="2.37448">
        <ele>97.9</ele>
        <time>2015-07-13T18:32:51.942Z</time>
      </trkpt>
      <trkpt lat="48.85911" lon="2.37457">
        <ele>98.1</ele>
        <time>2015-07-13T18:32:52.953Z</time>
      </trkpt>
      <trkpt lat="48.85914" lon="2.37464">
        <ele>98.1</ele>
        <time>2015-07-13T18:32:53.964Z</time>
      </trkpt>
      <trkpt lat="48.85916" lon="2.37473">
        <ele>98.1</ele>
        <time>2015-07-13T18:32:54.866Z</time>
      </trkpt>
      <trkpt lat="48.85919" lon="2.37481">
        <ele>98.1</ele>
        <time>2015-07-13T18:32:55.913Z</time>
      </trkpt>
      <trkpt lat="48.85921" lon="2.37489">
        <ele>98.1</ele>
        <time>2015-07-13T18:32:56.889Z</time>
      </trkpt>
      <trkpt lat="48.85925" lon="2.37496">
        <ele>97.6</ele>
        <time>2015-07-13T18:32:57.892Z</time>
      </trkpt>
      <trkpt lat="48.85925" lon="2.37505">
        <ele>97.5</ele>
        <time>2015-07-13T18:32:58.899Z</time>
      </trkpt>
      <trkpt lat="48.85928" lon="2.37512">
        <ele>97.6</ele>
        <time>2015-07-13T18:32:59.953Z</time>
      </trkpt>
      <trkpt lat="48.8593" lon="2.3752">
        <ele>97.7</ele>
        <time>2015-07-13T18:33:00.874Z</time>
      </trkpt>
      <trkpt lat="48.85932" lon="2.37528">
        <ele>97.8</ele>
        <time>2015-07-13T18:33:01.866Z</time>
      </trkpt>
      <trkpt lat="48.85934" lon="2.37536">
        <ele>97.9</ele>
        <time>2015-07-13T18:33:02.910Z</time>
      </trkpt>
      <trkpt lat="48.85936" lon="2.37544">
        <ele>98</ele>
        <time>2015-07-13T18:33:03.914Z</time>
      </trkpt>
      <trkpt lat="48.85938" lon="2.37551">
        <ele>98</ele>
        <time>2015-07-13T18:33:04.926Z</time>
      </trkpt>
      <trkpt lat="48.8594" lon="2.37558">
        <ele>98</ele>
        <time>2015-07-13T18:33:05.945Z</time>
      </trkpt>
      <trkpt lat="48.85942" lon="2.37565">
        <ele>98.2</ele>
        <time>2015-07-13T18:33:06.934Z</time>
      </trkpt>
      <trkpt lat="48.85945" lon="2.37572">
        <ele>98.2</ele>
        <time>2015-07-13T18:33:07.859Z</time>
      </trkpt>
      <trkpt lat="48.85947" lon="2.37578">
        <ele>98.1</ele>
        <time>2015-07-13T18:33:08.871Z</time>
      </trkpt>
      <trkpt lat="48.8595" lon="2.37585">
        <ele>98.4</ele>
        <time>2015-07-13T18:33:09.876Z</time>
      </trkpt>
      <trkpt lat="48.85952" lon="2.37592">
        <ele>98.3</ele>
        <time>2015-07-13T18:33:10.887Z</time>
      </trkpt>
      <trkpt lat="48.85954" lon="2.37599">
        <ele>98.4</ele>
        <time>2015-07-13T18:33:11.906Z</time>
      </trkpt>
      <trkpt lat="48.85956" lon="2.37606">
        <ele>98.4</ele>
        <time>2015-07-13T18:33:12.921Z</time>
      </trkpt>
      <trkpt lat="48.85959" lon="2.37613">
        <ele>98.7</ele>
        <time>2015-07-13T18:33:13.935Z</time>
      </trkpt>
      <trkpt lat="48.85961" lon="2.3762">
        <ele>99.2</ele>
        <time>2015-07-13T18:33:14.948Z</time>
      </trkpt>
      <trkpt lat="48.85964" lon="2.37626">
        <ele>99.5</ele>
        <time>2015-07-13T18:33:15.960Z</time>
      </trkpt>
      <trkpt lat="48.85966" lon="2.37633">
        <ele>99.5</ele>
        <time>2015-07-13T18:33:16.886Z</time>
      </trkpt>
      <trkpt lat="48.85968" lon="2.3764">
        <ele>99.6</ele>
        <time>2015-07-13T18:33:17.922Z</time>
      </trkpt>
      <trkpt lat="48.85969" lon="2.37653">
        <ele>99.7</ele>
        <time>2015-07-13T18:33:19.932Z</time>
      </trkpt>
      <trkpt lat="48.8597" lon="2.37659">
        <ele>99.8</ele>
        <time>2015-07-13T18:33:20.963Z</time>
      </trkpt>
      <trkpt lat="48.85973" lon="2.37669">
        <ele>99.8</ele>
        <time>2015-07-13T18:33:22.877Z</time>
      </trkpt>
      <trkpt lat="48.85974" lon="2.37672">
        <ele>99.8</ele>
        <time>2015-07-13T18:33:23.953Z</time>
      </trkpt>
      <trkpt lat="48.8598" lon="2.37674">
        <ele>101.1</ele>
        <time>2015-07-13T18:33:29.975Z</time>
      </trkpt>
      <trkpt lat="48.8598" lon="2.37674">
        <ele>101.3</ele>
        <time>2015-07-13T18:33:30.909Z</time>
      </trkpt>
      <trkpt lat="48.8598" lon="2.37674">
        <ele>101.3</ele>
        <time>2015-07-13T18:33:31.941Z</time>
      </trkpt>
      <trkpt lat="48.85981" lon="2.37675">
        <ele>101.5</ele>
        <time>2015-07-13T18:33:32.954Z</time>
      </trkpt>
      <trkpt lat="48.85985" lon="2.37684">
        <ele>100.9</ele>
        <time>2015-07-13T18:33:35.946Z</time>
      </trkpt>
      <trkpt lat="48.85986" lon="2.37689">
        <ele>101.1</ele>
        <time>2015-07-13T18:33:36.846Z</time>
      </trkpt>
      <trkpt lat="48.85989" lon="2.377">
        <ele>100.9</ele>
        <time>2015-07-13T18:33:38.890Z</time>
      </trkpt>
      <trkpt lat="48.8599" lon="2.37704">
        <ele>100.8</ele>
        <time>2015-07-13T18:33:39.902Z</time>
      </trkpt>
      <trkpt lat="48.85993" lon="2.37716">
        <ele>100.3</ele>
        <time>2015-07-13T18:33:41.959Z</time>
      </trkpt>
      <trkpt lat="48.85995" lon="2.37723">
        <ele>100.3</ele>
        <time>2015-07-13T18:33:42.878Z</time>
      </trkpt>
      <trkpt lat="48.85996" lon="2.3773">
        <ele>100.3</ele>
        <time>2015-07-13T18:33:43.923Z</time>
      </trkpt>
      <trkpt lat="48.85998" lon="2.37736">
        <ele>100.3</ele>
        <time>2015-07-13T18:33:44.930Z</time>
      </trkpt>
      <trkpt lat="48.86" lon="2.37744">
        <ele>100.2</ele>
        <time>2015-07-13T18:33:45.940Z</time>
      </trkpt>
      <trkpt lat="48.86001" lon="2.37751">
        <ele>100.2</ele>
        <time>2015-07-13T18:33:46.957Z</time>
      </trkpt>
      <trkpt lat="48.86005" lon="2.37757">
        <ele>100.6</ele>
        <time>2015-07-13T18:33:47.973Z</time>
      </trkpt>
      <trkpt lat="48.86009" lon="2.37765">
        <ele>100.8</ele>
        <time>2015-07-13T18:33:48.875Z</time>
      </trkpt>
      <trkpt lat="48.86015" lon="2.37771">
        <ele>101.4</ele>
        <time>2015-07-13T18:33:49.878Z</time>
      </trkpt>
      <trkpt lat="48.86018" lon="2.37779">
        <ele>101.4</ele>
        <time>2015-07-13T18:33:50.891Z</time>
      </trkpt>
      <trkpt lat="48.86021" lon="2.37787">
        <ele>101.5</ele>
        <time>2015-07-13T18:33:51.907Z</time>
      </trkpt>
      <trkpt lat="48.86024" lon="2.37795">
        <ele>101.5</ele>
        <time>2015-07-13T18:33:52.920Z</time>
      </trkpt>
      <trkpt lat="48.86027" lon="2.37802">
        <ele>101.3</ele>
        <time>2015-07-13T18:33:53.930Z</time>
      </trkpt>
      <trkpt lat="48.8603" lon="2.3781">
        <ele>101.4</ele>
        <time>2015-07-13T18:33:54.936Z</time>
      </trkpt>
      <trkpt lat="48.86031" lon="2.37817">
        <ele>101.2</ele>
        <time>2015-07-13T18:33:55.951Z</time>
      </trkpt>
      <trkpt lat="48.86033" lon="2.37824">
        <ele>101.2</ele>
        <time>2015-07-13T18:33:56.957Z</time>
      </trkpt>
      <trkpt lat="48.86035" lon="2.37837">
        <ele>101</ele>
        <time>2015-07-13T18:33:58.858Z</time>
      </trkpt>
      <trkpt lat="48.86036" lon="2.37842">
        <ele>101</ele>
        <time>2015-07-13T18:34:00.188Z</time>
      </trkpt>
      <trkpt lat="48.86039" lon="2.37853">
        <ele>101.5</ele>
        <time>2015-07-13T18:34:02.902Z</time>
      </trkpt>
      <trkpt lat="48.86039" lon="2.37855">
        <ele>101.5</ele>
        <time>2015-07-13T18:34:03.909Z</time>
      </trkpt>
      <trkpt lat="48.8604" lon="2.37857">
        <ele>102.4</ele>
        <time>2015-07-13T18:34:13.878Z</time>
      </trkpt>
      <trkpt lat="48.8604" lon="2.37857">
        <ele>102.6</ele>
        <time>2015-07-13T18:34:14.892Z</time>
      </trkpt>
      <trkpt lat="48.8604" lon="2.37858">
        <ele>102.7</ele>
        <time>2015-07-13T18:34:16.935Z</time>
      </trkpt>
      <trkpt lat="48.86039" lon="2.37862">
        <ele>103.3</ele>
        <time>2015-07-13T18:34:17.929Z</time>
      </trkpt>
      <trkpt lat="48.86042" lon="2.37874">
        <ele>103.4</ele>
        <time>2015-07-13T18:34:21.938Z</time>
      </trkpt>
      <trkpt lat="48.86043" lon="2.37877">
        <ele>103.6</ele>
        <time>2015-07-13T18:34:22.900Z</time>
      </trkpt>
      <trkpt lat="48.86045" lon="2.37888">
        <ele>103.7</ele>
        <time>2015-07-13T18:34:25.939Z</time>
      </trkpt>
      <trkpt lat="48.86046" lon="2.37891">
        <ele>103.8</ele>
        <time>2015-07-13T18:34:26.880Z</time>
      </trkpt>
      <trkpt lat="48.86049" lon="2.37901">
        <ele>104</ele>
        <time>2015-07-13T18:34:29.980Z</time>
      </trkpt>
      <trkpt lat="48.8605" lon="2.37905">
        <ele>104</ele>
        <time>2015-07-13T18:34:31.018Z</time>
      </trkpt>
      <trkpt lat="48.86054" lon="2.37914">
        <ele>104.2</ele>
        <time>2015-07-13T18:34:32.872Z</time>
      </trkpt>
      <trkpt lat="48.86055" lon="2.37919">
        <ele>104.2</ele>
        <time>2015-07-13T18:34:33.902Z</time>
      </trkpt>
      <trkpt lat="48.86059" lon="2.37928">
        <ele>103.9</ele>
        <time>2015-07-13T18:34:35.966Z</time>
      </trkpt>
      <trkpt lat="48.8606" lon="2.37933">
        <ele>103.8</ele>
        <time>2015-07-13T18:34:36.893Z</time>
      </trkpt>
      <trkpt lat="48.86064" lon="2.37943">
        <ele>103.6</ele>
        <time>2015-07-13T18:34:38.903Z</time>
      </trkpt>
      <trkpt lat="48.86066" lon="2.37948">
        <ele>103.6</ele>
        <time>2015-07-13T18:34:39.935Z</time>
      </trkpt>
      <trkpt lat="48.86069" lon="2.37958">
        <ele>103.8</ele>
        <time>2015-07-13T18:34:41.913Z</time>
      </trkpt>
      <trkpt lat="48.8607" lon="2.37964">
        <ele>103.7</ele>
        <time>2015-07-13T18:34:42.918Z</time>
      </trkpt>
      <trkpt lat="48.86074" lon="2.37976">
        <ele>103.7</ele>
        <time>2015-07-13T18:34:44.987Z</time>
      </trkpt>
      <trkpt lat="48.86075" lon="2.37982">
        <ele>103.7</ele>
        <time>2015-07-13T18:34:46.071Z</time>
      </trkpt>
      <trkpt lat="48.86079" lon="2.37992">
        <ele>103.7</ele>
        <time>2015-07-13T18:34:47.953Z</time>
      </trkpt>
      <trkpt lat="48.8608" lon="2.37997">
        <ele>103.7</ele>
        <time>2015-07-13T18:34:48.980Z</time>
      </trkpt>
      <trkpt lat="48.86083" lon="2.38006">
        <ele>103.6</ele>
        <time>2015-07-13T18:34:50.938Z</time>
      </trkpt>
      <trkpt lat="48.86084" lon="2.3801">
        <ele>103.6</ele>
        <time>2015-07-13T18:34:51.938Z</time>
      </trkpt>
      <trkpt lat="48.86088" lon="2.38017">
        <ele>103.6</ele>
        <time>2015-07-13T18:34:52.338Z</time>
      </trkpt>
      <trkpt lat="48.86089" lon="2.38021">
        <ele>103.5</ele>
        <time>2015-07-13T18:34:54.916Z</time>
      </trkpt>
      <trkpt lat="48.86093" lon="2.38032">
        <ele>103.4</ele>
        <time>2015-07-13T18:34:57.884Z</time>
      </trkpt>
      <trkpt lat="48.86095" lon="2.38037">
        <ele>103.6</ele>
        <time>2015-07-13T18:34:58.896Z</time>
      </trkpt>
      <trkpt lat="48.861" lon="2.38047">
        <ele>103.9</ele>
        <time>2015-07-13T18:35:00.885Z</time>
      </trkpt>
      <trkpt lat="48.86101" lon="2.38052">
        <ele>103.8</ele>
        <time>2015-07-13T18:35:01.914Z</time>
      </trkpt>
      <trkpt lat="48.86107" lon="2.38062">
        <ele>102.1</ele>
        <time>2015-07-13T18:35:03.881Z</time>
      </trkpt>
      <trkpt lat="48.86109" lon="2.38068">
        <ele>101.9</ele>
        <time>2015-07-13T18:35:04.885Z</time>
      </trkpt>
      <trkpt lat="48.86112" lon="2.38079">
        <ele>101.8</ele>
        <time>2015-07-13T18:35:07.571Z</time>
      </trkpt>
      <trkpt lat="48.86113" lon="2.38085">
        <ele>101.9</ele>
        <time>2015-07-13T18:35:07.869Z</time>
      </trkpt>
      <trkpt lat="48.86116" lon="2.38096">
        <ele>102</ele>
        <time>2015-07-13T18:35:09.874Z</time>
      </trkpt>
      <trkpt lat="48.86118" lon="2.38101">
        <ele>101.9</ele>
        <time>2015-07-13T18:35:10.874Z</time>
      </trkpt>
      <trkpt lat="48.86121" lon="2.38112">
        <ele>102.1</ele>
        <time>2015-07-13T18:35:12.891Z</time>
      </trkpt>
      <trkpt lat="48.86121" lon="2.38118">
        <ele>102.8</ele>
        <time>2015-07-13T18:35:13.909Z</time>
      </trkpt>
      <trkpt lat="48.86122" lon="2.38127">
        <ele>103.3</ele>
        <time>2015-07-13T18:35:15.925Z</time>
      </trkpt>
      <trkpt lat="48.86123" lon="2.38131">
        <ele>103.3</ele>
        <time>2015-07-13T18:35:16.986Z</time>
      </trkpt>
      <trkpt lat="48.86125" lon="2.38143">
        <ele>103.2</ele>
        <time>2015-07-13T18:35:18.887Z</time>
      </trkpt>
      <trkpt lat="48.86127" lon="2.3815">
        <ele>103.2</ele>
        <time>2015-07-13T18:35:19.893Z</time>
      </trkpt>
      <trkpt lat="48.86129" lon="2.38158">
        <ele>103</ele>
        <time>2015-07-13T18:35:20.908Z</time>
      </trkpt>
      <trkpt lat="48.86132" lon="2.38165">
        <ele>102.8</ele>
        <time>2015-07-13T18:35:22.099Z</time>
      </trkpt>
      <trkpt lat="48.86133" lon="2.38173">
        <ele>102.6</ele>
        <time>2015-07-13T18:35:23.436Z</time>
      </trkpt>
      <trkpt lat="48.86134" lon="2.38182">
        <ele>102.5</ele>
        <time>2015-07-13T18:35:23.939Z</time>
      </trkpt>
      <trkpt lat="48.86136" lon="2.3819">
        <ele>102.4</ele>
        <time>2015-07-13T18:35:24.889Z</time>
      </trkpt>
      <trkpt lat="48.86138" lon="2.38196">
        <ele>102.4</ele>
        <time>2015-07-13T18:35:25.872Z</time>
      </trkpt>
      <trkpt lat="48.86143" lon="2.38206">
        <ele>102.4</ele>
        <time>2015-07-13T18:35:27.904Z</time>
      </trkpt>
      <trkpt lat="48.86146" lon="2.38212">
        <ele>102.7</ele>
        <time>2015-07-13T18:35:28.919Z</time>
      </trkpt>
      <trkpt lat="48.86148" lon="2.38218">
        <ele>102.7</ele>
        <time>2015-07-13T18:35:28.548Z</time>
      </trkpt>
      <trkpt lat="48.8615" lon="2.38224">
        <ele>102.6</ele>
        <time>2015-07-13T18:35:30.863Z</time>
      </trkpt>
      <trkpt lat="48.86153" lon="2.38231">
        <ele>102.6</ele>
        <time>2015-07-13T18:35:31.905Z</time>
      </trkpt>
      <trkpt lat="48.86154" lon="2.38237">
        <ele>102.5</ele>
        <time>2015-07-13T18:35:32.913Z</time>
      </trkpt>
      <trkpt lat="48.86156" lon="2.38243">
        <ele>102.6</ele>
        <time>2015-07-13T18:35:33.936Z</time>
      </trkpt>
      <trkpt lat="48.86157" lon="2.3825">
        <ele>102.6</ele>
        <time>2015-07-13T18:35:34.938Z</time>
      </trkpt>
      <trkpt lat="48.86159" lon="2.38257">
        <ele>103.2</ele>
        <time>2015-07-13T18:35:35.944Z</time>
      </trkpt>
      <trkpt lat="48.86162" lon="2.38263">
        <ele>103.8</ele>
        <time>2015-07-13T18:35:36.947Z</time>
      </trkpt>
      <trkpt lat="48.86165" lon="2.38275">
        <ele>104.3</ele>
        <time>2015-07-13T18:35:38.888Z</time>
      </trkpt>
      <trkpt lat="48.86167" lon="2.38282">
        <ele>104.7</ele>
        <time>2015-07-13T18:35:39.908Z</time>
      </trkpt>
      <trkpt lat="48.8617" lon="2.38289">
        <ele>104.8</ele>
        <time>2015-07-13T18:35:40.924Z</time>
      </trkpt>
      <trkpt lat="48.86172" lon="2.38296">
        <ele>104.7</ele>
        <time>2015-07-13T18:35:41.951Z</time>
      </trkpt>
      <trkpt lat="48.86174" lon="2.38304">
        <ele>104.8</ele>
        <time>2015-07-13T18:35:42.840Z</time>
      </trkpt>
      <trkpt lat="48.86176" lon="2.38313">
        <ele>104.8</ele>
        <time>2015-07-13T18:35:43.964Z</time>
      </trkpt>
      <trkpt lat="48.86179" lon="2.38321">
        <ele>104.7</ele>
        <time>2015-07-13T18:35:44.956Z</time>
      </trkpt>
      <trkpt lat="48.86181" lon="2.3833">
        <ele>105.1</ele>
        <time>2015-07-13T18:35:45.875Z</time>
      </trkpt>
      <trkpt lat="48.86183" lon="2.38338">
        <ele>105.1</ele>
        <time>2015-07-13T18:35:46.890Z</time>
      </trkpt>
      <trkpt lat="48.86186" lon="2.38347">
        <ele>105</ele>
        <time>2015-07-13T18:35:47.916Z</time>
      </trkpt>
      <trkpt lat="48.86189" lon="2.38354">
        <ele>104.3</ele>
        <time>2015-07-13T18:35:48.922Z</time>
      </trkpt>
      <trkpt lat="48.86191" lon="2.38363">
        <ele>104.1</ele>
        <time>2015-07-13T18:35:49.926Z</time>
      </trkpt>
      <trkpt lat="48.86193" lon="2.38372">
        <ele>103.8</ele>
        <time>2015-07-13T18:35:50.941Z</time>
      </trkpt>
      <trkpt lat="48.86196" lon="2.38379">
        <ele>103.7</ele>
        <time>2015-07-13T18:35:51.954Z</time>
      </trkpt>
      <trkpt lat="48.86199" lon="2.38386">
        <ele>103.4</ele>
        <time>2015-07-13T18:35:52.880Z</time>
      </trkpt>
      <trkpt lat="48.86202" lon="2.38392">
        <ele>103.3</ele>
        <time>2015-07-13T18:35:53.922Z</time>
      </trkpt>
      <trkpt lat="48.86207" lon="2.38398">
        <ele>103.4</ele>
        <time>2015-07-13T18:35:54.858Z</time>
      </trkpt>
      <trkpt lat="48.86209" lon="2.38405">
        <ele>103.3</ele>
        <time>2015-07-13T18:35:55.871Z</time>
      </trkpt>
      <trkpt lat="48.86211" lon="2.38412">
        <ele>103.5</ele>
        <time>2015-07-13T18:35:56.899Z</time>
      </trkpt>
      <trkpt lat="48.86212" lon="2.38419">
        <ele>103.5</ele>
        <time>2015-07-13T18:35:57.902Z</time>
      </trkpt>
      <trkpt lat="48.86215" lon="2.38425">
        <ele>103.2</ele>
        <time>2015-07-13T18:35:58.939Z</time>
      </trkpt>
      <trkpt lat="48.86217" lon="2.38431">
        <ele>103.3</ele>
        <time>2015-07-13T18:35:59.951Z</time>
      </trkpt>
      <trkpt lat="48.8622" lon="2.38443">
        <ele>103.6</ele>
        <time>2015-07-13T18:36:01.864Z</time>
      </trkpt>
      <trkpt lat="48.86221" lon="2.38449">
        <ele>103.8</ele>
        <time>2015-07-13T18:36:02.877Z</time>
      </trkpt>
      <trkpt lat="48.86223" lon="2.38457">
        <ele>103.9</ele>
        <time>2015-07-13T18:36:03.899Z</time>
      </trkpt>
      <trkpt lat="48.86225" lon="2.38464">
        <ele>104.2</ele>
        <time>2015-07-13T18:36:04.912Z</time>
      </trkpt>
      <trkpt lat="48.86227" lon="2.3847">
        <ele>104.6</ele>
        <time>2015-07-13T18:36:05.928Z</time>
      </trkpt>
      <trkpt lat="48.86228" lon="2.38477">
        <ele>104.9</ele>
        <time>2015-07-13T18:36:06.935Z</time>
      </trkpt>
      <trkpt lat="48.86229" lon="2.38484">
        <ele>105</ele>
        <time>2015-07-13T18:36:07.856Z</time>
      </trkpt>
      <trkpt lat="48.86231" lon="2.38491">
        <ele>105</ele>
        <time>2015-07-13T18:36:08.858Z</time>
      </trkpt>
      <trkpt lat="48.86232" lon="2.38498">
        <ele>104.8</ele>
        <time>2015-07-13T18:36:09.859Z</time>
      </trkpt>
      <trkpt lat="48.86233" lon="2.38505">
        <ele>104.7</ele>
        <time>2015-07-13T18:36:10.888Z</time>
      </trkpt>
      <trkpt lat="48.86236" lon="2.38516">
        <ele>104.7</ele>
        <time>2015-07-13T18:36:12.930Z</time>
      </trkpt>
      <trkpt lat="48.86237" lon="2.3852">
        <ele>104.7</ele>
        <time>2015-07-13T18:36:13.901Z</time>
      </trkpt>
      <trkpt lat="48.86239" lon="2.3853">
        <ele>105.3</ele>
        <time>2015-07-13T18:36:15.859Z</time>
      </trkpt>
      <trkpt lat="48.86242" lon="2.38534">
        <ele>105.9</ele>
        <time>2015-07-13T18:36:16.907Z</time>
      </trkpt>
      <trkpt lat="48.86246" lon="2.38545">
        <ele>106.6</ele>
        <time>2015-07-13T18:36:18.950Z</time>
      </trkpt>
      <trkpt lat="48.86247" lon="2.38552">
        <ele>106.8</ele>
        <time>2015-07-13T18:36:19.900Z</time>
      </trkpt>
      <trkpt lat="48.86248" lon="2.38558">
        <ele>107.3</ele>
        <time>2015-07-13T18:36:20.875Z</time>
      </trkpt>
      <trkpt lat="48.8625" lon="2.38565">
        <ele>107.3</ele>
        <time>2015-07-13T18:36:21.882Z</time>
      </trkpt>
      <trkpt lat="48.86252" lon="2.38578">
        <ele>107.4</ele>
        <time>2015-07-13T18:36:23.917Z</time>
      </trkpt>
      <trkpt lat="48.86253" lon="2.38583">
        <ele>107.5</ele>
        <time>2015-07-13T18:36:24.930Z</time>
      </trkpt>
      <trkpt lat="48.86256" lon="2.38594">
        <ele>107.6</ele>
        <time>2015-07-13T18:36:26.874Z</time>
      </trkpt>
      <trkpt lat="48.86257" lon="2.386">
        <ele>107.8</ele>
        <time>2015-07-13T18:36:27.898Z</time>
      </trkpt>
      <trkpt lat="48.86259" lon="2.38606">
        <ele>108.5</ele>
        <time>2015-07-13T18:36:28.879Z</time>
      </trkpt>
      <trkpt lat="48.8626" lon="2.38614">
        <ele>108.6</ele>
        <time>2015-07-13T18:36:29.951Z</time>
      </trkpt>
      <trkpt lat="48.86263" lon="2.38621">
        <ele>108.8</ele>
        <time>2015-07-13T18:36:30.866Z</time>
      </trkpt>
      <trkpt lat="48.86265" lon="2.38628">
        <ele>109.2</ele>
        <time>2015-07-13T18:36:31.870Z</time>
      </trkpt>
      <trkpt lat="48.86268" lon="2.38634">
        <ele>109.4</ele>
        <time>2015-07-13T18:36:32.871Z</time>
      </trkpt>
      <trkpt lat="48.86272" lon="2.38639">
        <ele>109.6</ele>
        <time>2015-07-13T18:36:33.878Z</time>
      </trkpt>
      <trkpt lat="48.86274" lon="2.38645">
        <ele>109.6</ele>
        <time>2015-07-13T18:36:34.895Z</time>
      </trkpt>
      <trkpt lat="48.86277" lon="2.38651">
        <ele>109.9</ele>
        <time>2015-07-13T18:36:35.908Z</time>
      </trkpt>
      <trkpt lat="48.8628" lon="2.38663">
        <ele>111</ele>
        <time>2015-07-13T18:36:37.930Z</time>
      </trkpt>
      <trkpt lat="48.86283" lon="2.3867">
        <ele>111.8</ele>
        <time>2015-07-13T18:36:38.962Z</time>
      </trkpt>
      <trkpt lat="48.86285" lon="2.38676">
        <ele>112.9</ele>
        <time>2015-07-13T18:36:39.898Z</time>
      </trkpt>
      <trkpt lat="48.86286" lon="2.38682">
        <ele>113.4</ele>
        <time>2015-07-13T18:36:40.914Z</time>
      </trkpt>
      <trkpt lat="48.86289" lon="2.38695">
        <ele>113.9</ele>
        <time>2015-07-13T18:36:42.863Z</time>
      </trkpt>
      <trkpt lat="48.8629" lon="2.387">
        <ele>114.1</ele>
        <time>2015-07-13T18:36:43.985Z</time>
      </trkpt>
      <trkpt lat="48.86292" lon="2.3871">
        <ele>114.7</ele>
        <time>2015-07-13T18:36:45.878Z</time>
      </trkpt>
      <trkpt lat="48.86294" lon="2.38714">
        <ele>115.4</ele>
        <time>2015-07-13T18:36:46.906Z</time>
      </trkpt>
      <trkpt lat="48.8629" lon="2.38722">
        <ele>115</ele>
        <time>2015-07-13T18:36:48.872Z</time>
      </trkpt>
      <trkpt lat="48.86288" lon="2.38725">
        <ele>115</ele>
        <time>2015-07-13T18:36:49.964Z</time>
      </trkpt>
      <trkpt lat="48.86285" lon="2.3873">
        <ele>115.2</ele>
        <time>2015-07-13T18:36:53.965Z</time>
      </trkpt>
      <trkpt lat="48.86286" lon="2.3873">
        <ele>115.2</ele>
        <time>2015-07-13T18:36:54.915Z</time>
      </trkpt>
      <trkpt lat="48.86286" lon="2.3873">
        <ele>115.3</ele>
        <time>2015-07-13T18:36:55.880Z</time>
      </trkpt>
      <trkpt lat="48.86286" lon="2.38729">
        <ele>115.4</ele>
        <time>2015-07-13T18:36:56.888Z</time>
      </trkpt>
      <trkpt lat="48.86287" lon="2.3873">
        <ele>115.5</ele>
        <time>2015-07-13T18:36:57.890Z</time>
      </trkpt>
      <trkpt lat="48.86287" lon="2.38729">
        <ele>115.7</ele>
        <time>2015-07-13T18:36:58.917Z</time>
      </trkpt>
      <trkpt lat="48.86288" lon="2.38729">
        <ele>115.7</ele>
        <time>2015-07-13T18:37:05.963Z</time>
      </trkpt>
      <trkpt lat="48.86288" lon="2.38727">
        <ele>116.2</ele>
        <time>2015-07-13T18:37:06.875Z</time>
      </trkpt>
      <trkpt lat="48.86288" lon="2.38738">
        <ele>116.1</ele>
        <time>2015-07-13T18:37:25.939Z</time>
      </trkpt>
      <trkpt lat="48.86288" lon="2.38742">
        <ele>116.1</ele>
        <time>2015-07-13T18:37:27.001Z</time>
      </trkpt>
      <trkpt lat="48.86289" lon="2.38756">
        <ele>115.9</ele>
        <time>2015-07-13T18:37:29.994Z</time>
      </trkpt>
      <trkpt lat="48.8629" lon="2.38761">
        <ele>115.8</ele>
        <time>2015-07-13T18:37:30.977Z</time>
      </trkpt>
      <trkpt lat="48.86293" lon="2.38769">
        <ele>115.4</ele>
        <time>2015-07-13T18:37:32.877Z</time>
      </trkpt>
      <trkpt lat="48.86295" lon="2.38773">
        <ele>115.5</ele>
        <time>2015-07-13T18:37:33.888Z</time>
      </trkpt>
      <trkpt lat="48.86298" lon="2.38782">
        <ele>115.5</ele>
        <time>2015-07-13T18:37:35.946Z</time>
      </trkpt>
      <trkpt lat="48.86301" lon="2.38788">
        <ele>115.7</ele>
        <time>2015-07-13T18:37:36.955Z</time>
      </trkpt>
      <trkpt lat="48.86305" lon="2.38799">
        <ele>115.8</ele>
        <time>2015-07-13T18:37:39.114Z</time>
      </trkpt>
      <trkpt lat="48.86307" lon="2.38804">
        <ele>115.8</ele>
        <time>2015-07-13T18:37:39.879Z</time>
      </trkpt>
      <trkpt lat="48.8631" lon="2.38816">
        <ele>116</ele>
        <time>2015-07-13T18:37:41.981Z</time>
      </trkpt>
      <trkpt lat="48.86311" lon="2.38823">
        <ele>116.2</ele>
        <time>2015-07-13T18:37:42.873Z</time>
      </trkpt>
      <trkpt lat="48.86312" lon="2.3883">
        <ele>116.4</ele>
        <time>2015-07-13T18:37:43.989Z</time>
      </trkpt>
      <trkpt lat="48.86314" lon="2.38837">
        <ele>116.6</ele>
        <time>2015-07-13T18:37:44.878Z</time>
      </trkpt>
      <trkpt lat="48.86315" lon="2.38846">
        <ele>116.8</ele>
        <time>2015-07-13T18:37:46.582Z</time>
      </trkpt>
      <trkpt lat="48.86317" lon="2.38854">
        <ele>116.9</ele>
        <time>2015-07-13T18:37:46.876Z</time>
      </trkpt>
      <trkpt lat="48.86318" lon="2.38863">
        <ele>117.1</ele>
        <time>2015-07-13T18:37:47.922Z</time>
      </trkpt>
      <trkpt lat="48.86321" lon="2.38873">
        <ele>117.6</ele>
        <time>2015-07-13T18:37:48.979Z</time>
      </trkpt>
      <trkpt lat="48.86326" lon="2.38881">
        <ele>118.1</ele>
        <time>2015-07-13T18:37:49.888Z</time>
      </trkpt>
      <trkpt lat="48.86328" lon="2.3889">
        <ele>118.5</ele>
        <time>2015-07-13T18:37:50.878Z</time>
      </trkpt>
      <trkpt lat="48.8633" lon="2.389">
        <ele>118.7</ele>
        <time>2015-07-13T18:37:51.892Z</time>
      </trkpt>
      <trkpt lat="48.86333" lon="2.3891">
        <ele>119.2</ele>
        <time>2015-07-13T18:37:52.901Z</time>
      </trkpt>
      <trkpt lat="48.86335" lon="2.3892">
        <ele>119.1</ele>
        <time>2015-07-13T18:37:53.914Z</time>
      </trkpt>
      <trkpt lat="48.86339" lon="2.38929">
        <ele>119.4</ele>
        <time>2015-07-13T18:37:54.917Z</time>
      </trkpt>
      <trkpt lat="48.86342" lon="2.38939">
        <ele>119.4</ele>
        <time>2015-07-13T18:37:55.926Z</time>
      </trkpt>
      <trkpt lat="48.86345" lon="2.38948">
        <ele>119.5</ele>
        <time>2015-07-13T18:37:56.931Z</time>
      </trkpt>
      <trkpt lat="48.86348" lon="2.38958">
        <ele>119.5</ele>
        <time>2015-07-13T18:37:57.948Z</time>
      </trkpt>
      <trkpt lat="48.8635" lon="2.38967">
        <ele>119.4</ele>
        <time>2015-07-13T18:37:58.871Z</time>
      </trkpt>
      <trkpt lat="48.86352" lon="2.38976">
        <ele>119.4</ele>
        <time>2015-07-13T18:38:00.004Z</time>
      </trkpt>
      <trkpt lat="48.86355" lon="2.38986">
        <ele>119.4</ele>
        <time>2015-07-13T18:38:00.864Z</time>
      </trkpt>
      <trkpt lat="48.86358" lon="2.38995">
        <ele>119.4</ele>
        <time>2015-07-13T18:38:01.874Z</time>
      </trkpt>
      <trkpt lat="48.8636" lon="2.39004">
        <ele>119.5</ele>
        <time>2015-07-13T18:38:02.896Z</time>
      </trkpt>
      <trkpt lat="48.86363" lon="2.39013">
        <ele>119.7</ele>
        <time>2015-07-13T18:38:03.911Z</time>
      </trkpt>
      <trkpt lat="48.86365" lon="2.39022">
        <ele>119.9</ele>
        <time>2015-07-13T18:38:04.912Z</time>
      </trkpt>
      <trkpt lat="48.86367" lon="2.3903">
        <ele>119.8</ele>
        <time>2015-07-13T18:38:05.932Z</time>
      </trkpt>
      <trkpt lat="48.86369" lon="2.39039">
        <ele>120</ele>
        <time>2015-07-13T18:38:06.934Z</time>
      </trkpt>
      <trkpt lat="48.86371" lon="2.39048">
        <ele>119.8</ele>
        <time>2015-07-13T18:38:07.832Z</time>
      </trkpt>
      <trkpt lat="48.86374" lon="2.39056">
        <ele>119.8</ele>
        <time>2015-07-13T18:38:08.858Z</time>
      </trkpt>
      <trkpt lat="48.86376" lon="2.39065">
        <ele>119.9</ele>
        <time>2015-07-13T18:38:10.074Z</time>
      </trkpt>
      <trkpt lat="48.86378" lon="2.39073">
        <ele>120</ele>
        <time>2015-07-13T18:38:10.931Z</time>
      </trkpt>
      <trkpt lat="48.86379" lon="2.39082">
        <ele>120</ele>
        <time>2015-07-13T18:38:11.959Z</time>
      </trkpt>
      <trkpt lat="48.86381" lon="2.3909">
        <ele>120.2</ele>
        <time>2015-07-13T18:38:12.867Z</time>
      </trkpt>
      <trkpt lat="48.86384" lon="2.39098">
        <ele>120.3</ele>
        <time>2015-07-13T18:38:13.866Z</time>
      </trkpt>
      <trkpt lat="48.86385" lon="2.39106">
        <ele>120.3</ele>
        <time>2015-07-13T18:38:14.875Z</time>
      </trkpt>
      <trkpt lat="48.86386" lon="2.39114">
        <ele>120.3</ele>
        <time>2015-07-13T18:38:15.886Z</time>
      </trkpt>
      <trkpt lat="48.86387" lon="2.39121">
        <ele>120.4</ele>
        <time>2015-07-13T18:38:16.902Z</time>
      </trkpt>
      <trkpt lat="48.86388" lon="2.39128">
        <ele>120.4</ele>
        <time>2015-07-13T18:38:17.934Z</time>
      </trkpt>
      <trkpt lat="48.86389" lon="2.39135">
        <ele>120.4</ele>
        <time>2015-07-13T18:38:18.939Z</time>
      </trkpt>
      <trkpt lat="48.86391" lon="2.39143">
        <ele>120.4</ele>
        <time>2015-07-13T18:38:19.871Z</time>
      </trkpt>
      <trkpt lat="48.86394" lon="2.3915">
        <ele>120.5</ele>
        <time>2015-07-13T18:38:20.864Z</time>
      </trkpt>
      <trkpt lat="48.86396" lon="2.39157">
        <ele>120.5</ele>
        <time>2015-07-13T18:38:21.874Z</time>
      </trkpt>
      <trkpt lat="48.86399" lon="2.39164">
        <ele>120.6</ele>
        <time>2015-07-13T18:38:22.888Z</time>
      </trkpt>
      <trkpt lat="48.864" lon="2.39172">
        <ele>120.8</ele>
        <time>2015-07-13T18:38:23.910Z</time>
      </trkpt>
      <trkpt lat="48.86402" lon="2.39179">
        <ele>120.8</ele>
        <time>2015-07-13T18:38:24.913Z</time>
      </trkpt>
      <trkpt lat="48.86404" lon="2.39185">
        <ele>120.9</ele>
        <time>2015-07-13T18:38:25.937Z</time>
      </trkpt>
      <trkpt lat="48.86406" lon="2.39192">
        <ele>120.9</ele>
        <time>2015-07-13T18:38:26.937Z</time>
      </trkpt>
      <trkpt lat="48.86408" lon="2.39199">
        <ele>121.1</ele>
        <time>2015-07-13T18:38:27.870Z</time>
      </trkpt>
      <trkpt lat="48.86409" lon="2.39206">
        <ele>121.1</ele>
        <time>2015-07-13T18:38:28.875Z</time>
      </trkpt>
      <trkpt lat="48.86411" lon="2.39213">
        <ele>121.2</ele>
        <time>2015-07-13T18:38:29.932Z</time>
      </trkpt>
      <trkpt lat="48.86413" lon="2.3922">
        <ele>121.5</ele>
        <time>2015-07-13T18:38:30.852Z</time>
      </trkpt>
      <trkpt lat="48.86414" lon="2.39227">
        <ele>121.8</ele>
        <time>2015-07-13T18:38:31.856Z</time>
      </trkpt>
      <trkpt lat="48.86416" lon="2.39234">
        <ele>121.8</ele>
        <time>2015-07-13T18:38:32.871Z</time>
      </trkpt>
      <trkpt lat="48.86419" lon="2.39241">
        <ele>122</ele>
        <time>2015-07-13T18:38:33.865Z</time>
      </trkpt>
      <trkpt lat="48.8642" lon="2.39248">
        <ele>121.9</ele>
        <time>2015-07-13T18:38:34.882Z</time>
      </trkpt>
      <trkpt lat="48.86422" lon="2.39255">
        <ele>121.9</ele>
        <time>2015-07-13T18:38:35.905Z</time>
      </trkpt>
      <trkpt lat="48.86424" lon="2.39262">
        <ele>122.2</ele>
        <time>2015-07-13T18:38:36.910Z</time>
      </trkpt>
      <trkpt lat="48.86426" lon="2.39268">
        <ele>122.3</ele>
        <time>2015-07-13T18:38:37.857Z</time>
      </trkpt>
      <trkpt lat="48.86427" lon="2.39275">
        <ele>122.3</ele>
        <time>2015-07-13T18:38:38.854Z</time>
      </trkpt>
      <trkpt lat="48.86429" lon="2.39281">
        <ele>122.3</ele>
        <time>2015-07-13T18:38:39.878Z</time>
      </trkpt>
      <trkpt lat="48.86431" lon="2.39288">
        <ele>122.3</ele>
        <time>2015-07-13T18:38:40.893Z</time>
      </trkpt>
      <trkpt lat="48.86433" lon="2.39295">
        <ele>122.4</ele>
        <time>2015-07-13T18:38:41.900Z</time>
      </trkpt>
      <trkpt lat="48.86435" lon="2.39303">
        <ele>122.5</ele>
        <time>2015-07-13T18:38:42.918Z</time>
      </trkpt>
      <trkpt lat="48.86437" lon="2.3931">
        <ele>122.6</ele>
        <time>2015-07-13T18:38:43.856Z</time>
      </trkpt>
      <trkpt lat="48.86439" lon="2.39317">
        <ele>122.7</ele>
        <time>2015-07-13T18:38:44.866Z</time>
      </trkpt>
      <trkpt lat="48.86439" lon="2.39324">
        <ele>122.9</ele>
        <time>2015-07-13T18:38:45.861Z</time>
      </trkpt>
      <trkpt lat="48.86441" lon="2.39331">
        <ele>123.1</ele>
        <time>2015-07-13T18:38:46.858Z</time>
      </trkpt>
      <trkpt lat="48.86442" lon="2.39338">
        <ele>123.3</ele>
        <time>2015-07-13T18:38:47.889Z</time>
      </trkpt>
      <trkpt lat="48.86443" lon="2.39345">
        <ele>123.4</ele>
        <time>2015-07-13T18:38:48.901Z</time>
      </trkpt>
      <trkpt lat="48.86444" lon="2.39353">
        <ele>123.5</ele>
        <time>2015-07-13T18:38:49.901Z</time>
      </trkpt>
      <trkpt lat="48.86445" lon="2.3936">
        <ele>123.8</ele>
        <time>2015-07-13T18:38:50.914Z</time>
      </trkpt>
      <trkpt lat="48.86448" lon="2.39366">
        <ele>124</ele>
        <time>2015-07-13T18:38:51.850Z</time>
      </trkpt>
      <trkpt lat="48.8645" lon="2.39372">
        <ele>124.1</ele>
        <time>2015-07-13T18:38:52.857Z</time>
      </trkpt>
      <trkpt lat="48.86453" lon="2.39378">
        <ele>124.1</ele>
        <time>2015-07-13T18:38:53.913Z</time>
      </trkpt>
      <trkpt lat="48.86456" lon="2.39385">
        <ele>124.1</ele>
        <time>2015-07-13T18:38:54.912Z</time>
      </trkpt>
      <trkpt lat="48.86458" lon="2.39392">
        <ele>124.2</ele>
        <time>2015-07-13T18:38:55.849Z</time>
      </trkpt>
      <trkpt lat="48.8646" lon="2.39399">
        <ele>124.3</ele>
        <time>2015-07-13T18:38:56.853Z</time>
      </trkpt>
      <trkpt lat="48.86462" lon="2.39405">
        <ele>124.6</ele>
        <time>2015-07-13T18:38:57.871Z</time>
      </trkpt>
      <trkpt lat="48.86464" lon="2.39411">
        <ele>124.8</ele>
        <time>2015-07-13T18:38:58.882Z</time>
      </trkpt>
      <trkpt lat="48.86466" lon="2.39417">
        <ele>124.8</ele>
        <time>2015-07-13T18:38:59.965Z</time>
      </trkpt>
      <trkpt lat="48.86468" lon="2.39424">
        <ele>124.8</ele>
        <time>2015-07-13T18:39:00.867Z</time>
      </trkpt>
      <trkpt lat="48.8647" lon="2.3943">
        <ele>124.8</ele>
        <time>2015-07-13T18:39:01.859Z</time>
      </trkpt>
      <trkpt lat="48.86472" lon="2.39437">
        <ele>124.8</ele>
        <time>2015-07-13T18:39:02.893Z</time>
      </trkpt>
      <trkpt lat="48.86473" lon="2.39443">
        <ele>124.8</ele>
        <time>2015-07-13T18:39:03.888Z</time>
      </trkpt>
      <trkpt lat="48.86473" lon="2.3945">
        <ele>125.5</ele>
        <time>2015-07-13T18:39:04.901Z</time>
      </trkpt>
      <trkpt lat="48.86473" lon="2.39457">
        <ele>126.1</ele>
        <time>2015-07-13T18:39:05.913Z</time>
      </trkpt>
      <trkpt lat="48.86473" lon="2.39464">
        <ele>126.4</ele>
        <time>2015-07-13T18:39:06.920Z</time>
      </trkpt>
      <trkpt lat="48.86473" lon="2.39477">
        <ele>126.8</ele>
        <time>2015-07-13T18:39:08.861Z</time>
      </trkpt>
      <trkpt lat="48.86473" lon="2.39483">
        <ele>127.5</ele>
        <time>2015-07-13T18:39:09.918Z</time>
      </trkpt>
      <trkpt lat="48.86476" lon="2.39495">
        <ele>127.6</ele>
        <time>2015-07-13T18:39:11.890Z</time>
      </trkpt>
      <trkpt lat="48.86477" lon="2.39501">
        <ele>127.8</ele>
        <time>2015-07-13T18:39:12.903Z</time>
      </trkpt>
      <trkpt lat="48.8648" lon="2.39511">
        <ele>128.1</ele>
        <time>2015-07-13T18:39:14.958Z</time>
      </trkpt>
      <trkpt lat="48.86482" lon="2.39516">
        <ele>128.4</ele>
        <time>2015-07-13T18:39:15.981Z</time>
      </trkpt>
      <trkpt lat="48.86486" lon="2.39526">
        <ele>129.1</ele>
        <time>2015-07-13T18:39:17.939Z</time>
      </trkpt>
      <trkpt lat="48.86487" lon="2.3953">
        <ele>129.5</ele>
        <time>2015-07-13T18:39:18.961Z</time>
      </trkpt>
      <trkpt lat="48.86487" lon="2.39541">
        <ele>129.8</ele>
        <time>2015-07-13T18:39:21.929Z</time>
      </trkpt>
      <trkpt lat="48.86487" lon="2.39546">
        <ele>129.9</ele>
        <time>2015-07-13T18:39:22.948Z</time>
      </trkpt>
      <trkpt lat="48.86491" lon="2.39557">
        <ele>131.2</ele>
        <time>2015-07-13T18:39:25.936Z</time>
      </trkpt>
      <trkpt lat="48.86494" lon="2.3956">
        <ele>132</ele>
        <time>2015-07-13T18:39:26.959Z</time>
      </trkpt>
      <trkpt lat="48.86494" lon="2.39564">
        <ele>131.6</ele>
        <time>2015-07-13T18:39:29.917Z</time>
      </trkpt>
      <trkpt lat="48.86494" lon="2.39564">
        <ele>131.6</ele>
        <time>2015-07-13T18:39:30.914Z</time>
      </trkpt>
      <trkpt lat="48.86494" lon="2.39564">
        <ele>131.6</ele>
        <time>2015-07-13T18:40:40.930Z</time>
      </trkpt>
      <trkpt lat="48.86492" lon="2.39566">
        <ele>132</ele>
        <time>2015-07-13T18:40:41.971Z</time>
      </trkpt>
      <trkpt lat="48.86495" lon="2.39575">
        <ele>132.9</ele>
        <time>2015-07-13T18:42:01.877Z</time>
      </trkpt>
      <trkpt lat="48.86496" lon="2.3958">
        <ele>133</ele>
        <time>2015-07-13T18:42:02.967Z</time>
      </trkpt>
      <trkpt lat="48.86498" lon="2.3959">
        <ele>132.8</ele>
        <time>2015-07-13T18:42:04.868Z</time>
      </trkpt>
      <trkpt lat="48.86498" lon="2.39594">
        <ele>132.9</ele>
        <time>2015-07-13T18:42:05.892Z</time>
      </trkpt>
      <trkpt lat="48.86499" lon="2.39604">
        <ele>133</ele>
        <time>2015-07-13T18:42:07.944Z</time>
      </trkpt>
      <trkpt lat="48.86499" lon="2.39609">
        <ele>133.1</ele>
        <time>2015-07-13T18:42:08.865Z</time>
      </trkpt>
      <trkpt lat="48.865" lon="2.39619">
        <ele>133.2</ele>
        <time>2015-07-13T18:42:10.914Z</time>
      </trkpt>
      <trkpt lat="48.86501" lon="2.39624">
        <ele>133.3</ele>
        <time>2015-07-13T18:42:11.927Z</time>
      </trkpt>
      <trkpt lat="48.86501" lon="2.39637">
        <ele>132.9</ele>
        <time>2015-07-13T18:42:13.976Z</time>
      </trkpt>
      <trkpt lat="48.86501" lon="2.39643">
        <ele>132.9</ele>
        <time>2015-07-13T18:42:14.848Z</time>
      </trkpt>
      <trkpt lat="48.865" lon="2.3965">
        <ele>132.9</ele>
        <time>2015-07-13T18:42:15.954Z</time>
      </trkpt>
      <trkpt lat="48.865" lon="2.39657">
        <ele>132.8</ele>
        <time>2015-07-13T18:42:16.954Z</time>
      </trkpt>
      <trkpt lat="48.865" lon="2.39669">
        <ele>132.7</ele>
        <time>2015-07-13T18:42:18.876Z</time>
      </trkpt>
      <trkpt lat="48.865" lon="2.39673">
        <ele>132.7</ele>
        <time>2015-07-13T18:42:19.897Z</time>
      </trkpt>
      <trkpt lat="48.86501" lon="2.39684">
        <ele>132.7</ele>
        <time>2015-07-13T18:42:22.871Z</time>
      </trkpt>
      <trkpt lat="48.86499" lon="2.39689">
        <ele>132.5</ele>
        <time>2015-07-13T18:42:23.886Z</time>
      </trkpt>
      <trkpt lat="48.86498" lon="2.39699">
        <ele>132.2</ele>
        <time>2015-07-13T18:42:25.941Z</time>
      </trkpt>
      <trkpt lat="48.86498" lon="2.39706">
        <ele>132.2</ele>
        <time>2015-07-13T18:42:26.874Z</time>
      </trkpt>
      <trkpt lat="48.86498" lon="2.39717">
        <ele>132.1</ele>
        <time>2015-07-13T18:42:28.956Z</time>
      </trkpt>
      <trkpt lat="48.86498" lon="2.39722">
        <ele>132</ele>
        <time>2015-07-13T18:42:29.979Z</time>
      </trkpt>
      <trkpt lat="48.86499" lon="2.39733">
        <ele>132.1</ele>
        <time>2015-07-13T18:42:31.877Z</time>
      </trkpt>
      <trkpt lat="48.86499" lon="2.39739">
        <ele>132.2</ele>
        <time>2015-07-13T18:42:32.886Z</time>
      </trkpt>
      <trkpt lat="48.865" lon="2.39749">
        <ele>132.1</ele>
        <time>2015-07-13T18:42:35.439Z</time>
      </trkpt>
      <trkpt lat="48.865" lon="2.39753">
        <ele>132.1</ele>
        <time>2015-07-13T18:42:35.918Z</time>
      </trkpt>
      <trkpt lat="48.865" lon="2.39765">
        <ele>132.2</ele>
        <time>2015-07-13T18:42:37.855Z</time>
      </trkpt>
      <trkpt lat="48.865" lon="2.3977">
        <ele>132.3</ele>
        <time>2015-07-13T18:42:38.867Z</time>
      </trkpt>
      <trkpt lat="48.86498" lon="2.39782">
        <ele>132.2</ele>
        <time>2015-07-13T18:42:41.901Z</time>
      </trkpt>
      <trkpt lat="48.86497" lon="2.39786">
        <ele>132.1</ele>
        <time>2015-07-13T18:42:42.912Z</time>
      </trkpt>
      <trkpt lat="48.86496" lon="2.39797">
        <ele>131.9</ele>
        <time>2015-07-13T18:42:46.886Z</time>
      </trkpt>
      <trkpt lat="48.86496" lon="2.398">
        <ele>132</ele>
        <time>2015-07-13T18:42:47.992Z</time>
      </trkpt>
      <trkpt lat="48.86491" lon="2.39811">
        <ele>131.7</ele>
        <time>2015-07-13T18:42:51.910Z</time>
      </trkpt>
      <trkpt lat="48.8649" lon="2.39815">
        <ele>131.7</ele>
        <time>2015-07-13T18:42:52.924Z</time>
      </trkpt>
      <trkpt lat="48.86487" lon="2.39824">
        <ele>131.4</ele>
        <time>2015-07-13T18:42:54.887Z</time>
      </trkpt>
      <trkpt lat="48.86486" lon="2.3983">
        <ele>131</ele>
        <time>2015-07-13T18:42:55.886Z</time>
      </trkpt>
      <trkpt lat="48.86486" lon="2.39843">
        <ele>130.6</ele>
        <time>2015-07-13T18:42:57.891Z</time>
      </trkpt>
      <trkpt lat="48.86486" lon="2.3985">
        <ele>132.8</ele>
        <time>2015-07-13T18:42:58.906Z</time>
      </trkpt>
      <trkpt lat="48.86495" lon="2.39849">
        <ele>134.6</ele>
        <time>2015-07-13T18:43:06.036Z</time>
      </trkpt>
      <trkpt lat="48.86494" lon="2.39851">
        <ele>134.5</ele>
        <time>2015-07-13T18:43:06.982Z</time>
      </trkpt>
      <trkpt lat="48.86493" lon="2.39852">
        <ele>134.3</ele>
        <time>2015-07-13T18:43:38.864Z</time>
      </trkpt>
      <trkpt lat="48.86497" lon="2.39852">
        <ele>134.5</ele>
        <time>2015-07-13T18:43:39.895Z</time>
      </trkpt>
      <trkpt lat="48.86504" lon="2.39844">
        <ele>135.9</ele>
        <time>2015-07-13T18:43:43.893Z</time>
      </trkpt>
      <trkpt lat="48.86506" lon="2.3984">
        <ele>136.2</ele>
        <time>2015-07-13T18:43:44.893Z</time>
      </trkpt>
      <trkpt lat="48.86512" lon="2.39831">
        <ele>137</ele>
        <time>2015-07-13T18:43:46.880Z</time>
      </trkpt>
      <trkpt lat="48.86515" lon="2.39827">
        <ele>137.4</ele>
        <time>2015-07-13T18:43:47.935Z</time>
      </trkpt>
      <trkpt lat="48.86521" lon="2.39819">
        <ele>137.9</ele>
        <time>2015-07-13T18:43:49.944Z</time>
      </trkpt>
      <trkpt lat="48.86524" lon="2.39815">
        <ele>138</ele>
        <time>2015-07-13T18:43:50.830Z</time>
      </trkpt>
      <trkpt lat="48.8653" lon="2.39807">
        <ele>138</ele>
        <time>2015-07-13T18:43:52.993Z</time>
      </trkpt>
      <trkpt lat="48.86533" lon="2.39804">
        <ele>138</ele>
        <time>2015-07-13T18:43:54.014Z</time>
      </trkpt>
      <trkpt lat="48.86539" lon="2.39802">
        <ele>138.2</ele>
        <time>2015-07-13T18:43:55.913Z</time>
      </trkpt>
      <trkpt lat="48.86542" lon="2.39801">
        <ele>138.2</ele>
        <time>2015-07-13T18:43:56.924Z</time>
      </trkpt>
      <trkpt lat="48.86548" lon="2.39798">
        <ele>138.3</ele>
        <time>2015-07-13T18:43:59.314Z</time>
      </trkpt>
      <trkpt lat="48.86552" lon="2.39795">
        <ele>138.4</ele>
        <time>2015-07-13T18:43:59.950Z</time>
      </trkpt>
      <trkpt lat="48.86555" lon="2.3979">
        <ele>138.4</ele>
        <time>2015-07-13T18:44:00.942Z</time>
      </trkpt>
      <trkpt lat="48.86559" lon="2.39786">
        <ele>138.5</ele>
        <time>2015-07-13T18:44:01.892Z</time>
      </trkpt>
      <trkpt lat="48.86565" lon="2.39779">
        <ele>138.7</ele>
        <time>2015-07-13T18:44:03.888Z</time>
      </trkpt>
      <trkpt lat="48.86569" lon="2.39777">
        <ele>138.8</ele>
        <time>2015-07-13T18:44:04.896Z</time>
      </trkpt>
      <trkpt lat="48.86574" lon="2.39775">
        <ele>138.7</ele>
        <time>2015-07-13T18:44:05.930Z</time>
      </trkpt>
      <trkpt lat="48.86579" lon="2.39772">
        <ele>138.5</ele>
        <time>2015-07-13T18:44:06.860Z</time>
      </trkpt>
      <trkpt lat="48.86584" lon="2.3977">
        <ele>138.5</ele>
        <time>2015-07-13T18:44:07.877Z</time>
      </trkpt>
      <trkpt lat="48.86588" lon="2.39766">
        <ele>138.6</ele>
        <time>2015-07-13T18:44:08.896Z</time>
      </trkpt>
      <trkpt lat="48.86593" lon="2.39763">
        <ele>138.5</ele>
        <time>2015-07-13T18:44:09.829Z</time>
      </trkpt>
      <trkpt lat="48.86598" lon="2.39759">
        <ele>138.5</ele>
        <time>2015-07-13T18:44:10.874Z</time>
      </trkpt>
      <trkpt lat="48.86603" lon="2.39754">
        <ele>138.5</ele>
        <time>2015-07-13T18:44:11.891Z</time>
      </trkpt>
      <trkpt lat="48.86608" lon="2.39751">
        <ele>138.4</ele>
        <time>2015-07-13T18:44:12.899Z</time>
      </trkpt>
      <trkpt lat="48.86613" lon="2.39747">
        <ele>138.5</ele>
        <time>2015-07-13T18:44:13.907Z</time>
      </trkpt>
      <trkpt lat="48.86617" lon="2.39744">
        <ele>138.5</ele>
        <time>2015-07-13T18:44:14.913Z</time>
      </trkpt>
      <trkpt lat="48.86622" lon="2.39742">
        <ele>138.6</ele>
        <time>2015-07-13T18:44:15.926Z</time>
      </trkpt>
      <trkpt lat="48.86627" lon="2.3974">
        <ele>138.8</ele>
        <time>2015-07-13T18:44:16.931Z</time>
      </trkpt>
      <trkpt lat="48.86633" lon="2.39739">
        <ele>139.2</ele>
        <time>2015-07-13T18:44:17.944Z</time>
      </trkpt>
      <trkpt lat="48.86638" lon="2.39738">
        <ele>139.3</ele>
        <time>2015-07-13T18:44:18.853Z</time>
      </trkpt>
      <trkpt lat="48.86645" lon="2.39733">
        <ele>139.8</ele>
        <time>2015-07-13T18:44:20.861Z</time>
      </trkpt>
      <trkpt lat="48.86649" lon="2.3973">
        <ele>140.2</ele>
        <time>2015-07-13T18:44:21.867Z</time>
      </trkpt>
      <trkpt lat="48.86656" lon="2.39725">
        <ele>141</ele>
        <time>2015-07-13T18:44:23.927Z</time>
      </trkpt>
      <trkpt lat="48.86658" lon="2.39723">
        <ele>141.5</ele>
        <time>2015-07-13T18:44:24.940Z</time>
      </trkpt>
      <trkpt lat="48.86664" lon="2.39715">
        <ele>142.2</ele>
        <time>2015-07-13T18:44:27.901Z</time>
      </trkpt>
      <trkpt lat="48.86667" lon="2.3971">
        <ele>142.4</ele>
        <time>2015-07-13T18:44:28.898Z</time>
      </trkpt>
      <trkpt lat="48.86673" lon="2.39704">
        <ele>143.1</ele>
        <time>2015-07-13T18:44:30.937Z</time>
      </trkpt>
      <trkpt lat="48.86677" lon="2.397">
        <ele>143.4</ele>
        <time>2015-07-13T18:44:31.874Z</time>
      </trkpt>
      <trkpt lat="48.86682" lon="2.39692">
        <ele>143.9</ele>
        <time>2015-07-13T18:44:33.925Z</time>
      </trkpt>
      <trkpt lat="48.86684" lon="2.39689">
        <ele>144.2</ele>
        <time>2015-07-13T18:44:34.939Z</time>
      </trkpt>
      <trkpt lat="48.86689" lon="2.39682">
        <ele>144.4</ele>
        <time>2015-07-13T18:44:36.855Z</time>
      </trkpt>
      <trkpt lat="48.86692" lon="2.39679">
        <ele>144.6</ele>
        <time>2015-07-13T18:44:37.883Z</time>
      </trkpt>
      <trkpt lat="48.86698" lon="2.39672">
        <ele>145</ele>
        <time>2015-07-13T18:44:39.858Z</time>
      </trkpt>
      <trkpt lat="48.86702" lon="2.3967">
        <ele>145.2</ele>
        <time>2015-07-13T18:44:40.909Z</time>
      </trkpt>
      <trkpt lat="48.8671" lon="2.39667">
        <ele>145.6</ele>
        <time>2015-07-13T18:44:42.932Z</time>
      </trkpt>
      <trkpt lat="48.86717" lon="2.39666">
        <ele>146.1</ele>
        <time>2015-07-13T18:44:43.886Z</time>
      </trkpt>
      <trkpt lat="48.86721" lon="2.3966">
        <ele>146.3</ele>
        <time>2015-07-13T18:44:44.857Z</time>
      </trkpt>
      <trkpt lat="48.86727" lon="2.39657">
        <ele>146.7</ele>
        <time>2015-07-13T18:44:45.866Z</time>
      </trkpt>
      <trkpt lat="48.86733" lon="2.39654">
        <ele>147.1</ele>
        <time>2015-07-13T18:44:46.873Z</time>
      </trkpt>
      <trkpt lat="48.86739" lon="2.39651">
        <ele>147.9</ele>
        <time>2015-07-13T18:44:47.949Z</time>
      </trkpt>
      <trkpt lat="48.86743" lon="2.39648">
        <ele>148.4</ele>
        <time>2015-07-13T18:44:48.864Z</time>
      </trkpt>
      <trkpt lat="48.86748" lon="2.39645">
        <ele>148.9</ele>
        <time>2015-07-13T18:44:49.876Z</time>
      </trkpt>
      <trkpt lat="48.86755" lon="2.39638">
        <ele>149.7</ele>
        <time>2015-07-13T18:44:51.896Z</time>
      </trkpt>
      <trkpt lat="48.86758" lon="2.39636">
        <ele>149.8</ele>
        <time>2015-07-13T18:44:52.913Z</time>
      </trkpt>
      <trkpt lat="48.86764" lon="2.39632">
        <ele>149.8</ele>
        <time>2015-07-13T18:44:54.857Z</time>
      </trkpt>
      <trkpt lat="48.86766" lon="2.39629">
        <ele>150.1</ele>
        <time>2015-07-13T18:44:55.882Z</time>
      </trkpt>
      <trkpt lat="48.86772" lon="2.39621">
        <ele>150.8</ele>
        <time>2015-07-13T18:44:57.877Z</time>
      </trkpt>
      <trkpt lat="48.86775" lon="2.39618">
        <ele>151</ele>
        <time>2015-07-13T18:44:58.835Z</time>
      </trkpt>
      <trkpt lat="48.86779" lon="2.39615">
        <ele>151.1</ele>
        <time>2015-07-13T18:44:59.936Z</time>
      </trkpt>
      <trkpt lat="48.86783" lon="2.39612">
        <ele>151.4</ele>
        <time>2015-07-13T18:45:00.873Z</time>
      </trkpt>
      <trkpt lat="48.86787" lon="2.39609">
        <ele>151.6</ele>
        <time>2015-07-13T18:45:01.851Z</time>
      </trkpt>
      <trkpt lat="48.86792" lon="2.39605">
        <ele>151.8</ele>
        <time>2015-07-13T18:45:02.855Z</time>
      </trkpt>
      <trkpt lat="48.86797" lon="2.39601">
        <ele>152</ele>
        <time>2015-07-13T18:45:03.891Z</time>
      </trkpt>
      <trkpt lat="48.86802" lon="2.39597">
        <ele>152.3</ele>
        <time>2015-07-13T18:45:04.904Z</time>
      </trkpt>
      <trkpt lat="48.86808" lon="2.39593">
        <ele>152.3</ele>
        <time>2015-07-13T18:45:05.917Z</time>
      </trkpt>
      <trkpt lat="48.86814" lon="2.39587">
        <ele>152.4</ele>
        <time>2015-07-13T18:45:06.922Z</time>
      </trkpt>
      <trkpt lat="48.8682" lon="2.39581">
        <ele>152.5</ele>
        <time>2015-07-13T18:45:07.853Z</time>
      </trkpt>
      <trkpt lat="48.86828" lon="2.39569">
        <ele>152.9</ele>
        <time>2015-07-13T18:45:08.857Z</time>
      </trkpt>
      <trkpt lat="48.86832" lon="2.39562">
        <ele>153.3</ele>
        <time>2015-07-13T18:45:09.866Z</time>
      </trkpt>
      <trkpt lat="48.86839" lon="2.39555">
        <ele>153.9</ele>
        <time>2015-07-13T18:45:10.905Z</time>
      </trkpt>
      <trkpt lat="48.86845" lon="2.3955">
        <ele>154.3</ele>
        <time>2015-07-13T18:45:11.895Z</time>
      </trkpt>
      <trkpt lat="48.86852" lon="2.39546">
        <ele>154.7</ele>
        <time>2015-07-13T18:45:12.889Z</time>
      </trkpt>
      <trkpt lat="48.8686" lon="2.39543">
        <ele>153.9</ele>
        <time>2015-07-13T18:45:13.944Z</time>
      </trkpt>
      <trkpt lat="48.86867" lon="2.39539">
        <ele>153.4</ele>
        <time>2015-07-13T18:45:14.942Z</time>
      </trkpt>
      <trkpt lat="48.86872" lon="2.39536">
        <ele>153.4</ele>
        <time>2015-07-13T18:45:15.886Z</time>
      </trkpt>
      <trkpt lat="48.86877" lon="2.39532">
        <ele>153.7</ele>
        <time>2015-07-13T18:45:16.932Z</time>
      </trkpt>
      <trkpt lat="48.86881" lon="2.39528">
        <ele>153.9</ele>
        <time>2015-07-13T18:45:17.944Z</time>
      </trkpt>
      <trkpt lat="48.86885" lon="2.39524">
        <ele>154</ele>
        <time>2015-07-13T18:45:18.820Z</time>
      </trkpt>
      <trkpt lat="48.8689" lon="2.3952">
        <ele>154.1</ele>
        <time>2015-07-13T18:45:19.858Z</time>
      </trkpt>
      <trkpt lat="48.86897" lon="2.39517">
        <ele>153.7</ele>
        <time>2015-07-13T18:45:20.864Z</time>
      </trkpt>
      <trkpt lat="48.86903" lon="2.39514">
        <ele>153.5</ele>
        <time>2015-07-13T18:45:21.877Z</time>
      </trkpt>
      <trkpt lat="48.86908" lon="2.39511">
        <ele>153.1</ele>
        <time>2015-07-13T18:45:22.919Z</time>
      </trkpt>
      <trkpt lat="48.86914" lon="2.39508">
        <ele>152.9</ele>
        <time>2015-07-13T18:45:23.952Z</time>
      </trkpt>
      <trkpt lat="48.86918" lon="2.39504">
        <ele>152.9</ele>
        <time>2015-07-13T18:45:24.856Z</time>
      </trkpt>
      <trkpt lat="48.86922" lon="2.39502">
        <ele>153</ele>
        <time>2015-07-13T18:45:25.880Z</time>
      </trkpt>
      <trkpt lat="48.86928" lon="2.39497">
        <ele>153.3</ele>
        <time>2015-07-13T18:45:27.915Z</time>
      </trkpt>
      <trkpt lat="48.86932" lon="2.39495">
        <ele>153.3</ele>
        <time>2015-07-13T18:45:28.970Z</time>
      </trkpt>
      <trkpt lat="48.86939" lon="2.39491">
        <ele>153.8</ele>
        <time>2015-07-13T18:45:30.849Z</time>
      </trkpt>
      <trkpt lat="48.86944" lon="2.39488">
        <ele>154.2</ele>
        <time>2015-07-13T18:45:31.888Z</time>
      </trkpt>
      <trkpt lat="48.86948" lon="2.39484">
        <ele>154.6</ele>
        <time>2015-07-13T18:45:32.856Z</time>
      </trkpt>
      <trkpt lat="48.86952" lon="2.3948">
        <ele>154.9</ele>
        <time>2015-07-13T18:45:33.844Z</time>
      </trkpt>
      <trkpt lat="48.86958" lon="2.39476">
        <ele>155.1</ele>
        <time>2015-07-13T18:45:35.899Z</time>
      </trkpt>
      <trkpt lat="48.86963" lon="2.39475">
        <ele>154.3</ele>
        <time>2015-07-13T18:45:36.954Z</time>
      </trkpt>
      <trkpt lat="48.86969" lon="2.3947">
        <ele>153.8</ele>
        <time>2015-07-13T18:45:39.882Z</time>
      </trkpt>
      <trkpt lat="48.86971" lon="2.39469">
        <ele>153.6</ele>
        <time>2015-07-13T18:45:40.929Z</time>
      </trkpt>
      <trkpt lat="48.86979" lon="2.39465">
        <ele>154.6</ele>
        <time>2015-07-13T18:45:43.885Z</time>
      </trkpt>
      <trkpt lat="48.8698" lon="2.39465">
        <ele>155.1</ele>
        <time>2015-07-13T18:45:44.909Z</time>
      </trkpt>
      <trkpt lat="48.86988" lon="2.39459">
        <ele>156.7</ele>
        <time>2015-07-13T18:45:50.874Z</time>
      </trkpt>
      <trkpt lat="48.86988" lon="2.39458">
        <ele>156.6</ele>
        <time>2015-07-13T18:45:51.907Z</time>
      </trkpt>
      <trkpt lat="48.86988" lon="2.39458">
        <ele>156.6</ele>
        <time>2015-07-13T18:45:52.866Z</time>
      </trkpt>
      <trkpt lat="48.86988" lon="2.39458">
        <ele>156.8</ele>
        <time>2015-07-13T18:45:53.966Z</time>
      </trkpt>
      <trkpt lat="48.86988" lon="2.39458">
        <ele>156.8</ele>
        <time>2015-07-13T18:47:42.924Z</time>
      </trkpt>
      <trkpt lat="48.8699" lon="2.39458">
        <ele>157.7</ele>
        <time>2015-07-13T18:47:43.859Z</time>
      </trkpt>
      <trkpt lat="48.86994" lon="2.39451">
        <ele>157.7</ele>
        <time>2015-07-13T18:47:47.957Z</time>
      </trkpt>
      <trkpt lat="48.86996" lon="2.39449">
        <ele>157.5</ele>
        <time>2015-07-13T18:47:48.887Z</time>
      </trkpt>
      <trkpt lat="48.87003" lon="2.39441">
        <ele>157.1</ele>
        <time>2015-07-13T18:47:51.918Z</time>
      </trkpt>
      <trkpt lat="48.87006" lon="2.39439">
        <ele>157</ele>
        <time>2015-07-13T18:47:52.957Z</time>
      </trkpt>
      <trkpt lat="48.87011" lon="2.39434">
        <ele>156.4</ele>
        <time>2015-07-13T18:47:54.866Z</time>
      </trkpt>
      <trkpt lat="48.87014" lon="2.39431">
        <ele>156.2</ele>
        <time>2015-07-13T18:47:55.960Z</time>
      </trkpt>
      <trkpt lat="48.87019" lon="2.39425">
        <ele>155.9</ele>
        <time>2015-07-13T18:47:57.863Z</time>
      </trkpt>
      <trkpt lat="48.87022" lon="2.39422">
        <ele>155.8</ele>
        <time>2015-07-13T18:47:58.963Z</time>
      </trkpt>
      <trkpt lat="48.87029" lon="2.39413">
        <ele>155.7</ele>
        <time>2015-07-13T18:48:00.844Z</time>
      </trkpt>
      <trkpt lat="48.87032" lon="2.3941">
        <ele>155.4</ele>
        <time>2015-07-13T18:48:01.927Z</time>
      </trkpt>
      <trkpt lat="48.87039" lon="2.39405">
        <ele>155.1</ele>
        <time>2015-07-13T18:48:03.838Z</time>
      </trkpt>
      <trkpt lat="48.87043" lon="2.39402">
        <ele>155</ele>
        <time>2015-07-13T18:48:04.867Z</time>
      </trkpt>
      <trkpt lat="48.87047" lon="2.39398">
        <ele>154.9</ele>
        <time>2015-07-13T18:48:05.906Z</time>
      </trkpt>
      <trkpt lat="48.8705" lon="2.39394">
        <ele>154.8</ele>
        <time>2015-07-13T18:48:06.913Z</time>
      </trkpt>
      <trkpt lat="48.87057" lon="2.39386">
        <ele>154.2</ele>
        <time>2015-07-13T18:48:08.893Z</time>
      </trkpt>
      <trkpt lat="48.87061" lon="2.39382">
        <ele>153.8</ele>
        <time>2015-07-13T18:48:09.896Z</time>
      </trkpt>
      <trkpt lat="48.87065" lon="2.39378">
        <ele>153.6</ele>
        <time>2015-07-13T18:48:10.915Z</time>
      </trkpt>
      <trkpt lat="48.87068" lon="2.39373">
        <ele>153.4</ele>
        <time>2015-07-13T18:48:11.927Z</time>
      </trkpt>
      <trkpt lat="48.87072" lon="2.39369">
        <ele>153.2</ele>
        <time>2015-07-13T18:48:12.857Z</time>
      </trkpt>
      <trkpt lat="48.87075" lon="2.39364">
        <ele>153.1</ele>
        <time>2015-07-13T18:48:13.869Z</time>
      </trkpt>
      <trkpt lat="48.87079" lon="2.39359">
        <ele>152.8</ele>
        <time>2015-07-13T18:48:14.890Z</time>
      </trkpt>
      <trkpt lat="48.87082" lon="2.39355">
        <ele>152.5</ele>
        <time>2015-07-13T18:48:15.900Z</time>
      </trkpt>
      <trkpt lat="48.87085" lon="2.39348">
        <ele>151.7</ele>
        <time>2015-07-13T18:48:16.936Z</time>
      </trkpt>
      <trkpt lat="48.87088" lon="2.39343">
        <ele>151.6</ele>
        <time>2015-07-13T18:48:17.950Z</time>
      </trkpt>
      <trkpt lat="48.87092" lon="2.39339">
        <ele>151.7</ele>
        <time>2015-07-13T18:48:18.852Z</time>
      </trkpt>
      <trkpt lat="48.87096" lon="2.39334">
        <ele>151.6</ele>
        <time>2015-07-13T18:48:19.857Z</time>
      </trkpt>
      <trkpt lat="48.871" lon="2.39329">
        <ele>151.2</ele>
        <time>2015-07-13T18:48:20.878Z</time>
      </trkpt>
      <trkpt lat="48.87103" lon="2.39324">
        <ele>151</ele>
        <time>2015-07-13T18:48:21.892Z</time>
      </trkpt>
      <trkpt lat="48.87107" lon="2.39319">
        <ele>151</ele>
        <time>2015-07-13T18:48:22.908Z</time>
      </trkpt>
      <trkpt lat="48.87111" lon="2.39313">
        <ele>150.9</ele>
        <time>2015-07-13T18:48:23.919Z</time>
      </trkpt>
      <trkpt lat="48.87115" lon="2.39308">
        <ele>150.7</ele>
        <time>2015-07-13T18:48:24.822Z</time>
      </trkpt>
      <trkpt lat="48.87118" lon="2.39302">
        <ele>150.7</ele>
        <time>2015-07-13T18:48:25.865Z</time>
      </trkpt>
      <trkpt lat="48.87122" lon="2.39298">
        <ele>150.8</ele>
        <time>2015-07-13T18:48:26.886Z</time>
      </trkpt>
      <trkpt lat="48.87125" lon="2.39291">
        <ele>150.8</ele>
        <time>2015-07-13T18:48:27.923Z</time>
      </trkpt>
      <trkpt lat="48.87129" lon="2.39286">
        <ele>150.6</ele>
        <time>2015-07-13T18:48:28.856Z</time>
      </trkpt>
      <trkpt lat="48.87132" lon="2.39281">
        <ele>150.7</ele>
        <time>2015-07-13T18:48:29.920Z</time>
      </trkpt>
      <trkpt lat="48.87139" lon="2.39273">
        <ele>150.8</ele>
        <time>2015-07-13T18:48:31.851Z</time>
      </trkpt>
      <trkpt lat="48.87142" lon="2.39266">
        <ele>150.8</ele>
        <time>2015-07-13T18:48:32.878Z</time>
      </trkpt>
      <trkpt lat="48.87145" lon="2.39261">
        <ele>150.8</ele>
        <time>2015-07-13T18:48:33.916Z</time>
      </trkpt>
      <trkpt lat="48.87149" lon="2.39256">
        <ele>150.8</ele>
        <time>2015-07-13T18:48:34.925Z</time>
      </trkpt>
      <trkpt lat="48.87152" lon="2.3925">
        <ele>150.8</ele>
        <time>2015-07-13T18:48:35.930Z</time>
      </trkpt>
      <trkpt lat="48.87156" lon="2.39246">
        <ele>150.9</ele>
        <time>2015-07-13T18:48:36.859Z</time>
      </trkpt>
      <trkpt lat="48.8716" lon="2.39239">
        <ele>150.8</ele>
        <time>2015-07-13T18:48:37.861Z</time>
      </trkpt>
      <trkpt lat="48.87163" lon="2.39231">
        <ele>150.6</ele>
        <time>2015-07-13T18:48:38.931Z</time>
      </trkpt>
      <trkpt lat="48.87167" lon="2.39226">
        <ele>150.6</ele>
        <time>2015-07-13T18:48:39.928Z</time>
      </trkpt>
      <trkpt lat="48.87171" lon="2.39221">
        <ele>150.6</ele>
        <time>2015-07-13T18:48:40.941Z</time>
      </trkpt>
      <trkpt lat="48.87175" lon="2.39216">
        <ele>150.3</ele>
        <time>2015-07-13T18:48:41.953Z</time>
      </trkpt>
      <trkpt lat="48.8718" lon="2.39211">
        <ele>150.2</ele>
        <time>2015-07-13T18:48:42.861Z</time>
      </trkpt>
      <trkpt lat="48.87183" lon="2.39205">
        <ele>150.3</ele>
        <time>2015-07-13T18:48:43.873Z</time>
      </trkpt>
      <trkpt lat="48.87188" lon="2.392">
        <ele>150.3</ele>
        <time>2015-07-13T18:48:44.876Z</time>
      </trkpt>
      <trkpt lat="48.87192" lon="2.39194">
        <ele>150.3</ele>
        <time>2015-07-13T18:48:45.910Z</time>
      </trkpt>
      <trkpt lat="48.87197" lon="2.3919">
        <ele>150.4</ele>
        <time>2015-07-13T18:48:46.888Z</time>
      </trkpt>
      <trkpt lat="48.87201" lon="2.39184">
        <ele>150.4</ele>
        <time>2015-07-13T18:48:47.925Z</time>
      </trkpt>
      <trkpt lat="48.87205" lon="2.39179">
        <ele>150.4</ele>
        <time>2015-07-13T18:48:48.933Z</time>
      </trkpt>
      <trkpt lat="48.8721" lon="2.39174">
        <ele>150.3</ele>
        <time>2015-07-13T18:48:49.858Z</time>
      </trkpt>
      <trkpt lat="48.87215" lon="2.39168">
        <ele>150.3</ele>
        <time>2015-07-13T18:48:50.864Z</time>
      </trkpt>
      <trkpt lat="48.8722" lon="2.39163">
        <ele>150.2</ele>
        <time>2015-07-13T18:48:51.863Z</time>
      </trkpt>
      <trkpt lat="48.87225" lon="2.39158">
        <ele>150.2</ele>
        <time>2015-07-13T18:48:52.867Z</time>
      </trkpt>
      <trkpt lat="48.8723" lon="2.39154">
        <ele>150</ele>
        <time>2015-07-13T18:48:53.911Z</time>
      </trkpt>
      <trkpt lat="48.87234" lon="2.3915">
        <ele>150</ele>
        <time>2015-07-13T18:48:54.896Z</time>
      </trkpt>
      <trkpt lat="48.87239" lon="2.39146">
        <ele>150.1</ele>
        <time>2015-07-13T18:48:55.860Z</time>
      </trkpt>
      <trkpt lat="48.87244" lon="2.39142">
        <ele>150.2</ele>
        <time>2015-07-13T18:48:56.864Z</time>
      </trkpt>
      <trkpt lat="48.8725" lon="2.39137">
        <ele>150.2</ele>
        <time>2015-07-13T18:48:57.874Z</time>
      </trkpt>
      <trkpt lat="48.87255" lon="2.39132">
        <ele>150.1</ele>
        <time>2015-07-13T18:48:58.873Z</time>
      </trkpt>
      <trkpt lat="48.8726" lon="2.39127">
        <ele>150.3</ele>
        <time>2015-07-13T18:48:59.939Z</time>
      </trkpt>
      <trkpt lat="48.87265" lon="2.39122">
        <ele>150.3</ele>
        <time>2015-07-13T18:49:00.856Z</time>
      </trkpt>
      <trkpt lat="48.8727" lon="2.39117">
        <ele>150.4</ele>
        <time>2015-07-13T18:49:01.875Z</time>
      </trkpt>
      <trkpt lat="48.87275" lon="2.39113">
        <ele>150.4</ele>
        <time>2015-07-13T18:49:02.902Z</time>
      </trkpt>
      <trkpt lat="48.8728" lon="2.39106">
        <ele>150.5</ele>
        <time>2015-07-13T18:49:03.944Z</time>
      </trkpt>
      <trkpt lat="48.87285" lon="2.39099">
        <ele>150.2</ele>
        <time>2015-07-13T18:49:04.854Z</time>
      </trkpt>
      <trkpt lat="48.8729" lon="2.39092">
        <ele>150.2</ele>
        <time>2015-07-13T18:49:05.962Z</time>
      </trkpt>
      <trkpt lat="48.87295" lon="2.39086">
        <ele>150</ele>
        <time>2015-07-13T18:49:06.914Z</time>
      </trkpt>
      <trkpt lat="48.87299" lon="2.39079">
        <ele>149.9</ele>
        <time>2015-07-13T18:49:07.851Z</time>
      </trkpt>
      <trkpt lat="48.87303" lon="2.39074">
        <ele>149.9</ele>
        <time>2015-07-13T18:49:08.851Z</time>
      </trkpt>
      <trkpt lat="48.87308" lon="2.39067">
        <ele>149.7</ele>
        <time>2015-07-13T18:49:09.876Z</time>
      </trkpt>
      <trkpt lat="48.87312" lon="2.39059">
        <ele>149.5</ele>
        <time>2015-07-13T18:49:10.843Z</time>
      </trkpt>
      <trkpt lat="48.87315" lon="2.39053">
        <ele>149.5</ele>
        <time>2015-07-13T18:49:12.125Z</time>
      </trkpt>
      <trkpt lat="48.87319" lon="2.39048">
        <ele>149.5</ele>
        <time>2015-07-13T18:49:12.856Z</time>
      </trkpt>
      <trkpt lat="48.87324" lon="2.39043">
        <ele>149.7</ele>
        <time>2015-07-13T18:49:13.874Z</time>
      </trkpt>
      <trkpt lat="48.87327" lon="2.39037">
        <ele>149.8</ele>
        <time>2015-07-13T18:49:14.887Z</time>
      </trkpt>
      <trkpt lat="48.87331" lon="2.39033">
        <ele>149.8</ele>
        <time>2015-07-13T18:49:15.904Z</time>
      </trkpt>
      <trkpt lat="48.87335" lon="2.39029">
        <ele>149.8</ele>
        <time>2015-07-13T18:49:16.876Z</time>
      </trkpt>
      <trkpt lat="48.87342" lon="2.39023">
        <ele>149.7</ele>
        <time>2015-07-13T18:49:18.925Z</time>
      </trkpt>
      <trkpt lat="48.87345" lon="2.39017">
        <ele>149.5</ele>
        <time>2015-07-13T18:49:19.884Z</time>
      </trkpt>
      <trkpt lat="48.87348" lon="2.39009">
        <ele>149.5</ele>
        <time>2015-07-13T18:49:20.857Z</time>
      </trkpt>
      <trkpt lat="48.87351" lon="2.39002">
        <ele>149.5</ele>
        <time>2015-07-13T18:49:21.901Z</time>
      </trkpt>
      <trkpt lat="48.87353" lon="2.38997">
        <ele>149.7</ele>
        <time>2015-07-13T18:49:22.834Z</time>
      </trkpt>
      <trkpt lat="48.87356" lon="2.3899">
        <ele>149.7</ele>
        <time>2015-07-13T18:49:23.870Z</time>
      </trkpt>
      <trkpt lat="48.8736" lon="2.38982">
        <ele>149.8</ele>
        <time>2015-07-13T18:49:24.895Z</time>
      </trkpt>
      <trkpt lat="48.87363" lon="2.38976">
        <ele>149.7</ele>
        <time>2015-07-13T18:49:25.923Z</time>
      </trkpt>
      <trkpt lat="48.87365" lon="2.38969">
        <ele>149.8</ele>
        <time>2015-07-13T18:49:26.826Z</time>
      </trkpt>
      <trkpt lat="48.87369" lon="2.38963">
        <ele>149.7</ele>
        <time>2015-07-13T18:49:27.843Z</time>
      </trkpt>
      <trkpt lat="48.87372" lon="2.38956">
        <ele>149.7</ele>
        <time>2015-07-13T18:49:28.857Z</time>
      </trkpt>
      <trkpt lat="48.87375" lon="2.38949">
        <ele>149.6</ele>
        <time>2015-07-13T18:49:29.934Z</time>
      </trkpt>
      <trkpt lat="48.87378" lon="2.38942">
        <ele>149.6</ele>
        <time>2015-07-13T18:49:30.829Z</time>
      </trkpt>
      <trkpt lat="48.87379" lon="2.38935">
        <ele>149.7</ele>
        <time>2015-07-13T18:49:31.853Z</time>
      </trkpt>
      <trkpt lat="48.87381" lon="2.38928">
        <ele>149.8</ele>
        <time>2015-07-13T18:49:32.837Z</time>
      </trkpt>
      <trkpt lat="48.87383" lon="2.38921">
        <ele>150</ele>
        <time>2015-07-13T18:49:33.851Z</time>
      </trkpt>
      <trkpt lat="48.87384" lon="2.38914">
        <ele>150.1</ele>
        <time>2015-07-13T18:49:34.868Z</time>
      </trkpt>
      <trkpt lat="48.87385" lon="2.38906">
        <ele>150.2</ele>
        <time>2015-07-13T18:49:35.864Z</time>
      </trkpt>
      <trkpt lat="48.87385" lon="2.38898">
        <ele>150.1</ele>
        <time>2015-07-13T18:49:36.886Z</time>
      </trkpt>
      <trkpt lat="48.87386" lon="2.3889">
        <ele>150.2</ele>
        <time>2015-07-13T18:49:37.904Z</time>
      </trkpt>
      <trkpt lat="48.87386" lon="2.3888">
        <ele>150.3</ele>
        <time>2015-07-13T18:49:38.852Z</time>
      </trkpt>
      <trkpt lat="48.87385" lon="2.3887">
        <ele>150.3</ele>
        <time>2015-07-13T18:49:39.861Z</time>
      </trkpt>
      <trkpt lat="48.87384" lon="2.3886">
        <ele>150.1</ele>
        <time>2015-07-13T18:49:40.873Z</time>
      </trkpt>
      <trkpt lat="48.87383" lon="2.38849">
        <ele>150</ele>
        <time>2015-07-13T18:49:41.895Z</time>
      </trkpt>
      <trkpt lat="48.87383" lon="2.38831">
        <ele>151.1</ele>
        <time>2015-07-13T18:49:42.900Z</time>
      </trkpt>
      <trkpt lat="48.87384" lon="2.3882">
        <ele>151.1</ele>
        <time>2015-07-13T18:49:43.930Z</time>
      </trkpt>
      <trkpt lat="48.87384" lon="2.38808">
        <ele>151</ele>
        <time>2015-07-13T18:49:44.854Z</time>
      </trkpt>
      <trkpt lat="48.87384" lon="2.38796">
        <ele>150.9</ele>
        <time>2015-07-13T18:49:45.855Z</time>
      </trkpt>
      <trkpt lat="48.87385" lon="2.38785">
        <ele>151</ele>
        <time>2015-07-13T18:49:46.884Z</time>
      </trkpt>
      <trkpt lat="48.87387" lon="2.38773">
        <ele>151</ele>
        <time>2015-07-13T18:49:47.900Z</time>
      </trkpt>
      <trkpt lat="48.87387" lon="2.38761">
        <ele>150.9</ele>
        <time>2015-07-13T18:49:48.915Z</time>
      </trkpt>
      <trkpt lat="48.87387" lon="2.38748">
        <ele>150.6</ele>
        <time>2015-07-13T18:49:49.912Z</time>
      </trkpt>
      <trkpt lat="48.87387" lon="2.38736">
        <ele>150.5</ele>
        <time>2015-07-13T18:49:50.816Z</time>
      </trkpt>
      <trkpt lat="48.87387" lon="2.38724">
        <ele>150.5</ele>
        <time>2015-07-13T18:49:51.876Z</time>
      </trkpt>
      <trkpt lat="48.87386" lon="2.38713">
        <ele>150.8</ele>
        <time>2015-07-13T18:49:52.881Z</time>
      </trkpt>
      <trkpt lat="48.87385" lon="2.38703">
        <ele>151</ele>
        <time>2015-07-13T18:49:53.913Z</time>
      </trkpt>
      <trkpt lat="48.87385" lon="2.38693">
        <ele>150.9</ele>
        <time>2015-07-13T18:49:54.916Z</time>
      </trkpt>
      <trkpt lat="48.87385" lon="2.38683">
        <ele>150.8</ele>
        <time>2015-07-13T18:49:55.920Z</time>
      </trkpt>
      <trkpt lat="48.87385" lon="2.38673">
        <ele>150.6</ele>
        <time>2015-07-13T18:49:56.852Z</time>
      </trkpt>
      <trkpt lat="48.87384" lon="2.38662">
        <ele>150.5</ele>
        <time>2015-07-13T18:49:57.863Z</time>
      </trkpt>
      <trkpt lat="48.87383" lon="2.38652">
        <ele>150.4</ele>
        <time>2015-07-13T18:49:58.853Z</time>
      </trkpt>
      <trkpt lat="48.87382" lon="2.38641">
        <ele>150.4</ele>
        <time>2015-07-13T18:49:59.923Z</time>
      </trkpt>
      <trkpt lat="48.87381" lon="2.38631">
        <ele>150.3</ele>
        <time>2015-07-13T18:50:00.826Z</time>
      </trkpt>
      <trkpt lat="48.8738" lon="2.38621">
        <ele>150.5</ele>
        <time>2015-07-13T18:50:01.862Z</time>
      </trkpt>
      <trkpt lat="48.87379" lon="2.38611">
        <ele>150.1</ele>
        <time>2015-07-13T18:50:02.847Z</time>
      </trkpt>
      <trkpt lat="48.87379" lon="2.38603">
        <ele>150</ele>
        <time>2015-07-13T18:50:03.854Z</time>
      </trkpt>
      <trkpt lat="48.87381" lon="2.38594">
        <ele>150.1</ele>
        <time>2015-07-13T18:50:04.858Z</time>
      </trkpt>
      <trkpt lat="48.87382" lon="2.38586">
        <ele>149.8</ele>
        <time>2015-07-13T18:50:05.889Z</time>
      </trkpt>
      <trkpt lat="48.87389" lon="2.3858">
        <ele>147.1</ele>
        <time>2015-07-13T18:50:06.906Z</time>
      </trkpt>
      <trkpt lat="48.8739" lon="2.38573">
        <ele>146.6</ele>
        <time>2015-07-13T18:50:07.941Z</time>
      </trkpt>
      <trkpt lat="48.87391" lon="2.38565">
        <ele>146.6</ele>
        <time>2015-07-13T18:50:08.846Z</time>
      </trkpt>
      <trkpt lat="48.87392" lon="2.38556">
        <ele>146.6</ele>
        <time>2015-07-13T18:50:09.850Z</time>
      </trkpt>
      <trkpt lat="48.87392" lon="2.38549">
        <ele>146.9</ele>
        <time>2015-07-13T18:50:10.883Z</time>
      </trkpt>
      <trkpt lat="48.87394" lon="2.38542">
        <ele>147.5</ele>
        <time>2015-07-13T18:50:11.898Z</time>
      </trkpt>
      <trkpt lat="48.87394" lon="2.38534">
        <ele>147.4</ele>
        <time>2015-07-13T18:50:12.896Z</time>
      </trkpt>
      <trkpt lat="48.87394" lon="2.38527">
        <ele>147.4</ele>
        <time>2015-07-13T18:50:13.914Z</time>
      </trkpt>
      <trkpt lat="48.87394" lon="2.38519">
        <ele>147.7</ele>
        <time>2015-07-13T18:50:14.919Z</time>
      </trkpt>
      <trkpt lat="48.87395" lon="2.38512">
        <ele>148</ele>
        <time>2015-07-13T18:50:15.929Z</time>
      </trkpt>
      <trkpt lat="48.87396" lon="2.38505">
        <ele>148.1</ele>
        <time>2015-07-13T18:50:16.853Z</time>
      </trkpt>
      <trkpt lat="48.87397" lon="2.38497">
        <ele>148.3</ele>
        <time>2015-07-13T18:50:17.951Z</time>
      </trkpt>
      <trkpt lat="48.87398" lon="2.38489">
        <ele>148.5</ele>
        <time>2015-07-13T18:50:18.852Z</time>
      </trkpt>
      <trkpt lat="48.87397" lon="2.3848">
        <ele>148.5</ele>
        <time>2015-07-13T18:50:19.848Z</time>
      </trkpt>
      <trkpt lat="48.87398" lon="2.3847">
        <ele>148.3</ele>
        <time>2015-07-13T18:50:20.856Z</time>
      </trkpt>
      <trkpt lat="48.87398" lon="2.38461">
        <ele>148.3</ele>
        <time>2015-07-13T18:50:21.874Z</time>
      </trkpt>
      <trkpt lat="48.87401" lon="2.38453">
        <ele>148.4</ele>
        <time>2015-07-13T18:50:22.883Z</time>
      </trkpt>
      <trkpt lat="48.87402" lon="2.38444">
        <ele>148.4</ele>
        <time>2015-07-13T18:50:23.907Z</time>
      </trkpt>
      <trkpt lat="48.87403" lon="2.38436">
        <ele>148.6</ele>
        <time>2015-07-13T18:50:24.914Z</time>
      </trkpt>
      <trkpt lat="48.87404" lon="2.38427">
        <ele>148.7</ele>
        <time>2015-07-13T18:50:25.839Z</time>
      </trkpt>
      <trkpt lat="48.87406" lon="2.38418">
        <ele>148.8</ele>
        <time>2015-07-13T18:50:26.843Z</time>
      </trkpt>
      <trkpt lat="48.87408" lon="2.38409">
        <ele>148.9</ele>
        <time>2015-07-13T18:50:27.852Z</time>
      </trkpt>
      <trkpt lat="48.87409" lon="2.384">
        <ele>148.9</ele>
        <time>2015-07-13T18:50:28.861Z</time>
      </trkpt>
      <trkpt lat="48.87411" lon="2.3839">
        <ele>148.8</ele>
        <time>2015-07-13T18:50:29.909Z</time>
      </trkpt>
      <trkpt lat="48.87415" lon="2.38382">
        <ele>148.3</ele>
        <time>2015-07-13T18:50:30.898Z</time>
      </trkpt>
      <trkpt lat="48.87418" lon="2.38374">
        <ele>148.1</ele>
        <time>2015-07-13T18:50:31.914Z</time>
      </trkpt>
      <trkpt lat="48.87423" lon="2.38366">
        <ele>148</ele>
        <time>2015-07-13T18:50:32.923Z</time>
      </trkpt>
      <trkpt lat="48.87427" lon="2.38358">
        <ele>147.8</ele>
        <time>2015-07-13T18:50:33.847Z</time>
      </trkpt>
      <trkpt lat="48.87432" lon="2.38351">
        <ele>147.7</ele>
        <time>2015-07-13T18:50:34.884Z</time>
      </trkpt>
      <trkpt lat="48.87436" lon="2.38344">
        <ele>147.5</ele>
        <time>2015-07-13T18:50:35.899Z</time>
      </trkpt>
      <trkpt lat="48.8744" lon="2.38337">
        <ele>147.4</ele>
        <time>2015-07-13T18:50:36.835Z</time>
      </trkpt>
      <trkpt lat="48.87445" lon="2.38331">
        <ele>147.4</ele>
        <time>2015-07-13T18:50:37.849Z</time>
      </trkpt>
      <trkpt lat="48.87449" lon="2.38325">
        <ele>147.5</ele>
        <time>2015-07-13T18:50:38.854Z</time>
      </trkpt>
      <trkpt lat="48.87454" lon="2.38319">
        <ele>147.4</ele>
        <time>2015-07-13T18:50:39.876Z</time>
      </trkpt>
      <trkpt lat="48.8746" lon="2.38313">
        <ele>147.2</ele>
        <time>2015-07-13T18:50:40.875Z</time>
      </trkpt>
      <trkpt lat="48.87466" lon="2.38308">
        <ele>147.1</ele>
        <time>2015-07-13T18:50:41.915Z</time>
      </trkpt>
      <trkpt lat="48.87472" lon="2.38303">
        <ele>147</ele>
        <time>2015-07-13T18:50:42.850Z</time>
      </trkpt>
      <trkpt lat="48.87478" lon="2.38298">
        <ele>146.6</ele>
        <time>2015-07-13T18:50:43.862Z</time>
      </trkpt>
      <trkpt lat="48.87484" lon="2.38293">
        <ele>146.3</ele>
        <time>2015-07-13T18:50:44.876Z</time>
      </trkpt>
      <trkpt lat="48.8749" lon="2.38288">
        <ele>146</ele>
        <time>2015-07-13T18:50:45.898Z</time>
      </trkpt>
      <trkpt lat="48.87496" lon="2.38282">
        <ele>145.7</ele>
        <time>2015-07-13T18:50:46.912Z</time>
      </trkpt>
      <trkpt lat="48.87502" lon="2.38276">
        <ele>145.3</ele>
        <time>2015-07-13T18:50:47.926Z</time>
      </trkpt>
      <trkpt lat="48.87507" lon="2.3827">
        <ele>145.1</ele>
        <time>2015-07-13T18:50:48.938Z</time>
      </trkpt>
      <trkpt lat="48.87513" lon="2.38263">
        <ele>144.4</ele>
        <time>2015-07-13T18:50:49.850Z</time>
      </trkpt>
      <trkpt lat="48.87519" lon="2.38257">
        <ele>144.1</ele>
        <time>2015-07-13T18:50:50.852Z</time>
      </trkpt>
      <trkpt lat="48.87525" lon="2.38253">
        <ele>143.8</ele>
        <time>2015-07-13T18:50:51.868Z</time>
      </trkpt>
      <trkpt lat="48.8753" lon="2.38247">
        <ele>143.7</ele>
        <time>2015-07-13T18:50:52.874Z</time>
      </trkpt>
      <trkpt lat="48.87536" lon="2.38241">
        <ele>143.7</ele>
        <time>2015-07-13T18:50:53.898Z</time>
      </trkpt>
      <trkpt lat="48.87541" lon="2.38233">
        <ele>143.6</ele>
        <time>2015-07-13T18:50:54.909Z</time>
      </trkpt>
      <trkpt lat="48.87546" lon="2.38227">
        <ele>143.3</ele>
        <time>2015-07-13T18:50:55.919Z</time>
      </trkpt>
      <trkpt lat="48.87551" lon="2.38221">
        <ele>142.9</ele>
        <time>2015-07-13T18:50:56.931Z</time>
      </trkpt>
      <trkpt lat="48.87557" lon="2.38215">
        <ele>142.5</ele>
        <time>2015-07-13T18:50:57.940Z</time>
      </trkpt>
      <trkpt lat="48.87562" lon="2.38209">
        <ele>142.3</ele>
        <time>2015-07-13T18:50:58.855Z</time>
      </trkpt>
      <trkpt lat="48.87568" lon="2.38203">
        <ele>142</ele>
        <time>2015-07-13T18:50:59.955Z</time>
      </trkpt>
      <trkpt lat="48.87573" lon="2.38197">
        <ele>141.7</ele>
        <time>2015-07-13T18:51:00.828Z</time>
      </trkpt>
      <trkpt lat="48.87577" lon="2.38191">
        <ele>141.2</ele>
        <time>2015-07-13T18:51:01.856Z</time>
      </trkpt>
      <trkpt lat="48.87583" lon="2.38187">
        <ele>140.9</ele>
        <time>2015-07-13T18:51:02.865Z</time>
      </trkpt>
      <trkpt lat="48.87588" lon="2.38182">
        <ele>140.6</ele>
        <time>2015-07-13T18:51:03.869Z</time>
      </trkpt>
      <trkpt lat="48.87592" lon="2.38177">
        <ele>140.8</ele>
        <time>2015-07-13T18:51:04.876Z</time>
      </trkpt>
      <trkpt lat="48.87596" lon="2.38171">
        <ele>140.8</ele>
        <time>2015-07-13T18:51:05.900Z</time>
      </trkpt>
      <trkpt lat="48.87599" lon="2.38164">
        <ele>140.8</ele>
        <time>2015-07-13T18:51:06.915Z</time>
      </trkpt>
      <trkpt lat="48.87603" lon="2.38158">
        <ele>141</ele>
        <time>2015-07-13T18:51:07.853Z</time>
      </trkpt>
      <trkpt lat="48.87607" lon="2.38152">
        <ele>141.1</ele>
        <time>2015-07-13T18:51:08.861Z</time>
      </trkpt>
      <trkpt lat="48.8761" lon="2.38146">
        <ele>141.3</ele>
        <time>2015-07-13T18:51:09.862Z</time>
      </trkpt>
      <trkpt lat="48.87612" lon="2.38141">
        <ele>141.1</ele>
        <time>2015-07-13T18:51:10.894Z</time>
      </trkpt>
      <trkpt lat="48.87616" lon="2.38128">
        <ele>141.3</ele>
        <time>2015-07-13T18:51:12.897Z</time>
      </trkpt>
      <trkpt lat="48.87617" lon="2.38123">
        <ele>141.3</ele>
        <time>2015-07-13T18:51:13.882Z</time>
      </trkpt>
      <trkpt lat="48.87617" lon="2.38116">
        <ele>141.3</ele>
        <time>2015-07-13T18:51:14.853Z</time>
      </trkpt>
      <trkpt lat="48.87617" lon="2.38109">
        <ele>141.4</ele>
        <time>2015-07-13T18:51:15.852Z</time>
      </trkpt>
      <trkpt lat="48.87618" lon="2.38102">
        <ele>141.5</ele>
        <time>2015-07-13T18:51:16.870Z</time>
      </trkpt>
      <trkpt lat="48.87618" lon="2.38095">
        <ele>141.7</ele>
        <time>2015-07-13T18:51:17.931Z</time>
      </trkpt>
      <trkpt lat="48.87619" lon="2.38089">
        <ele>141.9</ele>
        <time>2015-07-13T18:51:18.918Z</time>
      </trkpt>
      <trkpt lat="48.87619" lon="2.3808">
        <ele>141.8</ele>
        <time>2015-07-13T18:51:19.928Z</time>
      </trkpt>
      <trkpt lat="48.87619" lon="2.38071">
        <ele>142</ele>
        <time>2015-07-13T18:51:20.859Z</time>
      </trkpt>
      <trkpt lat="48.87619" lon="2.38062">
        <ele>142</ele>
        <time>2015-07-13T18:51:21.857Z</time>
      </trkpt>
      <trkpt lat="48.87619" lon="2.38053">
        <ele>141.9</ele>
        <time>2015-07-13T18:51:22.869Z</time>
      </trkpt>
      <trkpt lat="48.8762" lon="2.38044">
        <ele>141.8</ele>
        <time>2015-07-13T18:51:23.952Z</time>
      </trkpt>
      <trkpt lat="48.87622" lon="2.38034">
        <ele>141.8</ele>
        <time>2015-07-13T18:51:24.954Z</time>
      </trkpt>
      <trkpt lat="48.87623" lon="2.38025">
        <ele>141.6</ele>
        <time>2015-07-13T18:51:25.857Z</time>
      </trkpt>
      <trkpt lat="48.87624" lon="2.38018">
        <ele>141.6</ele>
        <time>2015-07-13T18:51:26.898Z</time>
      </trkpt>
      <trkpt lat="48.87625" lon="2.38011">
        <ele>141.6</ele>
        <time>2015-07-13T18:51:27.903Z</time>
      </trkpt>
      <trkpt lat="48.87627" lon="2.38005">
        <ele>141.6</ele>
        <time>2015-07-13T18:51:28.929Z</time>
      </trkpt>
      <trkpt lat="48.87629" lon="2.37998">
        <ele>141.6</ele>
        <time>2015-07-13T18:51:29.945Z</time>
      </trkpt>
      <trkpt lat="48.87632" lon="2.37992">
        <ele>141.3</ele>
        <time>2015-07-13T18:51:30.857Z</time>
      </trkpt>
      <trkpt lat="48.87635" lon="2.37987">
        <ele>141</ele>
        <time>2015-07-13T18:51:31.875Z</time>
      </trkpt>
      <trkpt lat="48.87639" lon="2.37981">
        <ele>140.3</ele>
        <time>2015-07-13T18:51:32.881Z</time>
      </trkpt>
      <trkpt lat="48.87643" lon="2.37974">
        <ele>139.7</ele>
        <time>2015-07-13T18:51:33.885Z</time>
      </trkpt>
      <trkpt lat="48.87646" lon="2.37967">
        <ele>139</ele>
        <time>2015-07-13T18:51:34.895Z</time>
      </trkpt>
      <trkpt lat="48.8765" lon="2.3796">
        <ele>139.1</ele>
        <time>2015-07-13T18:51:35.909Z</time>
      </trkpt>
      <trkpt lat="48.87653" lon="2.37954">
        <ele>138.9</ele>
        <time>2015-07-13T18:51:36.917Z</time>
      </trkpt>
      <trkpt lat="48.87656" lon="2.37948">
        <ele>138.6</ele>
        <time>2015-07-13T18:51:37.942Z</time>
      </trkpt>
      <trkpt lat="48.87659" lon="2.37941">
        <ele>138.4</ele>
        <time>2015-07-13T18:51:38.847Z</time>
      </trkpt>
      <trkpt lat="48.87662" lon="2.37934">
        <ele>138.5</ele>
        <time>2015-07-13T18:51:39.873Z</time>
      </trkpt>
      <trkpt lat="48.87665" lon="2.37927">
        <ele>138.3</ele>
        <time>2015-07-13T18:51:40.961Z</time>
      </trkpt>
      <trkpt lat="48.87669" lon="2.37921">
        <ele>138</ele>
        <time>2015-07-13T18:51:41.968Z</time>
      </trkpt>
      <trkpt lat="48.87672" lon="2.37916">
        <ele>137.7</ele>
        <time>2015-07-13T18:51:42.841Z</time>
      </trkpt>
      <trkpt lat="48.87676" lon="2.3791">
        <ele>137.5</ele>
        <time>2015-07-13T18:51:43.845Z</time>
      </trkpt>
      <trkpt lat="48.87679" lon="2.37903">
        <ele>137.5</ele>
        <time>2015-07-13T18:51:44.860Z</time>
      </trkpt>
      <trkpt lat="48.87683" lon="2.37897">
        <ele>137.6</ele>
        <time>2015-07-13T18:51:45.885Z</time>
      </trkpt>
      <trkpt lat="48.87687" lon="2.37892">
        <ele>137.6</ele>
        <time>2015-07-13T18:51:46.888Z</time>
      </trkpt>
      <trkpt lat="48.87691" lon="2.37888">
        <ele>137.6</ele>
        <time>2015-07-13T18:51:47.907Z</time>
      </trkpt>
      <trkpt lat="48.87696" lon="2.37884">
        <ele>137.7</ele>
        <time>2015-07-13T18:51:48.923Z</time>
      </trkpt>
      <trkpt lat="48.877" lon="2.37881">
        <ele>137.6</ele>
        <time>2015-07-13T18:51:49.859Z</time>
      </trkpt>
      <trkpt lat="48.87708" lon="2.37875">
        <ele>137.5</ele>
        <time>2015-07-13T18:51:51.878Z</time>
      </trkpt>
      <trkpt lat="48.87711" lon="2.3787">
        <ele>137.5</ele>
        <time>2015-07-13T18:51:52.897Z</time>
      </trkpt>
      <trkpt lat="48.87718" lon="2.37862">
        <ele>137.5</ele>
        <time>2015-07-13T18:51:54.850Z</time>
      </trkpt>
      <trkpt lat="48.87722" lon="2.37858">
        <ele>137.4</ele>
        <time>2015-07-13T18:51:55.885Z</time>
      </trkpt>
      <trkpt lat="48.87726" lon="2.37855">
        <ele>137.5</ele>
        <time>2015-07-13T18:51:56.869Z</time>
      </trkpt>
      <trkpt lat="48.87732" lon="2.37851">
        <ele>137.6</ele>
        <time>2015-07-13T18:51:57.872Z</time>
      </trkpt>
      <trkpt lat="48.87736" lon="2.37849">
        <ele>137.7</ele>
        <time>2015-07-13T18:51:58.877Z</time>
      </trkpt>
      <trkpt lat="48.87741" lon="2.37846">
        <ele>137.7</ele>
        <time>2015-07-13T18:51:59.920Z</time>
      </trkpt>
      <trkpt lat="48.87745" lon="2.37844">
        <ele>137.7</ele>
        <time>2015-07-13T18:52:00.934Z</time>
      </trkpt>
      <trkpt lat="48.87749" lon="2.37842">
        <ele>137.8</ele>
        <time>2015-07-13T18:52:01.841Z</time>
      </trkpt>
      <trkpt lat="48.87753" lon="2.37839">
        <ele>137.8</ele>
        <time>2015-07-13T18:52:02.842Z</time>
      </trkpt>
      <trkpt lat="48.87759" lon="2.37836">
        <ele>137.8</ele>
        <time>2015-07-13T18:52:03.861Z</time>
      </trkpt>
      <trkpt lat="48.87764" lon="2.37834">
        <ele>138</ele>
        <time>2015-07-13T18:52:04.873Z</time>
      </trkpt>
      <trkpt lat="48.87771" lon="2.37833">
        <ele>138.2</ele>
        <time>2015-07-13T18:52:05.890Z</time>
      </trkpt>
      <trkpt lat="48.87778" lon="2.37831">
        <ele>138.1</ele>
        <time>2015-07-13T18:52:06.896Z</time>
      </trkpt>
      <trkpt lat="48.87785" lon="2.3783">
        <ele>138</ele>
        <time>2015-07-13T18:52:07.924Z</time>
      </trkpt>
      <trkpt lat="48.87792" lon="2.3783">
        <ele>138.2</ele>
        <time>2015-07-13T18:52:08.972Z</time>
      </trkpt>
      <trkpt lat="48.87799" lon="2.3783">
        <ele>138.4</ele>
        <time>2015-07-13T18:52:09.817Z</time>
      </trkpt>
      <trkpt lat="48.87805" lon="2.3783">
        <ele>138.5</ele>
        <time>2015-07-13T18:52:10.882Z</time>
      </trkpt>
      <trkpt lat="48.87813" lon="2.37831">
        <ele>138.7</ele>
        <time>2015-07-13T18:52:11.894Z</time>
      </trkpt>
      <trkpt lat="48.87819" lon="2.37831">
        <ele>138.9</ele>
        <time>2015-07-13T18:52:12.832Z</time>
      </trkpt>
      <trkpt lat="48.87825" lon="2.37832">
        <ele>138.9</ele>
        <time>2015-07-13T18:52:13.834Z</time>
      </trkpt>
      <trkpt lat="48.8783" lon="2.37832">
        <ele>139.1</ele>
        <time>2015-07-13T18:52:14.877Z</time>
      </trkpt>
      <trkpt lat="48.87836" lon="2.37833">
        <ele>138.9</ele>
        <time>2015-07-13T18:52:15.920Z</time>
      </trkpt>
      <trkpt lat="48.87843" lon="2.37834">
        <ele>138.6</ele>
        <time>2015-07-13T18:52:16.854Z</time>
      </trkpt>
      <trkpt lat="48.87847" lon="2.37836">
        <ele>138.7</ele>
        <time>2015-07-13T18:52:17.894Z</time>
      </trkpt>
      <trkpt lat="48.87854" lon="2.3784">
        <ele>139.2</ele>
        <time>2015-07-13T18:52:19.911Z</time>
      </trkpt>
      <trkpt lat="48.87857" lon="2.37842">
        <ele>139.2</ele>
        <time>2015-07-13T18:52:20.936Z</time>
      </trkpt>
      <trkpt lat="48.87863" lon="2.37848">
        <ele>139.4</ele>
        <time>2015-07-13T18:52:22.860Z</time>
      </trkpt>
      <trkpt lat="48.87868" lon="2.37853">
        <ele>139.4</ele>
        <time>2015-07-13T18:52:23.913Z</time>
      </trkpt>
      <trkpt lat="48.87873" lon="2.37855">
        <ele>139.2</ele>
        <time>2015-07-13T18:52:24.837Z</time>
      </trkpt>
      <trkpt lat="48.87876" lon="2.37858">
        <ele>139.1</ele>
        <time>2015-07-13T18:52:25.861Z</time>
      </trkpt>
      <trkpt lat="48.87884" lon="2.37864">
        <ele>139.3</ele>
        <time>2015-07-13T18:52:27.906Z</time>
      </trkpt>
      <trkpt lat="48.87888" lon="2.37867">
        <ele>139.3</ele>
        <time>2015-07-13T18:52:28.946Z</time>
      </trkpt>
      <trkpt lat="48.87895" lon="2.37874">
        <ele>139.6</ele>
        <time>2015-07-13T18:52:30.848Z</time>
      </trkpt>
      <trkpt lat="48.87898" lon="2.37877">
        <ele>139.7</ele>
        <time>2015-07-13T18:52:31.867Z</time>
      </trkpt>
      <trkpt lat="48.87902" lon="2.37881">
        <ele>140</ele>
        <time>2015-07-13T18:52:32.894Z</time>
      </trkpt>
      <trkpt lat="48.87906" lon="2.37884">
        <ele>140.2</ele>
        <time>2015-07-13T18:52:33.907Z</time>
      </trkpt>
      <trkpt lat="48.87913" lon="2.3789">
        <ele>140.4</ele>
        <time>2015-07-13T18:52:35.868Z</time>
      </trkpt>
      <trkpt lat="48.87918" lon="2.37894">
        <ele>140.6</ele>
        <time>2015-07-13T18:52:36.878Z</time>
      </trkpt>
      <trkpt lat="48.87924" lon="2.37897">
        <ele>140.7</ele>
        <time>2015-07-13T18:52:37.885Z</time>
      </trkpt>
      <trkpt lat="48.8793" lon="2.379">
        <ele>140.8</ele>
        <time>2015-07-13T18:52:38.886Z</time>
      </trkpt>
      <trkpt lat="48.87936" lon="2.37904">
        <ele>141.1</ele>
        <time>2015-07-13T18:52:39.913Z</time>
      </trkpt>
      <trkpt lat="48.87942" lon="2.37907">
        <ele>141.4</ele>
        <time>2015-07-13T18:52:40.913Z</time>
      </trkpt>
      <trkpt lat="48.87949" lon="2.37912">
        <ele>141.6</ele>
        <time>2015-07-13T18:52:41.951Z</time>
      </trkpt>
      <trkpt lat="48.87955" lon="2.37915">
        <ele>141.7</ele>
        <time>2015-07-13T18:52:42.842Z</time>
      </trkpt>
      <trkpt lat="48.8796" lon="2.37919">
        <ele>141.8</ele>
        <time>2015-07-13T18:52:43.844Z</time>
      </trkpt>
      <trkpt lat="48.87966" lon="2.37922">
        <ele>142</ele>
        <time>2015-07-13T18:52:44.854Z</time>
      </trkpt>
      <trkpt lat="48.8797" lon="2.37925">
        <ele>142.2</ele>
        <time>2015-07-13T18:52:45.864Z</time>
      </trkpt>
      <trkpt lat="48.87974" lon="2.37929">
        <ele>142.4</ele>
        <time>2015-07-13T18:52:46.873Z</time>
      </trkpt>
      <trkpt lat="48.8798" lon="2.37937">
        <ele>142.4</ele>
        <time>2015-07-13T18:52:47.880Z</time>
      </trkpt>
      <trkpt lat="48.87985" lon="2.37943">
        <ele>142.4</ele>
        <time>2015-07-13T18:52:48.883Z</time>
      </trkpt>
      <trkpt lat="48.87991" lon="2.37949">
        <ele>142.5</ele>
        <time>2015-07-13T18:52:49.896Z</time>
      </trkpt>
      <trkpt lat="48.87996" lon="2.37955">
        <ele>142.6</ele>
        <time>2015-07-13T18:52:50.912Z</time>
      </trkpt>
      <trkpt lat="48.88" lon="2.37961">
        <ele>142.7</ele>
        <time>2015-07-13T18:52:51.932Z</time>
      </trkpt>
      <trkpt lat="48.88005" lon="2.37967">
        <ele>142.7</ele>
        <time>2015-07-13T18:52:52.838Z</time>
      </trkpt>
      <trkpt lat="48.8801" lon="2.37973">
        <ele>142.8</ele>
        <time>2015-07-13T18:52:53.905Z</time>
      </trkpt>
      <trkpt lat="48.88018" lon="2.37976">
        <ele>140.8</ele>
        <time>2015-07-13T18:52:54.948Z</time>
      </trkpt>
      <trkpt lat="48.88024" lon="2.37981">
        <ele>140.5</ele>
        <time>2015-07-13T18:52:55.847Z</time>
      </trkpt>
      <trkpt lat="48.88029" lon="2.37986">
        <ele>140.6</ele>
        <time>2015-07-13T18:52:56.855Z</time>
      </trkpt>
      <trkpt lat="48.88035" lon="2.37992">
        <ele>140.7</ele>
        <time>2015-07-13T18:52:57.863Z</time>
      </trkpt>
      <trkpt lat="48.88041" lon="2.37997">
        <ele>140.7</ele>
        <time>2015-07-13T18:52:58.872Z</time>
      </trkpt>
      <trkpt lat="48.88047" lon="2.38003">
        <ele>140.9</ele>
        <time>2015-07-13T18:52:59.930Z</time>
      </trkpt>
      <trkpt lat="48.88053" lon="2.38009">
        <ele>141.1</ele>
        <time>2015-07-13T18:53:00.844Z</time>
      </trkpt>
      <trkpt lat="48.88058" lon="2.38013">
        <ele>141.3</ele>
        <time>2015-07-13T18:53:01.842Z</time>
      </trkpt>
      <trkpt lat="48.88064" lon="2.38019">
        <ele>141.3</ele>
        <time>2015-07-13T18:53:02.882Z</time>
      </trkpt>
      <trkpt lat="48.8807" lon="2.38025">
        <ele>141.4</ele>
        <time>2015-07-13T18:53:03.889Z</time>
      </trkpt>
      <trkpt lat="48.88076" lon="2.38031">
        <ele>141.5</ele>
        <time>2015-07-13T18:53:04.895Z</time>
      </trkpt>
      <trkpt lat="48.88082" lon="2.38037">
        <ele>141.6</ele>
        <time>2015-07-13T18:53:05.920Z</time>
      </trkpt>
      <trkpt lat="48.88087" lon="2.38043">
        <ele>141.6</ele>
        <time>2015-07-13T18:53:06.844Z</time>
      </trkpt>
      <trkpt lat="48.88093" lon="2.38049">
        <ele>141.7</ele>
        <time>2015-07-13T18:53:07.845Z</time>
      </trkpt>
      <trkpt lat="48.88099" lon="2.38055">
        <ele>141.6</ele>
        <time>2015-07-13T18:53:08.844Z</time>
      </trkpt>
      <trkpt lat="48.88109" lon="2.38059">
        <ele>141.8</ele>
        <time>2015-07-13T18:53:09.847Z</time>
      </trkpt>
      <trkpt lat="48.88115" lon="2.38064">
        <ele>141.9</ele>
        <time>2015-07-13T18:53:10.859Z</time>
      </trkpt>
      <trkpt lat="48.88122" lon="2.38068">
        <ele>142.2</ele>
        <time>2015-07-13T18:53:11.928Z</time>
      </trkpt>
      <trkpt lat="48.88128" lon="2.38073">
        <ele>142.3</ele>
        <time>2015-07-13T18:53:12.927Z</time>
      </trkpt>
      <trkpt lat="48.88133" lon="2.38079">
        <ele>142.2</ele>
        <time>2015-07-13T18:53:13.859Z</time>
      </trkpt>
      <trkpt lat="48.88139" lon="2.38086">
        <ele>142.1</ele>
        <time>2015-07-13T18:53:14.823Z</time>
      </trkpt>
      <trkpt lat="48.88144" lon="2.38092">
        <ele>141.9</ele>
        <time>2015-07-13T18:53:15.894Z</time>
      </trkpt>
      <trkpt lat="48.8815" lon="2.381">
        <ele>141.9</ele>
        <time>2015-07-13T18:53:16.927Z</time>
      </trkpt>
      <trkpt lat="48.88156" lon="2.38107">
        <ele>141.8</ele>
        <time>2015-07-13T18:53:17.938Z</time>
      </trkpt>
      <trkpt lat="48.88162" lon="2.38114">
        <ele>141.8</ele>
        <time>2015-07-13T18:53:18.867Z</time>
      </trkpt>
      <trkpt lat="48.88167" lon="2.38121">
        <ele>141.6</ele>
        <time>2015-07-13T18:53:19.892Z</time>
      </trkpt>
      <trkpt lat="48.88173" lon="2.38128">
        <ele>141.5</ele>
        <time>2015-07-13T18:53:20.905Z</time>
      </trkpt>
      <trkpt lat="48.8818" lon="2.38135">
        <ele>140.5</ele>
        <time>2015-07-13T18:53:21.912Z</time>
      </trkpt>
      <trkpt lat="48.88187" lon="2.38141">
        <ele>140.5</ele>
        <time>2015-07-13T18:53:22.929Z</time>
      </trkpt>
      <trkpt lat="48.88193" lon="2.38148">
        <ele>140.6</ele>
        <time>2015-07-13T18:53:23.946Z</time>
      </trkpt>
      <trkpt lat="48.88199" lon="2.38155">
        <ele>140.6</ele>
        <time>2015-07-13T18:53:24.865Z</time>
      </trkpt>
      <trkpt lat="48.88206" lon="2.38161">
        <ele>140.6</ele>
        <time>2015-07-13T18:53:25.875Z</time>
      </trkpt>
      <trkpt lat="48.88212" lon="2.38166">
        <ele>140.5</ele>
        <time>2015-07-13T18:53:26.854Z</time>
      </trkpt>
      <trkpt lat="48.88217" lon="2.38171">
        <ele>140.5</ele>
        <time>2015-07-13T18:53:27.862Z</time>
      </trkpt>
      <trkpt lat="48.8822" lon="2.38183">
        <ele>139.8</ele>
        <time>2015-07-13T18:53:29.939Z</time>
      </trkpt>
      <trkpt lat="48.88219" lon="2.38191">
        <ele>139.5</ele>
        <time>2015-07-13T18:53:30.881Z</time>
      </trkpt>
      <trkpt lat="48.88219" lon="2.38203">
        <ele>139</ele>
        <time>2015-07-13T18:53:32.932Z</time>
      </trkpt>
      <trkpt lat="48.88219" lon="2.38208">
        <ele>138.7</ele>
        <time>2015-07-13T18:53:33.845Z</time>
      </trkpt>
      <trkpt lat="48.88226" lon="2.38217">
        <ele>136.6</ele>
        <time>2015-07-13T18:53:37.905Z</time>
      </trkpt>
      <trkpt lat="48.88229" lon="2.38217">
        <ele>135.1</ele>
        <time>2015-07-13T18:53:38.919Z</time>
      </trkpt>
      <trkpt lat="48.88236" lon="2.38211">
        <ele>129.4</ele>
        <time>2015-07-13T18:53:43.896Z</time>
      </trkpt>
      <trkpt lat="48.88238" lon="2.38209">
        <ele>129.3</ele>
        <time>2015-07-13T18:53:44.835Z</time>
      </trkpt>
      <trkpt lat="48.88246" lon="2.38207">
        <ele>128.1</ele>
        <time>2015-07-13T18:53:49.896Z</time>
      </trkpt>
      <trkpt lat="48.88248" lon="2.38208">
        <ele>128.2</ele>
        <time>2015-07-13T18:53:50.923Z</time>
      </trkpt>
      <trkpt lat="48.88256" lon="2.38209">
        <ele>123.1</ele>
        <time>2015-07-13T18:54:01.881Z</time>
      </trkpt>
      <trkpt lat="48.88258" lon="2.38209">
        <ele>123.2</ele>
        <time>2015-07-13T18:54:02.884Z</time>
      </trkpt>
      <trkpt lat="48.88263" lon="2.38216">
        <ele>123.3</ele>
        <time>2015-07-13T18:54:07.996Z</time>
      </trkpt>
      <trkpt lat="48.88263" lon="2.38216">
        <ele>123</ele>
        <time>2015-07-13T18:54:09.011Z</time>
      </trkpt>
      <trkpt lat="48.88263" lon="2.38216">
        <ele>123</ele>
        <time>2015-07-13T18:55:05.945Z</time>
      </trkpt>
      <trkpt lat="48.88259" lon="2.38219">
        <ele>122</ele>
        <time>2015-07-13T18:55:06.863Z</time>
      </trkpt>
      <trkpt lat="48.88263" lon="2.38229">
        <ele>123.4</ele>
        <time>2015-07-13T18:55:11.932Z</time>
      </trkpt>
      <trkpt lat="48.88264" lon="2.38231">
        <ele>124</ele>
        <time>2015-07-13T18:55:12.969Z</time>
      </trkpt>
      <trkpt lat="48.88271" lon="2.38238">
        <ele>125.3</ele>
        <time>2015-07-13T18:55:18.869Z</time>
      </trkpt>
      <trkpt lat="48.88273" lon="2.38239">
        <ele>125.3</ele>
        <time>2015-07-13T18:55:19.881Z</time>
      </trkpt>
      <trkpt lat="48.8828" lon="2.38241">
        <ele>125.6</ele>
        <time>2015-07-13T18:55:22.941Z</time>
      </trkpt>
      <trkpt lat="48.88282" lon="2.38242">
        <ele>125.7</ele>
        <time>2015-07-13T18:55:23.952Z</time>
      </trkpt>
      <trkpt lat="48.88287" lon="2.3825">
        <ele>125.6</ele>
        <time>2015-07-13T18:55:27.831Z</time>
      </trkpt>
      <trkpt lat="48.88289" lon="2.38253">
        <ele>125.6</ele>
        <time>2015-07-13T18:55:28.873Z</time>
      </trkpt>
      <trkpt lat="48.88292" lon="2.38263">
        <ele>125</ele>
        <time>2015-07-13T18:55:32.862Z</time>
      </trkpt>
      <trkpt lat="48.88293" lon="2.38266">
        <ele>125</ele>
        <time>2015-07-13T18:55:33.956Z</time>
      </trkpt>
      <trkpt lat="48.88299" lon="2.38275">
        <ele>124.9</ele>
        <time>2015-07-13T18:55:36.965Z</time>
      </trkpt>
      <trkpt lat="48.88302" lon="2.38277">
        <ele>124.8</ele>
        <time>2015-07-13T18:55:37.965Z</time>
      </trkpt>
      <trkpt lat="48.88307" lon="2.38283">
        <ele>124.5</ele>
        <time>2015-07-13T18:55:39.904Z</time>
      </trkpt>
      <trkpt lat="48.88309" lon="2.38286">
        <ele>124.6</ele>
        <time>2015-07-13T18:55:40.941Z</time>
      </trkpt>
      <trkpt lat="48.88315" lon="2.38295">
        <ele>124.3</ele>
        <time>2015-07-13T18:55:43.906Z</time>
      </trkpt>
      <trkpt lat="48.88318" lon="2.38298">
        <ele>124.3</ele>
        <time>2015-07-13T18:55:44.950Z</time>
      </trkpt>
      <trkpt lat="48.88323" lon="2.38308">
        <ele>124.2</ele>
        <time>2015-07-13T18:55:47.948Z</time>
      </trkpt>
      <trkpt lat="48.88325" lon="2.38311">
        <ele>124.2</ele>
        <time>2015-07-13T18:55:48.901Z</time>
      </trkpt>
      <trkpt lat="48.88331" lon="2.38317">
        <ele>124.1</ele>
        <time>2015-07-13T18:55:50.870Z</time>
      </trkpt>
      <trkpt lat="48.88333" lon="2.38319">
        <ele>124.1</ele>
        <time>2015-07-13T18:55:51.899Z</time>
      </trkpt>
      <trkpt lat="48.88339" lon="2.38324">
        <ele>123.9</ele>
        <time>2015-07-13T18:55:53.936Z</time>
      </trkpt>
      <trkpt lat="48.88342" lon="2.38326">
        <ele>123.7</ele>
        <time>2015-07-13T18:55:54.918Z</time>
      </trkpt>
      <trkpt lat="48.88349" lon="2.38331">
        <ele>123.7</ele>
        <time>2015-07-13T18:55:56.909Z</time>
      </trkpt>
      <trkpt lat="48.88353" lon="2.38334">
        <ele>123.6</ele>
        <time>2015-07-13T18:55:57.926Z</time>
      </trkpt>
      <trkpt lat="48.8836" lon="2.38342">
        <ele>123.2</ele>
        <time>2015-07-13T18:55:59.976Z</time>
      </trkpt>
      <trkpt lat="48.88364" lon="2.38348">
        <ele>123</ele>
        <time>2015-07-13T18:56:00.855Z</time>
      </trkpt>
      <trkpt lat="48.88369" lon="2.38353">
        <ele>122.8</ele>
        <time>2015-07-13T18:56:01.848Z</time>
      </trkpt>
      <trkpt lat="48.88374" lon="2.38357">
        <ele>122.6</ele>
        <time>2015-07-13T18:56:02.881Z</time>
      </trkpt>
      <trkpt lat="48.88378" lon="2.38361">
        <ele>122.5</ele>
        <time>2015-07-13T18:56:03.900Z</time>
      </trkpt>
      <trkpt lat="48.88381" lon="2.38366">
        <ele>122.5</ele>
        <time>2015-07-13T18:56:04.915Z</time>
      </trkpt>
      <trkpt lat="48.88387" lon="2.38376">
        <ele>122.4</ele>
        <time>2015-07-13T18:56:06.836Z</time>
      </trkpt>
      <trkpt lat="48.8839" lon="2.38381">
        <ele>122.3</ele>
        <time>2015-07-13T18:56:07.839Z</time>
      </trkpt>
      <trkpt lat="48.88396" lon="2.38389">
        <ele>122.3</ele>
        <time>2015-07-13T18:56:09.913Z</time>
      </trkpt>
      <trkpt lat="48.88399" lon="2.38395">
        <ele>122.2</ele>
        <time>2015-07-13T18:56:10.997Z</time>
      </trkpt>
      <trkpt lat="48.88403" lon="2.38404">
        <ele>122.2</ele>
        <time>2015-07-13T18:56:12.923Z</time>
      </trkpt>
      <trkpt lat="48.88406" lon="2.38407">
        <ele>122.3</ele>
        <time>2015-07-13T18:56:13.890Z</time>
      </trkpt>
      <trkpt lat="48.88415" lon="2.38407">
        <ele>121.7</ele>
        <time>2015-07-13T18:56:17.945Z</time>
      </trkpt>
      <trkpt lat="48.88418" lon="2.38406">
        <ele>121.4</ele>
        <time>2015-07-13T18:56:18.854Z</time>
      </trkpt>
      <trkpt lat="48.88425" lon="2.384">
        <ele>120.9</ele>
        <time>2015-07-13T18:56:21.897Z</time>
      </trkpt>
      <trkpt lat="48.88428" lon="2.38398">
        <ele>120.8</ele>
        <time>2015-07-13T18:56:22.829Z</time>
      </trkpt>
      <trkpt lat="48.88435" lon="2.38394">
        <ele>120.8</ele>
        <time>2015-07-13T18:56:24.924Z</time>
      </trkpt>
      <trkpt lat="48.88439" lon="2.38391">
        <ele>120.1</ele>
        <time>2015-07-13T18:56:25.829Z</time>
      </trkpt>
      <trkpt lat="48.88445" lon="2.38385">
        <ele>119</ele>
        <time>2015-07-13T18:56:27.905Z</time>
      </trkpt>
      <trkpt lat="48.88448" lon="2.38382">
        <ele>118.6</ele>
        <time>2015-07-13T18:56:28.839Z</time>
      </trkpt>
      <trkpt lat="48.88454" lon="2.38377">
        <ele>118</ele>
        <time>2015-07-13T18:56:30.890Z</time>
      </trkpt>
      <trkpt lat="48.88457" lon="2.38373">
        <ele>118</ele>
        <time>2015-07-13T18:56:31.945Z</time>
      </trkpt>
      <trkpt lat="48.88462" lon="2.38364">
        <ele>117.9</ele>
        <time>2015-07-13T18:56:33.858Z</time>
      </trkpt>
      <trkpt lat="48.88466" lon="2.38359">
        <ele>117.1</ele>
        <time>2015-07-13T18:56:34.872Z</time>
      </trkpt>
      <trkpt lat="48.8847" lon="2.38355">
        <ele>116.6</ele>
        <time>2015-07-13T18:56:35.904Z</time>
      </trkpt>
      <trkpt lat="48.88474" lon="2.3835">
        <ele>116.1</ele>
        <time>2015-07-13T18:56:36.930Z</time>
      </trkpt>
      <trkpt lat="48.88478" lon="2.38346">
        <ele>115.6</ele>
        <time>2015-07-13T18:56:37.859Z</time>
      </trkpt>
      <trkpt lat="48.88483" lon="2.38342">
        <ele>115.3</ele>
        <time>2015-07-13T18:56:38.874Z</time>
      </trkpt>
      <trkpt lat="48.88487" lon="2.38339">
        <ele>115.1</ele>
        <time>2015-07-13T18:56:40.094Z</time>
      </trkpt>
      <trkpt lat="48.8849" lon="2.38334">
        <ele>115</ele>
        <time>2015-07-13T18:56:40.924Z</time>
      </trkpt>
      <trkpt lat="48.88494" lon="2.3833">
        <ele>115.1</ele>
        <time>2015-07-13T18:56:41.968Z</time>
      </trkpt>
      <trkpt lat="48.88498" lon="2.38324">
        <ele>114.9</ele>
        <time>2015-07-13T18:56:42.899Z</time>
      </trkpt>
      <trkpt lat="48.88502" lon="2.3832">
        <ele>114.8</ele>
        <time>2015-07-13T18:56:43.937Z</time>
      </trkpt>
      <trkpt lat="48.88506" lon="2.38317">
        <ele>115.1</ele>
        <time>2015-07-13T18:56:44.844Z</time>
      </trkpt>
      <trkpt lat="48.8851" lon="2.38314">
        <ele>114.8</ele>
        <time>2015-07-13T18:56:45.853Z</time>
      </trkpt>
      <trkpt lat="48.88514" lon="2.38309">
        <ele>114.5</ele>
        <time>2015-07-13T18:56:46.860Z</time>
      </trkpt>
      <trkpt lat="48.88518" lon="2.38305">
        <ele>114.3</ele>
        <time>2015-07-13T18:56:47.885Z</time>
      </trkpt>
      <trkpt lat="48.88522" lon="2.38301">
        <ele>113.8</ele>
        <time>2015-07-13T18:56:48.879Z</time>
      </trkpt>
      <trkpt lat="48.88526" lon="2.38298">
        <ele>113.6</ele>
        <time>2015-07-13T18:56:49.889Z</time>
      </trkpt>
      <trkpt lat="48.8853" lon="2.38294">
        <ele>113.5</ele>
        <time>2015-07-13T18:56:50.899Z</time>
      </trkpt>
      <trkpt lat="48.88535" lon="2.3829">
        <ele>113.4</ele>
        <time>2015-07-13T18:56:51.923Z</time>
      </trkpt>
      <trkpt lat="48.88539" lon="2.38286">
        <ele>113.3</ele>
        <time>2015-07-13T18:56:52.855Z</time>
      </trkpt>
      <trkpt lat="48.88542" lon="2.38282">
        <ele>113.2</ele>
        <time>2015-07-13T18:56:53.966Z</time>
      </trkpt>
      <trkpt lat="48.88546" lon="2.38277">
        <ele>113.1</ele>
        <time>2015-07-13T18:56:54.854Z</time>
      </trkpt>
      <trkpt lat="48.88551" lon="2.38273">
        <ele>112.9</ele>
        <time>2015-07-13T18:56:55.871Z</time>
      </trkpt>
      <trkpt lat="48.88555" lon="2.38269">
        <ele>112.8</ele>
        <time>2015-07-13T18:56:56.888Z</time>
      </trkpt>
      <trkpt lat="48.88558" lon="2.38265">
        <ele>112.7</ele>
        <time>2015-07-13T18:56:57.862Z</time>
      </trkpt>
      <trkpt lat="48.88561" lon="2.3826">
        <ele>112.7</ele>
        <time>2015-07-13T18:56:58.854Z</time>
      </trkpt>
      <trkpt lat="48.88565" lon="2.38253">
        <ele>112.9</ele>
        <time>2015-07-13T18:56:59.931Z</time>
      </trkpt>
      <trkpt lat="48.88569" lon="2.38249">
        <ele>112.8</ele>
        <time>2015-07-13T18:57:00.847Z</time>
      </trkpt>
      <trkpt lat="48.88576" lon="2.38242">
        <ele>112.8</ele>
        <time>2015-07-13T18:57:02.873Z</time>
      </trkpt>
      <trkpt lat="48.88579" lon="2.38239">
        <ele>112.8</ele>
        <time>2015-07-13T18:57:03.914Z</time>
      </trkpt>
      <trkpt lat="48.88586" lon="2.38231">
        <ele>113.1</ele>
        <time>2015-07-13T18:57:06.840Z</time>
      </trkpt>
      <trkpt lat="48.88588" lon="2.38228">
        <ele>113.1</ele>
        <time>2015-07-13T18:57:07.884Z</time>
      </trkpt>
      <trkpt lat="48.88592" lon="2.38223">
        <ele>112.9</ele>
        <time>2015-07-13T18:57:11.888Z</time>
      </trkpt>
      <trkpt lat="48.8859" lon="2.38224">
        <ele>110.9</ele>
        <time>2015-07-13T18:57:12.905Z</time>
      </trkpt>
      <trkpt lat="48.8859" lon="2.38224">
        <ele>110</ele>
        <time>2015-07-13T18:57:17.891Z</time>
      </trkpt>
      <trkpt lat="48.88592" lon="2.38225">
        <ele>109.9</ele>
        <time>2015-07-13T18:57:18.946Z</time>
      </trkpt>
      <trkpt lat="48.88599" lon="2.3822">
        <ele>110.2</ele>
        <time>2015-07-13T18:57:22.944Z</time>
      </trkpt>
      <trkpt lat="48.88601" lon="2.38217">
        <ele>110.3</ele>
        <time>2015-07-13T18:57:23.952Z</time>
      </trkpt>
      <trkpt lat="48.88606" lon="2.38212">
        <ele>110.3</ele>
        <time>2015-07-13T18:57:25.855Z</time>
      </trkpt>
      <trkpt lat="48.88609" lon="2.38209">
        <ele>110.3</ele>
        <time>2015-07-13T18:57:26.968Z</time>
      </trkpt>
      <trkpt lat="48.88614" lon="2.38202">
        <ele>109.7</ele>
        <time>2015-07-13T18:57:28.856Z</time>
      </trkpt>
      <trkpt lat="48.88617" lon="2.38199">
        <ele>109.6</ele>
        <time>2015-07-13T18:57:29.935Z</time>
      </trkpt>
      <trkpt lat="48.88622" lon="2.38193">
        <ele>109.1</ele>
        <time>2015-07-13T18:57:31.924Z</time>
      </trkpt>
      <trkpt lat="48.88625" lon="2.3819">
        <ele>108.9</ele>
        <time>2015-07-13T18:57:32.860Z</time>
      </trkpt>
      <trkpt lat="48.8863" lon="2.38183">
        <ele>108.3</ele>
        <time>2015-07-13T18:57:34.843Z</time>
      </trkpt>
      <trkpt lat="48.88633" lon="2.38179">
        <ele>107.9</ele>
        <time>2015-07-13T18:57:35.902Z</time>
      </trkpt>
      <trkpt lat="48.88639" lon="2.38173">
        <ele>107.4</ele>
        <time>2015-07-13T18:57:37.855Z</time>
      </trkpt>
      <trkpt lat="48.88642" lon="2.3817">
        <ele>107.3</ele>
        <time>2015-07-13T18:57:38.873Z</time>
      </trkpt>
      <trkpt lat="48.88648" lon="2.38163">
        <ele>107.1</ele>
        <time>2015-07-13T18:57:40.867Z</time>
      </trkpt>
      <trkpt lat="48.88651" lon="2.3816">
        <ele>107.2</ele>
        <time>2015-07-13T18:57:41.914Z</time>
      </trkpt>
      <trkpt lat="48.88658" lon="2.38154">
        <ele>107.5</ele>
        <time>2015-07-13T18:57:43.840Z</time>
      </trkpt>
      <trkpt lat="48.88662" lon="2.38151">
        <ele>107.5</ele>
        <time>2015-07-13T18:57:44.875Z</time>
      </trkpt>
      <trkpt lat="48.88668" lon="2.38144">
        <ele>107.4</ele>
        <time>2015-07-13T18:57:46.842Z</time>
      </trkpt>
      <trkpt lat="48.88671" lon="2.38141">
        <ele>107.4</ele>
        <time>2015-07-13T18:57:47.950Z</time>
      </trkpt>
      <trkpt lat="48.88677" lon="2.38136">
        <ele>107</ele>
        <time>2015-07-13T18:57:49.862Z</time>
      </trkpt>
      <trkpt lat="48.88679" lon="2.38133">
        <ele>107</ele>
        <time>2015-07-13T18:57:50.934Z</time>
      </trkpt>
      <trkpt lat="48.88684" lon="2.38127">
        <ele>107.2</ele>
        <time>2015-07-13T18:57:52.854Z</time>
      </trkpt>
      <trkpt lat="48.88687" lon="2.38124">
        <ele>107.2</ele>
        <time>2015-07-13T18:57:53.928Z</time>
      </trkpt>
      <trkpt lat="48.88693" lon="2.38118">
        <ele>107.4</ele>
        <time>2015-07-13T18:57:56.178Z</time>
      </trkpt>
      <trkpt lat="48.88696" lon="2.38115">
        <ele>107.2</ele>
        <time>2015-07-13T18:57:56.891Z</time>
      </trkpt>
      <trkpt lat="48.88702" lon="2.3811">
        <ele>107.1</ele>
        <time>2015-07-13T18:57:58.859Z</time>
      </trkpt>
      <trkpt lat="48.88705" lon="2.38107">
        <ele>107.1</ele>
        <time>2015-07-13T18:57:59.921Z</time>
      </trkpt>
      <trkpt lat="48.88712" lon="2.38103">
        <ele>107</ele>
        <time>2015-07-13T18:58:01.844Z</time>
      </trkpt>
      <trkpt lat="48.88715" lon="2.38099">
        <ele>107</ele>
        <time>2015-07-13T18:58:02.883Z</time>
      </trkpt>
      <trkpt lat="48.88722" lon="2.38094">
        <ele>106.8</ele>
        <time>2015-07-13T18:58:04.851Z</time>
      </trkpt>
      <trkpt lat="48.88724" lon="2.38091">
        <ele>106.8</ele>
        <time>2015-07-13T18:58:05.898Z</time>
      </trkpt>
      <trkpt lat="48.88726" lon="2.38085">
        <ele>107</ele>
        <time>2015-07-13T18:58:06.890Z</time>
      </trkpt>
      <trkpt lat="48.88729" lon="2.38079">
        <ele>107</ele>
        <time>2015-07-13T18:58:07.919Z</time>
      </trkpt>
      <trkpt lat="48.88736" lon="2.38073">
        <ele>106.8</ele>
        <time>2015-07-13T18:58:09.871Z</time>
      </trkpt>
      <trkpt lat="48.88739" lon="2.38071">
        <ele>106.7</ele>
        <time>2015-07-13T18:58:10.895Z</time>
      </trkpt>
      <trkpt lat="48.88745" lon="2.38064">
        <ele>106.4</ele>
        <time>2015-07-13T18:58:13.318Z</time>
      </trkpt>
      <trkpt lat="48.88748" lon="2.38062">
        <ele>106.3</ele>
        <time>2015-07-13T18:58:13.933Z</time>
      </trkpt>
      <trkpt lat="48.88755" lon="2.38055">
        <ele>106.3</ele>
        <time>2015-07-13T18:58:16.897Z</time>
      </trkpt>
      <trkpt lat="48.88757" lon="2.38054">
        <ele>106.3</ele>
        <time>2015-07-13T18:58:17.945Z</time>
      </trkpt>
      <trkpt lat="48.88763" lon="2.38046">
        <ele>106.2</ele>
        <time>2015-07-13T18:58:23.880Z</time>
      </trkpt>
      <trkpt lat="48.88764" lon="2.38045">
        <ele>106.4</ele>
        <time>2015-07-13T18:58:24.890Z</time>
      </trkpt>
      <trkpt lat="48.88763" lon="2.38043">
        <ele>106.2</ele>
        <time>2015-07-13T18:58:25.860Z</time>
      </trkpt>
      <trkpt lat="48.88763" lon="2.38043">
        <ele>105.7</ele>
        <time>2015-07-13T18:58:26.828Z</time>
      </trkpt>
      <trkpt lat="48.88763" lon="2.38043">
        <ele>105.9</ele>
        <time>2015-07-13T18:58:33.860Z</time>
      </trkpt>
      <trkpt lat="48.88762" lon="2.3804">
        <ele>106</ele>
        <time>2015-07-13T18:58:34.850Z</time>
      </trkpt>
      <trkpt lat="48.88759" lon="2.38028">
        <ele>105.2</ele>
        <time>2015-07-13T18:58:48.014Z</time>
      </trkpt>
      <trkpt lat="48.8876" lon="2.38027">
        <ele>105.3</ele>
        <time>2015-07-13T18:58:48.919Z</time>
      </trkpt>
      <trkpt lat="48.88764" lon="2.38018">
        <ele>106.1</ele>
        <time>2015-07-13T18:58:52.936Z</time>
      </trkpt>
      <trkpt lat="48.88766" lon="2.38016">
        <ele>106.1</ele>
        <time>2015-07-13T18:58:53.956Z</time>
      </trkpt>
      <trkpt lat="48.88772" lon="2.38011">
        <ele>106.5</ele>
        <time>2015-07-13T18:58:56.860Z</time>
      </trkpt>
      <trkpt lat="48.88774" lon="2.38009">
        <ele>106.7</ele>
        <time>2015-07-13T18:58:57.934Z</time>
      </trkpt>
      <trkpt lat="48.88782" lon="2.38003">
        <ele>106.6</ele>
        <time>2015-07-13T18:59:00.925Z</time>
      </trkpt>
      <trkpt lat="48.88784" lon="2.38001">
        <ele>106.7</ele>
        <time>2015-07-13T18:59:01.821Z</time>
      </trkpt>
      <trkpt lat="48.88792" lon="2.37994">
        <ele>106.7</ele>
        <time>2015-07-13T18:59:04.856Z</time>
      </trkpt>
      <trkpt lat="48.88794" lon="2.37991">
        <ele>106.6</ele>
        <time>2015-07-13T18:59:05.861Z</time>
      </trkpt>
      <trkpt lat="48.88799" lon="2.37987">
        <ele>106.5</ele>
        <time>2015-07-13T18:59:07.870Z</time>
      </trkpt>
      <trkpt lat="48.88802" lon="2.37985">
        <ele>106.5</ele>
        <time>2015-07-13T18:59:08.902Z</time>
      </trkpt>
      <trkpt lat="48.88809" lon="2.37979">
        <ele>106.5</ele>
        <time>2015-07-13T18:59:11.985Z</time>
      </trkpt>
      <trkpt lat="48.88812" lon="2.37978">
        <ele>106.4</ele>
        <time>2015-07-13T18:59:12.946Z</time>
      </trkpt>
      <trkpt lat="48.88818" lon="2.37972">
        <ele>106.4</ele>
        <time>2015-07-13T18:59:16.903Z</time>
      </trkpt>
      <trkpt lat="48.8882" lon="2.37971">
        <ele>106.3</ele>
        <time>2015-07-13T18:59:17.931Z</time>
      </trkpt>
      <trkpt lat="48.88826" lon="2.37965">
        <ele>106.4</ele>
        <time>2015-07-13T18:59:24.896Z</time>
      </trkpt>
      <trkpt lat="48.88826" lon="2.37965">
        <ele>106.5</ele>
        <time>2015-07-13T18:59:25.896Z</time>
      </trkpt>
      <trkpt lat="48.88826" lon="2.37964">
        <ele>106.6</ele>
        <time>2015-07-13T18:59:34.860Z</time>
      </trkpt>
      <trkpt lat="48.88826" lon="2.37962">
        <ele>107.2</ele>
        <time>2015-07-13T18:59:35.893Z</time>
      </trkpt>
      <trkpt lat="48.8883" lon="2.3795">
        <ele>106.9</ele>
        <time>2015-07-13T18:59:42.914Z</time>
      </trkpt>
      <trkpt lat="48.88831" lon="2.37948">
        <ele>107.1</ele>
        <time>2015-07-13T18:59:43.888Z</time>
      </trkpt>
      <trkpt lat="48.88836" lon="2.37942">
        <ele>107.1</ele>
        <time>2015-07-13T18:59:46.919Z</time>
      </trkpt>
      <trkpt lat="48.88838" lon="2.3794">
        <ele>107.2</ele>
        <time>2015-07-13T18:59:47.927Z</time>
      </trkpt>
      <trkpt lat="48.88845" lon="2.37932">
        <ele>107.2</ele>
        <time>2015-07-13T18:59:50.869Z</time>
      </trkpt>
      <trkpt lat="48.88846" lon="2.37929">
        <ele>107</ele>
        <time>2015-07-13T18:59:51.868Z</time>
      </trkpt>
      <trkpt lat="48.88852" lon="2.3792">
        <ele>106.7</ele>
        <time>2015-07-13T18:59:55.889Z</time>
      </trkpt>
      <trkpt lat="48.88854" lon="2.37919">
        <ele>106.7</ele>
        <time>2015-07-13T18:59:56.875Z</time>
      </trkpt>
      <trkpt lat="48.88862" lon="2.37913">
        <ele>107</ele>
        <time>2015-07-13T19:00:01.863Z</time>
      </trkpt>
      <trkpt lat="48.88864" lon="2.37911">
        <ele>107.2</ele>
        <time>2015-07-13T19:00:02.859Z</time>
      </trkpt>
      <trkpt lat="48.88871" lon="2.37903">
        <ele>107</ele>
        <time>2015-07-13T19:00:06.875Z</time>
      </trkpt>
      <trkpt lat="48.88873" lon="2.37901">
        <ele>106.8</ele>
        <time>2015-07-13T19:00:07.879Z</time>
      </trkpt>
      <trkpt lat="48.88879" lon="2.37893">
        <ele>106.6</ele>
        <time>2015-07-13T19:00:10.851Z</time>
      </trkpt>
      <trkpt lat="48.8888" lon="2.37891">
        <ele>106.7</ele>
        <time>2015-07-13T19:00:11.896Z</time>
      </trkpt>
      <trkpt lat="48.88882" lon="2.37881">
        <ele>106.6</ele>
        <time>2015-07-13T19:00:14.856Z</time>
      </trkpt>
      <trkpt lat="48.88882" lon="2.37877">
        <ele>106.5</ele>
        <time>2015-07-13T19:00:15.914Z</time>
      </trkpt>
      <trkpt lat="48.88882" lon="2.37866">
        <ele>106</ele>
        <time>2015-07-13T19:00:18.822Z</time>
      </trkpt>
      <trkpt lat="48.88881" lon="2.37862">
        <ele>105.9</ele>
        <time>2015-07-13T19:00:19.900Z</time>
      </trkpt>
      <trkpt lat="48.88877" lon="2.37849">
        <ele>106.2</ele>
        <time>2015-07-13T19:00:22.911Z</time>
      </trkpt>
      <trkpt lat="48.88877" lon="2.37845">
        <ele>106.4</ele>
        <time>2015-07-13T19:00:23.924Z</time>
      </trkpt>
      <trkpt lat="48.88877" lon="2.37832">
        <ele>107.7</ele>
        <time>2015-07-13T19:00:25.827Z</time>
      </trkpt>
      <trkpt lat="48.88877" lon="2.37826">
        <ele>108.3</ele>
        <time>2015-07-13T19:00:26.867Z</time>
      </trkpt>
      <trkpt lat="48.8888" lon="2.37815">
        <ele>109.3</ele>
        <time>2015-07-13T19:00:28.882Z</time>
      </trkpt>
      <trkpt lat="48.88881" lon="2.37812">
        <ele>109.5</ele>
        <time>2015-07-13T19:00:29.939Z</time>
      </trkpt>
      <trkpt lat="48.88884" lon="2.378">
        <ele>110.1</ele>
        <time>2015-07-13T19:00:34.891Z</time>
      </trkpt>
      <trkpt lat="48.88885" lon="2.37797">
        <ele>110</ele>
        <time>2015-07-13T19:00:35.857Z</time>
      </trkpt>
      <trkpt lat="48.88892" lon="2.37789">
        <ele>109.3</ele>
        <time>2015-07-13T19:00:38.828Z</time>
      </trkpt>
      <trkpt lat="48.88894" lon="2.37787">
        <ele>108.9</ele>
        <time>2015-07-13T19:00:39.844Z</time>
      </trkpt>
      <trkpt lat="48.889" lon="2.37781">
        <ele>108.3</ele>
        <time>2015-07-13T19:00:41.937Z</time>
      </trkpt>
      <trkpt lat="48.88904" lon="2.37777">
        <ele>108</ele>
        <time>2015-07-13T19:00:42.881Z</time>
      </trkpt>
      <trkpt lat="48.88907" lon="2.37771">
        <ele>107.6</ele>
        <time>2015-07-13T19:00:43.897Z</time>
      </trkpt>
      <trkpt lat="48.8891" lon="2.37765">
        <ele>107.3</ele>
        <time>2015-07-13T19:00:44.914Z</time>
      </trkpt>
      <trkpt lat="48.88913" lon="2.37759">
        <ele>107.3</ele>
        <time>2015-07-13T19:00:45.927Z</time>
      </trkpt>
      <trkpt lat="48.88916" lon="2.37752">
        <ele>107</ele>
        <time>2015-07-13T19:00:46.936Z</time>
      </trkpt>
      <trkpt lat="48.8892" lon="2.37746">
        <ele>106.9</ele>
        <time>2015-07-13T19:00:47.885Z</time>
      </trkpt>
      <trkpt lat="48.88923" lon="2.37738">
        <ele>106.7</ele>
        <time>2015-07-13T19:00:48.833Z</time>
      </trkpt>
      <trkpt lat="48.88927" lon="2.37732">
        <ele>106.6</ele>
        <time>2015-07-13T19:00:49.844Z</time>
      </trkpt>
      <trkpt lat="48.8893" lon="2.37725">
        <ele>106.5</ele>
        <time>2015-07-13T19:00:50.859Z</time>
      </trkpt>
      <trkpt lat="48.88933" lon="2.37719">
        <ele>106.3</ele>
        <time>2015-07-13T19:00:51.869Z</time>
      </trkpt>
      <trkpt lat="48.88936" lon="2.37712">
        <ele>105.9</ele>
        <time>2015-07-13T19:00:52.866Z</time>
      </trkpt>
      <trkpt lat="48.88939" lon="2.37705">
        <ele>105.8</ele>
        <time>2015-07-13T19:00:53.955Z</time>
      </trkpt>
      <trkpt lat="48.88942" lon="2.37698">
        <ele>105.7</ele>
        <time>2015-07-13T19:00:54.912Z</time>
      </trkpt>
      <trkpt lat="48.88945" lon="2.37691">
        <ele>105.5</ele>
        <time>2015-07-13T19:00:55.851Z</time>
      </trkpt>
      <trkpt lat="48.88948" lon="2.37684">
        <ele>105.4</ele>
        <time>2015-07-13T19:00:56.872Z</time>
      </trkpt>
      <trkpt lat="48.88951" lon="2.37677">
        <ele>105.3</ele>
        <time>2015-07-13T19:00:57.852Z</time>
      </trkpt>
      <trkpt lat="48.88954" lon="2.3767">
        <ele>105.3</ele>
        <time>2015-07-13T19:00:58.854Z</time>
      </trkpt>
      <trkpt lat="48.88957" lon="2.37664">
        <ele>105.4</ele>
        <time>2015-07-13T19:00:59.932Z</time>
      </trkpt>
      <trkpt lat="48.8896" lon="2.37657">
        <ele>105.4</ele>
        <time>2015-07-13T19:01:00.850Z</time>
      </trkpt>
      <trkpt lat="48.88963" lon="2.37651">
        <ele>105.5</ele>
        <time>2015-07-13T19:01:01.853Z</time>
      </trkpt>
      <trkpt lat="48.88966" lon="2.37644">
        <ele>105.4</ele>
        <time>2015-07-13T19:01:02.863Z</time>
      </trkpt>
      <trkpt lat="48.88969" lon="2.37638">
        <ele>105.5</ele>
        <time>2015-07-13T19:01:03.894Z</time>
      </trkpt>
      <trkpt lat="48.88972" lon="2.37631">
        <ele>105.4</ele>
        <time>2015-07-13T19:01:04.899Z</time>
      </trkpt>
      <trkpt lat="48.88974" lon="2.37626">
        <ele>105.4</ele>
        <time>2015-07-13T19:01:05.919Z</time>
      </trkpt>
      <trkpt lat="48.88978" lon="2.37621">
        <ele>105.3</ele>
        <time>2015-07-13T19:01:06.878Z</time>
      </trkpt>
      <trkpt lat="48.88984" lon="2.37611">
        <ele>105.3</ele>
        <time>2015-07-13T19:01:08.846Z</time>
      </trkpt>
      <trkpt lat="48.88985" lon="2.37606">
        <ele>105.3</ele>
        <time>2015-07-13T19:01:09.866Z</time>
      </trkpt>
      <trkpt lat="48.88985" lon="2.37599">
        <ele>105.2</ele>
        <time>2015-07-13T19:01:10.924Z</time>
      </trkpt>
      <trkpt lat="48.88984" lon="2.37592">
        <ele>105</ele>
        <time>2015-07-13T19:01:11.938Z</time>
      </trkpt>
      <trkpt lat="48.88981" lon="2.37587">
        <ele>104.7</ele>
        <time>2015-07-13T19:01:12.878Z</time>
      </trkpt>
      <trkpt lat="48.88977" lon="2.3758">
        <ele>104</ele>
        <time>2015-07-13T19:01:13.894Z</time>
      </trkpt>
      <trkpt lat="48.8897" lon="2.37572">
        <ele>103.2</ele>
        <time>2015-07-13T19:01:15.846Z</time>
      </trkpt>
      <trkpt lat="48.88969" lon="2.37569">
        <ele>103.3</ele>
        <time>2015-07-13T19:01:16.876Z</time>
      </trkpt>
      <trkpt lat="48.88963" lon="2.3756">
        <ele>103.3</ele>
        <time>2015-07-13T19:01:19.847Z</time>
      </trkpt>
      <trkpt lat="48.88961" lon="2.37557">
        <ele>103.3</ele>
        <time>2015-07-13T19:01:20.851Z</time>
      </trkpt>
      <trkpt lat="48.88957" lon="2.37547">
        <ele>104.1</ele>
        <time>2015-07-13T19:01:23.924Z</time>
      </trkpt>
      <trkpt lat="48.88957" lon="2.37542">
        <ele>105.1</ele>
        <time>2015-07-13T19:01:24.905Z</time>
      </trkpt>
      <trkpt lat="48.88959" lon="2.37539">
        <ele>104.5</ele>
        <time>2015-07-13T19:01:27.884Z</time>
      </trkpt>
      <trkpt lat="48.88959" lon="2.37541">
        <ele>103.6</ele>
        <time>2015-07-13T19:01:28.937Z</time>
      </trkpt>
      <trkpt lat="48.88959" lon="2.37542">
        <ele>103.1</ele>
        <time>2015-07-13T19:02:47.908Z</time>
      </trkpt>
      <trkpt lat="48.88969" lon="2.37548">
        <ele>100.1</ele>
        <time>2015-07-13T19:02:48.915Z</time>
      </trkpt>
      <trkpt lat="48.88971" lon="2.37539">
        <ele>100.7</ele>
        <time>2015-07-13T19:03:05.879Z</time>
      </trkpt>
      <trkpt lat="48.88971" lon="2.37539">
        <ele>100.8</ele>
        <time>2015-07-13T19:03:06.872Z</time>
      </trkpt>
      <trkpt lat="48.8897" lon="2.37539">
        <ele>100.9</ele>
        <time>2015-07-13T19:03:08.910Z</time>
      </trkpt>
      <trkpt lat="48.88969" lon="2.37541">
        <ele>100.6</ele>
        <time>2015-07-13T19:03:09.928Z</time>
      </trkpt>
      <trkpt lat="48.88965" lon="2.37532">
        <ele>99.7</ele>
        <time>2015-07-13T19:03:13.374Z</time>
      </trkpt>
      <trkpt lat="48.88963" lon="2.37528">
        <ele>99.5</ele>
        <time>2015-07-13T19:03:13.851Z</time>
      </trkpt>
      <trkpt lat="48.88957" lon="2.37519">
        <ele>99.3</ele>
        <time>2015-07-13T19:03:15.872Z</time>
      </trkpt>
      <trkpt lat="48.88953" lon="2.37514">
        <ele>99</ele>
        <time>2015-07-13T19:03:16.883Z</time>
      </trkpt>
      <trkpt lat="48.88949" lon="2.37509">
        <ele>98.6</ele>
        <time>2015-07-13T19:03:18.435Z</time>
      </trkpt>
      <trkpt lat="48.88946" lon="2.37504">
        <ele>98.4</ele>
        <time>2015-07-13T19:03:18.842Z</time>
      </trkpt>
      <trkpt lat="48.88942" lon="2.37498">
        <ele>98.4</ele>
        <time>2015-07-13T19:03:19.847Z</time>
      </trkpt>
      <trkpt lat="48.88938" lon="2.37493">
        <ele>98.4</ele>
        <time>2015-07-13T19:03:20.854Z</time>
      </trkpt>
      <trkpt lat="48.88935" lon="2.37488">
        <ele>98.6</ele>
        <time>2015-07-13T19:03:21.879Z</time>
      </trkpt>
      <trkpt lat="48.88931" lon="2.37483">
        <ele>98.5</ele>
        <time>2015-07-13T19:03:22.884Z</time>
      </trkpt>
      <trkpt lat="48.88928" lon="2.37477">
        <ele>98.4</ele>
        <time>2015-07-13T19:03:23.917Z</time>
      </trkpt>
      <trkpt lat="48.88924" lon="2.37471">
        <ele>98.5</ele>
        <time>2015-07-13T19:03:24.848Z</time>
      </trkpt>
      <trkpt lat="48.88921" lon="2.37466">
        <ele>98.4</ele>
        <time>2015-07-13T19:03:25.859Z</time>
      </trkpt>
      <trkpt lat="48.88917" lon="2.37461">
        <ele>98.5</ele>
        <time>2015-07-13T19:03:26.858Z</time>
      </trkpt>
      <trkpt lat="48.88914" lon="2.37456">
        <ele>98.4</ele>
        <time>2015-07-13T19:03:27.863Z</time>
      </trkpt>
      <trkpt lat="48.8891" lon="2.37451">
        <ele>98.2</ele>
        <time>2015-07-13T19:03:28.872Z</time>
      </trkpt>
      <trkpt lat="48.88906" lon="2.37446">
        <ele>98.1</ele>
        <time>2015-07-13T19:03:29.929Z</time>
      </trkpt>
      <trkpt lat="48.88902" lon="2.37441">
        <ele>98</ele>
        <time>2015-07-13T19:03:30.842Z</time>
      </trkpt>
      <trkpt lat="48.88898" lon="2.37435">
        <ele>98</ele>
        <time>2015-07-13T19:03:31.845Z</time>
      </trkpt>
      <trkpt lat="48.88894" lon="2.3743">
        <ele>98</ele>
        <time>2015-07-13T19:03:32.856Z</time>
      </trkpt>
      <trkpt lat="48.88891" lon="2.37424">
        <ele>98.1</ele>
        <time>2015-07-13T19:03:33.871Z</time>
      </trkpt>
      <trkpt lat="48.88887" lon="2.37419">
        <ele>98.2</ele>
        <time>2015-07-13T19:03:34.873Z</time>
      </trkpt>
      <trkpt lat="48.88883" lon="2.37414">
        <ele>98.3</ele>
        <time>2015-07-13T19:03:35.887Z</time>
      </trkpt>
      <trkpt lat="48.88878" lon="2.37409">
        <ele>98.4</ele>
        <time>2015-07-13T19:03:36.887Z</time>
      </trkpt>
      <trkpt lat="48.88874" lon="2.37405">
        <ele>98.6</ele>
        <time>2015-07-13T19:03:37.903Z</time>
      </trkpt>
      <trkpt lat="48.88869" lon="2.37401">
        <ele>98.7</ele>
        <time>2015-07-13T19:03:38.911Z</time>
      </trkpt>
      <trkpt lat="48.88865" lon="2.37397">
        <ele>98.9</ele>
        <time>2015-07-13T19:03:39.872Z</time>
      </trkpt>
      <trkpt lat="48.88861" lon="2.37392">
        <ele>99</ele>
        <time>2015-07-13T19:03:40.895Z</time>
      </trkpt>
      <trkpt lat="48.88856" lon="2.37382">
        <ele>99.2</ele>
        <time>2015-07-13T19:03:42.850Z</time>
      </trkpt>
      <trkpt lat="48.88856" lon="2.37376">
        <ele>99.5</ele>
        <time>2015-07-13T19:03:43.875Z</time>
      </trkpt>
      <trkpt lat="48.88859" lon="2.37363">
        <ele>99.6</ele>
        <time>2015-07-13T19:03:45.930Z</time>
      </trkpt>
      <trkpt lat="48.88861" lon="2.37356">
        <ele>99.9</ele>
        <time>2015-07-13T19:03:46.882Z</time>
      </trkpt>
      <trkpt lat="48.88863" lon="2.37348">
        <ele>100.4</ele>
        <time>2015-07-13T19:03:47.916Z</time>
      </trkpt>
      <trkpt lat="48.88864" lon="2.37339">
        <ele>100.9</ele>
        <time>2015-07-13T19:03:48.920Z</time>
      </trkpt>
      <trkpt lat="48.88866" lon="2.37332">
        <ele>101.2</ele>
        <time>2015-07-13T19:03:49.890Z</time>
      </trkpt>
      <trkpt lat="48.88867" lon="2.37326">
        <ele>101.2</ele>
        <time>2015-07-13T19:03:50.863Z</time>
      </trkpt>
      <trkpt lat="48.88869" lon="2.37319">
        <ele>101.2</ele>
        <time>2015-07-13T19:03:51.853Z</time>
      </trkpt>
      <trkpt lat="48.88871" lon="2.37312">
        <ele>101.2</ele>
        <time>2015-07-13T19:03:52.859Z</time>
      </trkpt>
      <trkpt lat="48.88872" lon="2.37306">
        <ele>101.2</ele>
        <time>2015-07-13T19:03:53.889Z</time>
      </trkpt>
      <trkpt lat="48.88875" lon="2.37299">
        <ele>101.1</ele>
        <time>2015-07-13T19:03:54.893Z</time>
      </trkpt>
      <trkpt lat="48.88877" lon="2.37293">
        <ele>101.2</ele>
        <time>2015-07-13T19:03:55.836Z</time>
      </trkpt>
      <trkpt lat="48.88879" lon="2.37285">
        <ele>101.3</ele>
        <time>2015-07-13T19:03:56.846Z</time>
      </trkpt>
      <trkpt lat="48.8888" lon="2.37278">
        <ele>101.5</ele>
        <time>2015-07-13T19:03:57.841Z</time>
      </trkpt>
      <trkpt lat="48.88882" lon="2.37271">
        <ele>101.7</ele>
        <time>2015-07-13T19:03:58.859Z</time>
      </trkpt>
      <trkpt lat="48.88884" lon="2.37264">
        <ele>101.7</ele>
        <time>2015-07-13T19:03:59.919Z</time>
      </trkpt>
      <trkpt lat="48.88885" lon="2.37255">
        <ele>102.3</ele>
        <time>2015-07-13T19:04:00.909Z</time>
      </trkpt>
      <trkpt lat="48.88888" lon="2.37248">
        <ele>102.7</ele>
        <time>2015-07-13T19:04:01.920Z</time>
      </trkpt>
      <trkpt lat="48.8889" lon="2.37239">
        <ele>103.1</ele>
        <time>2015-07-13T19:04:02.933Z</time>
      </trkpt>
      <trkpt lat="48.88892" lon="2.3723">
        <ele>103.5</ele>
        <time>2015-07-13T19:04:03.843Z</time>
      </trkpt>
      <trkpt lat="48.88894" lon="2.37222">
        <ele>103.5</ele>
        <time>2015-07-13T19:04:04.857Z</time>
      </trkpt>
      <trkpt lat="48.88896" lon="2.37213">
        <ele>103.7</ele>
        <time>2015-07-13T19:04:05.920Z</time>
      </trkpt>
      <trkpt lat="48.88899" lon="2.37205">
        <ele>103.5</ele>
        <time>2015-07-13T19:04:06.926Z</time>
      </trkpt>
      <trkpt lat="48.88901" lon="2.37197">
        <ele>103.4</ele>
        <time>2015-07-13T19:04:07.843Z</time>
      </trkpt>
      <trkpt lat="48.88904" lon="2.37191">
        <ele>103.6</ele>
        <time>2015-07-13T19:04:08.841Z</time>
      </trkpt>
      <trkpt lat="48.88908" lon="2.37185">
        <ele>103.9</ele>
        <time>2015-07-13T19:04:09.844Z</time>
      </trkpt>
      <trkpt lat="48.8891" lon="2.37179">
        <ele>104</ele>
        <time>2015-07-13T19:04:10.882Z</time>
      </trkpt>
      <trkpt lat="48.88912" lon="2.37173">
        <ele>104</ele>
        <time>2015-07-13T19:04:11.891Z</time>
      </trkpt>
      <trkpt lat="48.88915" lon="2.37167">
        <ele>104</ele>
        <time>2015-07-13T19:04:12.907Z</time>
      </trkpt>
      <trkpt lat="48.88919" lon="2.37156">
        <ele>104.1</ele>
        <time>2015-07-13T19:04:14.845Z</time>
      </trkpt>
      <trkpt lat="48.88921" lon="2.37152">
        <ele>104.3</ele>
        <time>2015-07-13T19:04:15.882Z</time>
      </trkpt>
      <trkpt lat="48.88923" lon="2.3714">
        <ele>105</ele>
        <time>2015-07-13T19:04:18.879Z</time>
      </trkpt>
      <trkpt lat="48.88924" lon="2.37137">
        <ele>105.1</ele>
        <time>2015-07-13T19:04:19.853Z</time>
      </trkpt>
      <trkpt lat="48.88924" lon="2.37127">
        <ele>106</ele>
        <time>2015-07-13T19:04:23.905Z</time>
      </trkpt>
      <trkpt lat="48.88923" lon="2.37123">
        <ele>106.3</ele>
        <time>2015-07-13T19:04:24.879Z</time>
      </trkpt>
      <trkpt lat="48.88925" lon="2.37111">
        <ele>106.9</ele>
        <time>2015-07-13T19:04:27.850Z</time>
      </trkpt>
      <trkpt lat="48.88927" lon="2.37106">
        <ele>107.1</ele>
        <time>2015-07-13T19:04:28.869Z</time>
      </trkpt>
      <trkpt lat="48.88928" lon="2.37097">
        <ele>107.4</ele>
        <time>2015-07-13T19:04:30.902Z</time>
      </trkpt>
      <trkpt lat="48.88929" lon="2.37093">
        <ele>107.4</ele>
        <time>2015-07-13T19:04:31.933Z</time>
      </trkpt>
      <trkpt lat="48.88933" lon="2.37086">
        <ele>106.7</ele>
        <time>2015-07-13T19:04:36.867Z</time>
      </trkpt>
      <trkpt lat="48.88934" lon="2.37082">
        <ele>106.6</ele>
        <time>2015-07-13T19:04:37.890Z</time>
      </trkpt>
      <trkpt lat="48.88937" lon="2.37073">
        <ele>106.7</ele>
        <time>2015-07-13T19:04:40.782Z</time>
      </trkpt>
      <trkpt lat="48.88939" lon="2.37068">
        <ele>106.6</ele>
        <time>2015-07-13T19:04:40.834Z</time>
      </trkpt>
      <trkpt lat="48.8894" lon="2.37055">
        <ele>106.6</ele>
        <time>2015-07-13T19:04:42.863Z</time>
      </trkpt>
      <trkpt lat="48.8894" lon="2.37047">
        <ele>106.8</ele>
        <time>2015-07-13T19:04:43.873Z</time>
      </trkpt>
      <trkpt lat="48.88941" lon="2.37039">
        <ele>106.9</ele>
        <time>2015-07-13T19:04:44.917Z</time>
      </trkpt>
      <trkpt lat="48.88942" lon="2.37031">
        <ele>107</ele>
        <time>2015-07-13T19:04:45.865Z</time>
      </trkpt>
      <trkpt lat="48.88943" lon="2.37022">
        <ele>107.1</ele>
        <time>2015-07-13T19:04:46.819Z</time>
      </trkpt>
      <trkpt lat="48.88945" lon="2.37013">
        <ele>107.2</ele>
        <time>2015-07-13T19:04:47.887Z</time>
      </trkpt>
      <trkpt lat="48.88947" lon="2.37004">
        <ele>107.4</ele>
        <time>2015-07-13T19:04:48.874Z</time>
      </trkpt>
      <trkpt lat="48.88949" lon="2.36996">
        <ele>107.5</ele>
        <time>2015-07-13T19:04:49.879Z</time>
      </trkpt>
      <trkpt lat="48.8895" lon="2.36986">
        <ele>107.6</ele>
        <time>2015-07-13T19:04:51.010Z</time>
      </trkpt>
      <trkpt lat="48.8895" lon="2.36976">
        <ele>107.8</ele>
        <time>2015-07-13T19:04:51.930Z</time>
      </trkpt>
      <trkpt lat="48.8895" lon="2.36966">
        <ele>107.9</ele>
        <time>2015-07-13T19:04:52.845Z</time>
      </trkpt>
      <trkpt lat="48.8895" lon="2.36956">
        <ele>108</ele>
        <time>2015-07-13T19:04:53.948Z</time>
      </trkpt>
      <trkpt lat="48.88949" lon="2.36947">
        <ele>108</ele>
        <time>2015-07-13T19:04:54.847Z</time>
      </trkpt>
      <trkpt lat="48.8895" lon="2.36938">
        <ele>108.1</ele>
        <time>2015-07-13T19:04:55.849Z</time>
      </trkpt>
      <trkpt lat="48.88951" lon="2.36929">
        <ele>108.1</ele>
        <time>2015-07-13T19:04:57.007Z</time>
      </trkpt>
      <trkpt lat="48.88952" lon="2.3692">
        <ele>108.3</ele>
        <time>2015-07-13T19:04:57.880Z</time>
      </trkpt>
      <trkpt lat="48.88953" lon="2.36911">
        <ele>108.5</ele>
        <time>2015-07-13T19:04:58.852Z</time>
      </trkpt>
      <trkpt lat="48.88954" lon="2.36904">
        <ele>108.6</ele>
        <time>2015-07-13T19:04:59.936Z</time>
      </trkpt>
      <trkpt lat="48.88955" lon="2.36896">
        <ele>108.7</ele>
        <time>2015-07-13T19:05:00.843Z</time>
      </trkpt>
      <trkpt lat="48.88955" lon="2.36889">
        <ele>108.9</ele>
        <time>2015-07-13T19:05:01.849Z</time>
      </trkpt>
      <trkpt lat="48.88955" lon="2.36881">
        <ele>109.1</ele>
        <time>2015-07-13T19:05:02.865Z</time>
      </trkpt>
      <trkpt lat="48.88955" lon="2.36873">
        <ele>109.3</ele>
        <time>2015-07-13T19:05:03.872Z</time>
      </trkpt>
      <trkpt lat="48.88954" lon="2.36865">
        <ele>109.5</ele>
        <time>2015-07-13T19:05:04.881Z</time>
      </trkpt>
      <trkpt lat="48.88954" lon="2.36858">
        <ele>109.7</ele>
        <time>2015-07-13T19:05:05.909Z</time>
      </trkpt>
      <trkpt lat="48.88955" lon="2.36851">
        <ele>109.8</ele>
        <time>2015-07-13T19:05:06.913Z</time>
      </trkpt>
      <trkpt lat="48.88955" lon="2.36844">
        <ele>109.7</ele>
        <time>2015-07-13T19:05:07.927Z</time>
      </trkpt>
      <trkpt lat="48.88961" lon="2.36839">
        <ele>107.7</ele>
        <time>2015-07-13T19:05:08.843Z</time>
      </trkpt>
      <trkpt lat="48.88963" lon="2.36833">
        <ele>107.4</ele>
        <time>2015-07-13T19:05:09.845Z</time>
      </trkpt>
      <trkpt lat="48.88968" lon="2.36824">
        <ele>106.2</ele>
        <time>2015-07-13T19:05:11.916Z</time>
      </trkpt>
      <trkpt lat="48.8897" lon="2.3682">
        <ele>105.8</ele>
        <time>2015-07-13T19:05:12.932Z</time>
      </trkpt>
      <trkpt lat="48.8897" lon="2.36811">
        <ele>103.8</ele>
        <time>2015-07-13T19:05:25.878Z</time>
      </trkpt>
      <trkpt lat="48.8897" lon="2.36811">
        <ele>103.9</ele>
        <time>2015-07-13T19:05:26.907Z</time>
      </trkpt>
      <trkpt lat="48.8897" lon="2.36811">
        <ele>103.9</ele>
        <time>2015-07-13T19:05:28.881Z</time>
      </trkpt>
      <trkpt lat="48.88969" lon="2.3681">
        <ele>104</ele>
        <time>2015-07-13T19:05:29.907Z</time>
      </trkpt>
      <trkpt lat="48.88971" lon="2.368">
        <ele>103.9</ele>
        <time>2015-07-13T19:05:32.897Z</time>
      </trkpt>
      <trkpt lat="48.88971" lon="2.36795">
        <ele>103.9</ele>
        <time>2015-07-13T19:05:33.922Z</time>
      </trkpt>
      <trkpt lat="48.88972" lon="2.36784">
        <ele>103.9</ele>
        <time>2015-07-13T19:05:35.882Z</time>
      </trkpt>
      <trkpt lat="48.88973" lon="2.36777">
        <ele>103.9</ele>
        <time>2015-07-13T19:05:36.872Z</time>
      </trkpt>
      <trkpt lat="48.88973" lon="2.36771">
        <ele>104.1</ele>
        <time>2015-07-13T19:05:37.841Z</time>
      </trkpt>
      <trkpt lat="48.88974" lon="2.36763">
        <ele>104.2</ele>
        <time>2015-07-13T19:05:38.847Z</time>
      </trkpt>
      <trkpt lat="48.88974" lon="2.36756">
        <ele>104.1</ele>
        <time>2015-07-13T19:05:39.861Z</time>
      </trkpt>
      <trkpt lat="48.88975" lon="2.36749">
        <ele>103.9</ele>
        <time>2015-07-13T19:05:40.869Z</time>
      </trkpt>
      <trkpt lat="48.88976" lon="2.36741">
        <ele>103.9</ele>
        <time>2015-07-13T19:05:41.881Z</time>
      </trkpt>
      <trkpt lat="48.88976" lon="2.36733">
        <ele>103.9</ele>
        <time>2015-07-13T19:05:42.902Z</time>
      </trkpt>
      <trkpt lat="48.88977" lon="2.36725">
        <ele>104.2</ele>
        <time>2015-07-13T19:05:43.918Z</time>
      </trkpt>
      <trkpt lat="48.88977" lon="2.36717">
        <ele>104.5</ele>
        <time>2015-07-13T19:05:44.843Z</time>
      </trkpt>
      <trkpt lat="48.88977" lon="2.36709">
        <ele>104.6</ele>
        <time>2015-07-13T19:05:45.859Z</time>
      </trkpt>
      <trkpt lat="48.88978" lon="2.36702">
        <ele>104.6</ele>
        <time>2015-07-13T19:05:46.876Z</time>
      </trkpt>
      <trkpt lat="48.88978" lon="2.36694">
        <ele>105</ele>
        <time>2015-07-13T19:05:47.898Z</time>
      </trkpt>
      <trkpt lat="48.88978" lon="2.36687">
        <ele>105.3</ele>
        <time>2015-07-13T19:05:48.938Z</time>
      </trkpt>
      <trkpt lat="48.8898" lon="2.36675">
        <ele>105.3</ele>
        <time>2015-07-13T19:05:50.848Z</time>
      </trkpt>
      <trkpt lat="48.88981" lon="2.36669">
        <ele>105.4</ele>
        <time>2015-07-13T19:05:51.875Z</time>
      </trkpt>
      <trkpt lat="48.88981" lon="2.36659">
        <ele>105.6</ele>
        <time>2015-07-13T19:05:53.881Z</time>
      </trkpt>
      <trkpt lat="48.88981" lon="2.36654">
        <ele>105.6</ele>
        <time>2015-07-13T19:05:54.885Z</time>
      </trkpt>
      <trkpt lat="48.88982" lon="2.36643">
        <ele>105.5</ele>
        <time>2015-07-13T19:05:56.909Z</time>
      </trkpt>
      <trkpt lat="48.88982" lon="2.36638">
        <ele>105.4</ele>
        <time>2015-07-13T19:05:57.875Z</time>
      </trkpt>
      <trkpt lat="48.88983" lon="2.36626">
        <ele>105.3</ele>
        <time>2015-07-13T19:06:00.226Z</time>
      </trkpt>
      <trkpt lat="48.88983" lon="2.36621">
        <ele>105.3</ele>
        <time>2015-07-13T19:06:00.839Z</time>
      </trkpt>
      <trkpt lat="48.88984" lon="2.36609">
        <ele>105.2</ele>
        <time>2015-07-13T19:06:02.867Z</time>
      </trkpt>
      <trkpt lat="48.88984" lon="2.36603">
        <ele>105.2</ele>
        <time>2015-07-13T19:06:03.876Z</time>
      </trkpt>
      <trkpt lat="48.88984" lon="2.36592">
        <ele>105.6</ele>
        <time>2015-07-13T19:06:05.921Z</time>
      </trkpt>
      <trkpt lat="48.88985" lon="2.36586">
        <ele>105.7</ele>
        <time>2015-07-13T19:06:06.872Z</time>
      </trkpt>
      <trkpt lat="48.88985" lon="2.36574">
        <ele>105.8</ele>
        <time>2015-07-13T19:06:08.907Z</time>
      </trkpt>
      <trkpt lat="48.88985" lon="2.36567">
        <ele>105.9</ele>
        <time>2015-07-13T19:06:09.928Z</time>
      </trkpt>
      <trkpt lat="48.88986" lon="2.36555">
        <ele>106</ele>
        <time>2015-07-13T19:06:11.889Z</time>
      </trkpt>
      <trkpt lat="48.88986" lon="2.36549">
        <ele>106</ele>
        <time>2015-07-13T19:06:12.923Z</time>
      </trkpt>
      <trkpt lat="48.88987" lon="2.36535">
        <ele>105.7</ele>
        <time>2015-07-13T19:06:14.857Z</time>
      </trkpt>
      <trkpt lat="48.88987" lon="2.36528">
        <ele>105.7</ele>
        <time>2015-07-13T19:06:15.870Z</time>
      </trkpt>
      <trkpt lat="48.88988" lon="2.36521">
        <ele>105.8</ele>
        <time>2015-07-13T19:06:16.886Z</time>
      </trkpt>
      <trkpt lat="48.88988" lon="2.36514">
        <ele>105.8</ele>
        <time>2015-07-13T19:06:17.960Z</time>
      </trkpt>
      <trkpt lat="48.88989" lon="2.36507">
        <ele>105.9</ele>
        <time>2015-07-13T19:06:18.854Z</time>
      </trkpt>
      <trkpt lat="48.88989" lon="2.365">
        <ele>105.8</ele>
        <time>2015-07-13T19:06:19.862Z</time>
      </trkpt>
      <trkpt lat="48.88989" lon="2.36492">
        <ele>105.7</ele>
        <time>2015-07-13T19:06:20.877Z</time>
      </trkpt>
      <trkpt lat="48.8899" lon="2.36485">
        <ele>105.6</ele>
        <time>2015-07-13T19:06:21.881Z</time>
      </trkpt>
      <trkpt lat="48.8899" lon="2.36477">
        <ele>105.4</ele>
        <time>2015-07-13T19:06:22.901Z</time>
      </trkpt>
      <trkpt lat="48.88991" lon="2.36469">
        <ele>105.8</ele>
        <time>2015-07-13T19:06:23.906Z</time>
      </trkpt>
      <trkpt lat="48.88991" lon="2.36457">
        <ele>106.1</ele>
        <time>2015-07-13T19:06:25.922Z</time>
      </trkpt>
      <trkpt lat="48.88992" lon="2.36453">
        <ele>106.3</ele>
        <time>2015-07-13T19:06:26.876Z</time>
      </trkpt>
      <trkpt lat="48.88993" lon="2.3644">
        <ele>107.1</ele>
        <time>2015-07-13T19:06:31.916Z</time>
      </trkpt>
      <trkpt lat="48.88993" lon="2.36437">
        <ele>107.3</ele>
        <time>2015-07-13T19:06:32.869Z</time>
      </trkpt>
      <trkpt lat="48.88993" lon="2.36426">
        <ele>107.4</ele>
        <time>2015-07-13T19:06:35.853Z</time>
      </trkpt>
      <trkpt lat="48.88993" lon="2.36421">
        <ele>107.5</ele>
        <time>2015-07-13T19:06:36.872Z</time>
      </trkpt>
      <trkpt lat="48.88993" lon="2.36408">
        <ele>107.2</ele>
        <time>2015-07-13T19:06:39.858Z</time>
      </trkpt>
      <trkpt lat="48.88993" lon="2.36403">
        <ele>107.2</ele>
        <time>2015-07-13T19:06:40.888Z</time>
      </trkpt>
      <trkpt lat="48.88993" lon="2.36392">
        <ele>107.2</ele>
        <time>2015-07-13T19:06:42.886Z</time>
      </trkpt>
      <trkpt lat="48.88993" lon="2.36386">
        <ele>107.5</ele>
        <time>2015-07-13T19:06:43.921Z</time>
      </trkpt>
      <trkpt lat="48.88993" lon="2.36376">
        <ele>107.5</ele>
        <time>2015-07-13T19:06:45.870Z</time>
      </trkpt>
      <trkpt lat="48.88994" lon="2.36371">
        <ele>107.4</ele>
        <time>2015-07-13T19:06:46.912Z</time>
      </trkpt>
      <trkpt lat="48.88994" lon="2.36361">
        <ele>107.3</ele>
        <time>2015-07-13T19:06:48.856Z</time>
      </trkpt>
      <trkpt lat="48.88994" lon="2.36356">
        <ele>107.3</ele>
        <time>2015-07-13T19:06:49.913Z</time>
      </trkpt>
      <trkpt lat="48.88994" lon="2.36346">
        <ele>107.3</ele>
        <time>2015-07-13T19:06:50.388Z</time>
      </trkpt>
      <trkpt lat="48.88994" lon="2.36341">
        <ele>107.2</ele>
        <time>2015-07-13T19:06:52.873Z</time>
      </trkpt>
      <trkpt lat="48.88993" lon="2.36331">
        <ele>107.1</ele>
        <time>2015-07-13T19:06:55.441Z</time>
      </trkpt>
      <trkpt lat="48.88993" lon="2.36326">
        <ele>107.2</ele>
        <time>2015-07-13T19:06:55.858Z</time>
      </trkpt>
      <trkpt lat="48.88991" lon="2.36314">
        <ele>108.3</ele>
        <time>2015-07-13T19:06:57.866Z</time>
      </trkpt>
      <trkpt lat="48.88991" lon="2.3631">
        <ele>108.8</ele>
        <time>2015-07-13T19:06:58.904Z</time>
      </trkpt>
      <trkpt lat="48.88987" lon="2.36298">
        <ele>110.9</ele>
        <time>2015-07-13T19:07:08.857Z</time>
      </trkpt>
      <trkpt lat="48.88988" lon="2.36296">
        <ele>111.3</ele>
        <time>2015-07-13T19:07:09.868Z</time>
      </trkpt>
      <trkpt lat="48.8899" lon="2.36285">
        <ele>111.6</ele>
        <time>2015-07-13T19:07:13.924Z</time>
      </trkpt>
      <trkpt lat="48.8899" lon="2.3628">
        <ele>111.6</ele>
        <time>2015-07-13T19:07:14.855Z</time>
      </trkpt>
      <trkpt lat="48.88989" lon="2.36269">
        <ele>111.6</ele>
        <time>2015-07-13T19:07:16.872Z</time>
      </trkpt>
      <trkpt lat="48.88989" lon="2.36263">
        <ele>111.6</ele>
        <time>2015-07-13T19:07:17.909Z</time>
      </trkpt>
      <trkpt lat="48.88991" lon="2.36253">
        <ele>111.5</ele>
        <time>2015-07-13T19:07:19.879Z</time>
      </trkpt>
      <trkpt lat="48.88993" lon="2.36249">
        <ele>111.4</ele>
        <time>2015-07-13T19:07:20.884Z</time>
      </trkpt>
      <trkpt lat="48.88993" lon="2.36239">
        <ele>111.2</ele>
        <time>2015-07-13T19:07:22.856Z</time>
      </trkpt>
      <trkpt lat="48.88993" lon="2.36234">
        <ele>111.2</ele>
        <time>2015-07-13T19:07:23.967Z</time>
      </trkpt>
      <trkpt lat="48.88992" lon="2.36225">
        <ele>110.9</ele>
        <time>2015-07-13T19:07:25.899Z</time>
      </trkpt>
      <trkpt lat="48.88991" lon="2.36219">
        <ele>111.2</ele>
        <time>2015-07-13T19:07:26.913Z</time>
      </trkpt>
      <trkpt lat="48.88991" lon="2.36208">
        <ele>111</ele>
        <time>2015-07-13T19:07:28.824Z</time>
      </trkpt>
      <trkpt lat="48.8899" lon="2.36202">
        <ele>110.7</ele>
        <time>2015-07-13T19:07:29.915Z</time>
      </trkpt>
      <trkpt lat="48.88987" lon="2.36192">
        <ele>110.5</ele>
        <time>2015-07-13T19:07:31.864Z</time>
      </trkpt>
      <trkpt lat="48.88986" lon="2.36187">
        <ele>110.4</ele>
        <time>2015-07-13T19:07:32.879Z</time>
      </trkpt>
      <trkpt lat="48.88984" lon="2.36177">
        <ele>110.2</ele>
        <time>2015-07-13T19:07:34.853Z</time>
      </trkpt>
      <trkpt lat="48.88983" lon="2.36171">
        <ele>110.1</ele>
        <time>2015-07-13T19:07:35.963Z</time>
      </trkpt>
      <trkpt lat="48.88983" lon="2.36161">
        <ele>110.1</ele>
        <time>2015-07-13T19:07:38.770Z</time>
      </trkpt>
      <trkpt lat="48.88983" lon="2.36155">
        <ele>110</ele>
        <time>2015-07-13T19:07:39.257Z</time>
      </trkpt>
      <trkpt lat="48.88983" lon="2.36146">
        <ele>110</ele>
        <time>2015-07-13T19:07:40.857Z</time>
      </trkpt>
      <trkpt lat="48.88983" lon="2.3614">
        <ele>110.1</ele>
        <time>2015-07-13T19:07:41.861Z</time>
      </trkpt>
      <trkpt lat="48.88984" lon="2.36129">
        <ele>110.3</ele>
        <time>2015-07-13T19:07:43.858Z</time>
      </trkpt>
      <trkpt lat="48.88984" lon="2.36125">
        <ele>110.3</ele>
        <time>2015-07-13T19:07:44.877Z</time>
      </trkpt>
      <trkpt lat="48.88986" lon="2.36111">
        <ele>110.1</ele>
        <time>2015-07-13T19:07:47.915Z</time>
      </trkpt>
      <trkpt lat="48.88986" lon="2.36106">
        <ele>110.1</ele>
        <time>2015-07-13T19:07:48.850Z</time>
      </trkpt>
      <trkpt lat="48.88986" lon="2.36094">
        <ele>110.2</ele>
        <time>2015-07-13T19:07:50.890Z</time>
      </trkpt>
      <trkpt lat="48.88986" lon="2.36087">
        <ele>110.1</ele>
        <time>2015-07-13T19:07:51.911Z</time>
      </trkpt>
      <trkpt lat="48.88986" lon="2.36075">
        <ele>110.1</ele>
        <time>2015-07-13T19:07:54.140Z</time>
      </trkpt>
      <trkpt lat="48.88987" lon="2.36068">
        <ele>109.9</ele>
        <time>2015-07-13T19:07:54.860Z</time>
      </trkpt>
      <trkpt lat="48.88989" lon="2.36058">
        <ele>109.7</ele>
        <time>2015-07-13T19:07:56.877Z</time>
      </trkpt>
      <trkpt lat="48.88992" lon="2.36051">
        <ele>109.6</ele>
        <time>2015-07-13T19:07:57.892Z</time>
      </trkpt>
      <trkpt lat="48.88997" lon="2.36044">
        <ele>109.7</ele>
        <time>2015-07-13T19:07:59.332Z</time>
      </trkpt>
      <trkpt lat="48.89001" lon="2.36038">
        <ele>109.9</ele>
        <time>2015-07-13T19:07:59.931Z</time>
      </trkpt>
      <trkpt lat="48.89007" lon="2.36029">
        <ele>110.9</ele>
        <time>2015-07-13T19:08:01.867Z</time>
      </trkpt>
      <trkpt lat="48.89009" lon="2.36023">
        <ele>111</ele>
        <time>2015-07-13T19:08:02.813Z</time>
      </trkpt>
      <trkpt lat="48.89014" lon="2.36012">
        <ele>111.5</ele>
        <time>2015-07-13T19:08:04.934Z</time>
      </trkpt>
      <trkpt lat="48.89015" lon="2.36008">
        <ele>111.5</ele>
        <time>2015-07-13T19:08:05.938Z</time>
      </trkpt>
      <trkpt lat="48.89016" lon="2.36008">
        <ele>111.6</ele>
        <time>2015-07-13T19:08:09.463Z</time>
      </trkpt>
      <trkpt lat="48.89016" lon="2.36009">
        <ele>111.7</ele>
        <time>2015-07-13T19:08:09.890Z</time>
      </trkpt>
      <trkpt lat="48.89016" lon="2.36009">
        <ele>111.7</ele>
        <time>2015-07-13T19:08:25.931Z</time>
      </trkpt>
      <trkpt lat="48.89016" lon="2.35995">
        <ele>114.9</ele>
        <time>2015-07-13T19:08:26.855Z</time>
      </trkpt>
      <trkpt lat="48.8902" lon="2.35984">
        <ele>115.6</ele>
        <time>2015-07-13T19:08:32.844Z</time>
      </trkpt>
      <trkpt lat="48.8902" lon="2.35981">
        <ele>115.7</ele>
        <time>2015-07-13T19:08:33.858Z</time>
      </trkpt>
      <trkpt lat="48.89023" lon="2.3597">
        <ele>115.7</ele>
        <time>2015-07-13T19:08:36.873Z</time>
      </trkpt>
      <trkpt lat="48.89024" lon="2.35966">
        <ele>115.5</ele>
        <time>2015-07-13T19:08:37.886Z</time>
      </trkpt>
      <trkpt lat="48.89026" lon="2.35957">
        <ele>116</ele>
        <time>2015-07-13T19:08:39.851Z</time>
      </trkpt>
      <trkpt lat="48.89026" lon="2.35951">
        <ele>116.2</ele>
        <time>2015-07-13T19:08:40.875Z</time>
      </trkpt>
      <trkpt lat="48.89027" lon="2.35938">
        <ele>116</ele>
        <time>2015-07-13T19:08:42.853Z</time>
      </trkpt>
      <trkpt lat="48.89027" lon="2.35932">
        <ele>115.9</ele>
        <time>2015-07-13T19:08:43.887Z</time>
      </trkpt>
      <trkpt lat="48.89028" lon="2.35919">
        <ele>115.8</ele>
        <time>2015-07-13T19:08:45.930Z</time>
      </trkpt>
      <trkpt lat="48.89028" lon="2.35912">
        <ele>115.8</ele>
        <time>2015-07-13T19:08:46.826Z</time>
      </trkpt>
      <trkpt lat="48.89028" lon="2.35905">
        <ele>115.9</ele>
        <time>2015-07-13T19:08:47.862Z</time>
      </trkpt>
      <trkpt lat="48.89028" lon="2.35897">
        <ele>116</ele>
        <time>2015-07-13T19:08:48.868Z</time>
      </trkpt>
      <trkpt lat="48.89029" lon="2.35884">
        <ele>116</ele>
        <time>2015-07-13T19:08:50.916Z</time>
      </trkpt>
      <trkpt lat="48.89029" lon="2.35877">
        <ele>115.9</ele>
        <time>2015-07-13T19:08:51.835Z</time>
      </trkpt>
      <trkpt lat="48.89029" lon="2.35869">
        <ele>116</ele>
        <time>2015-07-13T19:08:52.851Z</time>
      </trkpt>
      <trkpt lat="48.89029" lon="2.35862">
        <ele>116</ele>
        <time>2015-07-13T19:08:53.955Z</time>
      </trkpt>
      <trkpt lat="48.89029" lon="2.35854">
        <ele>115.9</ele>
        <time>2015-07-13T19:08:54.886Z</time>
      </trkpt>
      <trkpt lat="48.89029" lon="2.35847">
        <ele>115.9</ele>
        <time>2015-07-13T19:08:55.901Z</time>
      </trkpt>
      <trkpt lat="48.89029" lon="2.35838">
        <ele>116.1</ele>
        <time>2015-07-13T19:08:56.924Z</time>
      </trkpt>
      <trkpt lat="48.89029" lon="2.3583">
        <ele>116</ele>
        <time>2015-07-13T19:08:57.933Z</time>
      </trkpt>
      <trkpt lat="48.8903" lon="2.35822">
        <ele>116.1</ele>
        <time>2015-07-13T19:08:59.754Z</time>
      </trkpt>
      <trkpt lat="48.8903" lon="2.35813">
        <ele>116.1</ele>
        <time>2015-07-13T19:08:59.886Z</time>
      </trkpt>
      <trkpt lat="48.8903" lon="2.35805">
        <ele>116</ele>
        <time>2015-07-13T19:09:00.899Z</time>
      </trkpt>
      <trkpt lat="48.8903" lon="2.35797">
        <ele>115.5</ele>
        <time>2015-07-13T19:09:01.909Z</time>
      </trkpt>
      <trkpt lat="48.89031" lon="2.35788">
        <ele>115</ele>
        <time>2015-07-13T19:09:02.847Z</time>
      </trkpt>
      <trkpt lat="48.89031" lon="2.35779">
        <ele>114.6</ele>
        <time>2015-07-13T19:09:03.845Z</time>
      </trkpt>
      <trkpt lat="48.89031" lon="2.3577">
        <ele>114.2</ele>
        <time>2015-07-13T19:09:04.857Z</time>
      </trkpt>
      <trkpt lat="48.89032" lon="2.35762">
        <ele>113.5</ele>
        <time>2015-07-13T19:09:05.889Z</time>
      </trkpt>
      <trkpt lat="48.89032" lon="2.35753">
        <ele>113.3</ele>
        <time>2015-07-13T19:09:06.901Z</time>
      </trkpt>
      <trkpt lat="48.89033" lon="2.35745">
        <ele>112.7</ele>
        <time>2015-07-13T19:09:07.819Z</time>
      </trkpt>
      <trkpt lat="48.89033" lon="2.35737">
        <ele>112.5</ele>
        <time>2015-07-13T19:09:08.854Z</time>
      </trkpt>
      <trkpt lat="48.89033" lon="2.35728">
        <ele>112.2</ele>
        <time>2015-07-13T19:09:09.861Z</time>
      </trkpt>
      <trkpt lat="48.89034" lon="2.35719">
        <ele>111.8</ele>
        <time>2015-07-13T19:09:10.874Z</time>
      </trkpt>
      <trkpt lat="48.89035" lon="2.3571">
        <ele>111.6</ele>
        <time>2015-07-13T19:09:11.892Z</time>
      </trkpt>
      <trkpt lat="48.89035" lon="2.35702">
        <ele>111.4</ele>
        <time>2015-07-13T19:09:12.889Z</time>
      </trkpt>
      <trkpt lat="48.89035" lon="2.35693">
        <ele>111.5</ele>
        <time>2015-07-13T19:09:13.910Z</time>
      </trkpt>
      <trkpt lat="48.89036" lon="2.35684">
        <ele>111.3</ele>
        <time>2015-07-13T19:09:14.922Z</time>
      </trkpt>
      <trkpt lat="48.89036" lon="2.35675">
        <ele>111</ele>
        <time>2015-07-13T19:09:15.849Z</time>
      </trkpt>
      <trkpt lat="48.89036" lon="2.35666">
        <ele>111.1</ele>
        <time>2015-07-13T19:09:16.851Z</time>
      </trkpt>
      <trkpt lat="48.89036" lon="2.35657">
        <ele>111.1</ele>
        <time>2015-07-13T19:09:17.895Z</time>
      </trkpt>
      <trkpt lat="48.89037" lon="2.35648">
        <ele>111</ele>
        <time>2015-07-13T19:09:18.850Z</time>
      </trkpt>
      <trkpt lat="48.89037" lon="2.3564">
        <ele>111</ele>
        <time>2015-07-13T19:09:19.853Z</time>
      </trkpt>
      <trkpt lat="48.89037" lon="2.35631">
        <ele>111.2</ele>
        <time>2015-07-13T19:09:20.857Z</time>
      </trkpt>
      <trkpt lat="48.89037" lon="2.35624">
        <ele>111.3</ele>
        <time>2015-07-13T19:09:21.866Z</time>
      </trkpt>
      <trkpt lat="48.89037" lon="2.35616">
        <ele>111.4</ele>
        <time>2015-07-13T19:09:22.882Z</time>
      </trkpt>
      <trkpt lat="48.89038" lon="2.35608">
        <ele>111.4</ele>
        <time>2015-07-13T19:09:23.894Z</time>
      </trkpt>
      <trkpt lat="48.89039" lon="2.35601">
        <ele>111.3</ele>
        <time>2015-07-13T19:09:24.908Z</time>
      </trkpt>
      <trkpt lat="48.89041" lon="2.35593">
        <ele>111.3</ele>
        <time>2015-07-13T19:09:25.921Z</time>
      </trkpt>
      <trkpt lat="48.89041" lon="2.35584">
        <ele>111.5</ele>
        <time>2015-07-13T19:09:26.853Z</time>
      </trkpt>
      <trkpt lat="48.89042" lon="2.35575">
        <ele>111.6</ele>
        <time>2015-07-13T19:09:27.854Z</time>
      </trkpt>
      <trkpt lat="48.89043" lon="2.35564">
        <ele>111.8</ele>
        <time>2015-07-13T19:09:28.851Z</time>
      </trkpt>
      <trkpt lat="48.89044" lon="2.35554">
        <ele>112</ele>
        <time>2015-07-13T19:09:29.900Z</time>
      </trkpt>
      <trkpt lat="48.89046" lon="2.35544">
        <ele>111.6</ele>
        <time>2015-07-13T19:09:31.169Z</time>
      </trkpt>
      <trkpt lat="48.89047" lon="2.35535">
        <ele>111.5</ele>
        <time>2015-07-13T19:09:31.847Z</time>
      </trkpt>
      <trkpt lat="48.89048" lon="2.35526">
        <ele>111.4</ele>
        <time>2015-07-13T19:09:32.864Z</time>
      </trkpt>
      <trkpt lat="48.8905" lon="2.35517">
        <ele>111.1</ele>
        <time>2015-07-13T19:09:33.866Z</time>
      </trkpt>
      <trkpt lat="48.89052" lon="2.35509">
        <ele>111</ele>
        <time>2015-07-13T19:09:34.880Z</time>
      </trkpt>
      <trkpt lat="48.89054" lon="2.35501">
        <ele>110.8</ele>
        <time>2015-07-13T19:09:35.891Z</time>
      </trkpt>
      <trkpt lat="48.89055" lon="2.35492">
        <ele>110.7</ele>
        <time>2015-07-13T19:09:36.902Z</time>
      </trkpt>
      <trkpt lat="48.89057" lon="2.35484">
        <ele>110.5</ele>
        <time>2015-07-13T19:09:37.912Z</time>
      </trkpt>
      <trkpt lat="48.89059" lon="2.35475">
        <ele>110.3</ele>
        <time>2015-07-13T19:09:38.849Z</time>
      </trkpt>
      <trkpt lat="48.89061" lon="2.35466">
        <ele>110.2</ele>
        <time>2015-07-13T19:09:39.863Z</time>
      </trkpt>
      <trkpt lat="48.89062" lon="2.35456">
        <ele>110.4</ele>
        <time>2015-07-13T19:09:40.877Z</time>
      </trkpt>
      <trkpt lat="48.89064" lon="2.35447">
        <ele>110.3</ele>
        <time>2015-07-13T19:09:41.894Z</time>
      </trkpt>
      <trkpt lat="48.89066" lon="2.35438">
        <ele>110.1</ele>
        <time>2015-07-13T19:09:42.913Z</time>
      </trkpt>
      <trkpt lat="48.89068" lon="2.35428">
        <ele>110</ele>
        <time>2015-07-13T19:09:43.922Z</time>
      </trkpt>
      <trkpt lat="48.8907" lon="2.35419">
        <ele>109.8</ele>
        <time>2015-07-13T19:09:44.845Z</time>
      </trkpt>
      <trkpt lat="48.89073" lon="2.35409">
        <ele>109.8</ele>
        <time>2015-07-13T19:09:45.847Z</time>
      </trkpt>
      <trkpt lat="48.89075" lon="2.354">
        <ele>109.7</ele>
        <time>2015-07-13T19:09:46.859Z</time>
      </trkpt>
      <trkpt lat="48.89077" lon="2.3539">
        <ele>109.6</ele>
        <time>2015-07-13T19:09:47.875Z</time>
      </trkpt>
      <trkpt lat="48.89079" lon="2.3538">
        <ele>109.7</ele>
        <time>2015-07-13T19:09:48.876Z</time>
      </trkpt>
      <trkpt lat="48.8908" lon="2.35371">
        <ele>109.9</ele>
        <time>2015-07-13T19:09:49.886Z</time>
      </trkpt>
      <trkpt lat="48.89082" lon="2.35362">
        <ele>109.7</ele>
        <time>2015-07-13T19:09:50.907Z</time>
      </trkpt>
      <trkpt lat="48.89083" lon="2.35352">
        <ele>109.7</ele>
        <time>2015-07-13T19:09:51.911Z</time>
      </trkpt>
      <trkpt lat="48.89085" lon="2.35343">
        <ele>109.7</ele>
        <time>2015-07-13T19:09:52.846Z</time>
      </trkpt>
      <trkpt lat="48.89086" lon="2.35333">
        <ele>109.9</ele>
        <time>2015-07-13T19:09:53.951Z</time>
      </trkpt>
      <trkpt lat="48.89087" lon="2.35324">
        <ele>109.8</ele>
        <time>2015-07-13T19:09:54.845Z</time>
      </trkpt>
      <trkpt lat="48.89088" lon="2.35315">
        <ele>109.8</ele>
        <time>2015-07-13T19:09:55.845Z</time>
      </trkpt>
      <trkpt lat="48.8909" lon="2.35305">
        <ele>109.8</ele>
        <time>2015-07-13T19:09:56.865Z</time>
      </trkpt>
      <trkpt lat="48.89091" lon="2.35297">
        <ele>109.9</ele>
        <time>2015-07-13T19:09:57.875Z</time>
      </trkpt>
      <trkpt lat="48.89092" lon="2.35288">
        <ele>110</ele>
        <time>2015-07-13T19:09:58.884Z</time>
      </trkpt>
      <trkpt lat="48.89094" lon="2.3528">
        <ele>110.3</ele>
        <time>2015-07-13T19:09:59.925Z</time>
      </trkpt>
      <trkpt lat="48.89096" lon="2.35272">
        <ele>110.3</ele>
        <time>2015-07-13T19:10:00.832Z</time>
      </trkpt>
      <trkpt lat="48.89097" lon="2.35263">
        <ele>110.4</ele>
        <time>2015-07-13T19:10:01.833Z</time>
      </trkpt>
      <trkpt lat="48.89098" lon="2.35256">
        <ele>110.4</ele>
        <time>2015-07-13T19:10:02.850Z</time>
      </trkpt>
      <trkpt lat="48.89099" lon="2.35248">
        <ele>110.5</ele>
        <time>2015-07-13T19:10:03.795Z</time>
      </trkpt>
      <trkpt lat="48.891" lon="2.35239">
        <ele>110.5</ele>
        <time>2015-07-13T19:10:04.906Z</time>
      </trkpt>
      <trkpt lat="48.89101" lon="2.35231">
        <ele>110.5</ele>
        <time>2015-07-13T19:10:05.912Z</time>
      </trkpt>
      <trkpt lat="48.89102" lon="2.35223">
        <ele>110.2</ele>
        <time>2015-07-13T19:10:06.834Z</time>
      </trkpt>
      <trkpt lat="48.89103" lon="2.35216">
        <ele>110.1</ele>
        <time>2015-07-13T19:10:07.829Z</time>
      </trkpt>
      <trkpt lat="48.89104" lon="2.35208">
        <ele>109.7</ele>
        <time>2015-07-13T19:10:08.839Z</time>
      </trkpt>
      <trkpt lat="48.89106" lon="2.35201">
        <ele>109.6</ele>
        <time>2015-07-13T19:10:09.851Z</time>
      </trkpt>
      <trkpt lat="48.89108" lon="2.35193">
        <ele>109.4</ele>
        <time>2015-07-13T19:10:10.870Z</time>
      </trkpt>
      <trkpt lat="48.89108" lon="2.35185">
        <ele>109.4</ele>
        <time>2015-07-13T19:10:11.865Z</time>
      </trkpt>
      <trkpt lat="48.89109" lon="2.35177">
        <ele>109.5</ele>
        <time>2015-07-13T19:10:12.880Z</time>
      </trkpt>
      <trkpt lat="48.89109" lon="2.35169">
        <ele>109.5</ele>
        <time>2015-07-13T19:10:13.888Z</time>
      </trkpt>
      <trkpt lat="48.89111" lon="2.35162">
        <ele>109.7</ele>
        <time>2015-07-13T19:10:14.903Z</time>
      </trkpt>
      <trkpt lat="48.89114" lon="2.35155">
        <ele>110.1</ele>
        <time>2015-07-13T19:10:15.918Z</time>
      </trkpt>
      <trkpt lat="48.89117" lon="2.35149">
        <ele>110.6</ele>
        <time>2015-07-13T19:10:16.856Z</time>
      </trkpt>
      <trkpt lat="48.89119" lon="2.35143">
        <ele>110.9</ele>
        <time>2015-07-13T19:10:17.949Z</time>
      </trkpt>
      <trkpt lat="48.89121" lon="2.35136">
        <ele>111.1</ele>
        <time>2015-07-13T19:10:18.845Z</time>
      </trkpt>
      <trkpt lat="48.89122" lon="2.35128">
        <ele>111.3</ele>
        <time>2015-07-13T19:10:19.844Z</time>
      </trkpt>
      <trkpt lat="48.89124" lon="2.35121">
        <ele>111.6</ele>
        <time>2015-07-13T19:10:20.848Z</time>
      </trkpt>
      <trkpt lat="48.89125" lon="2.35113">
        <ele>111.8</ele>
        <time>2015-07-13T19:10:21.878Z</time>
      </trkpt>
      <trkpt lat="48.89126" lon="2.35105">
        <ele>112</ele>
        <time>2015-07-13T19:10:22.891Z</time>
      </trkpt>
      <trkpt lat="48.89127" lon="2.35096">
        <ele>112.2</ele>
        <time>2015-07-13T19:10:23.958Z</time>
      </trkpt>
      <trkpt lat="48.89128" lon="2.35085">
        <ele>112.2</ele>
        <time>2015-07-13T19:10:24.845Z</time>
      </trkpt>
      <trkpt lat="48.8913" lon="2.35075">
        <ele>112.4</ele>
        <time>2015-07-13T19:10:25.846Z</time>
      </trkpt>
      <trkpt lat="48.89131" lon="2.35065">
        <ele>112.6</ele>
        <time>2015-07-13T19:10:26.869Z</time>
      </trkpt>
      <trkpt lat="48.89133" lon="2.35056">
        <ele>112.6</ele>
        <time>2015-07-13T19:10:27.893Z</time>
      </trkpt>
      <trkpt lat="48.89134" lon="2.35046">
        <ele>112.7</ele>
        <time>2015-07-13T19:10:29.142Z</time>
      </trkpt>
      <trkpt lat="48.89136" lon="2.35037">
        <ele>112.9</ele>
        <time>2015-07-13T19:10:30.008Z</time>
      </trkpt>
      <trkpt lat="48.89138" lon="2.35028">
        <ele>112.9</ele>
        <time>2015-07-13T19:10:30.851Z</time>
      </trkpt>
      <trkpt lat="48.89139" lon="2.35019">
        <ele>113</ele>
        <time>2015-07-13T19:10:31.886Z</time>
      </trkpt>
      <trkpt lat="48.8914" lon="2.35011">
        <ele>113.1</ele>
        <time>2015-07-13T19:10:32.887Z</time>
      </trkpt>
      <trkpt lat="48.89142" lon="2.35004">
        <ele>113.1</ele>
        <time>2015-07-13T19:10:33.889Z</time>
      </trkpt>
      <trkpt lat="48.89143" lon="2.34997">
        <ele>113</ele>
        <time>2015-07-13T19:10:34.906Z</time>
      </trkpt>
      <trkpt lat="48.89145" lon="2.34991">
        <ele>113</ele>
        <time>2015-07-13T19:10:35.915Z</time>
      </trkpt>
      <trkpt lat="48.89147" lon="2.3498">
        <ele>112.8</ele>
        <time>2015-07-13T19:10:37.838Z</time>
      </trkpt>
      <trkpt lat="48.89148" lon="2.34976">
        <ele>112.9</ele>
        <time>2015-07-13T19:10:38.854Z</time>
      </trkpt>
      <trkpt lat="48.89153" lon="2.34966">
        <ele>113.1</ele>
        <time>2015-07-13T19:10:42.838Z</time>
      </trkpt>
      <trkpt lat="48.89154" lon="2.34964">
        <ele>113.2</ele>
        <time>2015-07-13T19:10:43.847Z</time>
      </trkpt>
      <trkpt lat="48.89153" lon="2.34964">
        <ele>113.2</ele>
        <time>2015-07-13T19:10:46.874Z</time>
      </trkpt>
      <trkpt lat="48.89153" lon="2.34964">
        <ele>113.4</ele>
        <time>2015-07-13T19:10:47.888Z</time>
      </trkpt>
      <trkpt lat="48.89152" lon="2.34965">
        <ele>113.5</ele>
        <time>2015-07-13T19:10:51.871Z</time>
      </trkpt>
      <trkpt lat="48.89151" lon="2.34965">
        <ele>114.3</ele>
        <time>2015-07-13T19:10:52.871Z</time>
      </trkpt>
      <trkpt lat="48.89151" lon="2.34964">
        <ele>114.5</ele>
        <time>2015-07-13T19:10:53.914Z</time>
      </trkpt>
      <trkpt lat="48.89151" lon="2.34964">
        <ele>114.7</ele>
        <time>2015-07-13T19:10:54.846Z</time>
      </trkpt>
      <trkpt lat="48.89151" lon="2.34965">
        <ele>114.9</ele>
        <time>2015-07-13T19:11:19.854Z</time>
      </trkpt>
      <trkpt lat="48.89157" lon="2.34967">
        <ele>118.7</ele>
        <time>2015-07-13T19:11:20.873Z</time>
      </trkpt>
      <trkpt lat="48.89163" lon="2.34957">
        <ele>120.1</ele>
        <time>2015-07-13T19:11:25.839Z</time>
      </trkpt>
      <trkpt lat="48.89162" lon="2.34949">
        <ele>121.1</ele>
        <time>2015-07-13T19:11:26.914Z</time>
      </trkpt>
      <trkpt lat="48.89161" lon="2.34936">
        <ele>121.8</ele>
        <time>2015-07-13T19:11:28.855Z</time>
      </trkpt>
      <trkpt lat="48.89161" lon="2.34931">
        <ele>121.8</ele>
        <time>2015-07-13T19:11:29.914Z</time>
      </trkpt>
      <trkpt lat="48.89161" lon="2.3492">
        <ele>121.9</ele>
        <time>2015-07-13T19:11:31.855Z</time>
      </trkpt>
      <trkpt lat="48.89162" lon="2.34914">
        <ele>122</ele>
        <time>2015-07-13T19:11:32.875Z</time>
      </trkpt>
      <trkpt lat="48.89164" lon="2.34902">
        <ele>121.5</ele>
        <time>2015-07-13T19:11:34.852Z</time>
      </trkpt>
      <trkpt lat="48.89166" lon="2.34896">
        <ele>121.1</ele>
        <time>2015-07-13T19:11:35.881Z</time>
      </trkpt>
      <trkpt lat="48.89167" lon="2.34883">
        <ele>121.4</ele>
        <time>2015-07-13T19:11:38.172Z</time>
      </trkpt>
      <trkpt lat="48.89168" lon="2.34875">
        <ele>121.7</ele>
        <time>2015-07-13T19:11:38.845Z</time>
      </trkpt>
      <trkpt lat="48.89169" lon="2.34868">
        <ele>121.8</ele>
        <time>2015-07-13T19:11:39.855Z</time>
      </trkpt>
      <trkpt lat="48.89169" lon="2.34859">
        <ele>121.9</ele>
        <time>2015-07-13T19:11:40.875Z</time>
      </trkpt>
      <trkpt lat="48.8917" lon="2.3485">
        <ele>122.1</ele>
        <time>2015-07-13T19:11:41.954Z</time>
      </trkpt>
      <trkpt lat="48.89171" lon="2.34842">
        <ele>122.2</ele>
        <time>2015-07-13T19:11:42.840Z</time>
      </trkpt>
      <trkpt lat="48.89173" lon="2.34835">
        <ele>122.2</ele>
        <time>2015-07-13T19:11:43.883Z</time>
      </trkpt>
      <trkpt lat="48.89174" lon="2.34829">
        <ele>121.7</ele>
        <time>2015-07-13T19:11:44.894Z</time>
      </trkpt>
      <trkpt lat="48.89175" lon="2.34821">
        <ele>121.6</ele>
        <time>2015-07-13T19:11:45.996Z</time>
      </trkpt>
      <trkpt lat="48.89177" lon="2.34814">
        <ele>121.5</ele>
        <time>2015-07-13T19:11:46.842Z</time>
      </trkpt>
      <trkpt lat="48.89179" lon="2.34805">
        <ele>121.4</ele>
        <time>2015-07-13T19:11:47.887Z</time>
      </trkpt>
      <trkpt lat="48.89181" lon="2.34797">
        <ele>121.4</ele>
        <time>2015-07-13T19:11:48.905Z</time>
      </trkpt>
      <trkpt lat="48.89182" lon="2.34789">
        <ele>121.5</ele>
        <time>2015-07-13T19:11:49.805Z</time>
      </trkpt>
      <trkpt lat="48.89184" lon="2.34782">
        <ele>121.5</ele>
        <time>2015-07-13T19:11:50.842Z</time>
      </trkpt>
      <trkpt lat="48.89185" lon="2.34775">
        <ele>121.7</ele>
        <time>2015-07-13T19:11:51.853Z</time>
      </trkpt>
      <trkpt lat="48.89185" lon="2.34768">
        <ele>121.5</ele>
        <time>2015-07-13T19:11:52.855Z</time>
      </trkpt>
      <trkpt lat="48.89186" lon="2.34761">
        <ele>121.3</ele>
        <time>2015-07-13T19:11:53.911Z</time>
      </trkpt>
      <trkpt lat="48.89188" lon="2.34755">
        <ele>121.3</ele>
        <time>2015-07-13T19:11:54.886Z</time>
      </trkpt>
      <trkpt lat="48.8919" lon="2.34748">
        <ele>121.4</ele>
        <time>2015-07-13T19:11:55.849Z</time>
      </trkpt>
      <trkpt lat="48.89191" lon="2.3474">
        <ele>121.5</ele>
        <time>2015-07-13T19:11:56.842Z</time>
      </trkpt>
      <trkpt lat="48.89193" lon="2.34732">
        <ele>121.7</ele>
        <time>2015-07-13T19:11:57.880Z</time>
      </trkpt>
      <trkpt lat="48.89195" lon="2.34723">
        <ele>121.8</ele>
        <time>2015-07-13T19:11:58.899Z</time>
      </trkpt>
      <trkpt lat="48.89197" lon="2.34717">
        <ele>121.9</ele>
        <time>2015-07-13T19:11:59.917Z</time>
      </trkpt>
      <trkpt lat="48.89198" lon="2.34709">
        <ele>121.9</ele>
        <time>2015-07-13T19:12:00.804Z</time>
      </trkpt>
      <trkpt lat="48.892" lon="2.34703">
        <ele>122</ele>
        <time>2015-07-13T19:12:01.838Z</time>
      </trkpt>
      <trkpt lat="48.89202" lon="2.34697">
        <ele>122.2</ele>
        <time>2015-07-13T19:12:02.849Z</time>
      </trkpt>
      <trkpt lat="48.89204" lon="2.3469">
        <ele>122.1</ele>
        <time>2015-07-13T19:12:03.856Z</time>
      </trkpt>
      <trkpt lat="48.89206" lon="2.34682">
        <ele>122.2</ele>
        <time>2015-07-13T19:12:04.863Z</time>
      </trkpt>
      <trkpt lat="48.89207" lon="2.34675">
        <ele>122.2</ele>
        <time>2015-07-13T19:12:05.877Z</time>
      </trkpt>
      <trkpt lat="48.89209" lon="2.34667">
        <ele>122.3</ele>
        <time>2015-07-13T19:12:06.889Z</time>
      </trkpt>
      <trkpt lat="48.8921" lon="2.34659">
        <ele>122.5</ele>
        <time>2015-07-13T19:12:07.919Z</time>
      </trkpt>
      <trkpt lat="48.89211" lon="2.34651">
        <ele>122.8</ele>
        <time>2015-07-13T19:12:08.836Z</time>
      </trkpt>
      <trkpt lat="48.89211" lon="2.34641">
        <ele>122.6</ele>
        <time>2015-07-13T19:12:09.858Z</time>
      </trkpt>
      <trkpt lat="48.89212" lon="2.3463">
        <ele>123</ele>
        <time>2015-07-13T19:12:10.866Z</time>
      </trkpt>
      <trkpt lat="48.89212" lon="2.3462">
        <ele>123.8</ele>
        <time>2015-07-13T19:12:11.882Z</time>
      </trkpt>
      <trkpt lat="48.89213" lon="2.34611">
        <ele>124.5</ele>
        <time>2015-07-13T19:12:12.925Z</time>
      </trkpt>
      <trkpt lat="48.89216" lon="2.34599">
        <ele>124.9</ele>
        <time>2015-07-13T19:12:14.845Z</time>
      </trkpt>
      <trkpt lat="48.89217" lon="2.34594">
        <ele>125.1</ele>
        <time>2015-07-13T19:12:15.843Z</time>
      </trkpt>
      <trkpt lat="48.8922" lon="2.34583">
        <ele>125.4</ele>
        <time>2015-07-13T19:12:17.883Z</time>
      </trkpt>
      <trkpt lat="48.89221" lon="2.34577">
        <ele>125.3</ele>
        <time>2015-07-13T19:12:18.886Z</time>
      </trkpt>
      <trkpt lat="48.89224" lon="2.34567">
        <ele>125</ele>
        <time>2015-07-13T19:12:20.889Z</time>
      </trkpt>
      <trkpt lat="48.89226" lon="2.34562">
        <ele>124.9</ele>
        <time>2015-07-13T19:12:21.941Z</time>
      </trkpt>
      <trkpt lat="48.89228" lon="2.34549">
        <ele>124.8</ele>
        <time>2015-07-13T19:12:23.909Z</time>
      </trkpt>
      <trkpt lat="48.89229" lon="2.34542">
        <ele>124.8</ele>
        <time>2015-07-13T19:12:24.914Z</time>
      </trkpt>
      <trkpt lat="48.89232" lon="2.34529">
        <ele>124.5</ele>
        <time>2015-07-13T19:12:26.844Z</time>
      </trkpt>
      <trkpt lat="48.89233" lon="2.34523">
        <ele>124.3</ele>
        <time>2015-07-13T19:12:27.852Z</time>
      </trkpt>
      <trkpt lat="48.89235" lon="2.34513">
        <ele>123.6</ele>
        <time>2015-07-13T19:12:29.918Z</time>
      </trkpt>
      <trkpt lat="48.89236" lon="2.34509">
        <ele>123.6</ele>
        <time>2015-07-13T19:12:30.863Z</time>
      </trkpt>
      <trkpt lat="48.89238" lon="2.34497">
        <ele>121.5</ele>
        <time>2015-07-13T19:12:43.957Z</time>
      </trkpt>
      <trkpt lat="48.89239" lon="2.34495">
        <ele>121.6</ele>
        <time>2015-07-13T19:12:44.865Z</time>
      </trkpt>
      <trkpt lat="48.89239" lon="2.34483">
        <ele>121.3</ele>
        <time>2015-07-13T19:12:49.866Z</time>
      </trkpt>
      <trkpt lat="48.89239" lon="2.34481">
        <ele>121.5</ele>
        <time>2015-07-13T19:12:50.889Z</time>
      </trkpt>
      <trkpt lat="48.8924" lon="2.34469">
        <ele>121.4</ele>
        <time>2015-07-13T19:12:55.837Z</time>
      </trkpt>
      <trkpt lat="48.8924" lon="2.34467">
        <ele>121.1</ele>
        <time>2015-07-13T19:12:56.871Z</time>
      </trkpt>
      <trkpt lat="48.89246" lon="2.34459">
        <ele>120.8</ele>
        <time>2015-07-13T19:13:04.904Z</time>
      </trkpt>
      <trkpt lat="48.89247" lon="2.34457">
        <ele>121</ele>
        <time>2015-07-13T19:13:05.947Z</time>
      </trkpt>
      <trkpt lat="48.8925" lon="2.34446">
        <ele>121.4</ele>
        <time>2015-07-13T19:13:10.913Z</time>
      </trkpt>
      <trkpt lat="48.89251" lon="2.34444">
        <ele>121.6</ele>
        <time>2015-07-13T19:13:11.930Z</time>
      </trkpt>
      <trkpt lat="48.89258" lon="2.34436">
        <ele>122.9</ele>
        <time>2015-07-13T19:13:18.870Z</time>
      </trkpt>
      <trkpt lat="48.89259" lon="2.34437">
        <ele>123.2</ele>
        <time>2015-07-13T19:13:19.846Z</time>
      </trkpt>
      <trkpt lat="48.89259" lon="2.34438">
        <ele>123.4</ele>
        <time>2015-07-13T19:14:17.934Z</time>
      </trkpt>
      <trkpt lat="48.89261" lon="2.34454">
        <ele>126.4</ele>
        <time>2015-07-13T19:14:18.837Z</time>
      </trkpt>
      <trkpt lat="48.89262" lon="2.34452">
        <ele>127.9</ele>
        <time>2015-07-13T19:14:21.950Z</time>
      </trkpt>
      <trkpt lat="48.89263" lon="2.34451">
        <ele>127.8</ele>
        <time>2015-07-13T19:14:22.898Z</time>
      </trkpt>
      <trkpt lat="48.89263" lon="2.34451">
        <ele>127.7</ele>
        <time>2015-07-13T19:14:23.953Z</time>
      </trkpt>
      <trkpt lat="48.89262" lon="2.34451">
        <ele>127.4</ele>
        <time>2015-07-13T19:14:24.806Z</time>
      </trkpt>
      <trkpt lat="48.8926" lon="2.34451">
        <ele>127.4</ele>
        <time>2015-07-13T19:14:27.857Z</time>
      </trkpt>
      <trkpt lat="48.89261" lon="2.34451">
        <ele>127.6</ele>
        <time>2015-07-13T19:14:28.866Z</time>
      </trkpt>
      <trkpt lat="48.89261" lon="2.34451">
        <ele>128</ele>
        <time>2015-07-13T19:16:52.869Z</time>
      </trkpt>
      <trkpt lat="48.89265" lon="2.3445">
        <ele>132.4</ele>
        <time>2015-07-13T19:16:53.961Z</time>
      </trkpt>
      <trkpt lat="48.89265" lon="2.34449">
        <ele>131.7</ele>
        <time>2015-07-13T19:16:55.871Z</time>
      </trkpt>
      <trkpt lat="48.89265" lon="2.34448">
        <ele>131.6</ele>
        <time>2015-07-13T19:16:56.889Z</time>
      </trkpt>
      <trkpt lat="48.89265" lon="2.34448">
        <ele>131.7</ele>
        <time>2015-07-13T19:16:57.816Z</time>
      </trkpt>
      <trkpt lat="48.89265" lon="2.34447">
        <ele>131.6</ele>
        <time>2015-07-13T19:16:58.844Z</time>
      </trkpt>
      <trkpt lat="48.89266" lon="2.34436">
        <ele>127.7</ele>
        <time>2015-07-13T19:17:20.023Z</time>
      </trkpt>
      <trkpt lat="48.89267" lon="2.34433">
        <ele>127.4</ele>
        <time>2015-07-13T19:17:20.888Z</time>
      </trkpt>
      <trkpt lat="48.89271" lon="2.34426">
        <ele>127.1</ele>
        <time>2015-07-13T19:17:22.911Z</time>
      </trkpt>
      <trkpt lat="48.89274" lon="2.3442">
        <ele>126.9</ele>
        <time>2015-07-13T19:17:23.967Z</time>
      </trkpt>
      <trkpt lat="48.89277" lon="2.3441">
        <ele>126.7</ele>
        <time>2015-07-13T19:17:25.829Z</time>
      </trkpt>
      <trkpt lat="48.89278" lon="2.34404">
        <ele>126.7</ele>
        <time>2015-07-13T19:17:26.839Z</time>
      </trkpt>
      <trkpt lat="48.89279" lon="2.34396">
        <ele>126.6</ele>
        <time>2015-07-13T19:17:27.915Z</time>
      </trkpt>
      <trkpt lat="48.89279" lon="2.34387">
        <ele>126.7</ele>
        <time>2015-07-13T19:17:28.829Z</time>
      </trkpt>
      <trkpt lat="48.8928" lon="2.3438">
        <ele>126.9</ele>
        <time>2015-07-13T19:17:29.920Z</time>
      </trkpt>
      <trkpt lat="48.89282" lon="2.34372">
        <ele>127</ele>
        <time>2015-07-13T19:17:30.844Z</time>
      </trkpt>
      <trkpt lat="48.89283" lon="2.34365">
        <ele>127.2</ele>
        <time>2015-07-13T19:17:31.847Z</time>
      </trkpt>
      <trkpt lat="48.89284" lon="2.34356">
        <ele>127.2</ele>
        <time>2015-07-13T19:17:32.860Z</time>
      </trkpt>
      <trkpt lat="48.89284" lon="2.34346">
        <ele>127.2</ele>
        <time>2015-07-13T19:17:33.870Z</time>
      </trkpt>
      <trkpt lat="48.89285" lon="2.34337">
        <ele>127.2</ele>
        <time>2015-07-13T19:17:34.894Z</time>
      </trkpt>
      <trkpt lat="48.89285" lon="2.34327">
        <ele>127.3</ele>
        <time>2015-07-13T19:17:35.913Z</time>
      </trkpt>
      <trkpt lat="48.89285" lon="2.34318">
        <ele>127.4</ele>
        <time>2015-07-13T19:17:36.821Z</time>
      </trkpt>
      <trkpt lat="48.89285" lon="2.34309">
        <ele>127.6</ele>
        <time>2015-07-13T19:17:37.811Z</time>
      </trkpt>
      <trkpt lat="48.89284" lon="2.343">
        <ele>127.7</ele>
        <time>2015-07-13T19:17:38.853Z</time>
      </trkpt>
      <trkpt lat="48.89282" lon="2.34291">
        <ele>127.8</ele>
        <time>2015-07-13T19:17:39.794Z</time>
      </trkpt>
      <trkpt lat="48.8928" lon="2.34282">
        <ele>127.9</ele>
        <time>2015-07-13T19:17:40.852Z</time>
      </trkpt>
      <trkpt lat="48.8928" lon="2.34274">
        <ele>128.1</ele>
        <time>2015-07-13T19:17:41.853Z</time>
      </trkpt>
      <trkpt lat="48.89279" lon="2.34265">
        <ele>128.2</ele>
        <time>2015-07-13T19:17:42.868Z</time>
      </trkpt>
      <trkpt lat="48.89279" lon="2.34257">
        <ele>128.5</ele>
        <time>2015-07-13T19:17:43.881Z</time>
      </trkpt>
      <trkpt lat="48.89279" lon="2.34249">
        <ele>128.6</ele>
        <time>2015-07-13T19:17:44.906Z</time>
      </trkpt>
      <trkpt lat="48.8928" lon="2.34242">
        <ele>128.7</ele>
        <time>2015-07-13T19:17:45.831Z</time>
      </trkpt>
      <trkpt lat="48.89279" lon="2.34234">
        <ele>128.9</ele>
        <time>2015-07-13T19:17:46.849Z</time>
      </trkpt>
      <trkpt lat="48.8928" lon="2.34227">
        <ele>129.3</ele>
        <time>2015-07-13T19:17:47.944Z</time>
      </trkpt>
      <trkpt lat="48.8928" lon="2.3422">
        <ele>129.5</ele>
        <time>2015-07-13T19:17:48.826Z</time>
      </trkpt>
      <trkpt lat="48.8928" lon="2.34213">
        <ele>129.7</ele>
        <time>2015-07-13T19:17:49.833Z</time>
      </trkpt>
      <trkpt lat="48.8928" lon="2.34205">
        <ele>129.9</ele>
        <time>2015-07-13T19:17:50.861Z</time>
      </trkpt>
      <trkpt lat="48.89281" lon="2.34198">
        <ele>130.1</ele>
        <time>2015-07-13T19:17:51.882Z</time>
      </trkpt>
      <trkpt lat="48.89282" lon="2.34189">
        <ele>130.3</ele>
        <time>2015-07-13T19:17:52.916Z</time>
      </trkpt>
      <trkpt lat="48.89284" lon="2.34182">
        <ele>130.6</ele>
        <time>2015-07-13T19:17:53.929Z</time>
      </trkpt>
      <trkpt lat="48.89285" lon="2.34175">
        <ele>130.7</ele>
        <time>2015-07-13T19:17:54.811Z</time>
      </trkpt>
      <trkpt lat="48.89287" lon="2.34168">
        <ele>130.6</ele>
        <time>2015-07-13T19:17:55.832Z</time>
      </trkpt>
      <trkpt lat="48.89287" lon="2.3416">
        <ele>130.7</ele>
        <time>2015-07-13T19:17:56.842Z</time>
      </trkpt>
      <trkpt lat="48.89288" lon="2.34152">
        <ele>130.7</ele>
        <time>2015-07-13T19:17:57.881Z</time>
      </trkpt>
      <trkpt lat="48.89288" lon="2.34145">
        <ele>130.9</ele>
        <time>2015-07-13T19:17:58.886Z</time>
      </trkpt>
      <trkpt lat="48.89288" lon="2.34137">
        <ele>131</ele>
        <time>2015-07-13T19:17:59.943Z</time>
      </trkpt>
      <trkpt lat="48.89288" lon="2.3413">
        <ele>131.1</ele>
        <time>2015-07-13T19:18:00.827Z</time>
      </trkpt>
      <trkpt lat="48.8929" lon="2.34117">
        <ele>131.4</ele>
        <time>2015-07-13T19:18:02.891Z</time>
      </trkpt>
      <trkpt lat="48.89292" lon="2.34111">
        <ele>131.6</ele>
        <time>2015-07-13T19:18:03.859Z</time>
      </trkpt>
      <trkpt lat="48.89293" lon="2.34104">
        <ele>131.8</ele>
        <time>2015-07-13T19:18:04.832Z</time>
      </trkpt>
      <trkpt lat="48.89294" lon="2.34096">
        <ele>132</ele>
        <time>2015-07-13T19:18:05.868Z</time>
      </trkpt>
      <trkpt lat="48.89295" lon="2.34088">
        <ele>132.1</ele>
        <time>2015-07-13T19:18:06.859Z</time>
      </trkpt>
      <trkpt lat="48.89296" lon="2.34081">
        <ele>132.2</ele>
        <time>2015-07-13T19:18:07.902Z</time>
      </trkpt>
      <trkpt lat="48.89296" lon="2.34074">
        <ele>132.4</ele>
        <time>2015-07-13T19:18:08.889Z</time>
      </trkpt>
      <trkpt lat="48.89297" lon="2.34067">
        <ele>132.5</ele>
        <time>2015-07-13T19:18:09.909Z</time>
      </trkpt>
      <trkpt lat="48.89298" lon="2.34059">
        <ele>132.5</ele>
        <time>2015-07-13T19:18:10.930Z</time>
      </trkpt>
      <trkpt lat="48.89299" lon="2.34052">
        <ele>132.5</ele>
        <time>2015-07-13T19:18:11.930Z</time>
      </trkpt>
      <trkpt lat="48.89299" lon="2.34045">
        <ele>132.7</ele>
        <time>2015-07-13T19:18:12.856Z</time>
      </trkpt>
      <trkpt lat="48.893" lon="2.34038">
        <ele>132.8</ele>
        <time>2015-07-13T19:18:14.086Z</time>
      </trkpt>
      <trkpt lat="48.893" lon="2.34031">
        <ele>132.9</ele>
        <time>2015-07-13T19:18:14.864Z</time>
      </trkpt>
      <trkpt lat="48.89301" lon="2.34024">
        <ele>133.1</ele>
        <time>2015-07-13T19:18:15.866Z</time>
      </trkpt>
      <trkpt lat="48.89303" lon="2.34016">
        <ele>133.3</ele>
        <time>2015-07-13T19:18:16.879Z</time>
      </trkpt>
      <trkpt lat="48.89305" lon="2.34009">
        <ele>133.3</ele>
        <time>2015-07-13T19:18:17.916Z</time>
      </trkpt>
      <trkpt lat="48.89307" lon="2.34003">
        <ele>133.2</ele>
        <time>2015-07-13T19:18:18.857Z</time>
      </trkpt>
      <trkpt lat="48.89309" lon="2.33996">
        <ele>133.1</ele>
        <time>2015-07-13T19:18:19.829Z</time>
      </trkpt>
      <trkpt lat="48.89312" lon="2.33984">
        <ele>133.3</ele>
        <time>2015-07-13T19:18:21.844Z</time>
      </trkpt>
      <trkpt lat="48.89312" lon="2.33977">
        <ele>133.3</ele>
        <time>2015-07-13T19:18:22.857Z</time>
      </trkpt>
      <trkpt lat="48.89313" lon="2.33969">
        <ele>133.2</ele>
        <time>2015-07-13T19:18:23.908Z</time>
      </trkpt>
      <trkpt lat="48.89314" lon="2.33961">
        <ele>133.2</ele>
        <time>2015-07-13T19:18:24.829Z</time>
      </trkpt>
      <trkpt lat="48.89315" lon="2.33952">
        <ele>133</ele>
        <time>2015-07-13T19:18:25.837Z</time>
      </trkpt>
      <trkpt lat="48.89317" lon="2.33943">
        <ele>133</ele>
        <time>2015-07-13T19:18:26.849Z</time>
      </trkpt>
      <trkpt lat="48.8932" lon="2.33934">
        <ele>133</ele>
        <time>2015-07-13T19:18:27.857Z</time>
      </trkpt>
      <trkpt lat="48.89322" lon="2.33924">
        <ele>133</ele>
        <time>2015-07-13T19:18:28.866Z</time>
      </trkpt>
      <trkpt lat="48.89325" lon="2.33915">
        <ele>133.1</ele>
        <time>2015-07-13T19:18:29.920Z</time>
      </trkpt>
      <trkpt lat="48.89327" lon="2.33905">
        <ele>133.1</ele>
        <time>2015-07-13T19:18:30.825Z</time>
      </trkpt>
      <trkpt lat="48.89326" lon="2.33894">
        <ele>133</ele>
        <time>2015-07-13T19:18:31.829Z</time>
      </trkpt>
      <trkpt lat="48.89327" lon="2.33882">
        <ele>133</ele>
        <time>2015-07-13T19:18:32.839Z</time>
      </trkpt>
      <trkpt lat="48.89327" lon="2.33872">
        <ele>133</ele>
        <time>2015-07-13T19:18:33.853Z</time>
      </trkpt>
      <trkpt lat="48.89327" lon="2.3386">
        <ele>133.1</ele>
        <time>2015-07-13T19:18:34.856Z</time>
      </trkpt>
      <trkpt lat="48.89328" lon="2.33849">
        <ele>133.1</ele>
        <time>2015-07-13T19:18:35.878Z</time>
      </trkpt>
      <trkpt lat="48.8933" lon="2.33838">
        <ele>133.2</ele>
        <time>2015-07-13T19:18:36.882Z</time>
      </trkpt>
      <trkpt lat="48.89332" lon="2.33826">
        <ele>133.1</ele>
        <time>2015-07-13T19:18:37.905Z</time>
      </trkpt>
      <trkpt lat="48.89334" lon="2.33814">
        <ele>133.4</ele>
        <time>2015-07-13T19:18:38.808Z</time>
      </trkpt>
      <trkpt lat="48.89337" lon="2.33804">
        <ele>133.5</ele>
        <time>2015-07-13T19:18:39.846Z</time>
      </trkpt>
      <trkpt lat="48.89339" lon="2.33793">
        <ele>133.7</ele>
        <time>2015-07-13T19:18:40.879Z</time>
      </trkpt>
      <trkpt lat="48.89341" lon="2.33783">
        <ele>133.7</ele>
        <time>2015-07-13T19:18:41.904Z</time>
      </trkpt>
      <trkpt lat="48.89342" lon="2.33773">
        <ele>133.7</ele>
        <time>2015-07-13T19:18:42.906Z</time>
      </trkpt>
      <trkpt lat="48.89344" lon="2.33763">
        <ele>133.8</ele>
        <time>2015-07-13T19:18:43.841Z</time>
      </trkpt>
      <trkpt lat="48.89345" lon="2.33753">
        <ele>133.9</ele>
        <time>2015-07-13T19:18:44.849Z</time>
      </trkpt>
      <trkpt lat="48.89345" lon="2.33743">
        <ele>134.1</ele>
        <time>2015-07-13T19:18:45.940Z</time>
      </trkpt>
      <trkpt lat="48.89345" lon="2.33734">
        <ele>134</ele>
        <time>2015-07-13T19:18:46.858Z</time>
      </trkpt>
      <trkpt lat="48.89345" lon="2.33724">
        <ele>133.8</ele>
        <time>2015-07-13T19:18:47.908Z</time>
      </trkpt>
      <trkpt lat="48.89345" lon="2.33714">
        <ele>133.6</ele>
        <time>2015-07-13T19:18:48.832Z</time>
      </trkpt>
      <trkpt lat="48.89346" lon="2.33704">
        <ele>133.4</ele>
        <time>2015-07-13T19:18:49.823Z</time>
      </trkpt>
      <trkpt lat="48.89349" lon="2.33695">
        <ele>133.2</ele>
        <time>2015-07-13T19:18:50.833Z</time>
      </trkpt>
      <trkpt lat="48.89349" lon="2.33686">
        <ele>133</ele>
        <time>2015-07-13T19:18:51.842Z</time>
      </trkpt>
      <trkpt lat="48.89351" lon="2.33678">
        <ele>132.8</ele>
        <time>2015-07-13T19:18:52.861Z</time>
      </trkpt>
      <trkpt lat="48.89352" lon="2.33669">
        <ele>132.8</ele>
        <time>2015-07-13T19:18:53.885Z</time>
      </trkpt>
      <trkpt lat="48.89352" lon="2.33661">
        <ele>133</ele>
        <time>2015-07-13T19:18:54.891Z</time>
      </trkpt>
      <trkpt lat="48.89351" lon="2.33652">
        <ele>133.5</ele>
        <time>2015-07-13T19:18:55.834Z</time>
      </trkpt>
      <trkpt lat="48.89351" lon="2.33646">
        <ele>133.6</ele>
        <time>2015-07-13T19:18:56.843Z</time>
      </trkpt>
      <trkpt lat="48.89353" lon="2.33634">
        <ele>133.9</ele>
        <time>2015-07-13T19:18:59.947Z</time>
      </trkpt>
      <trkpt lat="48.89354" lon="2.33632">
        <ele>134</ele>
        <time>2015-07-13T19:19:00.833Z</time>
      </trkpt>
      <trkpt lat="48.89355" lon="2.33632">
        <ele>134</ele>
        <time>2015-07-13T19:19:01.836Z</time>
      </trkpt>
      <trkpt lat="48.89355" lon="2.33632">
        <ele>134</ele>
        <time>2015-07-13T19:19:02.857Z</time>
      </trkpt>
      <trkpt lat="48.89364" lon="2.3363">
        <ele>134</ele>
        <time>2015-07-13T19:19:13.863Z</time>
      </trkpt>
      <trkpt lat="48.89365" lon="2.33628">
        <ele>134.3</ele>
        <time>2015-07-13T19:19:14.845Z</time>
      </trkpt>
      <trkpt lat="48.8937" lon="2.33621">
        <ele>134.6</ele>
        <time>2015-07-13T19:19:17.922Z</time>
      </trkpt>
      <trkpt lat="48.89372" lon="2.33618">
        <ele>134.6</ele>
        <time>2015-07-13T19:19:18.868Z</time>
      </trkpt>
      <trkpt lat="48.89376" lon="2.3361">
        <ele>134.3</ele>
        <time>2015-07-13T19:19:20.907Z</time>
      </trkpt>
      <trkpt lat="48.89379" lon="2.33606">
        <ele>134.1</ele>
        <time>2015-07-13T19:19:21.820Z</time>
      </trkpt>
      <trkpt lat="48.89382" lon="2.33594">
        <ele>133.7</ele>
        <time>2015-07-13T19:19:23.962Z</time>
      </trkpt>
      <trkpt lat="48.89383" lon="2.33587">
        <ele>133.6</ele>
        <time>2015-07-13T19:19:24.846Z</time>
      </trkpt>
      <trkpt lat="48.89385" lon="2.33579">
        <ele>133.5</ele>
        <time>2015-07-13T19:19:25.851Z</time>
      </trkpt>
      <trkpt lat="48.89386" lon="2.3357">
        <ele>133.4</ele>
        <time>2015-07-13T19:19:26.941Z</time>
      </trkpt>
      <trkpt lat="48.89386" lon="2.33561">
        <ele>133.2</ele>
        <time>2015-07-13T19:19:27.922Z</time>
      </trkpt>
      <trkpt lat="48.89387" lon="2.33551">
        <ele>133</ele>
        <time>2015-07-13T19:19:28.937Z</time>
      </trkpt>
      <trkpt lat="48.89387" lon="2.33541">
        <ele>132.9</ele>
        <time>2015-07-13T19:19:29.890Z</time>
      </trkpt>
      <trkpt lat="48.89386" lon="2.33532">
        <ele>132.9</ele>
        <time>2015-07-13T19:19:30.900Z</time>
      </trkpt>
      <trkpt lat="48.89385" lon="2.33521">
        <ele>132.7</ele>
        <time>2015-07-13T19:19:31.828Z</time>
      </trkpt>
      <trkpt lat="48.89385" lon="2.33511">
        <ele>132.6</ele>
        <time>2015-07-13T19:19:32.841Z</time>
      </trkpt>
      <trkpt lat="48.89386" lon="2.33502">
        <ele>132.2</ele>
        <time>2015-07-13T19:19:33.849Z</time>
      </trkpt>
      <trkpt lat="48.89388" lon="2.33491">
        <ele>132.2</ele>
        <time>2015-07-13T19:19:34.856Z</time>
      </trkpt>
      <trkpt lat="48.89389" lon="2.33478">
        <ele>132.2</ele>
        <time>2015-07-13T19:19:35.903Z</time>
      </trkpt>
      <trkpt lat="48.8939" lon="2.33465">
        <ele>132</ele>
        <time>2015-07-13T19:19:36.829Z</time>
      </trkpt>
      <trkpt lat="48.89392" lon="2.33453">
        <ele>131.7</ele>
        <time>2015-07-13T19:19:37.833Z</time>
      </trkpt>
      <trkpt lat="48.89395" lon="2.33439">
        <ele>131.5</ele>
        <time>2015-07-13T19:19:38.852Z</time>
      </trkpt>
      <trkpt lat="48.89399" lon="2.33427">
        <ele>131.5</ele>
        <time>2015-07-13T19:19:39.826Z</time>
      </trkpt>
      <trkpt lat="48.89401" lon="2.33415">
        <ele>131.6</ele>
        <time>2015-07-13T19:19:40.849Z</time>
      </trkpt>
      <trkpt lat="48.89403" lon="2.33403">
        <ele>131.5</ele>
        <time>2015-07-13T19:19:41.882Z</time>
      </trkpt>
      <trkpt lat="48.89404" lon="2.3339">
        <ele>131.2</ele>
        <time>2015-07-13T19:19:42.873Z</time>
      </trkpt>
      <trkpt lat="48.89405" lon="2.33377">
        <ele>131.4</ele>
        <time>2015-07-13T19:19:43.886Z</time>
      </trkpt>
      <trkpt lat="48.89404" lon="2.33361">
        <ele>131.2</ele>
        <time>2015-07-13T19:19:44.940Z</time>
      </trkpt>
      <trkpt lat="48.89406" lon="2.33349">
        <ele>130.2</ele>
        <time>2015-07-13T19:19:45.825Z</time>
      </trkpt>
      <trkpt lat="48.89407" lon="2.33336">
        <ele>129.4</ele>
        <time>2015-07-13T19:19:46.836Z</time>
      </trkpt>
      <trkpt lat="48.89408" lon="2.33322">
        <ele>128</ele>
        <time>2015-07-13T19:19:47.878Z</time>
      </trkpt>
      <trkpt lat="48.8941" lon="2.33309">
        <ele>126.8</ele>
        <time>2015-07-13T19:19:48.868Z</time>
      </trkpt>
      <trkpt lat="48.89411" lon="2.33294">
        <ele>126.8</ele>
        <time>2015-07-13T19:19:49.876Z</time>
      </trkpt>
      <trkpt lat="48.89412" lon="2.3328">
        <ele>127.1</ele>
        <time>2015-07-13T19:19:50.889Z</time>
      </trkpt>
      <trkpt lat="48.89414" lon="2.33271">
        <ele>127.8</ele>
        <time>2015-07-13T19:19:51.974Z</time>
      </trkpt>
      <trkpt lat="48.89418" lon="2.33259">
        <ele>128</ele>
        <time>2015-07-13T19:19:53.885Z</time>
      </trkpt>
      <trkpt lat="48.8942" lon="2.33255">
        <ele>128</ele>
        <time>2015-07-13T19:19:54.878Z</time>
      </trkpt>
      <trkpt lat="48.8942" lon="2.33241">
        <ele>123.6</ele>
        <time>2015-07-13T19:19:59.914Z</time>
      </trkpt>
      <trkpt lat="48.8942" lon="2.3324">
        <ele>123.4</ele>
        <time>2015-07-13T19:20:00.824Z</time>
      </trkpt>
      <trkpt lat="48.89424" lon="2.33248">
        <ele>122.9</ele>
        <time>2015-07-13T19:20:17.924Z</time>
      </trkpt>
      <trkpt lat="48.89426" lon="2.33259">
        <ele>123.1</ele>
        <time>2015-07-13T19:20:18.860Z</time>
      </trkpt>
      <trkpt lat="48.89422" lon="2.33249">
        <ele>124.1</ele>
        <time>2015-07-13T19:20:20.828Z</time>
      </trkpt>
      <trkpt lat="48.89421" lon="2.33243">
        <ele>124.8</ele>
        <time>2015-07-13T19:20:21.832Z</time>
      </trkpt>
      <trkpt lat="48.89419" lon="2.33235">
        <ele>125</ele>
        <time>2015-07-13T19:20:22.833Z</time>
      </trkpt>
      <trkpt lat="48.89417" lon="2.33227">
        <ele>125.4</ele>
        <time>2015-07-13T19:20:24.001Z</time>
      </trkpt>
      <trkpt lat="48.89416" lon="2.3322">
        <ele>125.7</ele>
        <time>2015-07-13T19:20:24.852Z</time>
      </trkpt>
      <trkpt lat="48.89414" lon="2.33213">
        <ele>126</ele>
        <time>2015-07-13T19:20:25.860Z</time>
      </trkpt>
      <trkpt lat="48.89412" lon="2.33205">
        <ele>126.1</ele>
        <time>2015-07-13T19:20:26.870Z</time>
      </trkpt>
      <trkpt lat="48.89409" lon="2.33194">
        <ele>126.1</ele>
        <time>2015-07-13T19:20:27.880Z</time>
      </trkpt>
      <trkpt lat="48.89407" lon="2.33184">
        <ele>126.2</ele>
        <time>2015-07-13T19:20:28.925Z</time>
      </trkpt>
      <trkpt lat="48.89405" lon="2.33173">
        <ele>125.8</ele>
        <time>2015-07-13T19:20:29.941Z</time>
      </trkpt>
      <trkpt lat="48.89403" lon="2.33162">
        <ele>125.2</ele>
        <time>2015-07-13T19:20:30.841Z</time>
      </trkpt>
      <trkpt lat="48.894" lon="2.33148">
        <ele>124.1</ele>
        <time>2015-07-13T19:20:31.851Z</time>
      </trkpt>
      <trkpt lat="48.89396" lon="2.33135">
        <ele>123.6</ele>
        <time>2015-07-13T19:20:32.869Z</time>
      </trkpt>
      <trkpt lat="48.89392" lon="2.33124">
        <ele>122.8</ele>
        <time>2015-07-13T19:20:33.893Z</time>
      </trkpt>
      <trkpt lat="48.89389" lon="2.33113">
        <ele>122.4</ele>
        <time>2015-07-13T19:20:35.072Z</time>
      </trkpt>
      <trkpt lat="48.89386" lon="2.33104">
        <ele>121.8</ele>
        <time>2015-07-13T19:20:35.821Z</time>
      </trkpt>
      <trkpt lat="48.89384" lon="2.33096">
        <ele>120.8</ele>
        <time>2015-07-13T19:20:36.831Z</time>
      </trkpt>
      <trkpt lat="48.89382" lon="2.33087">
        <ele>120.2</ele>
        <time>2015-07-13T19:20:37.839Z</time>
      </trkpt>
      <trkpt lat="48.8938" lon="2.3308">
        <ele>120</ele>
        <time>2015-07-13T19:20:38.845Z</time>
      </trkpt>
      <trkpt lat="48.89378" lon="2.33073">
        <ele>119.7</ele>
        <time>2015-07-13T19:20:39.849Z</time>
      </trkpt>
      <trkpt lat="48.89376" lon="2.33065">
        <ele>119.9</ele>
        <time>2015-07-13T19:20:40.881Z</time>
      </trkpt>
      <trkpt lat="48.89374" lon="2.33057">
        <ele>119.9</ele>
        <time>2015-07-13T19:20:41.900Z</time>
      </trkpt>
      <trkpt lat="48.89371" lon="2.33049">
        <ele>120.4</ele>
        <time>2015-07-13T19:20:42.832Z</time>
      </trkpt>
      <trkpt lat="48.8937" lon="2.3304">
        <ele>120.6</ele>
        <time>2015-07-13T19:20:43.830Z</time>
      </trkpt>
      <trkpt lat="48.89369" lon="2.3303">
        <ele>120.8</ele>
        <time>2015-07-13T19:20:44.839Z</time>
      </trkpt>
      <trkpt lat="48.89367" lon="2.33021">
        <ele>121</ele>
        <time>2015-07-13T19:20:46.091Z</time>
      </trkpt>
      <trkpt lat="48.89365" lon="2.33011">
        <ele>121.2</ele>
        <time>2015-07-13T19:20:46.839Z</time>
      </trkpt>
      <trkpt lat="48.89363" lon="2.33001">
        <ele>121.7</ele>
        <time>2015-07-13T19:20:47.879Z</time>
      </trkpt>
      <trkpt lat="48.89362" lon="2.32992">
        <ele>121.5</ele>
        <time>2015-07-13T19:20:48.883Z</time>
      </trkpt>
      <trkpt lat="48.8936" lon="2.32982">
        <ele>121.2</ele>
        <time>2015-07-13T19:20:49.896Z</time>
      </trkpt>
      <trkpt lat="48.89357" lon="2.32972">
        <ele>121</ele>
        <time>2015-07-13T19:20:50.899Z</time>
      </trkpt>
      <trkpt lat="48.89355" lon="2.32962">
        <ele>121</ele>
        <time>2015-07-13T19:20:51.914Z</time>
      </trkpt>
      <trkpt lat="48.89354" lon="2.32953">
        <ele>121.2</ele>
        <time>2015-07-13T19:20:52.837Z</time>
      </trkpt>
      <trkpt lat="48.89352" lon="2.32945">
        <ele>120.8</ele>
        <time>2015-07-13T19:20:53.952Z</time>
      </trkpt>
      <trkpt lat="48.89351" lon="2.32936">
        <ele>120.8</ele>
        <time>2015-07-13T19:20:54.832Z</time>
      </trkpt>
      <trkpt lat="48.89348" lon="2.32927">
        <ele>120.8</ele>
        <time>2015-07-13T19:20:55.850Z</time>
      </trkpt>
      <trkpt lat="48.89346" lon="2.32917">
        <ele>120.8</ele>
        <time>2015-07-13T19:20:56.860Z</time>
      </trkpt>
      <trkpt lat="48.89344" lon="2.32907">
        <ele>120.9</ele>
        <time>2015-07-13T19:20:57.873Z</time>
      </trkpt>
      <trkpt lat="48.89342" lon="2.32897">
        <ele>121.1</ele>
        <time>2015-07-13T19:20:58.880Z</time>
      </trkpt>
      <trkpt lat="48.8934" lon="2.32887">
        <ele>121.5</ele>
        <time>2015-07-13T19:20:59.916Z</time>
      </trkpt>
      <trkpt lat="48.89338" lon="2.32878">
        <ele>121.4</ele>
        <time>2015-07-13T19:21:00.821Z</time>
      </trkpt>
      <trkpt lat="48.89336" lon="2.32869">
        <ele>121.3</ele>
        <time>2015-07-13T19:21:01.841Z</time>
      </trkpt>
      <trkpt lat="48.89333" lon="2.3286">
        <ele>121.3</ele>
        <time>2015-07-13T19:21:02.848Z</time>
      </trkpt>
      <trkpt lat="48.89332" lon="2.32852">
        <ele>121.2</ele>
        <time>2015-07-13T19:21:03.860Z</time>
      </trkpt>
      <trkpt lat="48.8933" lon="2.32846">
        <ele>121.3</ele>
        <time>2015-07-13T19:21:04.870Z</time>
      </trkpt>
      <trkpt lat="48.89327" lon="2.32834">
        <ele>120.8</ele>
        <time>2015-07-13T19:21:06.806Z</time>
      </trkpt>
      <trkpt lat="48.89326" lon="2.32825">
        <ele>120.2</ele>
        <time>2015-07-13T19:21:07.907Z</time>
      </trkpt>
      <trkpt lat="48.89323" lon="2.32816">
        <ele>118.6</ele>
        <time>2015-07-13T19:21:08.820Z</time>
      </trkpt>
      <trkpt lat="48.8932" lon="2.32807">
        <ele>117.3</ele>
        <time>2015-07-13T19:21:09.820Z</time>
      </trkpt>
      <trkpt lat="48.89317" lon="2.32798">
        <ele>115.5</ele>
        <time>2015-07-13T19:21:10.846Z</time>
      </trkpt>
      <trkpt lat="48.89315" lon="2.3279">
        <ele>114.1</ele>
        <time>2015-07-13T19:21:11.854Z</time>
      </trkpt>
      <trkpt lat="48.89313" lon="2.32782">
        <ele>113.2</ele>
        <time>2015-07-13T19:21:12.859Z</time>
      </trkpt>
      <trkpt lat="48.89311" lon="2.32775">
        <ele>112.5</ele>
        <time>2015-07-13T19:21:13.870Z</time>
      </trkpt>
      <trkpt lat="48.89308" lon="2.32764">
        <ele>111.9</ele>
        <time>2015-07-13T19:21:15.893Z</time>
      </trkpt>
      <trkpt lat="48.89306" lon="2.32759">
        <ele>111.8</ele>
        <time>2015-07-13T19:21:16.918Z</time>
      </trkpt>
      <trkpt lat="48.89304" lon="2.32746">
        <ele>113.7</ele>
        <time>2015-07-13T19:22:34.864Z</time>
      </trkpt>
      <trkpt lat="48.89303" lon="2.32742">
        <ele>113.3</ele>
        <time>2015-07-13T19:22:35.909Z</time>
      </trkpt>
      <trkpt lat="48.89299" lon="2.32735">
        <ele>113.1</ele>
        <time>2015-07-13T19:22:37.837Z</time>
      </trkpt>
      <trkpt lat="48.89296" lon="2.32731">
        <ele>112.7</ele>
        <time>2015-07-13T19:22:38.937Z</time>
      </trkpt>
      <trkpt lat="48.8929" lon="2.32723">
        <ele>111.1</ele>
        <time>2015-07-13T19:22:41.890Z</time>
      </trkpt>
      <trkpt lat="48.89288" lon="2.32721">
        <ele>110.6</ele>
        <time>2015-07-13T19:22:42.896Z</time>
      </trkpt>
      <trkpt lat="48.8928" lon="2.32714">
        <ele>107.6</ele>
        <time>2015-07-13T19:22:47.895Z</time>
      </trkpt>
      <trkpt lat="48.89278" lon="2.32713">
        <ele>107.3</ele>
        <time>2015-07-13T19:22:48.798Z</time>
      </trkpt>
      <trkpt lat="48.89271" lon="2.32707">
        <ele>106.7</ele>
        <time>2015-07-13T19:22:52.892Z</time>
      </trkpt>
      <trkpt lat="48.89268" lon="2.32704">
        <ele>106.7</ele>
        <time>2015-07-13T19:22:53.935Z</time>
      </trkpt>
      <trkpt lat="48.89262" lon="2.32699">
        <ele>106.2</ele>
        <time>2015-07-13T19:22:55.837Z</time>
      </trkpt>
      <trkpt lat="48.89259" lon="2.32695">
        <ele>105.6</ele>
        <time>2015-07-13T19:22:56.871Z</time>
      </trkpt>
      <trkpt lat="48.89253" lon="2.32688">
        <ele>105.1</ele>
        <time>2015-07-13T19:22:58.829Z</time>
      </trkpt>
      <trkpt lat="48.8925" lon="2.32684">
        <ele>104.9</ele>
        <time>2015-07-13T19:22:59.949Z</time>
      </trkpt>
      <trkpt lat="48.89247" lon="2.32676">
        <ele>105.1</ele>
        <time>2015-07-13T19:23:01.825Z</time>
      </trkpt>
      <trkpt lat="48.89244" lon="2.32673">
        <ele>105</ele>
        <time>2015-07-13T19:23:02.849Z</time>
      </trkpt>
      <trkpt lat="48.89238" lon="2.32664">
        <ele>105.5</ele>
        <time>2015-07-13T19:23:05.853Z</time>
      </trkpt>
      <trkpt lat="48.89236" lon="2.3266">
        <ele>105.7</ele>
        <time>2015-07-13T19:23:06.851Z</time>
      </trkpt>
      <trkpt lat="48.89232" lon="2.32649">
        <ele>105.4</ele>
        <time>2015-07-13T19:23:09.822Z</time>
      </trkpt>
      <trkpt lat="48.89231" lon="2.32645">
        <ele>105.4</ele>
        <time>2015-07-13T19:23:10.824Z</time>
      </trkpt>
      <trkpt lat="48.89227" lon="2.32637">
        <ele>105.6</ele>
        <time>2015-07-13T19:23:12.868Z</time>
      </trkpt>
      <trkpt lat="48.89225" lon="2.32632">
        <ele>105.7</ele>
        <time>2015-07-13T19:23:13.873Z</time>
      </trkpt>
      <trkpt lat="48.8922" lon="2.32624">
        <ele>105.1</ele>
        <time>2015-07-13T19:23:15.898Z</time>
      </trkpt>
      <trkpt lat="48.89217" lon="2.32621">
        <ele>105</ele>
        <time>2015-07-13T19:23:16.900Z</time>
      </trkpt>
      <trkpt lat="48.89211" lon="2.32615">
        <ele>105.2</ele>
        <time>2015-07-13T19:23:18.832Z</time>
      </trkpt>
      <trkpt lat="48.89208" lon="2.32613">
        <ele>105.5</ele>
        <time>2015-07-13T19:23:19.846Z</time>
      </trkpt>
      <trkpt lat="48.892" lon="2.32609">
        <ele>106.3</ele>
        <time>2015-07-13T19:23:21.868Z</time>
      </trkpt>
      <trkpt lat="48.89197" lon="2.32607">
        <ele>106.4</ele>
        <time>2015-07-13T19:23:22.940Z</time>
      </trkpt>
      <trkpt lat="48.8919" lon="2.32599">
        <ele>106.3</ele>
        <time>2015-07-13T19:23:24.851Z</time>
      </trkpt>
      <trkpt lat="48.89187" lon="2.32595">
        <ele>106.3</ele>
        <time>2015-07-13T19:23:25.864Z</time>
      </trkpt>
      <trkpt lat="48.89182" lon="2.32591">
        <ele>106.3</ele>
        <time>2015-07-13T19:23:25.364Z</time>
      </trkpt>
      <trkpt lat="48.89177" lon="2.32588">
        <ele>106.2</ele>
        <time>2015-07-13T19:23:27.875Z</time>
      </trkpt>
      <trkpt lat="48.89173" lon="2.32584">
        <ele>105.9</ele>
        <time>2015-07-13T19:23:28.884Z</time>
      </trkpt>
      <trkpt lat="48.89169" lon="2.3258">
        <ele>106</ele>
        <time>2015-07-13T19:23:29.950Z</time>
      </trkpt>
      <trkpt lat="48.89165" lon="2.32575">
        <ele>106</ele>
        <time>2015-07-13T19:23:30.844Z</time>
      </trkpt>
      <trkpt lat="48.89161" lon="2.32571">
        <ele>106.1</ele>
        <time>2015-07-13T19:23:31.836Z</time>
      </trkpt>
      <trkpt lat="48.89156" lon="2.32567">
        <ele>105.8</ele>
        <time>2015-07-13T19:23:32.849Z</time>
      </trkpt>
      <trkpt lat="48.89149" lon="2.32564">
        <ele>105.9</ele>
        <time>2015-07-13T19:23:33.869Z</time>
      </trkpt>
      <trkpt lat="48.89144" lon="2.3256">
        <ele>105.7</ele>
        <time>2015-07-13T19:23:35.412Z</time>
      </trkpt>
      <trkpt lat="48.89138" lon="2.32557">
        <ele>105.6</ele>
        <time>2015-07-13T19:23:35.899Z</time>
      </trkpt>
      <trkpt lat="48.89133" lon="2.32552">
        <ele>105.6</ele>
        <time>2015-07-13T19:23:36.822Z</time>
      </trkpt>
      <trkpt lat="48.89128" lon="2.32547">
        <ele>105.7</ele>
        <time>2015-07-13T19:23:37.818Z</time>
      </trkpt>
      <trkpt lat="48.89124" lon="2.32542">
        <ele>105.5</ele>
        <time>2015-07-13T19:23:38.839Z</time>
      </trkpt>
      <trkpt lat="48.8912" lon="2.32537">
        <ele>105.6</ele>
        <time>2015-07-13T19:23:39.808Z</time>
      </trkpt>
      <trkpt lat="48.89115" lon="2.32531">
        <ele>105.8</ele>
        <time>2015-07-13T19:23:40.841Z</time>
      </trkpt>
      <trkpt lat="48.89111" lon="2.32525">
        <ele>106.1</ele>
        <time>2015-07-13T19:23:41.860Z</time>
      </trkpt>
      <trkpt lat="48.89107" lon="2.3252">
        <ele>106.4</ele>
        <time>2015-07-13T19:23:42.874Z</time>
      </trkpt>
      <trkpt lat="48.89104" lon="2.32516">
        <ele>106.4</ele>
        <time>2015-07-13T19:23:43.879Z</time>
      </trkpt>
      <trkpt lat="48.89101" lon="2.3251">
        <ele>107</ele>
        <time>2015-07-13T19:23:44.898Z</time>
      </trkpt>
      <trkpt lat="48.89098" lon="2.32505">
        <ele>106.8</ele>
        <time>2015-07-13T19:23:45.787Z</time>
      </trkpt>
      <trkpt lat="48.89092" lon="2.32496">
        <ele>106.7</ele>
        <time>2015-07-13T19:23:47.869Z</time>
      </trkpt>
      <trkpt lat="48.89088" lon="2.32492">
        <ele>106.4</ele>
        <time>2015-07-13T19:23:48.864Z</time>
      </trkpt>
      <trkpt lat="48.89084" lon="2.32488">
        <ele>106.2</ele>
        <time>2015-07-13T19:23:49.819Z</time>
      </trkpt>
      <trkpt lat="48.8908" lon="2.32484">
        <ele>106.2</ele>
        <time>2015-07-13T19:23:50.809Z</time>
      </trkpt>
      <trkpt lat="48.89075" lon="2.32479">
        <ele>106.2</ele>
        <time>2015-07-13T19:23:51.811Z</time>
      </trkpt>
      <trkpt lat="48.8907" lon="2.32473">
        <ele>106.3</ele>
        <time>2015-07-13T19:23:52.840Z</time>
      </trkpt>
      <trkpt lat="48.89065" lon="2.32467">
        <ele>106.5</ele>
        <time>2015-07-13T19:23:53.869Z</time>
      </trkpt>
      <trkpt lat="48.89061" lon="2.32461">
        <ele>106.6</ele>
        <time>2015-07-13T19:23:54.869Z</time>
      </trkpt>
      <trkpt lat="48.89055" lon="2.32456">
        <ele>106.5</ele>
        <time>2015-07-13T19:23:55.887Z</time>
      </trkpt>
      <trkpt lat="48.89049" lon="2.32451">
        <ele>106.1</ele>
        <time>2015-07-13T19:23:56.893Z</time>
      </trkpt>
      <trkpt lat="48.89044" lon="2.32446">
        <ele>105.9</ele>
        <time>2015-07-13T19:23:57.805Z</time>
      </trkpt>
      <trkpt lat="48.89039" lon="2.32441">
        <ele>105.6</ele>
        <time>2015-07-13T19:23:58.836Z</time>
      </trkpt>
      <trkpt lat="48.89035" lon="2.32434">
        <ele>105.6</ele>
        <time>2015-07-13T19:23:59.915Z</time>
      </trkpt>
      <trkpt lat="48.8903" lon="2.32428">
        <ele>105.5</ele>
        <time>2015-07-13T19:24:00.813Z</time>
      </trkpt>
      <trkpt lat="48.89025" lon="2.32422">
        <ele>105.6</ele>
        <time>2015-07-13T19:24:01.803Z</time>
      </trkpt>
      <trkpt lat="48.8902" lon="2.32416">
        <ele>105.6</ele>
        <time>2015-07-13T19:24:02.816Z</time>
      </trkpt>
      <trkpt lat="48.89015" lon="2.3241">
        <ele>105.8</ele>
        <time>2015-07-13T19:24:03.846Z</time>
      </trkpt>
      <trkpt lat="48.89011" lon="2.32402">
        <ele>106.2</ele>
        <time>2015-07-13T19:24:04.866Z</time>
      </trkpt>
      <trkpt lat="48.89006" lon="2.32395">
        <ele>106.3</ele>
        <time>2015-07-13T19:24:05.877Z</time>
      </trkpt>
      <trkpt lat="48.89002" lon="2.32388">
        <ele>106</ele>
        <time>2015-07-13T19:24:06.877Z</time>
      </trkpt>
      <trkpt lat="48.88997" lon="2.32383">
        <ele>105.9</ele>
        <time>2015-07-13T19:24:07.845Z</time>
      </trkpt>
      <trkpt lat="48.88992" lon="2.32375">
        <ele>106</ele>
        <time>2015-07-13T19:24:08.823Z</time>
      </trkpt>
      <trkpt lat="48.88988" lon="2.32368">
        <ele>105.9</ele>
        <time>2015-07-13T19:24:09.827Z</time>
      </trkpt>
      <trkpt lat="48.88984" lon="2.32361">
        <ele>106.1</ele>
        <time>2015-07-13T19:24:10.847Z</time>
      </trkpt>
      <trkpt lat="48.88979" lon="2.32354">
        <ele>106.4</ele>
        <time>2015-07-13T19:24:11.898Z</time>
      </trkpt>
      <trkpt lat="48.88974" lon="2.32347">
        <ele>106.4</ele>
        <time>2015-07-13T19:24:12.829Z</time>
      </trkpt>
      <trkpt lat="48.8897" lon="2.32341">
        <ele>106.5</ele>
        <time>2015-07-13T19:24:13.826Z</time>
      </trkpt>
      <trkpt lat="48.88965" lon="2.32335">
        <ele>106.3</ele>
        <time>2015-07-13T19:24:14.818Z</time>
      </trkpt>
      <trkpt lat="48.8896" lon="2.3233">
        <ele>106.1</ele>
        <time>2015-07-13T19:24:15.846Z</time>
      </trkpt>
      <trkpt lat="48.88956" lon="2.32323">
        <ele>106</ele>
        <time>2015-07-13T19:24:16.857Z</time>
      </trkpt>
      <trkpt lat="48.8895" lon="2.32319">
        <ele>105.9</ele>
        <time>2015-07-13T19:24:17.906Z</time>
      </trkpt>
      <trkpt lat="48.88946" lon="2.32313">
        <ele>105.7</ele>
        <time>2015-07-13T19:24:18.823Z</time>
      </trkpt>
      <trkpt lat="48.88941" lon="2.32308">
        <ele>105.3</ele>
        <time>2015-07-13T19:24:19.822Z</time>
      </trkpt>
      <trkpt lat="48.88936" lon="2.32303">
        <ele>104.9</ele>
        <time>2015-07-13T19:24:20.828Z</time>
      </trkpt>
      <trkpt lat="48.88933" lon="2.32297">
        <ele>104.5</ele>
        <time>2015-07-13T19:24:21.844Z</time>
      </trkpt>
      <trkpt lat="48.88928" lon="2.32293">
        <ele>104.5</ele>
        <time>2015-07-13T19:24:22.855Z</time>
      </trkpt>
      <trkpt lat="48.88922" lon="2.32286">
        <ele>105.9</ele>
        <time>2015-07-13T19:24:23.868Z</time>
      </trkpt>
      <trkpt lat="48.88919" lon="2.32281">
        <ele>106.6</ele>
        <time>2015-07-13T19:24:24.879Z</time>
      </trkpt>
      <trkpt lat="48.8891" lon="2.32279">
        <ele>107.7</ele>
        <time>2015-07-13T19:25:23.868Z</time>
      </trkpt>
      <trkpt lat="48.88912" lon="2.3227">
        <ele>110.1</ele>
        <time>2015-07-13T19:25:24.952Z</time>
      </trkpt>
      <trkpt lat="48.88907" lon="2.32264">
        <ele>110.6</ele>
        <time>2015-07-13T19:25:26.837Z</time>
      </trkpt>
      <trkpt lat="48.88906" lon="2.3226">
        <ele>110.7</ele>
        <time>2015-07-13T19:25:27.800Z</time>
      </trkpt>
      <trkpt lat="48.88902" lon="2.32252">
        <ele>111.1</ele>
        <time>2015-07-13T19:25:29.929Z</time>
      </trkpt>
      <trkpt lat="48.889" lon="2.32247">
        <ele>111</ele>
        <time>2015-07-13T19:25:30.829Z</time>
      </trkpt>
      <trkpt lat="48.88895" lon="2.32238">
        <ele>111.4</ele>
        <time>2015-07-13T19:25:32.846Z</time>
      </trkpt>
      <trkpt lat="48.88892" lon="2.32233">
        <ele>111.5</ele>
        <time>2015-07-13T19:25:33.852Z</time>
      </trkpt>
      <trkpt lat="48.88886" lon="2.32225">
        <ele>111.4</ele>
        <time>2015-07-13T19:25:35.901Z</time>
      </trkpt>
      <trkpt lat="48.88883" lon="2.32221">
        <ele>111.8</ele>
        <time>2015-07-13T19:25:36.826Z</time>
      </trkpt>
      <trkpt lat="48.88876" lon="2.32213">
        <ele>111.5</ele>
        <time>2015-07-13T19:25:38.847Z</time>
      </trkpt>
      <trkpt lat="48.88873" lon="2.32209">
        <ele>111.2</ele>
        <time>2015-07-13T19:25:39.866Z</time>
      </trkpt>
      <trkpt lat="48.88867" lon="2.32201">
        <ele>110.8</ele>
        <time>2015-07-13T19:25:41.891Z</time>
      </trkpt>
      <trkpt lat="48.88864" lon="2.32197">
        <ele>110.6</ele>
        <time>2015-07-13T19:25:42.860Z</time>
      </trkpt>
      <trkpt lat="48.88858" lon="2.32188">
        <ele>110.3</ele>
        <time>2015-07-13T19:25:44.845Z</time>
      </trkpt>
      <trkpt lat="48.88855" lon="2.32183">
        <ele>110.2</ele>
        <time>2015-07-13T19:25:45.865Z</time>
      </trkpt>
      <trkpt lat="48.8885" lon="2.32173">
        <ele>109.8</ele>
        <time>2015-07-13T19:25:47.826Z</time>
      </trkpt>
      <trkpt lat="48.88847" lon="2.32168">
        <ele>109.5</ele>
        <time>2015-07-13T19:25:48.842Z</time>
      </trkpt>
      <trkpt lat="48.88843" lon="2.32164">
        <ele>109.1</ele>
        <time>2015-07-13T19:25:49.843Z</time>
      </trkpt>
      <trkpt lat="48.8884" lon="2.32158">
        <ele>108.7</ele>
        <time>2015-07-13T19:25:50.864Z</time>
      </trkpt>
      <trkpt lat="48.88837" lon="2.32152">
        <ele>108.5</ele>
        <time>2015-07-13T19:25:51.881Z</time>
      </trkpt>
      <trkpt lat="48.88833" lon="2.32148">
        <ele>108.6</ele>
        <time>2015-07-13T19:25:52.900Z</time>
      </trkpt>
      <trkpt lat="48.8883" lon="2.32143">
        <ele>108.4</ele>
        <time>2015-07-13T19:25:53.946Z</time>
      </trkpt>
      <trkpt lat="48.88827" lon="2.32137">
        <ele>108.2</ele>
        <time>2015-07-13T19:25:54.854Z</time>
      </trkpt>
      <trkpt lat="48.88824" lon="2.3213">
        <ele>108</ele>
        <time>2015-07-13T19:25:55.823Z</time>
      </trkpt>
      <trkpt lat="48.88821" lon="2.32122">
        <ele>108.6</ele>
        <time>2015-07-13T19:25:56.848Z</time>
      </trkpt>
      <trkpt lat="48.88818" lon="2.32115">
        <ele>109.5</ele>
        <time>2015-07-13T19:25:57.790Z</time>
      </trkpt>
      <trkpt lat="48.88814" lon="2.32109">
        <ele>109.7</ele>
        <time>2015-07-13T19:25:58.808Z</time>
      </trkpt>
      <trkpt lat="48.88811" lon="2.32104">
        <ele>109.3</ele>
        <time>2015-07-13T19:25:59.891Z</time>
      </trkpt>
      <trkpt lat="48.88808" lon="2.32098">
        <ele>109.4</ele>
        <time>2015-07-13T19:26:00.806Z</time>
      </trkpt>
      <trkpt lat="48.88805" lon="2.32092">
        <ele>109.3</ele>
        <time>2015-07-13T19:26:01.813Z</time>
      </trkpt>
      <trkpt lat="48.88803" lon="2.32086">
        <ele>109</ele>
        <time>2015-07-13T19:26:02.824Z</time>
      </trkpt>
      <trkpt lat="48.88801" lon="2.3208">
        <ele>108.7</ele>
        <time>2015-07-13T19:26:03.845Z</time>
      </trkpt>
      <trkpt lat="48.88798" lon="2.32075">
        <ele>108.2</ele>
        <time>2015-07-13T19:26:04.877Z</time>
      </trkpt>
      <trkpt lat="48.88792" lon="2.32066">
        <ele>107.3</ele>
        <time>2015-07-13T19:26:06.887Z</time>
      </trkpt>
      <trkpt lat="48.88789" lon="2.32061">
        <ele>106.8</ele>
        <time>2015-07-13T19:26:07.905Z</time>
      </trkpt>
      <trkpt lat="48.88786" lon="2.32056">
        <ele>106.6</ele>
        <time>2015-07-13T19:26:08.812Z</time>
      </trkpt>
      <trkpt lat="48.88783" lon="2.3205">
        <ele>106.2</ele>
        <time>2015-07-13T19:26:09.837Z</time>
      </trkpt>
      <trkpt lat="48.8878" lon="2.32045">
        <ele>105.9</ele>
        <time>2015-07-13T19:26:10.852Z</time>
      </trkpt>
      <trkpt lat="48.88777" lon="2.32039">
        <ele>105.7</ele>
        <time>2015-07-13T19:26:11.857Z</time>
      </trkpt>
      <trkpt lat="48.88774" lon="2.32034">
        <ele>105.6</ele>
        <time>2015-07-13T19:26:12.877Z</time>
      </trkpt>
      <trkpt lat="48.88771" lon="2.32029">
        <ele>105.6</ele>
        <time>2015-07-13T19:26:13.852Z</time>
      </trkpt>
      <trkpt lat="48.88767" lon="2.32024">
        <ele>106.3</ele>
        <time>2015-07-13T19:26:14.859Z</time>
      </trkpt>
      <trkpt lat="48.88764" lon="2.32018">
        <ele>106.6</ele>
        <time>2015-07-13T19:26:15.886Z</time>
      </trkpt>
      <trkpt lat="48.88761" lon="2.32013">
        <ele>106.5</ele>
        <time>2015-07-13T19:26:16.892Z</time>
      </trkpt>
      <trkpt lat="48.88758" lon="2.32007">
        <ele>106.3</ele>
        <time>2015-07-13T19:26:17.899Z</time>
      </trkpt>
      <trkpt lat="48.88756" lon="2.32001">
        <ele>106.1</ele>
        <time>2015-07-13T19:26:18.850Z</time>
      </trkpt>
      <trkpt lat="48.88753" lon="2.31994">
        <ele>106</ele>
        <time>2015-07-13T19:26:19.841Z</time>
      </trkpt>
      <trkpt lat="48.8875" lon="2.31988">
        <ele>106.1</ele>
        <time>2015-07-13T19:26:20.871Z</time>
      </trkpt>
      <trkpt lat="48.88747" lon="2.31983">
        <ele>106</ele>
        <time>2015-07-13T19:26:21.896Z</time>
      </trkpt>
      <trkpt lat="48.88744" lon="2.31977">
        <ele>106</ele>
        <time>2015-07-13T19:26:22.818Z</time>
      </trkpt>
      <trkpt lat="48.88741" lon="2.31971">
        <ele>105.9</ele>
        <time>2015-07-13T19:26:23.858Z</time>
      </trkpt>
      <trkpt lat="48.88739" lon="2.31964">
        <ele>105.9</ele>
        <time>2015-07-13T19:26:24.869Z</time>
      </trkpt>
      <trkpt lat="48.88736" lon="2.31959">
        <ele>105.8</ele>
        <time>2015-07-13T19:26:25.939Z</time>
      </trkpt>
      <trkpt lat="48.8873" lon="2.3195">
        <ele>105.6</ele>
        <time>2015-07-13T19:26:27.851Z</time>
      </trkpt>
      <trkpt lat="48.88727" lon="2.31946">
        <ele>105.4</ele>
        <time>2015-07-13T19:26:28.862Z</time>
      </trkpt>
      <trkpt lat="48.8872" lon="2.31941">
        <ele>105.4</ele>
        <time>2015-07-13T19:26:30.826Z</time>
      </trkpt>
      <trkpt lat="48.88716" lon="2.31942">
        <ele>105.6</ele>
        <time>2015-07-13T19:26:31.833Z</time>
      </trkpt>
      <trkpt lat="48.88708" lon="2.31944">
        <ele>106.4</ele>
        <time>2015-07-13T19:26:33.866Z</time>
      </trkpt>
      <trkpt lat="48.88706" lon="2.31945">
        <ele>106.6</ele>
        <time>2015-07-13T19:26:34.864Z</time>
      </trkpt>
      <trkpt lat="48.88698" lon="2.31947">
        <ele>107.8</ele>
        <time>2015-07-13T19:26:38.850Z</time>
      </trkpt>
      <trkpt lat="48.88696" lon="2.31948">
        <ele>108.2</ele>
        <time>2015-07-13T19:26:39.845Z</time>
      </trkpt>
      <trkpt lat="48.88689" lon="2.31954">
        <ele>109</ele>
        <time>2015-07-13T19:26:42.860Z</time>
      </trkpt>
      <trkpt lat="48.88686" lon="2.31957">
        <ele>109.1</ele>
        <time>2015-07-13T19:26:43.910Z</time>
      </trkpt>
      <trkpt lat="48.88682" lon="2.31964">
        <ele>109.7</ele>
        <time>2015-07-13T19:26:45.834Z</time>
      </trkpt>
      <trkpt lat="48.8868" lon="2.3197">
        <ele>109.7</ele>
        <time>2015-07-13T19:26:46.858Z</time>
      </trkpt>
      <trkpt lat="48.88675" lon="2.31979">
        <ele>110.6</ele>
        <time>2015-07-13T19:26:48.897Z</time>
      </trkpt>
      <trkpt lat="48.88673" lon="2.31983">
        <ele>111</ele>
        <time>2015-07-13T19:26:49.911Z</time>
      </trkpt>
      <trkpt lat="48.88668" lon="2.31992">
        <ele>111.2</ele>
        <time>2015-07-13T19:26:51.838Z</time>
      </trkpt>
      <trkpt lat="48.88664" lon="2.31995">
        <ele>111.4</ele>
        <time>2015-07-13T19:26:52.849Z</time>
      </trkpt>
      <trkpt lat="48.88662" lon="2.32004">
        <ele>111.2</ele>
        <time>2015-07-13T19:26:53.903Z</time>
      </trkpt>
      <trkpt lat="48.8866" lon="2.3201">
        <ele>111</ele>
        <time>2015-07-13T19:26:54.790Z</time>
      </trkpt>
      <trkpt lat="48.88655" lon="2.32019">
        <ele>110.9</ele>
        <time>2015-07-13T19:26:56.847Z</time>
      </trkpt>
      <trkpt lat="48.88652" lon="2.32022">
        <ele>110.6</ele>
        <time>2015-07-13T19:26:57.866Z</time>
      </trkpt>
      <trkpt lat="48.88646" lon="2.3203">
        <ele>110</ele>
        <time>2015-07-13T19:26:59.912Z</time>
      </trkpt>
      <trkpt lat="48.88644" lon="2.32035">
        <ele>110.1</ele>
        <time>2015-07-13T19:27:00.855Z</time>
      </trkpt>
      <trkpt lat="48.88637" lon="2.32044">
        <ele>110.6</ele>
        <time>2015-07-13T19:27:02.839Z</time>
      </trkpt>
      <trkpt lat="48.88635" lon="2.32051">
        <ele>110.4</ele>
        <time>2015-07-13T19:27:03.831Z</time>
      </trkpt>
      <trkpt lat="48.88632" lon="2.32057">
        <ele>110.6</ele>
        <time>2015-07-13T19:27:04.850Z</time>
      </trkpt>
      <trkpt lat="48.88629" lon="2.32063">
        <ele>110.9</ele>
        <time>2015-07-13T19:27:05.862Z</time>
      </trkpt>
      <trkpt lat="48.88624" lon="2.32072">
        <ele>111.1</ele>
        <time>2015-07-13T19:27:07.895Z</time>
      </trkpt>
      <trkpt lat="48.88621" lon="2.32075">
        <ele>111.2</ele>
        <time>2015-07-13T19:27:08.799Z</time>
      </trkpt>
      <trkpt lat="48.88614" lon="2.32084">
        <ele>111.5</ele>
        <time>2015-07-13T19:27:11.632Z</time>
      </trkpt>
      <trkpt lat="48.8861" lon="2.32088">
        <ele>111.5</ele>
        <time>2015-07-13T19:27:11.862Z</time>
      </trkpt>
      <trkpt lat="48.88607" lon="2.32093">
        <ele>111.6</ele>
        <time>2015-07-13T19:27:13.474Z</time>
      </trkpt>
      <trkpt lat="48.88603" lon="2.32098">
        <ele>111.3</ele>
        <time>2015-07-13T19:27:13.888Z</time>
      </trkpt>
      <trkpt lat="48.88598" lon="2.32108">
        <ele>111.5</ele>
        <time>2015-07-13T19:27:15.827Z</time>
      </trkpt>
      <trkpt lat="48.88594" lon="2.3211">
        <ele>111.7</ele>
        <time>2015-07-13T19:27:16.875Z</time>
      </trkpt>
      <trkpt lat="48.88592" lon="2.32117">
        <ele>111.8</ele>
        <time>2015-07-13T19:27:18.531Z</time>
      </trkpt>
      <trkpt lat="48.88591" lon="2.32125">
        <ele>112</ele>
        <time>2015-07-13T19:27:18.787Z</time>
      </trkpt>
      <trkpt lat="48.88589" lon="2.32132">
        <ele>112.1</ele>
        <time>2015-07-13T19:27:19.862Z</time>
      </trkpt>
      <trkpt lat="48.88587" lon="2.32138">
        <ele>112.2</ele>
        <time>2015-07-13T19:27:20.871Z</time>
      </trkpt>
      <trkpt lat="48.88584" lon="2.3215">
        <ele>112.5</ele>
        <time>2015-07-13T19:27:22.904Z</time>
      </trkpt>
      <trkpt lat="48.88583" lon="2.32155">
        <ele>112.1</ele>
        <time>2015-07-13T19:27:23.916Z</time>
      </trkpt>
      <trkpt lat="48.88579" lon="2.32165">
        <ele>111.5</ele>
        <time>2015-07-13T19:27:26.880Z</time>
      </trkpt>
      <trkpt lat="48.88576" lon="2.32165">
        <ele>111.6</ele>
        <time>2015-07-13T19:27:27.885Z</time>
      </trkpt>
      <trkpt lat="48.88568" lon="2.32167">
        <ele>112.2</ele>
        <time>2015-07-13T19:27:30.853Z</time>
      </trkpt>
      <trkpt lat="48.88566" lon="2.32168">
        <ele>112.2</ele>
        <time>2015-07-13T19:27:31.831Z</time>
      </trkpt>
      <trkpt lat="48.88557" lon="2.3217">
        <ele>113</ele>
        <time>2015-07-13T19:27:34.865Z</time>
      </trkpt>
      <trkpt lat="48.88554" lon="2.32171">
        <ele>113.2</ele>
        <time>2015-07-13T19:27:35.884Z</time>
      </trkpt>
      <trkpt lat="48.88546" lon="2.3217">
        <ele>113.4</ele>
        <time>2015-07-13T19:27:37.798Z</time>
      </trkpt>
      <trkpt lat="48.88542" lon="2.32171">
        <ele>112.8</ele>
        <time>2015-07-13T19:27:38.848Z</time>
      </trkpt>
      <trkpt lat="48.88537" lon="2.3218">
        <ele>112.2</ele>
        <time>2015-07-13T19:27:40.879Z</time>
      </trkpt>
      <trkpt lat="48.88535" lon="2.32186">
        <ele>112.6</ele>
        <time>2015-07-13T19:27:41.896Z</time>
      </trkpt>
      <trkpt lat="48.8853" lon="2.32195">
        <ele>113.1</ele>
        <time>2015-07-13T19:27:43.823Z</time>
      </trkpt>
      <trkpt lat="48.88527" lon="2.32201">
        <ele>113.7</ele>
        <time>2015-07-13T19:27:44.867Z</time>
      </trkpt>
      <trkpt lat="48.88521" lon="2.32208">
        <ele>114</ele>
        <time>2015-07-13T19:27:46.833Z</time>
      </trkpt>
      <trkpt lat="48.88519" lon="2.32213">
        <ele>114.1</ele>
        <time>2015-07-13T19:27:47.900Z</time>
      </trkpt>
      <trkpt lat="48.88512" lon="2.32222">
        <ele>114.9</ele>
        <time>2015-07-13T19:27:49.830Z</time>
      </trkpt>
      <trkpt lat="48.88509" lon="2.32227">
        <ele>115</ele>
        <time>2015-07-13T19:27:50.894Z</time>
      </trkpt>
      <trkpt lat="48.88504" lon="2.32236">
        <ele>115.5</ele>
        <time>2015-07-13T19:27:52.857Z</time>
      </trkpt>
      <trkpt lat="48.88501" lon="2.3224">
        <ele>115.9</ele>
        <time>2015-07-13T19:27:53.890Z</time>
      </trkpt>
      <trkpt lat="48.88497" lon="2.32243">
        <ele>115.9</ele>
        <time>2015-07-13T19:27:54.873Z</time>
      </trkpt>
      <trkpt lat="48.88493" lon="2.32247">
        <ele>116.1</ele>
        <time>2015-07-13T19:27:55.869Z</time>
      </trkpt>
      <trkpt lat="48.88489" lon="2.32252">
        <ele>116.1</ele>
        <time>2015-07-13T19:27:56.870Z</time>
      </trkpt>
      <trkpt lat="48.88485" lon="2.32257">
        <ele>116.2</ele>
        <time>2015-07-13T19:27:57.924Z</time>
      </trkpt>
      <trkpt lat="48.88483" lon="2.32265">
        <ele>116</ele>
        <time>2015-07-13T19:27:58.876Z</time>
      </trkpt>
      <trkpt lat="48.88479" lon="2.3227">
        <ele>116.1</ele>
        <time>2015-07-13T19:27:59.888Z</time>
      </trkpt>
      <trkpt lat="48.88476" lon="2.32275">
        <ele>116.7</ele>
        <time>2015-07-13T19:28:00.893Z</time>
      </trkpt>
      <trkpt lat="48.88473" lon="2.3228">
        <ele>117</ele>
        <time>2015-07-13T19:28:01.904Z</time>
      </trkpt>
      <trkpt lat="48.88466" lon="2.32288">
        <ele>117.5</ele>
        <time>2015-07-13T19:28:03.823Z</time>
      </trkpt>
      <trkpt lat="48.88463" lon="2.32291">
        <ele>117.5</ele>
        <time>2015-07-13T19:28:04.842Z</time>
      </trkpt>
      <trkpt lat="48.8846" lon="2.32296">
        <ele>117.7</ele>
        <time>2015-07-13T19:28:05.887Z</time>
      </trkpt>
      <trkpt lat="48.88456" lon="2.32301">
        <ele>117.8</ele>
        <time>2015-07-13T19:28:06.805Z</time>
      </trkpt>
      <trkpt lat="48.88452" lon="2.32305">
        <ele>117.6</ele>
        <time>2015-07-13T19:28:07.841Z</time>
      </trkpt>
      <trkpt lat="48.88448" lon="2.32309">
        <ele>117</ele>
        <time>2015-07-13T19:28:08.806Z</time>
      </trkpt>
      <trkpt lat="48.88445" lon="2.32314">
        <ele>116.8</ele>
        <time>2015-07-13T19:28:09.823Z</time>
      </trkpt>
      <trkpt lat="48.88442" lon="2.3232">
        <ele>116.3</ele>
        <time>2015-07-13T19:28:10.842Z</time>
      </trkpt>
      <trkpt lat="48.88439" lon="2.32326">
        <ele>115.9</ele>
        <time>2015-07-13T19:28:11.857Z</time>
      </trkpt>
      <trkpt lat="48.88435" lon="2.3233">
        <ele>115.9</ele>
        <time>2015-07-13T19:28:12.781Z</time>
      </trkpt>
      <trkpt lat="48.88429" lon="2.32339">
        <ele>116.2</ele>
        <time>2015-07-13T19:28:14.849Z</time>
      </trkpt>
      <trkpt lat="48.88427" lon="2.32345">
        <ele>116.6</ele>
        <time>2015-07-13T19:28:15.852Z</time>
      </trkpt>
      <trkpt lat="48.88429" lon="2.32358">
        <ele>116.8</ele>
        <time>2015-07-13T19:28:17.868Z</time>
      </trkpt>
      <trkpt lat="48.88431" lon="2.32363">
        <ele>116.7</ele>
        <time>2015-07-13T19:28:18.873Z</time>
      </trkpt>
      <trkpt lat="48.88434" lon="2.32353">
        <ele>115</ele>
        <time>2015-07-13T19:28:26.829Z</time>
      </trkpt>
      <trkpt lat="48.88434" lon="2.32349">
        <ele>115.1</ele>
        <time>2015-07-13T19:28:27.830Z</time>
      </trkpt>
      <trkpt lat="48.88432" lon="2.32337">
        <ele>115.8</ele>
        <time>2015-07-13T19:28:30.894Z</time>
      </trkpt>
      <trkpt lat="48.8843" lon="2.32331">
        <ele>116.2</ele>
        <time>2015-07-13T19:28:31.814Z</time>
      </trkpt>
      <trkpt lat="48.88428" lon="2.32321">
        <ele>116.5</ele>
        <time>2015-07-13T19:28:33.816Z</time>
      </trkpt>
      <trkpt lat="48.88426" lon="2.32316">
        <ele>116.5</ele>
        <time>2015-07-13T19:28:34.883Z</time>
      </trkpt>
      <trkpt lat="48.88423" lon="2.32304">
        <ele>117</ele>
        <time>2015-07-13T19:28:36.860Z</time>
      </trkpt>
      <trkpt lat="48.88421" lon="2.32297">
        <ele>117.2</ele>
        <time>2015-07-13T19:28:37.875Z</time>
      </trkpt>
      <trkpt lat="48.88419" lon="2.32289">
        <ele>117.2</ele>
        <time>2015-07-13T19:28:38.892Z</time>
      </trkpt>
      <trkpt lat="48.88416" lon="2.32282">
        <ele>117.1</ele>
        <time>2015-07-13T19:28:39.900Z</time>
      </trkpt>
      <trkpt lat="48.88413" lon="2.32274">
        <ele>117</ele>
        <time>2015-07-13T19:28:40.904Z</time>
      </trkpt>
      <trkpt lat="48.88409" lon="2.32267">
        <ele>116.9</ele>
        <time>2015-07-13T19:28:41.915Z</time>
      </trkpt>
      <trkpt lat="48.88404" lon="2.32261">
        <ele>116.9</ele>
        <time>2015-07-13T19:28:42.830Z</time>
      </trkpt>
      <trkpt lat="48.88402" lon="2.32256">
        <ele>116.6</ele>
        <time>2015-07-13T19:28:43.840Z</time>
      </trkpt>
      <trkpt lat="48.88398" lon="2.32245">
        <ele>116</ele>
        <time>2015-07-13T19:28:45.897Z</time>
      </trkpt>
      <trkpt lat="48.88399" lon="2.32238">
        <ele>115.4</ele>
        <time>2015-07-13T19:28:46.854Z</time>
      </trkpt>
      <trkpt lat="48.88401" lon="2.32225">
        <ele>114.3</ele>
        <time>2015-07-13T19:28:50.859Z</time>
      </trkpt>
      <trkpt lat="48.88402" lon="2.32222">
        <ele>113.7</ele>
        <time>2015-07-13T19:28:51.842Z</time>
      </trkpt>
      <trkpt lat="48.88406" lon="2.3221">
        <ele>113.7</ele>
        <time>2015-07-13T19:28:55.910Z</time>
      </trkpt>
      <trkpt lat="48.88407" lon="2.32207">
        <ele>113.9</ele>
        <time>2015-07-13T19:28:56.829Z</time>
      </trkpt>
      <trkpt lat="48.88411" lon="2.32195">
        <ele>116.8</ele>
        <time>2015-07-13T19:29:00.818Z</time>
      </trkpt>
      <trkpt lat="48.88412" lon="2.32191">
        <ele>117</ele>
        <time>2015-07-13T19:29:01.839Z</time>
      </trkpt>
      <trkpt lat="48.88414" lon="2.32188">
        <ele>118</ele>
        <time>2015-07-13T19:29:50.824Z</time>
      </trkpt>
      <trkpt lat="48.88444" lon="2.32167">
        <ele>133.3</ele>
        <time>2015-07-13T19:29:51.865Z</time>
      </trkpt>
      <trkpt lat="48.88447" lon="2.32166">
        <ele>134.3</ele>
        <time>2015-07-13T19:30:30.810Z</time>
      </trkpt>
      <trkpt lat="48.8844" lon="2.32141">
        <ele>142.3</ele>
        <time>2015-07-13T19:30:31.825Z</time>
      </trkpt>
      <trkpt lat="48.88436" lon="2.32134">
        <ele>140.3</ele>
        <time>2015-07-13T19:30:33.862Z</time>
      </trkpt>
      <trkpt lat="48.88434" lon="2.3213">
        <ele>139.2</ele>
        <time>2015-07-13T19:30:34.872Z</time>
      </trkpt>
      <trkpt lat="48.88428" lon="2.32121">
        <ele>136.7</ele>
        <time>2015-07-13T19:30:37.785Z</time>
      </trkpt>
      <trkpt lat="48.88425" lon="2.32118">
        <ele>136.4</ele>
        <time>2015-07-13T19:30:38.838Z</time>
      </trkpt>
      <trkpt lat="48.8842" lon="2.3211">
        <ele>135.6</ele>
        <time>2015-07-13T19:30:40.846Z</time>
      </trkpt>
      <trkpt lat="48.88417" lon="2.32104">
        <ele>135.5</ele>
        <time>2015-07-13T19:30:41.850Z</time>
      </trkpt>
      <trkpt lat="48.88413" lon="2.32095">
        <ele>135.7</ele>
        <time>2015-07-13T19:30:43.875Z</time>
      </trkpt>
      <trkpt lat="48.88411" lon="2.32091">
        <ele>135.7</ele>
        <time>2015-07-13T19:30:44.878Z</time>
      </trkpt>
      <trkpt lat="48.88406" lon="2.32092">
        <ele>135.6</ele>
        <time>2015-07-13T19:30:48.880Z</time>
      </trkpt>
      <trkpt lat="48.88401" lon="2.32093">
        <ele>134.8</ele>
        <time>2015-07-13T19:30:49.847Z</time>
      </trkpt>
      <trkpt lat="48.88395" lon="2.32094">
        <ele>134.8</ele>
        <time>2015-07-13T19:30:51.844Z</time>
      </trkpt>
      <trkpt lat="48.88392" lon="2.32094">
        <ele>134.7</ele>
        <time>2015-07-13T19:30:52.855Z</time>
      </trkpt>
      <trkpt lat="48.88384" lon="2.32096">
        <ele>134.7</ele>
        <time>2015-07-13T19:30:54.883Z</time>
      </trkpt>
      <trkpt lat="48.88381" lon="2.32097">
        <ele>134.7</ele>
        <time>2015-07-13T19:30:55.893Z</time>
      </trkpt>
      <trkpt lat="48.88373" lon="2.321">
        <ele>135</ele>
        <time>2015-07-13T19:30:58.850Z</time>
      </trkpt>
      <trkpt lat="48.88372" lon="2.32102">
        <ele>134.9</ele>
        <time>2015-07-13T19:30:59.907Z</time>
      </trkpt>
      <trkpt lat="48.8837" lon="2.32091">
        <ele>135</ele>
        <time>2015-07-13T19:31:05.879Z</time>
      </trkpt>
      <trkpt lat="48.88369" lon="2.32086">
        <ele>135.2</ele>
        <time>2015-07-13T19:31:06.789Z</time>
      </trkpt>
      <trkpt lat="48.88365" lon="2.32075">
        <ele>134.6</ele>
        <time>2015-07-13T19:31:08.861Z</time>
      </trkpt>
      <trkpt lat="48.88364" lon="2.32071">
        <ele>134.5</ele>
        <time>2015-07-13T19:31:09.871Z</time>
      </trkpt>
      <trkpt lat="48.88361" lon="2.3206">
        <ele>132.9</ele>
        <time>2015-07-13T19:31:11.860Z</time>
      </trkpt>
      <trkpt lat="48.88359" lon="2.32056">
        <ele>132.2</ele>
        <time>2015-07-13T19:31:12.866Z</time>
      </trkpt>
      <trkpt lat="48.88358" lon="2.32044">
        <ele>131.5</ele>
        <time>2015-07-13T19:31:15.842Z</time>
      </trkpt>
      <trkpt lat="48.88357" lon="2.32039">
        <ele>130.7</ele>
        <time>2015-07-13T19:31:16.897Z</time>
      </trkpt>
      <trkpt lat="48.88353" lon="2.3203">
        <ele>129.3</ele>
        <time>2015-07-13T19:31:18.820Z</time>
      </trkpt>
      <trkpt lat="48.88351" lon="2.32026">
        <ele>129</ele>
        <time>2015-07-13T19:31:19.825Z</time>
      </trkpt>
      <trkpt lat="48.88348" lon="2.32013">
        <ele>128.1</ele>
        <time>2015-07-13T19:31:21.859Z</time>
      </trkpt>
      <trkpt lat="48.88347" lon="2.32007">
        <ele>127.9</ele>
        <time>2015-07-13T19:31:22.871Z</time>
      </trkpt>
      <trkpt lat="48.88344" lon="2.31998">
        <ele>127</ele>
        <time>2015-07-13T19:31:23.922Z</time>
      </trkpt>
      <trkpt lat="48.88342" lon="2.31989">
        <ele>126</ele>
        <time>2015-07-13T19:31:24.824Z</time>
      </trkpt>
      <trkpt lat="48.88341" lon="2.31982">
        <ele>125.4</ele>
        <time>2015-07-13T19:31:25.837Z</time>
      </trkpt>
      <trkpt lat="48.8834" lon="2.31975">
        <ele>124.7</ele>
        <time>2015-07-13T19:31:26.844Z</time>
      </trkpt>
      <trkpt lat="48.88338" lon="2.31969">
        <ele>123.5</ele>
        <time>2015-07-13T19:31:27.850Z</time>
      </trkpt>
      <trkpt lat="48.88337" lon="2.31961">
        <ele>122.6</ele>
        <time>2015-07-13T19:31:28.869Z</time>
      </trkpt>
      <trkpt lat="48.88334" lon="2.3195">
        <ele>120.9</ele>
        <time>2015-07-13T19:31:30.813Z</time>
      </trkpt>
      <trkpt lat="48.88333" lon="2.31945">
        <ele>120.5</ele>
        <time>2015-07-13T19:31:31.930Z</time>
      </trkpt>
      <trkpt lat="48.88329" lon="2.31937">
        <ele>120.5</ele>
        <time>2015-07-13T19:31:33.861Z</time>
      </trkpt>
      <trkpt lat="48.88327" lon="2.31932">
        <ele>120.8</ele>
        <time>2015-07-13T19:31:34.965Z</time>
      </trkpt>
      <trkpt lat="48.88327" lon="2.3192">
        <ele>118.5</ele>
        <time>2015-07-13T19:31:50.952Z</time>
      </trkpt>
      <trkpt lat="48.88326" lon="2.31915">
        <ele>118.1</ele>
        <time>2015-07-13T19:31:51.863Z</time>
      </trkpt>
      <trkpt lat="48.88323" lon="2.31905">
        <ele>117.5</ele>
        <time>2015-07-13T19:31:53.892Z</time>
      </trkpt>
      <trkpt lat="48.88321" lon="2.31899">
        <ele>117</ele>
        <time>2015-07-13T19:31:54.902Z</time>
      </trkpt>
      <trkpt lat="48.8832" lon="2.31893">
        <ele>117</ele>
        <time>2015-07-13T19:31:55.822Z</time>
      </trkpt>
      <trkpt lat="48.88318" lon="2.31885">
        <ele>116.5</ele>
        <time>2015-07-13T19:31:56.847Z</time>
      </trkpt>
      <trkpt lat="48.88317" lon="2.31878">
        <ele>116.2</ele>
        <time>2015-07-13T19:31:57.864Z</time>
      </trkpt>
      <trkpt lat="48.88316" lon="2.31871">
        <ele>116.2</ele>
        <time>2015-07-13T19:31:58.872Z</time>
      </trkpt>
      <trkpt lat="48.88312" lon="2.31859">
        <ele>116</ele>
        <time>2015-07-13T19:32:00.820Z</time>
      </trkpt>
      <trkpt lat="48.8831" lon="2.31854">
        <ele>115.8</ele>
        <time>2015-07-13T19:32:01.823Z</time>
      </trkpt>
      <trkpt lat="48.88305" lon="2.31843">
        <ele>115.3</ele>
        <time>2015-07-13T19:32:03.884Z</time>
      </trkpt>
      <trkpt lat="48.88303" lon="2.31837">
        <ele>115.1</ele>
        <time>2015-07-13T19:32:04.894Z</time>
      </trkpt>
      <trkpt lat="48.88301" lon="2.3183">
        <ele>115.2</ele>
        <time>2015-07-13T19:32:05.893Z</time>
      </trkpt>
      <trkpt lat="48.88299" lon="2.31824">
        <ele>115.4</ele>
        <time>2015-07-13T19:32:06.861Z</time>
      </trkpt>
      <trkpt lat="48.88294" lon="2.31813">
        <ele>115.2</ele>
        <time>2015-07-13T19:32:08.847Z</time>
      </trkpt>
      <trkpt lat="48.88293" lon="2.31808">
        <ele>115.2</ele>
        <time>2015-07-13T19:32:09.860Z</time>
      </trkpt>
      <trkpt lat="48.88289" lon="2.31797">
        <ele>115.1</ele>
        <time>2015-07-13T19:32:11.907Z</time>
      </trkpt>
      <trkpt lat="48.88287" lon="2.31793">
        <ele>114.9</ele>
        <time>2015-07-13T19:32:12.847Z</time>
      </trkpt>
      <trkpt lat="48.88285" lon="2.31784">
        <ele>114.5</ele>
        <time>2015-07-13T19:32:14.827Z</time>
      </trkpt>
      <trkpt lat="48.88285" lon="2.31779">
        <ele>113.7</ele>
        <time>2015-07-13T19:32:15.850Z</time>
      </trkpt>
      <trkpt lat="48.88281" lon="2.31769">
        <ele>113.1</ele>
        <time>2015-07-13T19:32:19.840Z</time>
      </trkpt>
      <trkpt lat="48.8828" lon="2.31766">
        <ele>113</ele>
        <time>2015-07-13T19:32:20.833Z</time>
      </trkpt>
      <trkpt lat="48.88279" lon="2.31756">
        <ele>112.2</ele>
        <time>2015-07-13T19:32:23.944Z</time>
      </trkpt>
      <trkpt lat="48.88278" lon="2.31752">
        <ele>111.9</ele>
        <time>2015-07-13T19:32:24.849Z</time>
      </trkpt>
      <trkpt lat="48.88276" lon="2.31741">
        <ele>111.3</ele>
        <time>2015-07-13T19:32:28.878Z</time>
      </trkpt>
      <trkpt lat="48.88276" lon="2.31736">
        <ele>111.3</ele>
        <time>2015-07-13T19:32:29.908Z</time>
      </trkpt>
      <trkpt lat="48.88276" lon="2.31723">
        <ele>111.2</ele>
        <time>2015-07-13T19:32:33.845Z</time>
      </trkpt>
      <trkpt lat="48.88276" lon="2.31721">
        <ele>111.2</ele>
        <time>2015-07-13T19:32:34.850Z</time>
      </trkpt>
      <trkpt lat="48.88275" lon="2.31714">
        <ele>110.9</ele>
        <time>2015-07-13T19:32:39.841Z</time>
      </trkpt>
      <trkpt lat="48.88272" lon="2.31702">
        <ele>111.3</ele>
        <time>2015-07-13T19:32:40.877Z</time>
      </trkpt>
      <trkpt lat="48.88269" lon="2.3169">
        <ele>112.4</ele>
        <time>2015-07-13T19:32:42.828Z</time>
      </trkpt>
      <trkpt lat="48.88269" lon="2.31688">
        <ele>112.4</ele>
        <time>2015-07-13T19:32:43.799Z</time>
      </trkpt>
      <trkpt lat="48.88266" lon="2.31679">
        <ele>113.9</ele>
        <time>2015-07-13T19:32:53.931Z</time>
      </trkpt>
      <trkpt lat="48.88257" lon="2.31659">
        <ele>112.7</ele>
        <time>2015-07-13T19:32:54.841Z</time>
      </trkpt>
      <trkpt lat="48.88252" lon="2.31653">
        <ele>112.1</ele>
        <time>2015-07-13T19:32:56.855Z</time>
      </trkpt>
      <trkpt lat="48.88246" lon="2.31644">
        <ele>110.5</ele>
        <time>2015-07-13T19:32:57.993Z</time>
      </trkpt>
      <trkpt lat="48.88243" lon="2.31637">
        <ele>109.7</ele>
        <time>2015-07-13T19:32:58.817Z</time>
      </trkpt>
      <trkpt lat="48.8824" lon="2.3163">
        <ele>109.4</ele>
        <time>2015-07-13T19:32:59.909Z</time>
      </trkpt>
      <trkpt lat="48.88237" lon="2.31624">
        <ele>109.4</ele>
        <time>2015-07-13T19:33:00.926Z</time>
      </trkpt>
      <trkpt lat="48.88235" lon="2.31617">
        <ele>109.4</ele>
        <time>2015-07-13T19:33:01.776Z</time>
      </trkpt>
      <trkpt lat="48.88233" lon="2.3161">
        <ele>109.6</ele>
        <time>2015-07-13T19:33:02.806Z</time>
      </trkpt>
      <trkpt lat="48.88232" lon="2.31603">
        <ele>110</ele>
        <time>2015-07-13T19:33:03.850Z</time>
      </trkpt>
      <trkpt lat="48.8823" lon="2.31597">
        <ele>110.2</ele>
        <time>2015-07-13T19:33:04.847Z</time>
      </trkpt>
      <trkpt lat="48.88227" lon="2.31591">
        <ele>110.4</ele>
        <time>2015-07-13T19:33:05.861Z</time>
      </trkpt>
      <trkpt lat="48.88224" lon="2.31586">
        <ele>110.5</ele>
        <time>2015-07-13T19:33:06.868Z</time>
      </trkpt>
      <trkpt lat="48.8822" lon="2.31579">
        <ele>113.1</ele>
        <time>2015-07-13T19:33:07.873Z</time>
      </trkpt>
      <trkpt lat="48.88216" lon="2.31567">
        <ele>117.2</ele>
        <time>2015-07-13T19:33:09.799Z</time>
      </trkpt>
      <trkpt lat="48.88213" lon="2.31563">
        <ele>118.4</ele>
        <time>2015-07-13T19:33:10.848Z</time>
      </trkpt>
      <trkpt lat="48.88209" lon="2.31557">
        <ele>119.1</ele>
        <time>2015-07-13T19:33:12.891Z</time>
      </trkpt>
      <trkpt lat="48.88206" lon="2.31554">
        <ele>118.7</ele>
        <time>2015-07-13T19:33:13.852Z</time>
      </trkpt>
      <trkpt lat="48.88198" lon="2.31559">
        <ele>117</ele>
        <time>2015-07-13T19:33:16.816Z</time>
      </trkpt>
      <trkpt lat="48.88195" lon="2.31563">
        <ele>117.3</ele>
        <time>2015-07-13T19:33:17.865Z</time>
      </trkpt>
      <trkpt lat="48.88191" lon="2.31573">
        <ele>117.9</ele>
        <time>2015-07-13T19:33:19.868Z</time>
      </trkpt>
      <trkpt lat="48.88189" lon="2.31576">
        <ele>118.4</ele>
        <time>2015-07-13T19:33:21.108Z</time>
      </trkpt>
      <trkpt lat="48.88183" lon="2.31581">
        <ele>118.7</ele>
        <time>2015-07-13T19:33:23.936Z</time>
      </trkpt>
      <trkpt lat="48.88181" lon="2.31583">
        <ele>118.9</ele>
        <time>2015-07-13T19:33:24.885Z</time>
      </trkpt>
      <trkpt lat="48.88174" lon="2.31589">
        <ele>119</ele>
        <time>2015-07-13T19:33:27.941Z</time>
      </trkpt>
      <trkpt lat="48.88171" lon="2.31592">
        <ele>118.9</ele>
        <time>2015-07-13T19:33:28.851Z</time>
      </trkpt>
      <trkpt lat="48.88167" lon="2.31603">
        <ele>118.4</ele>
        <time>2015-07-13T19:33:31.838Z</time>
      </trkpt>
      <trkpt lat="48.88166" lon="2.31608">
        <ele>118.3</ele>
        <time>2015-07-13T19:33:32.855Z</time>
      </trkpt>
      <trkpt lat="48.8816" lon="2.31616">
        <ele>118.2</ele>
        <time>2015-07-13T19:33:35.882Z</time>
      </trkpt>
      <trkpt lat="48.88158" lon="2.31617">
        <ele>118.3</ele>
        <time>2015-07-13T19:33:36.817Z</time>
      </trkpt>
      <trkpt lat="48.8815" lon="2.31615">
        <ele>118.2</ele>
        <time>2015-07-13T19:33:39.840Z</time>
      </trkpt>
      <trkpt lat="48.88146" lon="2.31612">
        <ele>118.3</ele>
        <time>2015-07-13T19:33:40.879Z</time>
      </trkpt>
      <trkpt lat="48.8814" lon="2.31605">
        <ele>118.5</ele>
        <time>2015-07-13T19:33:43.881Z</time>
      </trkpt>
      <trkpt lat="48.88138" lon="2.31603">
        <ele>118.8</ele>
        <time>2015-07-13T19:33:44.790Z</time>
      </trkpt>
      <trkpt lat="48.88133" lon="2.31592">
        <ele>110.6</ele>
        <time>2015-07-13T19:34:58.926Z</time>
      </trkpt>
      <trkpt lat="48.88133" lon="2.31588">
        <ele>110.3</ele>
        <time>2015-07-13T19:34:59.880Z</time>
      </trkpt>
      <trkpt lat="48.88132" lon="2.31576">
        <ele>110.1</ele>
        <time>2015-07-13T19:35:02.811Z</time>
      </trkpt>
      <trkpt lat="48.88132" lon="2.31572">
        <ele>110</ele>
        <time>2015-07-13T19:35:03.811Z</time>
      </trkpt>
      <trkpt lat="48.88129" lon="2.31559">
        <ele>109.5</ele>
        <time>2015-07-13T19:35:06.915Z</time>
      </trkpt>
      <trkpt lat="48.88128" lon="2.31554">
        <ele>109.4</ele>
        <time>2015-07-13T19:35:07.909Z</time>
      </trkpt>
      <trkpt lat="48.88125" lon="2.31542">
        <ele>110.2</ele>
        <time>2015-07-13T19:35:09.849Z</time>
      </trkpt>
      <trkpt lat="48.88124" lon="2.31536">
        <ele>110.7</ele>
        <time>2015-07-13T19:35:10.924Z</time>
      </trkpt>
      <trkpt lat="48.88121" lon="2.31525">
        <ele>112.2</ele>
        <time>2015-07-13T19:35:12.791Z</time>
      </trkpt>
      <trkpt lat="48.8812" lon="2.31519">
        <ele>112.6</ele>
        <time>2015-07-13T19:35:13.820Z</time>
      </trkpt>
      <trkpt lat="48.88119" lon="2.31508">
        <ele>113.1</ele>
        <time>2015-07-13T19:35:15.843Z</time>
      </trkpt>
      <trkpt lat="48.88118" lon="2.31502">
        <ele>113.3</ele>
        <time>2015-07-13T19:35:16.867Z</time>
      </trkpt>
      <trkpt lat="48.88117" lon="2.31492">
        <ele>113.5</ele>
        <time>2015-07-13T19:35:18.829Z</time>
      </trkpt>
      <trkpt lat="48.88116" lon="2.31486">
        <ele>113.7</ele>
        <time>2015-07-13T19:35:19.878Z</time>
      </trkpt>
      <trkpt lat="48.88115" lon="2.31473">
        <ele>114.8</ele>
        <time>2015-07-13T19:35:21.872Z</time>
      </trkpt>
      <trkpt lat="48.88115" lon="2.31469">
        <ele>115.3</ele>
        <time>2015-07-13T19:35:22.863Z</time>
      </trkpt>
      <trkpt lat="48.88114" lon="2.31457">
        <ele>116.1</ele>
        <time>2015-07-13T19:35:24.818Z</time>
      </trkpt>
      <trkpt lat="48.88113" lon="2.31452">
        <ele>116.3</ele>
        <time>2015-07-13T19:35:25.878Z</time>
      </trkpt>
      <trkpt lat="48.88112" lon="2.31442">
        <ele>116.4</ele>
        <time>2015-07-13T19:35:27.813Z</time>
      </trkpt>
      <trkpt lat="48.88111" lon="2.31438">
        <ele>116.5</ele>
        <time>2015-07-13T19:35:28.851Z</time>
      </trkpt>
      <trkpt lat="48.88109" lon="2.31425">
        <ele>116.9</ele>
        <time>2015-07-13T19:35:30.892Z</time>
      </trkpt>
      <trkpt lat="48.88107" lon="2.31419">
        <ele>117.1</ele>
        <time>2015-07-13T19:35:31.815Z</time>
      </trkpt>
      <trkpt lat="48.88105" lon="2.31407">
        <ele>117.8</ele>
        <time>2015-07-13T19:35:33.840Z</time>
      </trkpt>
      <trkpt lat="48.88104" lon="2.31401">
        <ele>118.2</ele>
        <time>2015-07-13T19:35:34.864Z</time>
      </trkpt>
      <trkpt lat="48.88102" lon="2.31394">
        <ele>118.4</ele>
        <time>2015-07-13T19:35:35.911Z</time>
      </trkpt>
      <trkpt lat="48.88102" lon="2.31387">
        <ele>118.2</ele>
        <time>2015-07-13T19:35:36.809Z</time>
      </trkpt>
      <trkpt lat="48.881" lon="2.31376">
        <ele>118</ele>
        <time>2015-07-13T19:35:38.821Z</time>
      </trkpt>
      <trkpt lat="48.881" lon="2.31371">
        <ele>117.8</ele>
        <time>2015-07-13T19:35:39.833Z</time>
      </trkpt>
      <trkpt lat="48.88099" lon="2.31361">
        <ele>117.3</ele>
        <time>2015-07-13T19:35:41.868Z</time>
      </trkpt>
      <trkpt lat="48.88098" lon="2.31356">
        <ele>117.4</ele>
        <time>2015-07-13T19:35:42.784Z</time>
      </trkpt>
      <trkpt lat="48.88097" lon="2.31348">
        <ele>117.6</ele>
        <time>2015-07-13T19:35:43.861Z</time>
      </trkpt>
      <trkpt lat="48.88096" lon="2.3134">
        <ele>117.9</ele>
        <time>2015-07-13T19:35:44.866Z</time>
      </trkpt>
      <trkpt lat="48.88095" lon="2.31332">
        <ele>117.7</ele>
        <time>2015-07-13T19:35:45.912Z</time>
      </trkpt>
      <trkpt lat="48.88094" lon="2.31324">
        <ele>118</ele>
        <time>2015-07-13T19:35:46.816Z</time>
      </trkpt>
      <trkpt lat="48.88093" lon="2.31316">
        <ele>118.2</ele>
        <time>2015-07-13T19:35:47.865Z</time>
      </trkpt>
      <trkpt lat="48.88091" lon="2.31308">
        <ele>118.9</ele>
        <time>2015-07-13T19:35:48.916Z</time>
      </trkpt>
      <trkpt lat="48.8809" lon="2.313">
        <ele>119.4</ele>
        <time>2015-07-13T19:35:49.817Z</time>
      </trkpt>
      <trkpt lat="48.88089" lon="2.31293">
        <ele>120</ele>
        <time>2015-07-13T19:35:50.823Z</time>
      </trkpt>
      <trkpt lat="48.88088" lon="2.31286">
        <ele>120.4</ele>
        <time>2015-07-13T19:35:51.830Z</time>
      </trkpt>
      <trkpt lat="48.88087" lon="2.31278">
        <ele>120.1</ele>
        <time>2015-07-13T19:35:52.828Z</time>
      </trkpt>
      <trkpt lat="48.88087" lon="2.31265">
        <ele>119</ele>
        <time>2015-07-13T19:35:54.860Z</time>
      </trkpt>
      <trkpt lat="48.88086" lon="2.31259">
        <ele>118.9</ele>
        <time>2015-07-13T19:35:55.854Z</time>
      </trkpt>
      <trkpt lat="48.88087" lon="2.3125">
        <ele>118.2</ele>
        <time>2015-07-13T19:35:57.813Z</time>
      </trkpt>
      <trkpt lat="48.88087" lon="2.31246">
        <ele>117.8</ele>
        <time>2015-07-13T19:35:58.850Z</time>
      </trkpt>
      <trkpt lat="48.88091" lon="2.31236">
        <ele>117</ele>
        <time>2015-07-13T19:36:01.853Z</time>
      </trkpt>
      <trkpt lat="48.88092" lon="2.31233">
        <ele>117.1</ele>
        <time>2015-07-13T19:36:02.798Z</time>
      </trkpt>
      <trkpt lat="48.8809" lon="2.31222">
        <ele>113</ele>
        <time>2015-07-13T19:36:20.853Z</time>
      </trkpt>
      <trkpt lat="48.88088" lon="2.31218">
        <ele>113.2</ele>
        <time>2015-07-13T19:36:21.994Z</time>
      </trkpt>
      <trkpt lat="48.88087" lon="2.31209">
        <ele>113.8</ele>
        <time>2015-07-13T19:36:23.859Z</time>
      </trkpt>
      <trkpt lat="48.88086" lon="2.31205">
        <ele>114</ele>
        <time>2015-07-13T19:36:24.864Z</time>
      </trkpt>
      <trkpt lat="48.88083" lon="2.31196">
        <ele>114.4</ele>
        <time>2015-07-13T19:36:27.860Z</time>
      </trkpt>
      <trkpt lat="48.88081" lon="2.31192">
        <ele>114.4</ele>
        <time>2015-07-13T19:36:28.880Z</time>
      </trkpt>
      <trkpt lat="48.8808" lon="2.31181">
        <ele>114.9</ele>
        <time>2015-07-13T19:36:31.847Z</time>
      </trkpt>
      <trkpt lat="48.8808" lon="2.31177">
        <ele>115.2</ele>
        <time>2015-07-13T19:36:33.013Z</time>
      </trkpt>
      <trkpt lat="48.88079" lon="2.31168">
        <ele>115.1</ele>
        <time>2015-07-13T19:36:34.854Z</time>
      </trkpt>
      <trkpt lat="48.88078" lon="2.31162">
        <ele>115.1</ele>
        <time>2015-07-13T19:36:35.943Z</time>
      </trkpt>
      <trkpt lat="48.88077" lon="2.31149">
        <ele>115</ele>
        <time>2015-07-13T19:36:38.850Z</time>
      </trkpt>
      <trkpt lat="48.88077" lon="2.31144">
        <ele>115.2</ele>
        <time>2015-07-13T19:36:39.862Z</time>
      </trkpt>
      <trkpt lat="48.88076" lon="2.31133">
        <ele>115.6</ele>
        <time>2015-07-13T19:36:41.879Z</time>
      </trkpt>
      <trkpt lat="48.88074" lon="2.31127">
        <ele>115.7</ele>
        <time>2015-07-13T19:36:42.905Z</time>
      </trkpt>
      <trkpt lat="48.88074" lon="2.31115">
        <ele>115.5</ele>
        <time>2015-07-13T19:36:44.814Z</time>
      </trkpt>
      <trkpt lat="48.88074" lon="2.31108">
        <ele>115.4</ele>
        <time>2015-07-13T19:36:45.862Z</time>
      </trkpt>
      <trkpt lat="48.88072" lon="2.311">
        <ele>115.4</ele>
        <time>2015-07-13T19:36:46.947Z</time>
      </trkpt>
      <trkpt lat="48.88071" lon="2.31092">
        <ele>115.5</ele>
        <time>2015-07-13T19:36:47.894Z</time>
      </trkpt>
      <trkpt lat="48.8807" lon="2.31085">
        <ele>115.5</ele>
        <time>2015-07-13T19:36:48.807Z</time>
      </trkpt>
      <trkpt lat="48.8807" lon="2.31075">
        <ele>115.6</ele>
        <time>2015-07-13T19:36:49.815Z</time>
      </trkpt>
      <trkpt lat="48.88069" lon="2.31066">
        <ele>115.4</ele>
        <time>2015-07-13T19:36:51.056Z</time>
      </trkpt>
      <trkpt lat="48.88069" lon="2.31059">
        <ele>115.3</ele>
        <time>2015-07-13T19:36:51.901Z</time>
      </trkpt>
      <trkpt lat="48.88068" lon="2.31052">
        <ele>115.1</ele>
        <time>2015-07-13T19:36:52.837Z</time>
      </trkpt>
      <trkpt lat="48.88066" lon="2.31046">
        <ele>115</ele>
        <time>2015-07-13T19:36:53.863Z</time>
      </trkpt>
      <trkpt lat="48.88064" lon="2.31038">
        <ele>114.7</ele>
        <time>2015-07-13T19:36:54.907Z</time>
      </trkpt>
      <trkpt lat="48.88063" lon="2.3103">
        <ele>114.6</ele>
        <time>2015-07-13T19:36:55.814Z</time>
      </trkpt>
      <trkpt lat="48.88061" lon="2.31019">
        <ele>114.6</ele>
        <time>2015-07-13T19:36:57.807Z</time>
      </trkpt>
      <trkpt lat="48.8806" lon="2.31012">
        <ele>114.9</ele>
        <time>2015-07-13T19:36:58.845Z</time>
      </trkpt>
      <trkpt lat="48.88058" lon="2.31005">
        <ele>114.9</ele>
        <time>2015-07-13T19:36:59.910Z</time>
      </trkpt>
      <trkpt lat="48.88056" lon="2.30998">
        <ele>115</ele>
        <time>2015-07-13T19:37:00.847Z</time>
      </trkpt>
      <trkpt lat="48.88056" lon="2.30991">
        <ele>115.1</ele>
        <time>2015-07-13T19:37:01.814Z</time>
      </trkpt>
      <trkpt lat="48.88056" lon="2.30984">
        <ele>115.2</ele>
        <time>2015-07-13T19:37:02.826Z</time>
      </trkpt>
      <trkpt lat="48.88053" lon="2.30971">
        <ele>115.5</ele>
        <time>2015-07-13T19:37:04.872Z</time>
      </trkpt>
      <trkpt lat="48.88052" lon="2.30964">
        <ele>115.5</ele>
        <time>2015-07-13T19:37:05.893Z</time>
      </trkpt>
      <trkpt lat="48.88052" lon="2.30951">
        <ele>115.9</ele>
        <time>2015-07-13T19:37:07.827Z</time>
      </trkpt>
      <trkpt lat="48.88052" lon="2.30944">
        <ele>115.9</ele>
        <time>2015-07-13T19:37:08.888Z</time>
      </trkpt>
      <trkpt lat="48.88052" lon="2.30931">
        <ele>115.2</ele>
        <time>2015-07-13T19:37:10.900Z</time>
      </trkpt>
      <trkpt lat="48.88051" lon="2.30925">
        <ele>115.1</ele>
        <time>2015-07-13T19:37:11.873Z</time>
      </trkpt>
      <trkpt lat="48.8805" lon="2.30914">
        <ele>115.3</ele>
        <time>2015-07-13T19:37:13.814Z</time>
      </trkpt>
      <trkpt lat="48.8805" lon="2.30909">
        <ele>115.4</ele>
        <time>2015-07-13T19:37:14.832Z</time>
      </trkpt>
      <trkpt lat="48.88047" lon="2.30896">
        <ele>115.8</ele>
        <time>2015-07-13T19:37:16.875Z</time>
      </trkpt>
      <trkpt lat="48.88045" lon="2.3089">
        <ele>116.2</ele>
        <time>2015-07-13T19:37:17.912Z</time>
      </trkpt>
      <trkpt lat="48.88043" lon="2.30877">
        <ele>116.8</ele>
        <time>2015-07-13T19:37:19.826Z</time>
      </trkpt>
      <trkpt lat="48.88042" lon="2.30872">
        <ele>116.8</ele>
        <time>2015-07-13T19:37:20.842Z</time>
      </trkpt>
      <trkpt lat="48.88041" lon="2.30859">
        <ele>115.6</ele>
        <time>2015-07-13T19:37:22.815Z</time>
      </trkpt>
      <trkpt lat="48.88041" lon="2.30855">
        <ele>114.1</ele>
        <time>2015-07-13T19:37:23.937Z</time>
      </trkpt>
      <trkpt lat="48.88039" lon="2.30842">
        <ele>110.8</ele>
        <time>2015-07-13T19:37:27.871Z</time>
      </trkpt>
      <trkpt lat="48.88039" lon="2.3084">
        <ele>110.4</ele>
        <time>2015-07-13T19:37:28.899Z</time>
      </trkpt>
      <trkpt lat="48.88036" lon="2.30834">
        <ele>110</ele>
        <time>2015-07-13T19:37:36.869Z</time>
      </trkpt>
      <trkpt lat="48.88036" lon="2.30824">
        <ele>110.1</ele>
        <time>2015-07-13T19:37:37.872Z</time>
      </trkpt>
      <trkpt lat="48.88031" lon="2.30815">
        <ele>110.3</ele>
        <time>2015-07-13T19:37:40.957Z</time>
      </trkpt>
      <trkpt lat="48.8803" lon="2.30811">
        <ele>110.1</ele>
        <time>2015-07-13T19:37:41.881Z</time>
      </trkpt>
      <trkpt lat="48.88028" lon="2.308">
        <ele>109.9</ele>
        <time>2015-07-13T19:37:43.833Z</time>
      </trkpt>
      <trkpt lat="48.88027" lon="2.30795">
        <ele>110.1</ele>
        <time>2015-07-13T19:37:44.844Z</time>
      </trkpt>
      <trkpt lat="48.88024" lon="2.30783">
        <ele>109.4</ele>
        <time>2015-07-13T19:37:46.817Z</time>
      </trkpt>
      <trkpt lat="48.88022" lon="2.30775">
        <ele>109</ele>
        <time>2015-07-13T19:37:47.869Z</time>
      </trkpt>
      <trkpt lat="48.88019" lon="2.30768">
        <ele>108.7</ele>
        <time>2015-07-13T19:37:48.883Z</time>
      </trkpt>
      <trkpt lat="48.88017" lon="2.30761">
        <ele>108.6</ele>
        <time>2015-07-13T19:37:49.901Z</time>
      </trkpt>
      <trkpt lat="48.88016" lon="2.30753">
        <ele>108.2</ele>
        <time>2015-07-13T19:37:50.814Z</time>
      </trkpt>
      <trkpt lat="48.88014" lon="2.30745">
        <ele>107.9</ele>
        <time>2015-07-13T19:37:51.822Z</time>
      </trkpt>
      <trkpt lat="48.88011" lon="2.30737">
        <ele>107.8</ele>
        <time>2015-07-13T19:37:52.849Z</time>
      </trkpt>
      <trkpt lat="48.88009" lon="2.30728">
        <ele>108</ele>
        <time>2015-07-13T19:37:53.870Z</time>
      </trkpt>
      <trkpt lat="48.88007" lon="2.30721">
        <ele>108.1</ele>
        <time>2015-07-13T19:37:54.813Z</time>
      </trkpt>
      <trkpt lat="48.88005" lon="2.30714">
        <ele>107.9</ele>
        <time>2015-07-13T19:37:55.859Z</time>
      </trkpt>
      <trkpt lat="48.88004" lon="2.30705">
        <ele>107.5</ele>
        <time>2015-07-13T19:37:56.876Z</time>
      </trkpt>
      <trkpt lat="48.88003" lon="2.30699">
        <ele>107.1</ele>
        <time>2015-07-13T19:37:57.885Z</time>
      </trkpt>
      <trkpt lat="48.88001" lon="2.30692">
        <ele>106.7</ele>
        <time>2015-07-13T19:37:58.819Z</time>
      </trkpt>
      <trkpt lat="48.87999" lon="2.30685">
        <ele>106.2</ele>
        <time>2015-07-13T19:37:59.904Z</time>
      </trkpt>
      <trkpt lat="48.87997" lon="2.30675">
        <ele>105.8</ele>
        <time>2015-07-13T19:38:01.808Z</time>
      </trkpt>
      <trkpt lat="48.87995" lon="2.30668">
        <ele>106.1</ele>
        <time>2015-07-13T19:38:02.846Z</time>
      </trkpt>
      <trkpt lat="48.87993" lon="2.3066">
        <ele>106.2</ele>
        <time>2015-07-13T19:38:03.810Z</time>
      </trkpt>
      <trkpt lat="48.87991" lon="2.30652">
        <ele>106.2</ele>
        <time>2015-07-13T19:38:04.814Z</time>
      </trkpt>
      <trkpt lat="48.87988" lon="2.30641">
        <ele>106.3</ele>
        <time>2015-07-13T19:38:06.886Z</time>
      </trkpt>
      <trkpt lat="48.87986" lon="2.30634">
        <ele>106.7</ele>
        <time>2015-07-13T19:38:07.877Z</time>
      </trkpt>
      <trkpt lat="48.87982" lon="2.30623">
        <ele>107.1</ele>
        <time>2015-07-13T19:38:09.852Z</time>
      </trkpt>
      <trkpt lat="48.87981" lon="2.30618">
        <ele>107.2</ele>
        <time>2015-07-13T19:38:10.878Z</time>
      </trkpt>
      <trkpt lat="48.87978" lon="2.30609">
        <ele>107.1</ele>
        <time>2015-07-13T19:38:12.815Z</time>
      </trkpt>
      <trkpt lat="48.87978" lon="2.30602">
        <ele>107.2</ele>
        <time>2015-07-13T19:38:13.848Z</time>
      </trkpt>
      <trkpt lat="48.87979" lon="2.3059">
        <ele>106.5</ele>
        <time>2015-07-13T19:38:15.815Z</time>
      </trkpt>
      <trkpt lat="48.87978" lon="2.30582">
        <ele>105.7</ele>
        <time>2015-07-13T19:38:16.856Z</time>
      </trkpt>
      <trkpt lat="48.87975" lon="2.30569">
        <ele>104.6</ele>
        <time>2015-07-13T19:38:18.814Z</time>
      </trkpt>
      <trkpt lat="48.87975" lon="2.30563">
        <ele>104</ele>
        <time>2015-07-13T19:38:19.863Z</time>
      </trkpt>
      <trkpt lat="48.87975" lon="2.3055">
        <ele>103.4</ele>
        <time>2015-07-13T19:38:22.856Z</time>
      </trkpt>
      <trkpt lat="48.87974" lon="2.30545">
        <ele>103.4</ele>
        <time>2015-07-13T19:38:23.889Z</time>
      </trkpt>
      <trkpt lat="48.87971" lon="2.30533">
        <ele>103</ele>
        <time>2015-07-13T19:38:26.854Z</time>
      </trkpt>
      <trkpt lat="48.87969" lon="2.30528">
        <ele>103.3</ele>
        <time>2015-07-13T19:38:27.857Z</time>
      </trkpt>
      <trkpt lat="48.87967" lon="2.30517">
        <ele>103.2</ele>
        <time>2015-07-13T19:38:29.871Z</time>
      </trkpt>
      <trkpt lat="48.87965" lon="2.3051">
        <ele>102.9</ele>
        <time>2015-07-13T19:38:30.916Z</time>
      </trkpt>
      <trkpt lat="48.87962" lon="2.305">
        <ele>103</ele>
        <time>2015-07-13T19:38:32.848Z</time>
      </trkpt>
      <trkpt lat="48.87961" lon="2.30496">
        <ele>103.6</ele>
        <time>2015-07-13T19:38:33.863Z</time>
      </trkpt>
      <trkpt lat="48.87958" lon="2.30487">
        <ele>105.1</ele>
        <time>2015-07-13T19:38:35.873Z</time>
      </trkpt>
      <trkpt lat="48.87957" lon="2.30484">
        <ele>105.9</ele>
        <time>2015-07-13T19:38:36.838Z</time>
      </trkpt>
      <trkpt lat="48.87953" lon="2.30474">
        <ele>106.5</ele>
        <time>2015-07-13T19:38:38.901Z</time>
      </trkpt>
      <trkpt lat="48.87953" lon="2.30468">
        <ele>106.9</ele>
        <time>2015-07-13T19:38:39.857Z</time>
      </trkpt>
      <trkpt lat="48.87952" lon="2.30455">
        <ele>107.4</ele>
        <time>2015-07-13T19:38:41.879Z</time>
      </trkpt>
      <trkpt lat="48.8795" lon="2.3045">
        <ele>107.1</ele>
        <time>2015-07-13T19:38:42.891Z</time>
      </trkpt>
      <trkpt lat="48.87948" lon="2.3044">
        <ele>106.9</ele>
        <time>2015-07-13T19:38:44.829Z</time>
      </trkpt>
      <trkpt lat="48.87947" lon="2.30435">
        <ele>106.8</ele>
        <time>2015-07-13T19:38:45.847Z</time>
      </trkpt>
      <trkpt lat="48.87944" lon="2.30423">
        <ele>107.1</ele>
        <time>2015-07-13T19:38:47.921Z</time>
      </trkpt>
      <trkpt lat="48.87943" lon="2.30417">
        <ele>107.1</ele>
        <time>2015-07-13T19:38:48.839Z</time>
      </trkpt>
      <trkpt lat="48.87941" lon="2.30405">
        <ele>107.1</ele>
        <time>2015-07-13T19:38:50.857Z</time>
      </trkpt>
      <trkpt lat="48.87939" lon="2.304">
        <ele>107.1</ele>
        <time>2015-07-13T19:38:51.860Z</time>
      </trkpt>
      <trkpt lat="48.87937" lon="2.3039">
        <ele>106.7</ele>
        <time>2015-07-13T19:38:53.903Z</time>
      </trkpt>
      <trkpt lat="48.87937" lon="2.30386">
        <ele>106.4</ele>
        <time>2015-07-13T19:38:54.841Z</time>
      </trkpt>
      <trkpt lat="48.87936" lon="2.30376">
        <ele>106.1</ele>
        <time>2015-07-13T19:38:56.815Z</time>
      </trkpt>
      <trkpt lat="48.87936" lon="2.30371">
        <ele>106</ele>
        <time>2015-07-13T19:38:57.848Z</time>
      </trkpt>
      <trkpt lat="48.87935" lon="2.3036">
        <ele>107.2</ele>
        <time>2015-07-13T19:38:59.926Z</time>
      </trkpt>
      <trkpt lat="48.87935" lon="2.30356">
        <ele>107.3</ele>
        <time>2015-07-13T19:39:00.820Z</time>
      </trkpt>
      <trkpt lat="48.87934" lon="2.30345">
        <ele>107.5</ele>
        <time>2015-07-13T19:39:03.854Z</time>
      </trkpt>
      <trkpt lat="48.87933" lon="2.30342">
        <ele>107.5</ele>
        <time>2015-07-13T19:39:04.867Z</time>
      </trkpt>
      <trkpt lat="48.87929" lon="2.30333">
        <ele>108.2</ele>
        <time>2015-07-13T19:39:06.802Z</time>
      </trkpt>
      <trkpt lat="48.87927" lon="2.3033">
        <ele>108.8</ele>
        <time>2015-07-13T19:39:07.838Z</time>
      </trkpt>
      <trkpt lat="48.87922" lon="2.30321">
        <ele>109.3</ele>
        <time>2015-07-13T19:39:09.872Z</time>
      </trkpt>
      <trkpt lat="48.87922" lon="2.30317">
        <ele>109</ele>
        <time>2015-07-13T19:39:10.899Z</time>
      </trkpt>
      <trkpt lat="48.87924" lon="2.30307">
        <ele>108</ele>
        <time>2015-07-13T19:39:12.842Z</time>
      </trkpt>
      <trkpt lat="48.87926" lon="2.30302">
        <ele>107.5</ele>
        <time>2015-07-13T19:39:13.908Z</time>
      </trkpt>
      <trkpt lat="48.87925" lon="2.3029">
        <ele>109.3</ele>
        <time>2015-07-13T19:39:17.909Z</time>
      </trkpt>
      <trkpt lat="48.87925" lon="2.30287">
        <ele>109</ele>
        <time>2015-07-13T19:39:18.843Z</time>
      </trkpt>
      <trkpt lat="48.87917" lon="2.30283">
        <ele>106.3</ele>
        <time>2015-07-13T19:39:22.870Z</time>
      </trkpt>
      <trkpt lat="48.87915" lon="2.30278">
        <ele>105.3</ele>
        <time>2015-07-13T19:39:23.910Z</time>
      </trkpt>
      <trkpt lat="48.87913" lon="2.30268">
        <ele>104.3</ele>
        <time>2015-07-13T19:39:25.860Z</time>
      </trkpt>
      <trkpt lat="48.87912" lon="2.30264">
        <ele>103.7</ele>
        <time>2015-07-13T19:39:26.876Z</time>
      </trkpt>
      <trkpt lat="48.87908" lon="2.30252">
        <ele>102.9</ele>
        <time>2015-07-13T19:39:28.813Z</time>
      </trkpt>
      <trkpt lat="48.87906" lon="2.30247">
        <ele>102.9</ele>
        <time>2015-07-13T19:39:29.941Z</time>
      </trkpt>
      <trkpt lat="48.87902" lon="2.30236">
        <ele>103.3</ele>
        <time>2015-07-13T19:39:31.826Z</time>
      </trkpt>
      <trkpt lat="48.879" lon="2.3023">
        <ele>103.9</ele>
        <time>2015-07-13T19:39:32.844Z</time>
      </trkpt>
      <trkpt lat="48.87898" lon="2.30223">
        <ele>104.2</ele>
        <time>2015-07-13T19:39:33.862Z</time>
      </trkpt>
      <trkpt lat="48.87896" lon="2.30216">
        <ele>104.6</ele>
        <time>2015-07-13T19:39:34.864Z</time>
      </trkpt>
      <trkpt lat="48.87894" lon="2.30209">
        <ele>104.9</ele>
        <time>2015-07-13T19:39:35.884Z</time>
      </trkpt>
      <trkpt lat="48.87893" lon="2.30202">
        <ele>105.2</ele>
        <time>2015-07-13T19:39:36.828Z</time>
      </trkpt>
      <trkpt lat="48.87892" lon="2.30194">
        <ele>105.6</ele>
        <time>2015-07-13T19:39:37.813Z</time>
      </trkpt>
      <trkpt lat="48.87891" lon="2.30186">
        <ele>106.1</ele>
        <time>2015-07-13T19:39:38.818Z</time>
      </trkpt>
      <trkpt lat="48.8789" lon="2.30178">
        <ele>106.5</ele>
        <time>2015-07-13T19:39:39.829Z</time>
      </trkpt>
      <trkpt lat="48.87889" lon="2.30171">
        <ele>107</ele>
        <time>2015-07-13T19:39:40.840Z</time>
      </trkpt>
      <trkpt lat="48.87886" lon="2.30164">
        <ele>107.1</ele>
        <time>2015-07-13T19:39:41.858Z</time>
      </trkpt>
      <trkpt lat="48.87884" lon="2.30157">
        <ele>107.3</ele>
        <time>2015-07-13T19:39:42.859Z</time>
      </trkpt>
      <trkpt lat="48.87882" lon="2.30149">
        <ele>107.3</ele>
        <time>2015-07-13T19:39:43.886Z</time>
      </trkpt>
      <trkpt lat="48.8788" lon="2.30141">
        <ele>107.1</ele>
        <time>2015-07-13T19:39:44.867Z</time>
      </trkpt>
      <trkpt lat="48.87878" lon="2.30135">
        <ele>106.9</ele>
        <time>2015-07-13T19:39:45.831Z</time>
      </trkpt>
      <trkpt lat="48.87876" lon="2.30127">
        <ele>107.1</ele>
        <time>2015-07-13T19:39:46.844Z</time>
      </trkpt>
      <trkpt lat="48.87874" lon="2.3012">
        <ele>107.4</ele>
        <time>2015-07-13T19:39:47.881Z</time>
      </trkpt>
      <trkpt lat="48.87872" lon="2.30112">
        <ele>107.3</ele>
        <time>2015-07-13T19:39:48.797Z</time>
      </trkpt>
      <trkpt lat="48.8787" lon="2.30103">
        <ele>107.2</ele>
        <time>2015-07-13T19:39:49.801Z</time>
      </trkpt>
      <trkpt lat="48.87868" lon="2.30095">
        <ele>107.1</ele>
        <time>2015-07-13T19:39:50.815Z</time>
      </trkpt>
      <trkpt lat="48.87866" lon="2.30086">
        <ele>107.2</ele>
        <time>2015-07-13T19:39:51.828Z</time>
      </trkpt>
      <trkpt lat="48.87864" lon="2.30077">
        <ele>107.3</ele>
        <time>2015-07-13T19:39:52.839Z</time>
      </trkpt>
      <trkpt lat="48.87863" lon="2.30069">
        <ele>107.6</ele>
        <time>2015-07-13T19:39:53.866Z</time>
      </trkpt>
      <trkpt lat="48.87859" lon="2.30058">
        <ele>109.5</ele>
        <time>2015-07-13T19:39:54.792Z</time>
      </trkpt>
      <trkpt lat="48.87858" lon="2.30049">
        <ele>109.9</ele>
        <time>2015-07-13T19:39:55.838Z</time>
      </trkpt>
      <trkpt lat="48.87856" lon="2.30041">
        <ele>110.2</ele>
        <time>2015-07-13T19:39:56.849Z</time>
      </trkpt>
      <trkpt lat="48.87854" lon="2.30032">
        <ele>110.2</ele>
        <time>2015-07-13T19:39:57.865Z</time>
      </trkpt>
      <trkpt lat="48.87852" lon="2.30024">
        <ele>110.3</ele>
        <time>2015-07-13T19:39:58.815Z</time>
      </trkpt>
      <trkpt lat="48.8785" lon="2.30015">
        <ele>110.3</ele>
        <time>2015-07-13T19:39:59.926Z</time>
      </trkpt>
      <trkpt lat="48.87847" lon="2.30006">
        <ele>110.1</ele>
        <time>2015-07-13T19:40:00.809Z</time>
      </trkpt>
      <trkpt lat="48.87846" lon="2.29997">
        <ele>109.9</ele>
        <time>2015-07-13T19:40:01.845Z</time>
      </trkpt>
      <trkpt lat="48.87843" lon="2.29989">
        <ele>109.7</ele>
        <time>2015-07-13T19:40:02.853Z</time>
      </trkpt>
      <trkpt lat="48.87841" lon="2.2998">
        <ele>109.6</ele>
        <time>2015-07-13T19:40:03.832Z</time>
      </trkpt>
      <trkpt lat="48.8784" lon="2.29971">
        <ele>109.4</ele>
        <time>2015-07-13T19:40:04.811Z</time>
      </trkpt>
      <trkpt lat="48.87838" lon="2.29962">
        <ele>109.1</ele>
        <time>2015-07-13T19:40:05.837Z</time>
      </trkpt>
      <trkpt lat="48.87837" lon="2.29953">
        <ele>109.1</ele>
        <time>2015-07-13T19:40:06.879Z</time>
      </trkpt>
      <trkpt lat="48.87835" lon="2.29944">
        <ele>109.1</ele>
        <time>2015-07-13T19:40:07.847Z</time>
      </trkpt>
      <trkpt lat="48.87833" lon="2.29935">
        <ele>109.3</ele>
        <time>2015-07-13T19:40:08.860Z</time>
      </trkpt>
      <trkpt lat="48.87832" lon="2.29926">
        <ele>109.4</ele>
        <time>2015-07-13T19:40:09.797Z</time>
      </trkpt>
      <trkpt lat="48.8783" lon="2.29917">
        <ele>109.6</ele>
        <time>2015-07-13T19:40:10.907Z</time>
      </trkpt>
      <trkpt lat="48.87828" lon="2.29909">
        <ele>109.5</ele>
        <time>2015-07-13T19:40:11.924Z</time>
      </trkpt>
      <trkpt lat="48.87826" lon="2.299">
        <ele>109.4</ele>
        <time>2015-07-13T19:40:12.804Z</time>
      </trkpt>
      <trkpt lat="48.87824" lon="2.29892">
        <ele>109.3</ele>
        <time>2015-07-13T19:40:13.804Z</time>
      </trkpt>
      <trkpt lat="48.87824" lon="2.29884">
        <ele>108.7</ele>
        <time>2015-07-13T19:40:14.832Z</time>
      </trkpt>
      <trkpt lat="48.87824" lon="2.29876">
        <ele>107.6</ele>
        <time>2015-07-13T19:40:15.829Z</time>
      </trkpt>
      <trkpt lat="48.87824" lon="2.29868">
        <ele>107.2</ele>
        <time>2015-07-13T19:40:16.835Z</time>
      </trkpt>
      <trkpt lat="48.87825" lon="2.29861">
        <ele>106.9</ele>
        <time>2015-07-13T19:40:17.854Z</time>
      </trkpt>
      <trkpt lat="48.87827" lon="2.29854">
        <ele>106.5</ele>
        <time>2015-07-13T19:40:18.860Z</time>
      </trkpt>
      <trkpt lat="48.87829" lon="2.29848">
        <ele>106.7</ele>
        <time>2015-07-13T19:40:19.866Z</time>
      </trkpt>
      <trkpt lat="48.87832" lon="2.29843">
        <ele>106.5</ele>
        <time>2015-07-13T19:40:20.874Z</time>
      </trkpt>
      <trkpt lat="48.87836" lon="2.29832">
        <ele>106.6</ele>
        <time>2015-07-13T19:40:22.898Z</time>
      </trkpt>
      <trkpt lat="48.87837" lon="2.29827">
        <ele>106.8</ele>
        <time>2015-07-13T19:40:23.917Z</time>
      </trkpt>
      <trkpt lat="48.87839" lon="2.29816">
        <ele>107.1</ele>
        <time>2015-07-13T19:40:25.809Z</time>
      </trkpt>
      <trkpt lat="48.8784" lon="2.2981">
        <ele>107</ele>
        <time>2015-07-13T19:40:26.887Z</time>
      </trkpt>
      <trkpt lat="48.87838" lon="2.29799">
        <ele>107.1</ele>
        <time>2015-07-13T19:40:28.827Z</time>
      </trkpt>
      <trkpt lat="48.87838" lon="2.29795">
        <ele>107.1</ele>
        <time>2015-07-13T19:40:29.922Z</time>
      </trkpt>
      <trkpt lat="48.87834" lon="2.29784">
        <ele>107.1</ele>
        <time>2015-07-13T19:40:32.841Z</time>
      </trkpt>
      <trkpt lat="48.87833" lon="2.29781">
        <ele>107.5</ele>
        <time>2015-07-13T19:40:33.870Z</time>
      </trkpt>
      <trkpt lat="48.87826" lon="2.29773">
        <ele>107.2</ele>
        <time>2015-07-13T19:40:36.854Z</time>
      </trkpt>
      <trkpt lat="48.87825" lon="2.29773">
        <ele>106.7</ele>
        <time>2015-07-13T19:40:37.772Z</time>
      </trkpt>
      <trkpt lat="48.87816" lon="2.29768">
        <ele>104.8</ele>
        <time>2015-07-13T19:40:41.814Z</time>
      </trkpt>
      <trkpt lat="48.87814" lon="2.29767">
        <ele>104.4</ele>
        <time>2015-07-13T19:40:42.842Z</time>
      </trkpt>
      <trkpt lat="48.87808" lon="2.29763">
        <ele>103.9</ele>
        <time>2015-07-13T19:40:45.083Z</time>
      </trkpt>
      <trkpt lat="48.87806" lon="2.29761">
        <ele>103.5</ele>
        <time>2015-07-13T19:40:45.848Z</time>
      </trkpt>
      <trkpt lat="48.87798" lon="2.29754">
        <ele>101.6</ele>
        <time>2015-07-13T19:40:49.820Z</time>
      </trkpt>
      <trkpt lat="48.87797" lon="2.29751">
        <ele>101.4</ele>
        <time>2015-07-13T19:40:50.828Z</time>
      </trkpt>
      <trkpt lat="48.87797" lon="2.29739">
        <ele>101.5</ele>
        <time>2015-07-13T19:40:54.892Z</time>
      </trkpt>
      <trkpt lat="48.87799" lon="2.29737">
        <ele>101.7</ele>
        <time>2015-07-13T19:40:55.874Z</time>
      </trkpt>
      <trkpt lat="48.87803" lon="2.29737">
        <ele>101</ele>
        <time>2015-07-13T19:41:31.766Z</time>
      </trkpt>
      <trkpt lat="48.87812" lon="2.29741">
        <ele>93.8</ele>
        <time>2015-07-13T19:41:32.781Z</time>
      </trkpt>
      <trkpt lat="48.8781" lon="2.2973">
        <ele>93.1</ele>
        <time>2015-07-13T19:41:35.861Z</time>
      </trkpt>
      <trkpt lat="48.8781" lon="2.29725">
        <ele>93</ele>
        <time>2015-07-13T19:41:36.860Z</time>
      </trkpt>
      <trkpt lat="48.87812" lon="2.29713">
        <ele>91.8</ele>
        <time>2015-07-13T19:41:38.952Z</time>
      </trkpt>
      <trkpt lat="48.87812" lon="2.29705">
        <ele>91.2</ele>
        <time>2015-07-13T19:41:39.870Z</time>
      </trkpt>
      <trkpt lat="48.87814" lon="2.29699">
        <ele>91.3</ele>
        <time>2015-07-13T19:41:40.897Z</time>
      </trkpt>
      <trkpt lat="48.87814" lon="2.29691">
        <ele>91.7</ele>
        <time>2015-07-13T19:41:41.867Z</time>
      </trkpt>
      <trkpt lat="48.87815" lon="2.29685">
        <ele>91.7</ele>
        <time>2015-07-13T19:41:42.892Z</time>
      </trkpt>
      <trkpt lat="48.87816" lon="2.29677">
        <ele>92.2</ele>
        <time>2015-07-13T19:41:43.792Z</time>
      </trkpt>
      <trkpt lat="48.87817" lon="2.29664">
        <ele>92.6</ele>
        <time>2015-07-13T19:41:44.150Z</time>
      </trkpt>
      <trkpt lat="48.87818" lon="2.29656">
        <ele>93</ele>
        <time>2015-07-13T19:41:46.810Z</time>
      </trkpt>
      <trkpt lat="48.8782" lon="2.29649">
        <ele>93.2</ele>
        <time>2015-07-13T19:41:47.826Z</time>
      </trkpt>
      <trkpt lat="48.87821" lon="2.29641">
        <ele>93.1</ele>
        <time>2015-07-13T19:41:48.844Z</time>
      </trkpt>
      <trkpt lat="48.87822" lon="2.29634">
        <ele>93</ele>
        <time>2015-07-13T19:41:49.864Z</time>
      </trkpt>
      <trkpt lat="48.87823" lon="2.29625">
        <ele>93.3</ele>
        <time>2015-07-13T19:41:50.789Z</time>
      </trkpt>
      <trkpt lat="48.87823" lon="2.29616">
        <ele>93.6</ele>
        <time>2015-07-13T19:41:51.881Z</time>
      </trkpt>
      <trkpt lat="48.87824" lon="2.29607">
        <ele>93.8</ele>
        <time>2015-07-13T19:41:52.804Z</time>
      </trkpt>
      <trkpt lat="48.87825" lon="2.296">
        <ele>94</ele>
        <time>2015-07-13T19:41:54.244Z</time>
      </trkpt>
      <trkpt lat="48.87826" lon="2.29593">
        <ele>94.5</ele>
        <time>2015-07-13T19:41:54.811Z</time>
      </trkpt>
      <trkpt lat="48.87828" lon="2.29581">
        <ele>95.1</ele>
        <time>2015-07-13T19:41:56.812Z</time>
      </trkpt>
      <trkpt lat="48.87828" lon="2.29573">
        <ele>94.8</ele>
        <time>2015-07-13T19:41:57.859Z</time>
      </trkpt>
      <trkpt lat="48.87829" lon="2.29565">
        <ele>95</ele>
        <time>2015-07-13T19:41:58.812Z</time>
      </trkpt>
      <trkpt lat="48.8783" lon="2.29557">
        <ele>95.3</ele>
        <time>2015-07-13T19:41:59.888Z</time>
      </trkpt>
      <trkpt lat="48.87832" lon="2.29548">
        <ele>95.5</ele>
        <time>2015-07-13T19:42:00.797Z</time>
      </trkpt>
      <trkpt lat="48.87834" lon="2.29539">
        <ele>95.6</ele>
        <time>2015-07-13T19:42:01.800Z</time>
      </trkpt>
      <trkpt lat="48.87838" lon="2.29531">
        <ele>95.7</ele>
        <time>2015-07-13T19:42:02.803Z</time>
      </trkpt>
      <trkpt lat="48.87841" lon="2.29521">
        <ele>95.7</ele>
        <time>2015-07-13T19:42:03.825Z</time>
      </trkpt>
      <trkpt lat="48.87843" lon="2.29511">
        <ele>95.5</ele>
        <time>2015-07-13T19:42:04.838Z</time>
      </trkpt>
      <trkpt lat="48.87845" lon="2.29501">
        <ele>95.4</ele>
        <time>2015-07-13T19:42:05.862Z</time>
      </trkpt>
      <trkpt lat="48.87847" lon="2.29491">
        <ele>95.1</ele>
        <time>2015-07-13T19:42:06.865Z</time>
      </trkpt>
      <trkpt lat="48.8785" lon="2.29482">
        <ele>95.1</ele>
        <time>2015-07-13T19:42:07.798Z</time>
      </trkpt>
      <trkpt lat="48.87851" lon="2.29472">
        <ele>95.5</ele>
        <time>2015-07-13T19:42:08.795Z</time>
      </trkpt>
      <trkpt lat="48.87852" lon="2.29461">
        <ele>96</ele>
        <time>2015-07-13T19:42:09.801Z</time>
      </trkpt>
      <trkpt lat="48.87853" lon="2.29452">
        <ele>96.4</ele>
        <time>2015-07-13T19:42:10.838Z</time>
      </trkpt>
      <trkpt lat="48.87856" lon="2.29443">
        <ele>96.9</ele>
        <time>2015-07-13T19:42:11.841Z</time>
      </trkpt>
      <trkpt lat="48.87858" lon="2.29435">
        <ele>97.7</ele>
        <time>2015-07-13T19:42:12.861Z</time>
      </trkpt>
      <trkpt lat="48.8786" lon="2.29428">
        <ele>98.2</ele>
        <time>2015-07-13T19:42:13.872Z</time>
      </trkpt>
      <trkpt lat="48.87863" lon="2.29419">
        <ele>98.8</ele>
        <time>2015-07-13T19:42:14.775Z</time>
      </trkpt>
      <trkpt lat="48.87865" lon="2.29408">
        <ele>99.2</ele>
        <time>2015-07-13T19:42:15.802Z</time>
      </trkpt>
      <trkpt lat="48.87867" lon="2.29398">
        <ele>99.5</ele>
        <time>2015-07-13T19:42:16.827Z</time>
      </trkpt>
      <trkpt lat="48.8787" lon="2.29389">
        <ele>100</ele>
        <time>2015-07-13T19:42:17.844Z</time>
      </trkpt>
      <trkpt lat="48.87871" lon="2.29379">
        <ele>100.1</ele>
        <time>2015-07-13T19:42:18.870Z</time>
      </trkpt>
      <trkpt lat="48.87872" lon="2.29369">
        <ele>99.9</ele>
        <time>2015-07-13T19:42:19.873Z</time>
      </trkpt>
      <trkpt lat="48.87874" lon="2.2936">
        <ele>100.2</ele>
        <time>2015-07-13T19:42:20.815Z</time>
      </trkpt>
      <trkpt lat="48.87877" lon="2.29351">
        <ele>100.3</ele>
        <time>2015-07-13T19:42:21.803Z</time>
      </trkpt>
      <trkpt lat="48.8788" lon="2.29344">
        <ele>100.4</ele>
        <time>2015-07-13T19:42:22.812Z</time>
      </trkpt>
      <trkpt lat="48.87883" lon="2.29336">
        <ele>100.6</ele>
        <time>2015-07-13T19:42:23.860Z</time>
      </trkpt>
      <trkpt lat="48.87886" lon="2.29326">
        <ele>100.3</ele>
        <time>2015-07-13T19:42:24.866Z</time>
      </trkpt>
      <trkpt lat="48.87889" lon="2.29316">
        <ele>99.9</ele>
        <time>2015-07-13T19:42:25.876Z</time>
      </trkpt>
      <trkpt lat="48.87891" lon="2.29305">
        <ele>100.1</ele>
        <time>2015-07-13T19:42:26.800Z</time>
      </trkpt>
      <trkpt lat="48.87893" lon="2.29294">
        <ele>100.2</ele>
        <time>2015-07-13T19:42:27.836Z</time>
      </trkpt>
      <trkpt lat="48.87894" lon="2.2928">
        <ele>100</ele>
        <time>2015-07-13T19:42:28.847Z</time>
      </trkpt>
      <trkpt lat="48.87895" lon="2.29268">
        <ele>100.2</ele>
        <time>2015-07-13T19:42:29.933Z</time>
      </trkpt>
      <trkpt lat="48.87897" lon="2.29256">
        <ele>99.7</ele>
        <time>2015-07-13T19:42:30.893Z</time>
      </trkpt>
      <trkpt lat="48.87898" lon="2.29242">
        <ele>99.1</ele>
        <time>2015-07-13T19:42:31.873Z</time>
      </trkpt>
      <trkpt lat="48.879" lon="2.29229">
        <ele>99</ele>
        <time>2015-07-13T19:42:32.886Z</time>
      </trkpt>
      <trkpt lat="48.87903" lon="2.29217">
        <ele>99.2</ele>
        <time>2015-07-13T19:42:33.775Z</time>
      </trkpt>
      <trkpt lat="48.87905" lon="2.29205">
        <ele>98.8</ele>
        <time>2015-07-13T19:42:34.800Z</time>
      </trkpt>
      <trkpt lat="48.87907" lon="2.29196">
        <ele>98.6</ele>
        <time>2015-07-13T19:42:35.836Z</time>
      </trkpt>
      <trkpt lat="48.87911" lon="2.29187">
        <ele>98.7</ele>
        <time>2015-07-13T19:42:36.845Z</time>
      </trkpt>
      <trkpt lat="48.87915" lon="2.29178">
        <ele>98.7</ele>
        <time>2015-07-13T19:42:37.866Z</time>
      </trkpt>
      <trkpt lat="48.87918" lon="2.29169">
        <ele>98.2</ele>
        <time>2015-07-13T19:42:38.874Z</time>
      </trkpt>
      <trkpt lat="48.87922" lon="2.2916">
        <ele>97.8</ele>
        <time>2015-07-13T19:42:39.771Z</time>
      </trkpt>
      <trkpt lat="48.87926" lon="2.29152">
        <ele>97.7</ele>
        <time>2015-07-13T19:42:40.804Z</time>
      </trkpt>
      <trkpt lat="48.87929" lon="2.2914">
        <ele>98</ele>
        <time>2015-07-13T19:42:41.850Z</time>
      </trkpt>
      <trkpt lat="48.87931" lon="2.29129">
        <ele>97.8</ele>
        <time>2015-07-13T19:42:42.860Z</time>
      </trkpt>
      <trkpt lat="48.87934" lon="2.29118">
        <ele>97.7</ele>
        <time>2015-07-13T19:42:43.856Z</time>
      </trkpt>
      <trkpt lat="48.87936" lon="2.29106">
        <ele>98.2</ele>
        <time>2015-07-13T19:42:44.879Z</time>
      </trkpt>
      <trkpt lat="48.87938" lon="2.29092">
        <ele>99.1</ele>
        <time>2015-07-13T19:42:45.881Z</time>
      </trkpt>
      <trkpt lat="48.87938" lon="2.29079">
        <ele>99.8</ele>
        <time>2015-07-13T19:42:46.832Z</time>
      </trkpt>
      <trkpt lat="48.87939" lon="2.29065">
        <ele>100.7</ele>
        <time>2015-07-13T19:42:47.928Z</time>
      </trkpt>
      <trkpt lat="48.8794" lon="2.29051">
        <ele>101.3</ele>
        <time>2015-07-13T19:42:48.823Z</time>
      </trkpt>
      <trkpt lat="48.87942" lon="2.2904">
        <ele>101.4</ele>
        <time>2015-07-13T19:42:49.831Z</time>
      </trkpt>
      <trkpt lat="48.87944" lon="2.2903">
        <ele>101.1</ele>
        <time>2015-07-13T19:42:50.858Z</time>
      </trkpt>
      <trkpt lat="48.87947" lon="2.29021">
        <ele>100.9</ele>
        <time>2015-07-13T19:42:51.863Z</time>
      </trkpt>
      <trkpt lat="48.87948" lon="2.29011">
        <ele>100.7</ele>
        <time>2015-07-13T19:42:52.865Z</time>
      </trkpt>
      <trkpt lat="48.87949" lon="2.29002">
        <ele>100.8</ele>
        <time>2015-07-13T19:42:53.873Z</time>
      </trkpt>
      <trkpt lat="48.87952" lon="2.28989">
        <ele>100.4</ele>
        <time>2015-07-13T19:42:55.828Z</time>
      </trkpt>
      <trkpt lat="48.87955" lon="2.28985">
        <ele>100.6</ele>
        <time>2015-07-13T19:42:56.876Z</time>
      </trkpt>
      <trkpt lat="48.87957" lon="2.28995">
        <ele>100.4</ele>
        <time>2015-07-13T19:43:04.835Z</time>
      </trkpt>
      <trkpt lat="48.87957" lon="2.28999">
        <ele>100.7</ele>
        <time>2015-07-13T19:43:05.896Z</time>
      </trkpt>
      <trkpt lat="48.87954" lon="2.2901">
        <ele>101.4</ele>
        <time>2015-07-13T19:43:08.825Z</time>
      </trkpt>
      <trkpt lat="48.87953" lon="2.29015">
        <ele>101.3</ele>
        <time>2015-07-13T19:43:09.836Z</time>
      </trkpt>
      <trkpt lat="48.87948" lon="2.29024">
        <ele>101.7</ele>
        <time>2015-07-13T19:43:12.855Z</time>
      </trkpt>
      <trkpt lat="48.87947" lon="2.29027">
        <ele>101.9</ele>
        <time>2015-07-13T19:43:13.797Z</time>
      </trkpt>
      <trkpt lat="48.87943" lon="2.29036">
        <ele>102.5</ele>
        <time>2015-07-13T19:43:16.824Z</time>
      </trkpt>
      <trkpt lat="48.87945" lon="2.29044">
        <ele>101.3</ele>
        <time>2015-07-13T19:43:17.899Z</time>
      </trkpt>
      <trkpt lat="48.87947" lon="2.29052">
        <ele>100.1</ele>
        <time>2015-07-13T19:43:18.870Z</time>
      </trkpt>
      <trkpt lat="48.87948" lon="2.29058">
        <ele>99.2</ele>
        <time>2015-07-13T19:43:19.879Z</time>
      </trkpt>
      <trkpt lat="48.87949" lon="2.29068">
        <ele>97.9</ele>
        <time>2015-07-13T19:43:21.779Z</time>
      </trkpt>
      <trkpt lat="48.87949" lon="2.29072">
        <ele>97.4</ele>
        <time>2015-07-13T19:43:22.844Z</time>
      </trkpt>
      <trkpt lat="48.87953" lon="2.29064">
        <ele>99.2</ele>
        <time>2015-07-13T19:47:54.854Z</time>
      </trkpt>
      <trkpt lat="48.87953" lon="2.29058">
        <ele>99.2</ele>
        <time>2015-07-13T19:47:55.868Z</time>
      </trkpt>
      <trkpt lat="48.87953" lon="2.29047">
        <ele>99.3</ele>
        <time>2015-07-13T19:47:57.781Z</time>
      </trkpt>
      <trkpt lat="48.87953" lon="2.2904">
        <ele>99.3</ele>
        <time>2015-07-13T19:47:58.800Z</time>
      </trkpt>
      <trkpt lat="48.87954" lon="2.29026">
        <ele>99.3</ele>
        <time>2015-07-13T19:48:00.793Z</time>
      </trkpt>
      <trkpt lat="48.87954" lon="2.2902">
        <ele>99.4</ele>
        <time>2015-07-13T19:48:01.798Z</time>
      </trkpt>
      <trkpt lat="48.87955" lon="2.29013">
        <ele>99.6</ele>
        <time>2015-07-13T19:48:02.842Z</time>
      </trkpt>
      <trkpt lat="48.87956" lon="2.29005">
        <ele>99.8</ele>
        <time>2015-07-13T19:48:03.864Z</time>
      </trkpt>
      <trkpt lat="48.87956" lon="2.28998">
        <ele>100</ele>
        <time>2015-07-13T19:48:04.762Z</time>
      </trkpt>
      <trkpt lat="48.87957" lon="2.28991">
        <ele>100.2</ele>
        <time>2015-07-13T19:48:05.805Z</time>
      </trkpt>
      <trkpt lat="48.87959" lon="2.28984">
        <ele>100.5</ele>
        <time>2015-07-13T19:48:06.849Z</time>
      </trkpt>
      <trkpt lat="48.87961" lon="2.28977">
        <ele>100.9</ele>
        <time>2015-07-13T19:48:07.864Z</time>
      </trkpt>
      <trkpt lat="48.87963" lon="2.2897">
        <ele>101.3</ele>
        <time>2015-07-13T19:48:08.871Z</time>
      </trkpt>
      <trkpt lat="48.87965" lon="2.28963">
        <ele>101.5</ele>
        <time>2015-07-13T19:48:09.903Z</time>
      </trkpt>
      <trkpt lat="48.87967" lon="2.28956">
        <ele>102</ele>
        <time>2015-07-13T19:48:10.781Z</time>
      </trkpt>
      <trkpt lat="48.87968" lon="2.2895">
        <ele>102</ele>
        <time>2015-07-13T19:48:11.855Z</time>
      </trkpt>
      <trkpt lat="48.87971" lon="2.28939">
        <ele>102.1</ele>
        <time>2015-07-13T19:48:13.797Z</time>
      </trkpt>
      <trkpt lat="48.87973" lon="2.28933">
        <ele>102</ele>
        <time>2015-07-13T19:48:14.798Z</time>
      </trkpt>
      <trkpt lat="48.87976" lon="2.28922">
        <ele>102.3</ele>
        <time>2015-07-13T19:48:16.896Z</time>
      </trkpt>
      <trkpt lat="48.87977" lon="2.28915">
        <ele>102.1</ele>
        <time>2015-07-13T19:48:17.875Z</time>
      </trkpt>
      <trkpt lat="48.8798" lon="2.28903">
        <ele>101.8</ele>
        <time>2015-07-13T19:48:19.800Z</time>
      </trkpt>
      <trkpt lat="48.87982" lon="2.28898">
        <ele>101.6</ele>
        <time>2015-07-13T19:48:20.808Z</time>
      </trkpt>
      <trkpt lat="48.87985" lon="2.28886">
        <ele>101.5</ele>
        <time>2015-07-13T19:48:22.835Z</time>
      </trkpt>
      <trkpt lat="48.87987" lon="2.28881">
        <ele>101.5</ele>
        <time>2015-07-13T19:48:23.846Z</time>
      </trkpt>
      <trkpt lat="48.87989" lon="2.2887">
        <ele>102</ele>
        <time>2015-07-13T19:48:25.902Z</time>
      </trkpt>
      <trkpt lat="48.8799" lon="2.28864">
        <ele>102.1</ele>
        <time>2015-07-13T19:48:26.797Z</time>
      </trkpt>
      <trkpt lat="48.87993" lon="2.28853">
        <ele>102.9</ele>
        <time>2015-07-13T19:48:28.814Z</time>
      </trkpt>
      <trkpt lat="48.87995" lon="2.28848">
        <ele>103.4</ele>
        <time>2015-07-13T19:48:29.913Z</time>
      </trkpt>
      <trkpt lat="48.87997" lon="2.28838">
        <ele>103.5</ele>
        <time>2015-07-13T19:48:31.827Z</time>
      </trkpt>
      <trkpt lat="48.87998" lon="2.28834">
        <ele>103.6</ele>
        <time>2015-07-13T19:48:32.842Z</time>
      </trkpt>
      <trkpt lat="48.88002" lon="2.28822">
        <ele>104.1</ele>
        <time>2015-07-13T19:48:35.890Z</time>
      </trkpt>
      <trkpt lat="48.88002" lon="2.28817">
        <ele>104.1</ele>
        <time>2015-07-13T19:48:36.815Z</time>
      </trkpt>
      <trkpt lat="48.88" lon="2.28804">
        <ele>104.9</ele>
        <time>2015-07-13T19:48:39.851Z</time>
      </trkpt>
      <trkpt lat="48.88" lon="2.288">
        <ele>104.8</ele>
        <time>2015-07-13T19:48:40.887Z</time>
      </trkpt>
      <trkpt lat="48.87999" lon="2.28789">
        <ele>103.8</ele>
        <time>2015-07-13T19:48:43.841Z</time>
      </trkpt>
      <trkpt lat="48.87999" lon="2.28784">
        <ele>103.5</ele>
        <time>2015-07-13T19:48:44.854Z</time>
      </trkpt>
      <trkpt lat="48.87999" lon="2.28771">
        <ele>103.4</ele>
        <time>2015-07-13T19:48:47.851Z</time>
      </trkpt>
      <trkpt lat="48.87997" lon="2.28765">
        <ele>103.2</ele>
        <time>2015-07-13T19:48:48.839Z</time>
      </trkpt>
      <trkpt lat="48.87993" lon="2.28757">
        <ele>101.9</ele>
        <time>2015-07-13T19:48:50.809Z</time>
      </trkpt>
      <trkpt lat="48.8799" lon="2.28753">
        <ele>101.2</ele>
        <time>2015-07-13T19:48:51.807Z</time>
      </trkpt>
      <trkpt lat="48.87985" lon="2.28745">
        <ele>99.7</ele>
        <time>2015-07-13T19:48:53.851Z</time>
      </trkpt>
      <trkpt lat="48.87982" lon="2.2874">
        <ele>98.7</ele>
        <time>2015-07-13T19:48:54.806Z</time>
      </trkpt>
      <trkpt lat="48.8798" lon="2.28735">
        <ele>97.6</ele>
        <time>2015-07-13T19:48:55.804Z</time>
      </trkpt>
      <trkpt lat="48.87977" lon="2.28728">
        <ele>97.4</ele>
        <time>2015-07-13T19:48:56.810Z</time>
      </trkpt>
      <trkpt lat="48.87973" lon="2.28721">
        <ele>97.1</ele>
        <time>2015-07-13T19:48:57.855Z</time>
      </trkpt>
      <trkpt lat="48.8797" lon="2.28713">
        <ele>96.6</ele>
        <time>2015-07-13T19:48:58.867Z</time>
      </trkpt>
      <trkpt lat="48.87966" lon="2.28706">
        <ele>96.4</ele>
        <time>2015-07-13T19:48:59.896Z</time>
      </trkpt>
      <trkpt lat="48.87962" lon="2.28699">
        <ele>96</ele>
        <time>2015-07-13T19:49:00.801Z</time>
      </trkpt>
      <trkpt lat="48.87958" lon="2.28692">
        <ele>95.7</ele>
        <time>2015-07-13T19:49:01.810Z</time>
      </trkpt>
      <trkpt lat="48.87953" lon="2.28684">
        <ele>95.6</ele>
        <time>2015-07-13T19:49:02.838Z</time>
      </trkpt>
      <trkpt lat="48.8795" lon="2.28677">
        <ele>95.5</ele>
        <time>2015-07-13T19:49:03.852Z</time>
      </trkpt>
      <trkpt lat="48.87946" lon="2.28671">
        <ele>95.4</ele>
        <time>2015-07-13T19:49:04.871Z</time>
      </trkpt>
      <trkpt lat="48.87943" lon="2.28664">
        <ele>95</ele>
        <time>2015-07-13T19:49:05.883Z</time>
      </trkpt>
      <trkpt lat="48.87939" lon="2.28656">
        <ele>95.1</ele>
        <time>2015-07-13T19:49:06.802Z</time>
      </trkpt>
      <trkpt lat="48.87936" lon="2.2865">
        <ele>94.8</ele>
        <time>2015-07-13T19:49:07.799Z</time>
      </trkpt>
      <trkpt lat="48.87932" lon="2.28642">
        <ele>95.3</ele>
        <time>2015-07-13T19:49:08.805Z</time>
      </trkpt>
      <trkpt lat="48.87927" lon="2.28633">
        <ele>95.3</ele>
        <time>2015-07-13T19:49:09.828Z</time>
      </trkpt>
      <trkpt lat="48.87923" lon="2.28625">
        <ele>95.1</ele>
        <time>2015-07-13T19:49:10.838Z</time>
      </trkpt>
      <trkpt lat="48.87919" lon="2.28617">
        <ele>95.4</ele>
        <time>2015-07-13T19:49:11.936Z</time>
      </trkpt>
      <trkpt lat="48.87914" lon="2.28608">
        <ele>95.3</ele>
        <time>2015-07-13T19:49:12.865Z</time>
      </trkpt>
      <trkpt lat="48.87909" lon="2.28599">
        <ele>95.6</ele>
        <time>2015-07-13T19:49:13.769Z</time>
      </trkpt>
      <trkpt lat="48.87904" lon="2.28591">
        <ele>95.7</ele>
        <time>2015-07-13T19:49:14.800Z</time>
      </trkpt>
      <trkpt lat="48.879" lon="2.28582">
        <ele>95.5</ele>
        <time>2015-07-13T19:49:15.802Z</time>
      </trkpt>
      <trkpt lat="48.87894" lon="2.28574">
        <ele>95.4</ele>
        <time>2015-07-13T19:49:16.820Z</time>
      </trkpt>
      <trkpt lat="48.87889" lon="2.28566">
        <ele>95.3</ele>
        <time>2015-07-13T19:49:17.847Z</time>
      </trkpt>
      <trkpt lat="48.87884" lon="2.28557">
        <ele>95.6</ele>
        <time>2015-07-13T19:49:18.869Z</time>
      </trkpt>
      <trkpt lat="48.87879" lon="2.28549">
        <ele>95.4</ele>
        <time>2015-07-13T19:49:19.890Z</time>
      </trkpt>
      <trkpt lat="48.87874" lon="2.2854">
        <ele>95.2</ele>
        <time>2015-07-13T19:49:20.805Z</time>
      </trkpt>
      <trkpt lat="48.87869" lon="2.28531">
        <ele>95.3</ele>
        <time>2015-07-13T19:49:21.857Z</time>
      </trkpt>
      <trkpt lat="48.87866" lon="2.28522">
        <ele>95.7</ele>
        <time>2015-07-13T19:49:22.893Z</time>
      </trkpt>
      <trkpt lat="48.87861" lon="2.28515">
        <ele>95.4</ele>
        <time>2015-07-13T19:49:23.946Z</time>
      </trkpt>
      <trkpt lat="48.87857" lon="2.28508">
        <ele>95</ele>
        <time>2015-07-13T19:49:24.801Z</time>
      </trkpt>
      <trkpt lat="48.87852" lon="2.28502">
        <ele>95</ele>
        <time>2015-07-13T19:49:25.801Z</time>
      </trkpt>
      <trkpt lat="48.87847" lon="2.28495">
        <ele>94.6</ele>
        <time>2015-07-13T19:49:26.832Z</time>
      </trkpt>
      <trkpt lat="48.87842" lon="2.28489">
        <ele>94.7</ele>
        <time>2015-07-13T19:49:27.855Z</time>
      </trkpt>
      <trkpt lat="48.87838" lon="2.28483">
        <ele>94.3</ele>
        <time>2015-07-13T19:49:28.864Z</time>
      </trkpt>
      <trkpt lat="48.87834" lon="2.28477">
        <ele>94</ele>
        <time>2015-07-13T19:49:29.912Z</time>
      </trkpt>
      <trkpt lat="48.87831" lon="2.28472">
        <ele>93.6</ele>
        <time>2015-07-13T19:49:30.792Z</time>
      </trkpt>
      <trkpt lat="48.87828" lon="2.28467">
        <ele>93.4</ele>
        <time>2015-07-13T19:49:31.792Z</time>
      </trkpt>
      <trkpt lat="48.87825" lon="2.28462">
        <ele>93.5</ele>
        <time>2015-07-13T19:49:32.791Z</time>
      </trkpt>
      <trkpt lat="48.87821" lon="2.28457">
        <ele>93.9</ele>
        <time>2015-07-13T19:49:33.805Z</time>
      </trkpt>
      <trkpt lat="48.87818" lon="2.28452">
        <ele>94.1</ele>
        <time>2015-07-13T19:49:34.825Z</time>
      </trkpt>
      <trkpt lat="48.87815" lon="2.28441">
        <ele>94.4</ele>
        <time>2015-07-13T19:49:36.794Z</time>
      </trkpt>
      <trkpt lat="48.87815" lon="2.28434">
        <ele>94.1</ele>
        <time>2015-07-13T19:49:37.811Z</time>
      </trkpt>
      <trkpt lat="48.87812" lon="2.28423">
        <ele>94.3</ele>
        <time>2015-07-13T19:49:39.844Z</time>
      </trkpt>
      <trkpt lat="48.87811" lon="2.28418">
        <ele>94.7</ele>
        <time>2015-07-13T19:49:40.857Z</time>
      </trkpt>
      <trkpt lat="48.87808" lon="2.28418">
        <ele>93.2</ele>
        <time>2015-07-13T19:50:02.929Z</time>
      </trkpt>
      <trkpt lat="48.87799" lon="2.28414">
        <ele>95.2</ele>
        <time>2015-07-13T19:50:03.850Z</time>
      </trkpt>
      <trkpt lat="48.87791" lon="2.28409">
        <ele>95.4</ele>
        <time>2015-07-13T19:50:06.844Z</time>
      </trkpt>
      <trkpt lat="48.87787" lon="2.28407">
        <ele>95.8</ele>
        <time>2015-07-13T19:50:07.826Z</time>
      </trkpt>
      <trkpt lat="48.8778" lon="2.284">
        <ele>95.5</ele>
        <time>2015-07-13T19:50:11.903Z</time>
      </trkpt>
      <trkpt lat="48.87778" lon="2.28399">
        <ele>95.4</ele>
        <time>2015-07-13T19:50:12.848Z</time>
      </trkpt>
      <trkpt lat="48.87772" lon="2.28398">
        <ele>95.5</ele>
        <time>2015-07-13T19:50:15.784Z</time>
      </trkpt>
      <trkpt lat="48.87769" lon="2.28398">
        <ele>95.5</ele>
        <time>2015-07-13T19:50:16.806Z</time>
      </trkpt>
      <trkpt lat="48.8776" lon="2.284">
        <ele>96.3</ele>
        <time>2015-07-13T19:50:19.837Z</time>
      </trkpt>
      <trkpt lat="48.87758" lon="2.28402">
        <ele>96.3</ele>
        <time>2015-07-13T19:50:20.842Z</time>
      </trkpt>
      <trkpt lat="48.87752" lon="2.2841">
        <ele>95.7</ele>
        <time>2015-07-13T19:50:24.092Z</time>
      </trkpt>
      <trkpt lat="48.8775" lon="2.28414">
        <ele>95.8</ele>
        <time>2015-07-13T19:50:24.816Z</time>
      </trkpt>
      <trkpt lat="48.87743" lon="2.28421">
        <ele>96.5</ele>
        <time>2015-07-13T19:50:27.897Z</time>
      </trkpt>
      <trkpt lat="48.87741" lon="2.28422">
        <ele>96.5</ele>
        <time>2015-07-13T19:50:28.779Z</time>
      </trkpt>
      <trkpt lat="48.87733" lon="2.28422">
        <ele>96.4</ele>
        <time>2015-07-13T19:50:31.794Z</time>
      </trkpt>
      <trkpt lat="48.87731" lon="2.2842">
        <ele>96.3</ele>
        <time>2015-07-13T19:50:32.806Z</time>
      </trkpt>
      <trkpt lat="48.87724" lon="2.28416">
        <ele>96.2</ele>
        <time>2015-07-13T19:50:35.858Z</time>
      </trkpt>
      <trkpt lat="48.87721" lon="2.28414">
        <ele>96.2</ele>
        <time>2015-07-13T19:50:36.857Z</time>
      </trkpt>
      <trkpt lat="48.87718" lon="2.28407">
        <ele>96.6</ele>
        <time>2015-07-13T19:50:40.828Z</time>
      </trkpt>
      <trkpt lat="48.87717" lon="2.28399">
        <ele>97.8</ele>
        <time>2015-07-13T19:50:41.863Z</time>
      </trkpt>
      <trkpt lat="48.8771" lon="2.28389">
        <ele>98</ele>
        <time>2015-07-13T19:50:49.648Z</time>
      </trkpt>
      <trkpt lat="48.87706" lon="2.28378">
        <ele>97.3</ele>
        <time>2015-07-13T19:50:49.770Z</time>
      </trkpt>
      <trkpt lat="48.87699" lon="2.28368">
        <ele>97.9</ele>
        <time>2015-07-13T19:50:53.862Z</time>
      </trkpt>
      <trkpt lat="48.87698" lon="2.28364">
        <ele>97.7</ele>
        <time>2015-07-13T19:50:54.915Z</time>
      </trkpt>
      <trkpt lat="48.87692" lon="2.28359">
        <ele>97.4</ele>
        <time>2015-07-13T19:50:56.831Z</time>
      </trkpt>
      <trkpt lat="48.8769" lon="2.28355">
        <ele>97.8</ele>
        <time>2015-07-13T19:50:57.858Z</time>
      </trkpt>
      <trkpt lat="48.87683" lon="2.28354">
        <ele>98.7</ele>
        <time>2015-07-13T19:50:59.919Z</time>
      </trkpt>
      <trkpt lat="48.87681" lon="2.28353">
        <ele>98.9</ele>
        <time>2015-07-13T19:51:00.816Z</time>
      </trkpt>
      <trkpt lat="48.87672" lon="2.28351">
        <ele>98.8</ele>
        <time>2015-07-13T19:51:05.047Z</time>
      </trkpt>
      <trkpt lat="48.8767" lon="2.28352">
        <ele>98.9</ele>
        <time>2015-07-13T19:51:05.902Z</time>
      </trkpt>
      <trkpt lat="48.87665" lon="2.28356">
        <ele>99.4</ele>
        <time>2015-07-13T19:51:07.871Z</time>
      </trkpt>
      <trkpt lat="48.87661" lon="2.2836">
        <ele>100.1</ele>
        <time>2015-07-13T19:51:08.792Z</time>
      </trkpt>
      <trkpt lat="48.87655" lon="2.28363">
        <ele>100.8</ele>
        <time>2015-07-13T19:51:10.835Z</time>
      </trkpt>
      <trkpt lat="48.87652" lon="2.28364">
        <ele>101</ele>
        <time>2015-07-13T19:51:11.850Z</time>
      </trkpt>
      <trkpt lat="48.87645" lon="2.2837">
        <ele>102</ele>
        <time>2015-07-13T19:51:14.017Z</time>
      </trkpt>
      <trkpt lat="48.87642" lon="2.28373">
        <ele>102.5</ele>
        <time>2015-07-13T19:51:14.823Z</time>
      </trkpt>
      <trkpt lat="48.87636" lon="2.28378">
        <ele>102.9</ele>
        <time>2015-07-13T19:51:16.820Z</time>
      </trkpt>
      <trkpt lat="48.87632" lon="2.2838">
        <ele>103</ele>
        <time>2015-07-13T19:51:17.841Z</time>
      </trkpt>
      <trkpt lat="48.87624" lon="2.28381">
        <ele>102.9</ele>
        <time>2015-07-13T19:51:19.836Z</time>
      </trkpt>
      <trkpt lat="48.87619" lon="2.28383">
        <ele>102.9</ele>
        <time>2015-07-13T19:51:20.840Z</time>
      </trkpt>
      <trkpt lat="48.87615" lon="2.28384">
        <ele>102.9</ele>
        <time>2015-07-13T19:51:21.853Z</time>
      </trkpt>
      <trkpt lat="48.8761" lon="2.28386">
        <ele>102.7</ele>
        <time>2015-07-13T19:51:22.866Z</time>
      </trkpt>
      <trkpt lat="48.87605" lon="2.28388">
        <ele>102.8</ele>
        <time>2015-07-13T19:51:23.887Z</time>
      </trkpt>
      <trkpt lat="48.876" lon="2.2839">
        <ele>103.2</ele>
        <time>2015-07-13T19:51:24.858Z</time>
      </trkpt>
      <trkpt lat="48.87595" lon="2.28391">
        <ele>103.4</ele>
        <time>2015-07-13T19:51:25.795Z</time>
      </trkpt>
      <trkpt lat="48.8759" lon="2.28395">
        <ele>103.5</ele>
        <time>2015-07-13T19:51:26.804Z</time>
      </trkpt>
      <trkpt lat="48.87585" lon="2.28396">
        <ele>103.4</ele>
        <time>2015-07-13T19:51:27.848Z</time>
      </trkpt>
      <trkpt lat="48.8758" lon="2.28399">
        <ele>103.3</ele>
        <time>2015-07-13T19:51:28.871Z</time>
      </trkpt>
      <trkpt lat="48.87574" lon="2.28401">
        <ele>103.1</ele>
        <time>2015-07-13T19:51:29.878Z</time>
      </trkpt>
      <trkpt lat="48.87568" lon="2.28403">
        <ele>103</ele>
        <time>2015-07-13T19:51:30.777Z</time>
      </trkpt>
      <trkpt lat="48.87563" lon="2.28405">
        <ele>103.1</ele>
        <time>2015-07-13T19:51:31.796Z</time>
      </trkpt>
      <trkpt lat="48.87557" lon="2.28407">
        <ele>103</ele>
        <time>2015-07-13T19:51:32.810Z</time>
      </trkpt>
      <trkpt lat="48.87551" lon="2.28408">
        <ele>103</ele>
        <time>2015-07-13T19:51:33.832Z</time>
      </trkpt>
      <trkpt lat="48.87544" lon="2.2841">
        <ele>103</ele>
        <time>2015-07-13T19:51:34.835Z</time>
      </trkpt>
      <trkpt lat="48.87538" lon="2.2841">
        <ele>102.9</ele>
        <time>2015-07-13T19:51:35.844Z</time>
      </trkpt>
      <trkpt lat="48.87531" lon="2.28411">
        <ele>103</ele>
        <time>2015-07-13T19:51:36.787Z</time>
      </trkpt>
      <trkpt lat="48.87524" lon="2.28412">
        <ele>103.2</ele>
        <time>2015-07-13T19:51:37.774Z</time>
      </trkpt>
      <trkpt lat="48.87517" lon="2.28411">
        <ele>103.4</ele>
        <time>2015-07-13T19:51:38.785Z</time>
      </trkpt>
      <trkpt lat="48.8751" lon="2.28409">
        <ele>103.8</ele>
        <time>2015-07-13T19:51:39.829Z</time>
      </trkpt>
      <trkpt lat="48.87504" lon="2.28411">
        <ele>103.8</ele>
        <time>2015-07-13T19:51:40.837Z</time>
      </trkpt>
      <trkpt lat="48.87498" lon="2.28412">
        <ele>104.2</ele>
        <time>2015-07-13T19:51:41.845Z</time>
      </trkpt>
      <trkpt lat="48.87492" lon="2.28413">
        <ele>104.4</ele>
        <time>2015-07-13T19:51:42.852Z</time>
      </trkpt>
      <trkpt lat="48.87486" lon="2.28412">
        <ele>104.7</ele>
        <time>2015-07-13T19:51:43.986Z</time>
      </trkpt>
      <trkpt lat="48.87479" lon="2.28414">
        <ele>105.5</ele>
        <time>2015-07-13T19:51:44.876Z</time>
      </trkpt>
      <trkpt lat="48.87473" lon="2.28416">
        <ele>106.2</ele>
        <time>2015-07-13T19:51:45.796Z</time>
      </trkpt>
      <trkpt lat="48.87466" lon="2.28418">
        <ele>106.9</ele>
        <time>2015-07-13T19:51:46.792Z</time>
      </trkpt>
      <trkpt lat="48.87458" lon="2.2842">
        <ele>107.9</ele>
        <time>2015-07-13T19:51:47.836Z</time>
      </trkpt>
      <trkpt lat="48.87452" lon="2.28423">
        <ele>108.1</ele>
        <time>2015-07-13T19:51:48.829Z</time>
      </trkpt>
      <trkpt lat="48.87445" lon="2.28427">
        <ele>108.3</ele>
        <time>2015-07-13T19:51:49.848Z</time>
      </trkpt>
      <trkpt lat="48.87438" lon="2.2843">
        <ele>108.1</ele>
        <time>2015-07-13T19:51:50.863Z</time>
      </trkpt>
      <trkpt lat="48.8743" lon="2.28432">
        <ele>107.7</ele>
        <time>2015-07-13T19:51:51.789Z</time>
      </trkpt>
      <trkpt lat="48.87424" lon="2.28434">
        <ele>108</ele>
        <time>2015-07-13T19:51:52.789Z</time>
      </trkpt>
      <trkpt lat="48.87417" lon="2.28436">
        <ele>108.1</ele>
        <time>2015-07-13T19:51:53.838Z</time>
      </trkpt>
      <trkpt lat="48.87411" lon="2.28437">
        <ele>108.2</ele>
        <time>2015-07-13T19:51:54.861Z</time>
      </trkpt>
      <trkpt lat="48.87404" lon="2.2844">
        <ele>108.7</ele>
        <time>2015-07-13T19:51:55.863Z</time>
      </trkpt>
      <trkpt lat="48.87397" lon="2.28441">
        <ele>108.7</ele>
        <time>2015-07-13T19:51:56.788Z</time>
      </trkpt>
      <trkpt lat="48.87388" lon="2.28441">
        <ele>109.6</ele>
        <time>2015-07-13T19:51:57.798Z</time>
      </trkpt>
      <trkpt lat="48.87381" lon="2.28441">
        <ele>110.4</ele>
        <time>2015-07-13T19:51:58.807Z</time>
      </trkpt>
      <trkpt lat="48.87374" lon="2.28442">
        <ele>110.4</ele>
        <time>2015-07-13T19:51:59.885Z</time>
      </trkpt>
      <trkpt lat="48.87368" lon="2.28443">
        <ele>110.6</ele>
        <time>2015-07-13T19:52:00.789Z</time>
      </trkpt>
      <trkpt lat="48.8736" lon="2.28444">
        <ele>110.4</ele>
        <time>2015-07-13T19:52:01.782Z</time>
      </trkpt>
      <trkpt lat="48.87353" lon="2.28442">
        <ele>110.4</ele>
        <time>2015-07-13T19:52:02.784Z</time>
      </trkpt>
      <trkpt lat="48.87345" lon="2.28441">
        <ele>110.1</ele>
        <time>2015-07-13T19:52:03.829Z</time>
      </trkpt>
      <trkpt lat="48.87338" lon="2.28439">
        <ele>109.9</ele>
        <time>2015-07-13T19:52:04.838Z</time>
      </trkpt>
      <trkpt lat="48.87333" lon="2.2844">
        <ele>109.7</ele>
        <time>2015-07-13T19:52:05.846Z</time>
      </trkpt>
      <trkpt lat="48.87327" lon="2.28438">
        <ele>109.7</ele>
        <time>2015-07-13T19:52:06.851Z</time>
      </trkpt>
      <trkpt lat="48.87321" lon="2.28435">
        <ele>109.4</ele>
        <time>2015-07-13T19:52:07.865Z</time>
      </trkpt>
      <trkpt lat="48.87316" lon="2.28433">
        <ele>109.1</ele>
        <time>2015-07-13T19:52:08.869Z</time>
      </trkpt>
      <trkpt lat="48.87307" lon="2.28437">
        <ele>107.7</ele>
        <time>2015-07-13T19:52:10.834Z</time>
      </trkpt>
      <trkpt lat="48.87304" lon="2.28439">
        <ele>107.4</ele>
        <time>2015-07-13T19:52:11.869Z</time>
      </trkpt>
      <trkpt lat="48.87298" lon="2.28442">
        <ele>107.6</ele>
        <time>2015-07-13T19:52:13.883Z</time>
      </trkpt>
      <trkpt lat="48.87294" lon="2.28442">
        <ele>107.1</ele>
        <time>2015-07-13T19:52:14.823Z</time>
      </trkpt>
      <trkpt lat="48.87285" lon="2.28442">
        <ele>105.9</ele>
        <time>2015-07-13T19:52:17.896Z</time>
      </trkpt>
      <trkpt lat="48.87282" lon="2.28442">
        <ele>106.1</ele>
        <time>2015-07-13T19:52:18.832Z</time>
      </trkpt>
      <trkpt lat="48.87273" lon="2.28439">
        <ele>105.7</ele>
        <time>2015-07-13T19:52:21.855Z</time>
      </trkpt>
      <trkpt lat="48.8727" lon="2.28439">
        <ele>104.4</ele>
        <time>2015-07-13T19:52:22.846Z</time>
      </trkpt>
      <trkpt lat="48.87263" lon="2.28438">
        <ele>104</ele>
        <time>2015-07-13T19:52:25.809Z</time>
      </trkpt>
      <trkpt lat="48.87261" lon="2.28438">
        <ele>104</ele>
        <time>2015-07-13T19:52:26.845Z</time>
      </trkpt>
      <trkpt lat="48.87253" lon="2.28442">
        <ele>91.8</ele>
        <time>2015-07-13T19:53:09.839Z</time>
      </trkpt>
      <trkpt lat="48.87251" lon="2.28443">
        <ele>92.5</ele>
        <time>2015-07-13T19:53:10.861Z</time>
      </trkpt>
      <trkpt lat="48.87248" lon="2.28444">
        <ele>92.5</ele>
        <time>2015-07-13T19:53:17.870Z</time>
      </trkpt>
      <trkpt lat="48.8724" lon="2.28448">
        <ele>93.1</ele>
        <time>2015-07-13T19:53:18.869Z</time>
      </trkpt>
      <trkpt lat="48.87234" lon="2.28447">
        <ele>93.9</ele>
        <time>2015-07-13T19:53:21.867Z</time>
      </trkpt>
      <trkpt lat="48.87231" lon="2.28446">
        <ele>94.2</ele>
        <time>2015-07-13T19:53:22.832Z</time>
      </trkpt>
      <trkpt lat="48.87224" lon="2.28439">
        <ele>94.9</ele>
        <time>2015-07-13T19:53:25.938Z</time>
      </trkpt>
      <trkpt lat="48.87222" lon="2.28436">
        <ele>94.7</ele>
        <time>2015-07-13T19:53:26.878Z</time>
      </trkpt>
      <trkpt lat="48.87216" lon="2.28426">
        <ele>94.7</ele>
        <time>2015-07-13T19:53:30.061Z</time>
      </trkpt>
      <trkpt lat="48.87214" lon="2.28424">
        <ele>95</ele>
        <time>2015-07-13T19:53:30.818Z</time>
      </trkpt>
      <trkpt lat="48.87209" lon="2.28418">
        <ele>95.9</ele>
        <time>2015-07-13T19:53:34.158Z</time>
      </trkpt>
      <trkpt lat="48.87206" lon="2.28416">
        <ele>96.1</ele>
        <time>2015-07-13T19:53:34.817Z</time>
      </trkpt>
      <trkpt lat="48.87202" lon="2.28408">
        <ele>95.7</ele>
        <time>2015-07-13T19:53:36.856Z</time>
      </trkpt>
      <trkpt lat="48.872" lon="2.28404">
        <ele>95.8</ele>
        <time>2015-07-13T19:53:37.880Z</time>
      </trkpt>
      <trkpt lat="48.87196" lon="2.28396">
        <ele>95.6</ele>
        <time>2015-07-13T19:53:39.848Z</time>
      </trkpt>
      <trkpt lat="48.87194" lon="2.28392">
        <ele>95.5</ele>
        <time>2015-07-13T19:53:40.884Z</time>
      </trkpt>
      <trkpt lat="48.87189" lon="2.28388">
        <ele>95.2</ele>
        <time>2015-07-13T19:53:42.841Z</time>
      </trkpt>
      <trkpt lat="48.87186" lon="2.28386">
        <ele>95</ele>
        <time>2015-07-13T19:53:43.899Z</time>
      </trkpt>
      <trkpt lat="48.87183" lon="2.28379">
        <ele>94.9</ele>
        <time>2015-07-13T19:53:44.998Z</time>
      </trkpt>
      <trkpt lat="48.87181" lon="2.28371">
        <ele>95</ele>
        <time>2015-07-13T19:53:45.821Z</time>
      </trkpt>
      <trkpt lat="48.87177" lon="2.28365">
        <ele>95.1</ele>
        <time>2015-07-13T19:53:46.839Z</time>
      </trkpt>
      <trkpt lat="48.87173" lon="2.28358">
        <ele>95.1</ele>
        <time>2015-07-13T19:53:47.910Z</time>
      </trkpt>
      <trkpt lat="48.87168" lon="2.28352">
        <ele>95.3</ele>
        <time>2015-07-13T19:53:48.802Z</time>
      </trkpt>
      <trkpt lat="48.87163" lon="2.28345">
        <ele>95.3</ele>
        <time>2015-07-13T19:53:49.811Z</time>
      </trkpt>
      <trkpt lat="48.87158" lon="2.28339">
        <ele>95.4</ele>
        <time>2015-07-13T19:53:51.519Z</time>
      </trkpt>
      <trkpt lat="48.87143" lon="2.28341">
        <ele>95.1</ele>
        <time>2015-07-13T19:53:51.898Z</time>
      </trkpt>
      <trkpt lat="48.87136" lon="2.28338">
        <ele>95</ele>
        <time>2015-07-13T19:53:52.836Z</time>
      </trkpt>
      <trkpt lat="48.87131" lon="2.28334">
        <ele>95.2</ele>
        <time>2015-07-13T19:53:53.840Z</time>
      </trkpt>
      <trkpt lat="48.87126" lon="2.2833">
        <ele>95.2</ele>
        <time>2015-07-13T19:53:54.851Z</time>
      </trkpt>
      <trkpt lat="48.8712" lon="2.28325">
        <ele>95.1</ele>
        <time>2015-07-13T19:53:55.779Z</time>
      </trkpt>
      <trkpt lat="48.87115" lon="2.28323">
        <ele>95.2</ele>
        <time>2015-07-13T19:53:56.793Z</time>
      </trkpt>
      <trkpt lat="48.87109" lon="2.28322">
        <ele>95.4</ele>
        <time>2015-07-13T19:53:57.802Z</time>
      </trkpt>
      <trkpt lat="48.87105" lon="2.28321">
        <ele>95.6</ele>
        <time>2015-07-13T19:53:58.815Z</time>
      </trkpt>
      <trkpt lat="48.87101" lon="2.28319">
        <ele>95.8</ele>
        <time>2015-07-13T19:53:59.861Z</time>
      </trkpt>
      <trkpt lat="48.87097" lon="2.28316">
        <ele>96.1</ele>
        <time>2015-07-13T19:54:00.850Z</time>
      </trkpt>
      <trkpt lat="48.87092" lon="2.28312">
        <ele>96.5</ele>
        <time>2015-07-13T19:54:01.778Z</time>
      </trkpt>
      <trkpt lat="48.87085" lon="2.28305">
        <ele>97.1</ele>
        <time>2015-07-13T19:54:03.802Z</time>
      </trkpt>
      <trkpt lat="48.87081" lon="2.28302">
        <ele>97.2</ele>
        <time>2015-07-13T19:54:04.815Z</time>
      </trkpt>
      <trkpt lat="48.87076" lon="2.283">
        <ele>97.3</ele>
        <time>2015-07-13T19:54:05.830Z</time>
      </trkpt>
      <trkpt lat="48.87071" lon="2.28299">
        <ele>97.3</ele>
        <time>2015-07-13T19:54:06.841Z</time>
      </trkpt>
      <trkpt lat="48.87066" lon="2.28296">
        <ele>97.3</ele>
        <time>2015-07-13T19:54:07.756Z</time>
      </trkpt>
      <trkpt lat="48.87062" lon="2.28293">
        <ele>97.3</ele>
        <time>2015-07-13T19:54:08.755Z</time>
      </trkpt>
      <trkpt lat="48.87055" lon="2.28288">
        <ele>97.3</ele>
        <time>2015-07-13T19:54:09.780Z</time>
      </trkpt>
      <trkpt lat="48.87048" lon="2.28288">
        <ele>97.2</ele>
        <time>2015-07-13T19:54:10.788Z</time>
      </trkpt>
      <trkpt lat="48.87042" lon="2.28283">
        <ele>98.1</ele>
        <time>2015-07-13T19:54:13.873Z</time>
      </trkpt>
      <trkpt lat="48.8704" lon="2.28282">
        <ele>99.2</ele>
        <time>2015-07-13T19:54:14.811Z</time>
      </trkpt>
      <trkpt lat="48.87039" lon="2.28281">
        <ele>99.6</ele>
        <time>2015-07-13T19:54:29.822Z</time>
      </trkpt>
      <trkpt lat="48.87028" lon="2.28276">
        <ele>110.2</ele>
        <time>2015-07-13T19:54:30.788Z</time>
      </trkpt>
      <trkpt lat="48.87021" lon="2.28269">
        <ele>111</ele>
        <time>2015-07-13T19:54:34.806Z</time>
      </trkpt>
      <trkpt lat="48.87019" lon="2.2827">
        <ele>111</ele>
        <time>2015-07-13T19:54:35.823Z</time>
      </trkpt>
      <trkpt lat="48.87015" lon="2.28265">
        <ele>111.7</ele>
        <time>2015-07-13T19:54:37.779Z</time>
      </trkpt>
      <trkpt lat="48.87011" lon="2.28262">
        <ele>111.8</ele>
        <time>2015-07-13T19:54:38.818Z</time>
      </trkpt>
      <trkpt lat="48.87005" lon="2.28257">
        <ele>111.9</ele>
        <time>2015-07-13T19:54:40.840Z</time>
      </trkpt>
      <trkpt lat="48.87001" lon="2.28255">
        <ele>112.1</ele>
        <time>2015-07-13T19:54:41.864Z</time>
      </trkpt>
      <trkpt lat="48.86997" lon="2.28251">
        <ele>112.5</ele>
        <time>2015-07-13T19:54:42.800Z</time>
      </trkpt>
      <trkpt lat="48.86993" lon="2.28249">
        <ele>112.6</ele>
        <time>2015-07-13T19:54:43.806Z</time>
      </trkpt>
      <trkpt lat="48.86989" lon="2.28245">
        <ele>112.8</ele>
        <time>2015-07-13T19:54:44.848Z</time>
      </trkpt>
      <trkpt lat="48.86984" lon="2.2824">
        <ele>112.9</ele>
        <time>2015-07-13T19:54:45.783Z</time>
      </trkpt>
      <trkpt lat="48.86978" lon="2.28236">
        <ele>112.7</ele>
        <time>2015-07-13T19:54:46.778Z</time>
      </trkpt>
      <trkpt lat="48.86971" lon="2.28231">
        <ele>113.1</ele>
        <time>2015-07-13T19:54:47.841Z</time>
      </trkpt>
      <trkpt lat="48.86963" lon="2.28225">
        <ele>114.4</ele>
        <time>2015-07-13T19:54:48.821Z</time>
      </trkpt>
      <trkpt lat="48.86956" lon="2.2822">
        <ele>114.7</ele>
        <time>2015-07-13T19:54:49.837Z</time>
      </trkpt>
      <trkpt lat="48.86948" lon="2.28216">
        <ele>114.8</ele>
        <time>2015-07-13T19:54:50.763Z</time>
      </trkpt>
      <trkpt lat="48.86941" lon="2.28211">
        <ele>115.2</ele>
        <time>2015-07-13T19:54:51.764Z</time>
      </trkpt>
      <trkpt lat="48.86935" lon="2.28207">
        <ele>115.3</ele>
        <time>2015-07-13T19:54:52.786Z</time>
      </trkpt>
      <trkpt lat="48.86928" lon="2.28203">
        <ele>115.2</ele>
        <time>2015-07-13T19:54:53.821Z</time>
      </trkpt>
      <trkpt lat="48.86921" lon="2.28199">
        <ele>115</ele>
        <time>2015-07-13T19:54:54.819Z</time>
      </trkpt>
      <trkpt lat="48.86915" lon="2.28194">
        <ele>115</ele>
        <time>2015-07-13T19:54:55.827Z</time>
      </trkpt>
      <trkpt lat="48.86909" lon="2.28189">
        <ele>114.6</ele>
        <time>2015-07-13T19:54:56.849Z</time>
      </trkpt>
      <trkpt lat="48.86901" lon="2.28186">
        <ele>114.6</ele>
        <time>2015-07-13T19:54:57.856Z</time>
      </trkpt>
      <trkpt lat="48.86896" lon="2.28181">
        <ele>114.4</ele>
        <time>2015-07-13T19:54:59.037Z</time>
      </trkpt>
      <trkpt lat="48.8689" lon="2.28176">
        <ele>114.3</ele>
        <time>2015-07-13T19:54:59.926Z</time>
      </trkpt>
      <trkpt lat="48.86884" lon="2.28172">
        <ele>114.3</ele>
        <time>2015-07-13T19:55:00.790Z</time>
      </trkpt>
      <trkpt lat="48.86876" lon="2.28167">
        <ele>114.5</ele>
        <time>2015-07-13T19:55:01.804Z</time>
      </trkpt>
      <trkpt lat="48.86869" lon="2.28162">
        <ele>114.5</ele>
        <time>2015-07-13T19:55:02.819Z</time>
      </trkpt>
      <trkpt lat="48.86862" lon="2.28159">
        <ele>114.5</ele>
        <time>2015-07-13T19:55:03.840Z</time>
      </trkpt>
      <trkpt lat="48.86858" lon="2.28154">
        <ele>114.1</ele>
        <time>2015-07-13T19:55:04.868Z</time>
      </trkpt>
      <trkpt lat="48.86851" lon="2.28153">
        <ele>113.9</ele>
        <time>2015-07-13T19:55:05.797Z</time>
      </trkpt>
      <trkpt lat="48.86845" lon="2.28151">
        <ele>113.7</ele>
        <time>2015-07-13T19:55:06.770Z</time>
      </trkpt>
      <trkpt lat="48.86841" lon="2.28147">
        <ele>113.6</ele>
        <time>2015-07-13T19:55:07.782Z</time>
      </trkpt>
      <trkpt lat="48.86837" lon="2.28146">
        <ele>113.6</ele>
        <time>2015-07-13T19:55:08.796Z</time>
      </trkpt>
      <trkpt lat="48.86831" lon="2.28144">
        <ele>113.4</ele>
        <time>2015-07-13T19:55:09.803Z</time>
      </trkpt>
      <trkpt lat="48.86823" lon="2.28143">
        <ele>113.4</ele>
        <time>2015-07-13T19:55:10.806Z</time>
      </trkpt>
      <trkpt lat="48.86817" lon="2.28141">
        <ele>113.6</ele>
        <time>2015-07-13T19:55:11.817Z</time>
      </trkpt>
      <trkpt lat="48.86812" lon="2.28138">
        <ele>113.8</ele>
        <time>2015-07-13T19:55:12.824Z</time>
      </trkpt>
      <trkpt lat="48.86807" lon="2.2813">
        <ele>113.7</ele>
        <time>2015-07-13T19:55:13.834Z</time>
      </trkpt>
      <trkpt lat="48.86799" lon="2.28123">
        <ele>113.4</ele>
        <time>2015-07-13T19:55:15.846Z</time>
      </trkpt>
      <trkpt lat="48.86796" lon="2.2812">
        <ele>113.3</ele>
        <time>2015-07-13T19:55:16.764Z</time>
      </trkpt>
      <trkpt lat="48.86789" lon="2.28113">
        <ele>113.4</ele>
        <time>2015-07-13T19:55:20.411Z</time>
      </trkpt>
      <trkpt lat="48.86787" lon="2.28111">
        <ele>113.8</ele>
        <time>2015-07-13T19:55:20.869Z</time>
      </trkpt>
      <trkpt lat="48.86779" lon="2.2811">
        <ele>111.7</ele>
        <time>2015-07-13T19:55:30.656Z</time>
      </trkpt>
      <trkpt lat="48.86777" lon="2.28107">
        <ele>111.8</ele>
        <time>2015-07-13T19:55:31.847Z</time>
      </trkpt>
      <trkpt lat="48.86773" lon="2.28101">
        <ele>112.2</ele>
        <time>2015-07-13T19:55:33.884Z</time>
      </trkpt>
      <trkpt lat="48.8677" lon="2.28098">
        <ele>112.7</ele>
        <time>2015-07-13T19:55:34.793Z</time>
      </trkpt>
      <trkpt lat="48.86765" lon="2.28089">
        <ele>113</ele>
        <time>2015-07-13T19:55:36.855Z</time>
      </trkpt>
      <trkpt lat="48.86761" lon="2.28086">
        <ele>112.6</ele>
        <time>2015-07-13T19:55:37.872Z</time>
      </trkpt>
      <trkpt lat="48.86756" lon="2.28084">
        <ele>112.2</ele>
        <time>2015-07-13T19:55:38.927Z</time>
      </trkpt>
      <trkpt lat="48.86749" lon="2.28084">
        <ele>112.1</ele>
        <time>2015-07-13T19:55:39.778Z</time>
      </trkpt>
      <trkpt lat="48.86743" lon="2.28084">
        <ele>112.2</ele>
        <time>2015-07-13T19:55:40.832Z</time>
      </trkpt>
      <trkpt lat="48.86738" lon="2.28082">
        <ele>112.4</ele>
        <time>2015-07-13T19:55:41.844Z</time>
      </trkpt>
      <trkpt lat="48.8673" lon="2.28078">
        <ele>112.6</ele>
        <time>2015-07-13T19:55:43.825Z</time>
      </trkpt>
      <trkpt lat="48.86725" lon="2.28076">
        <ele>112.7</ele>
        <time>2015-07-13T19:55:44.816Z</time>
      </trkpt>
      <trkpt lat="48.8672" lon="2.28071">
        <ele>112.8</ele>
        <time>2015-07-13T19:55:45.809Z</time>
      </trkpt>
      <trkpt lat="48.86715" lon="2.28066">
        <ele>112.8</ele>
        <time>2015-07-13T19:55:46.783Z</time>
      </trkpt>
      <trkpt lat="48.86711" lon="2.2806">
        <ele>112.7</ele>
        <time>2015-07-13T19:55:47.840Z</time>
      </trkpt>
      <trkpt lat="48.86706" lon="2.28057">
        <ele>112.7</ele>
        <time>2015-07-13T19:55:48.991Z</time>
      </trkpt>
      <trkpt lat="48.86701" lon="2.28055">
        <ele>112.5</ele>
        <time>2015-07-13T19:55:49.836Z</time>
      </trkpt>
      <trkpt lat="48.86696" lon="2.28051">
        <ele>112.4</ele>
        <time>2015-07-13T19:55:50.875Z</time>
      </trkpt>
      <trkpt lat="48.86689" lon="2.28044">
        <ele>112.1</ele>
        <time>2015-07-13T19:55:51.836Z</time>
      </trkpt>
      <trkpt lat="48.86682" lon="2.28039">
        <ele>112</ele>
        <time>2015-07-13T19:55:52.845Z</time>
      </trkpt>
      <trkpt lat="48.86674" lon="2.28035">
        <ele>111.9</ele>
        <time>2015-07-13T19:55:53.847Z</time>
      </trkpt>
      <trkpt lat="48.8667" lon="2.28031">
        <ele>111.8</ele>
        <time>2015-07-13T19:55:54.859Z</time>
      </trkpt>
      <trkpt lat="48.86665" lon="2.28029">
        <ele>111.9</ele>
        <time>2015-07-13T19:55:55.755Z</time>
      </trkpt>
      <trkpt lat="48.86659" lon="2.28026">
        <ele>112</ele>
        <time>2015-07-13T19:55:56.778Z</time>
      </trkpt>
      <trkpt lat="48.86655" lon="2.28021">
        <ele>112.1</ele>
        <time>2015-07-13T19:55:57.784Z</time>
      </trkpt>
      <trkpt lat="48.8665" lon="2.28016">
        <ele>112</ele>
        <time>2015-07-13T19:55:58.793Z</time>
      </trkpt>
      <trkpt lat="48.86646" lon="2.28011">
        <ele>111.9</ele>
        <time>2015-07-13T19:55:59.897Z</time>
      </trkpt>
      <trkpt lat="48.8664" lon="2.28005">
        <ele>112.2</ele>
        <time>2015-07-13T19:56:00.783Z</time>
      </trkpt>
      <trkpt lat="48.86635" lon="2.27998">
        <ele>112.4</ele>
        <time>2015-07-13T19:56:01.788Z</time>
      </trkpt>
      <trkpt lat="48.86629" lon="2.2799">
        <ele>112.8</ele>
        <time>2015-07-13T19:56:02.803Z</time>
      </trkpt>
      <trkpt lat="48.86623" lon="2.27984">
        <ele>113</ele>
        <time>2015-07-13T19:56:03.834Z</time>
      </trkpt>
      <trkpt lat="48.86618" lon="2.27978">
        <ele>113.2</ele>
        <time>2015-07-13T19:56:04.838Z</time>
      </trkpt>
      <trkpt lat="48.86613" lon="2.27974">
        <ele>113.5</ele>
        <time>2015-07-13T19:56:05.867Z</time>
      </trkpt>
      <trkpt lat="48.86608" lon="2.27971">
        <ele>113.8</ele>
        <time>2015-07-13T19:56:06.767Z</time>
      </trkpt>
      <trkpt lat="48.86602" lon="2.27969">
        <ele>114.2</ele>
        <time>2015-07-13T19:56:07.798Z</time>
      </trkpt>
      <trkpt lat="48.86596" lon="2.27966">
        <ele>114.3</ele>
        <time>2015-07-13T19:56:08.790Z</time>
      </trkpt>
      <trkpt lat="48.8659" lon="2.27962">
        <ele>114.4</ele>
        <time>2015-07-13T19:56:09.749Z</time>
      </trkpt>
      <trkpt lat="48.86584" lon="2.27957">
        <ele>114.7</ele>
        <time>2015-07-13T19:56:10.799Z</time>
      </trkpt>
      <trkpt lat="48.86578" lon="2.27953">
        <ele>114.9</ele>
        <time>2015-07-13T19:56:11.809Z</time>
      </trkpt>
      <trkpt lat="48.86573" lon="2.27944">
        <ele>115.4</ele>
        <time>2015-07-13T19:56:12.814Z</time>
      </trkpt>
      <trkpt lat="48.86567" lon="2.27938">
        <ele>115.5</ele>
        <time>2015-07-13T19:56:13.819Z</time>
      </trkpt>
      <trkpt lat="48.86562" lon="2.27931">
        <ele>115.6</ele>
        <time>2015-07-13T19:56:14.841Z</time>
      </trkpt>
      <trkpt lat="48.86556" lon="2.27925">
        <ele>115.6</ele>
        <time>2015-07-13T19:56:15.853Z</time>
      </trkpt>
      <trkpt lat="48.86551" lon="2.27919">
        <ele>115.8</ele>
        <time>2015-07-13T19:56:16.801Z</time>
      </trkpt>
      <trkpt lat="48.86546" lon="2.2791">
        <ele>115.6</ele>
        <time>2015-07-13T19:56:17.799Z</time>
      </trkpt>
      <trkpt lat="48.86542" lon="2.279">
        <ele>115.2</ele>
        <time>2015-07-13T19:56:18.813Z</time>
      </trkpt>
      <trkpt lat="48.86536" lon="2.27892">
        <ele>115.1</ele>
        <time>2015-07-13T19:56:19.839Z</time>
      </trkpt>
      <trkpt lat="48.86531" lon="2.27883">
        <ele>114.8</ele>
        <time>2015-07-13T19:56:20.847Z</time>
      </trkpt>
      <trkpt lat="48.86526" lon="2.27876">
        <ele>114.1</ele>
        <time>2015-07-13T19:56:21.782Z</time>
      </trkpt>
      <trkpt lat="48.86517" lon="2.27872">
        <ele>114.7</ele>
        <time>2015-07-13T19:56:22.783Z</time>
      </trkpt>
      <trkpt lat="48.86509" lon="2.27866">
        <ele>114.8</ele>
        <time>2015-07-13T19:56:23.820Z</time>
      </trkpt>
      <trkpt lat="48.86502" lon="2.27859">
        <ele>114.5</ele>
        <time>2015-07-13T19:56:24.835Z</time>
      </trkpt>
      <trkpt lat="48.86496" lon="2.27852">
        <ele>114.4</ele>
        <time>2015-07-13T19:56:25.849Z</time>
      </trkpt>
      <trkpt lat="48.8649" lon="2.27845">
        <ele>113.9</ele>
        <time>2015-07-13T19:56:26.784Z</time>
      </trkpt>
      <trkpt lat="48.86483" lon="2.27839">
        <ele>113.9</ele>
        <time>2015-07-13T19:56:27.790Z</time>
      </trkpt>
      <trkpt lat="48.86476" lon="2.27831">
        <ele>114.2</ele>
        <time>2015-07-13T19:56:28.821Z</time>
      </trkpt>
      <trkpt lat="48.8647" lon="2.27825">
        <ele>114.3</ele>
        <time>2015-07-13T19:56:29.846Z</time>
      </trkpt>
      <trkpt lat="48.86464" lon="2.2782">
        <ele>114.2</ele>
        <time>2015-07-13T19:56:30.768Z</time>
      </trkpt>
      <trkpt lat="48.86458" lon="2.27814">
        <ele>114</ele>
        <time>2015-07-13T19:56:31.771Z</time>
      </trkpt>
      <trkpt lat="48.86452" lon="2.27808">
        <ele>113.9</ele>
        <time>2015-07-13T19:56:32.775Z</time>
      </trkpt>
      <trkpt lat="48.86447" lon="2.27803">
        <ele>114.2</ele>
        <time>2015-07-13T19:56:33.803Z</time>
      </trkpt>
      <trkpt lat="48.86441" lon="2.27797">
        <ele>113.8</ele>
        <time>2015-07-13T19:56:34.997Z</time>
      </trkpt>
      <trkpt lat="48.86436" lon="2.27792">
        <ele>113.6</ele>
        <time>2015-07-13T19:56:35.858Z</time>
      </trkpt>
      <trkpt lat="48.86432" lon="2.27786">
        <ele>113.3</ele>
        <time>2015-07-13T19:56:36.773Z</time>
      </trkpt>
      <trkpt lat="48.86427" lon="2.2778">
        <ele>113.2</ele>
        <time>2015-07-13T19:56:37.770Z</time>
      </trkpt>
      <trkpt lat="48.86422" lon="2.27776">
        <ele>113</ele>
        <time>2015-07-13T19:56:38.780Z</time>
      </trkpt>
      <trkpt lat="48.86417" lon="2.27772">
        <ele>113.3</ele>
        <time>2015-07-13T19:56:39.838Z</time>
      </trkpt>
      <trkpt lat="48.86409" lon="2.27767">
        <ele>113.9</ele>
        <time>2015-07-13T19:56:41.862Z</time>
      </trkpt>
      <trkpt lat="48.86406" lon="2.27766">
        <ele>114.6</ele>
        <time>2015-07-13T19:56:42.848Z</time>
      </trkpt>
      <trkpt lat="48.8641" lon="2.27754">
        <ele>113.3</ele>
        <time>2015-07-13T19:57:03.857Z</time>
      </trkpt>
      <trkpt lat="48.86409" lon="2.2775">
        <ele>113.3</ele>
        <time>2015-07-13T19:57:04.817Z</time>
      </trkpt>
      <trkpt lat="48.86404" lon="2.27742">
        <ele>113.8</ele>
        <time>2015-07-13T19:57:06.770Z</time>
      </trkpt>
      <trkpt lat="48.86402" lon="2.27738">
        <ele>113.8</ele>
        <time>2015-07-13T19:57:07.928Z</time>
      </trkpt>
      <trkpt lat="48.86396" lon="2.27728">
        <ele>114.4</ele>
        <time>2015-07-13T19:57:10.843Z</time>
      </trkpt>
      <trkpt lat="48.86393" lon="2.27726">
        <ele>114.8</ele>
        <time>2015-07-13T19:57:11.856Z</time>
      </trkpt>
      <trkpt lat="48.86389" lon="2.27717">
        <ele>115.3</ele>
        <time>2015-07-13T19:57:57.885Z</time>
      </trkpt>
      <trkpt lat="48.86405" lon="2.27668">
        <ele>114.7</ele>
        <time>2015-07-13T19:57:58.806Z</time>
      </trkpt>
      <trkpt lat="48.86405" lon="2.27666">
        <ele>115.2</ele>
        <time>2015-07-13T19:57:59.899Z</time>
      </trkpt>
      <trkpt lat="48.86404" lon="2.27665">
        <ele>115.4</ele>
        <time>2015-07-13T19:58:00.811Z</time>
      </trkpt>
      <trkpt lat="48.86404" lon="2.27664">
        <ele>115.5</ele>
        <time>2015-07-13T19:58:16.828Z</time>
      </trkpt>
      <trkpt lat="48.86402" lon="2.27662">
        <ele>113</ele>
        <time>2015-07-13T19:58:17.839Z</time>
      </trkpt>
      <trkpt lat="48.86406" lon="2.27657">
        <ele>112.7</ele>
        <time>2015-07-13T19:58:21.792Z</time>
      </trkpt>
      <trkpt lat="48.86406" lon="2.27658">
        <ele>112.5</ele>
        <time>2015-07-13T19:58:22.829Z</time>
      </trkpt>
      <trkpt lat="48.86405" lon="2.27658">
        <ele>112.4</ele>
        <time>2015-07-13T19:58:46.958Z</time>
      </trkpt>
      <trkpt lat="48.86406" lon="2.27667">
        <ele>108.5</ele>
        <time>2015-07-13T19:58:47.851Z</time>
      </trkpt>
      <trkpt lat="48.86405" lon="2.27663">
        <ele>108.4</ele>
        <time>2015-07-13T19:59:49.818Z</time>
      </trkpt>
      <trkpt lat="48.8639" lon="2.27713">
        <ele>111.8</ele>
        <time>2015-07-13T19:59:50.844Z</time>
      </trkpt>
      <trkpt lat="48.86382" lon="2.27715">
        <ele>113</ele>
        <time>2015-07-13T20:00:01.841Z</time>
      </trkpt>
      <trkpt lat="48.86379" lon="2.27713">
        <ele>112.7</ele>
        <time>2015-07-13T20:00:02.900Z</time>
      </trkpt>
      <trkpt lat="48.86372" lon="2.27707">
        <ele>112.4</ele>
        <time>2015-07-13T20:00:04.799Z</time>
      </trkpt>
      <trkpt lat="48.86369" lon="2.27704">
        <ele>112.4</ele>
        <time>2015-07-13T20:00:05.863Z</time>
      </trkpt>
      <trkpt lat="48.86362" lon="2.27697">
        <ele>112.1</ele>
        <time>2015-07-13T20:00:07.850Z</time>
      </trkpt>
      <trkpt lat="48.86359" lon="2.27693">
        <ele>111.8</ele>
        <time>2015-07-13T20:00:08.845Z</time>
      </trkpt>
      <trkpt lat="48.86354" lon="2.27683">
        <ele>111.1</ele>
        <time>2015-07-13T20:00:10.936Z</time>
      </trkpt>
      <trkpt lat="48.8635" lon="2.27679">
        <ele>110.8</ele>
        <time>2015-07-13T20:00:11.951Z</time>
      </trkpt>
      <trkpt lat="48.86345" lon="2.27676">
        <ele>110.5</ele>
        <time>2015-07-13T20:00:12.789Z</time>
      </trkpt>
      <trkpt lat="48.86341" lon="2.27672">
        <ele>110.4</ele>
        <time>2015-07-13T20:00:13.814Z</time>
      </trkpt>
      <trkpt lat="48.86333" lon="2.27665">
        <ele>110.2</ele>
        <time>2015-07-13T20:00:15.849Z</time>
      </trkpt>
      <trkpt lat="48.86329" lon="2.27662">
        <ele>110.2</ele>
        <time>2015-07-13T20:00:16.869Z</time>
      </trkpt>
      <trkpt lat="48.86322" lon="2.27656">
        <ele>110.4</ele>
        <time>2015-07-13T20:00:18.767Z</time>
      </trkpt>
      <trkpt lat="48.86321" lon="2.27651">
        <ele>110.9</ele>
        <time>2015-07-13T20:00:19.778Z</time>
      </trkpt>
      <trkpt lat="48.86316" lon="2.27648">
        <ele>111</ele>
        <time>2015-07-13T20:00:20.805Z</time>
      </trkpt>
      <trkpt lat="48.8631" lon="2.27646">
        <ele>111.1</ele>
        <time>2015-07-13T20:00:21.756Z</time>
      </trkpt>
      <trkpt lat="48.86302" lon="2.27642">
        <ele>111.5</ele>
        <time>2015-07-13T20:00:23.798Z</time>
      </trkpt>
      <trkpt lat="48.86297" lon="2.2764">
        <ele>111.5</ele>
        <time>2015-07-13T20:00:24.810Z</time>
      </trkpt>
      <trkpt lat="48.86292" lon="2.27639">
        <ele>111.5</ele>
        <time>2015-07-13T20:00:25.830Z</time>
      </trkpt>
      <trkpt lat="48.86286" lon="2.27637">
        <ele>111.7</ele>
        <time>2015-07-13T20:00:26.762Z</time>
      </trkpt>
      <trkpt lat="48.86279" lon="2.27635">
        <ele>111.3</ele>
        <time>2015-07-13T20:00:28.813Z</time>
      </trkpt>
      <trkpt lat="48.86275" lon="2.27633">
        <ele>110.6</ele>
        <time>2015-07-13T20:00:29.891Z</time>
      </trkpt>
      <trkpt lat="48.86268" lon="2.27628">
        <ele>110.2</ele>
        <time>2015-07-13T20:00:31.794Z</time>
      </trkpt>
      <trkpt lat="48.86265" lon="2.27624">
        <ele>110.5</ele>
        <time>2015-07-13T20:00:32.799Z</time>
      </trkpt>
      <trkpt lat="48.86258" lon="2.27617">
        <ele>111.1</ele>
        <time>2015-07-13T20:00:34.867Z</time>
      </trkpt>
      <trkpt lat="48.86254" lon="2.27613">
        <ele>111</ele>
        <time>2015-07-13T20:00:35.865Z</time>
      </trkpt>
      <trkpt lat="48.86249" lon="2.2761">
        <ele>111.1</ele>
        <time>2015-07-13T20:00:36.801Z</time>
      </trkpt>
      <trkpt lat="48.86243" lon="2.27609">
        <ele>111.6</ele>
        <time>2015-07-13T20:00:37.819Z</time>
      </trkpt>
      <trkpt lat="48.86238" lon="2.27608">
        <ele>112.1</ele>
        <time>2015-07-13T20:00:38.850Z</time>
      </trkpt>
      <trkpt lat="48.86233" lon="2.27607">
        <ele>112.6</ele>
        <time>2015-07-13T20:00:39.771Z</time>
      </trkpt>
      <trkpt lat="48.86228" lon="2.27606">
        <ele>113</ele>
        <time>2015-07-13T20:00:40.815Z</time>
      </trkpt>
      <trkpt lat="48.86224" lon="2.27603">
        <ele>113.3</ele>
        <time>2015-07-13T20:00:41.829Z</time>
      </trkpt>
      <trkpt lat="48.8622" lon="2.276">
        <ele>113.3</ele>
        <time>2015-07-13T20:00:42.841Z</time>
      </trkpt>
      <trkpt lat="48.86214" lon="2.27597">
        <ele>113.3</ele>
        <time>2015-07-13T20:00:43.842Z</time>
      </trkpt>
      <trkpt lat="48.86208" lon="2.27594">
        <ele>113.1</ele>
        <time>2015-07-13T20:00:44.754Z</time>
      </trkpt>
      <trkpt lat="48.86202" lon="2.27589">
        <ele>113</ele>
        <time>2015-07-13T20:00:45.767Z</time>
      </trkpt>
      <trkpt lat="48.86196" lon="2.27585">
        <ele>112.8</ele>
        <time>2015-07-13T20:00:46.784Z</time>
      </trkpt>
      <trkpt lat="48.86191" lon="2.27581">
        <ele>112.9</ele>
        <time>2015-07-13T20:00:47.787Z</time>
      </trkpt>
      <trkpt lat="48.86186" lon="2.27577">
        <ele>113.1</ele>
        <time>2015-07-13T20:00:48.839Z</time>
      </trkpt>
      <trkpt lat="48.86179" lon="2.27573">
        <ele>113.5</ele>
        <time>2015-07-13T20:00:49.986Z</time>
      </trkpt>
      <trkpt lat="48.8617" lon="2.27569">
        <ele>114.7</ele>
        <time>2015-07-13T20:00:50.840Z</time>
      </trkpt>
      <trkpt lat="48.86164" lon="2.27565">
        <ele>114.7</ele>
        <time>2015-07-13T20:00:51.886Z</time>
      </trkpt>
      <trkpt lat="48.86158" lon="2.27561">
        <ele>114.8</ele>
        <time>2015-07-13T20:00:52.830Z</time>
      </trkpt>
      <trkpt lat="48.86151" lon="2.27555">
        <ele>114.7</ele>
        <time>2015-07-13T20:00:53.844Z</time>
      </trkpt>
      <trkpt lat="48.86143" lon="2.2755">
        <ele>114.7</ele>
        <time>2015-07-13T20:00:54.872Z</time>
      </trkpt>
      <trkpt lat="48.86136" lon="2.27545">
        <ele>114.8</ele>
        <time>2015-07-13T20:00:55.815Z</time>
      </trkpt>
      <trkpt lat="48.86131" lon="2.27541">
        <ele>115</ele>
        <time>2015-07-13T20:00:56.809Z</time>
      </trkpt>
      <trkpt lat="48.86124" lon="2.27534">
        <ele>115.3</ele>
        <time>2015-07-13T20:00:57.822Z</time>
      </trkpt>
      <trkpt lat="48.86116" lon="2.27527">
        <ele>115.7</ele>
        <time>2015-07-13T20:00:58.829Z</time>
      </trkpt>
      <trkpt lat="48.86108" lon="2.27521">
        <ele>115.7</ele>
        <time>2015-07-13T20:00:59.863Z</time>
      </trkpt>
      <trkpt lat="48.86101" lon="2.27515">
        <ele>115.6</ele>
        <time>2015-07-13T20:01:00.773Z</time>
      </trkpt>
      <trkpt lat="48.86091" lon="2.27511">
        <ele>115.5</ele>
        <time>2015-07-13T20:01:01.781Z</time>
      </trkpt>
      <trkpt lat="48.8608" lon="2.27509">
        <ele>115.7</ele>
        <time>2015-07-13T20:01:02.817Z</time>
      </trkpt>
      <trkpt lat="48.86071" lon="2.27508">
        <ele>116</ele>
        <time>2015-07-13T20:01:03.775Z</time>
      </trkpt>
      <trkpt lat="48.86066" lon="2.27505">
        <ele>115.7</ele>
        <time>2015-07-13T20:01:04.787Z</time>
      </trkpt>
      <trkpt lat="48.86061" lon="2.27502">
        <ele>116</ele>
        <time>2015-07-13T20:01:05.830Z</time>
      </trkpt>
      <trkpt lat="48.86053" lon="2.27502">
        <ele>115.3</ele>
        <time>2015-07-13T20:01:06.838Z</time>
      </trkpt>
      <trkpt lat="48.86046" lon="2.27502">
        <ele>115</ele>
        <time>2015-07-13T20:01:07.796Z</time>
      </trkpt>
      <trkpt lat="48.86037" lon="2.27502">
        <ele>114.9</ele>
        <time>2015-07-13T20:01:08.772Z</time>
      </trkpt>
      <trkpt lat="48.86029" lon="2.27502">
        <ele>115.2</ele>
        <time>2015-07-13T20:01:09.768Z</time>
      </trkpt>
      <trkpt lat="48.86022" lon="2.27502">
        <ele>115.6</ele>
        <time>2015-07-13T20:01:10.790Z</time>
      </trkpt>
      <trkpt lat="48.86015" lon="2.27504">
        <ele>116</ele>
        <time>2015-07-13T20:01:11.806Z</time>
      </trkpt>
      <trkpt lat="48.86008" lon="2.27506">
        <ele>116</ele>
        <time>2015-07-13T20:01:12.818Z</time>
      </trkpt>
      <trkpt lat="48.86002" lon="2.27508">
        <ele>115.8</ele>
        <time>2015-07-13T20:01:13.840Z</time>
      </trkpt>
      <trkpt lat="48.85995" lon="2.2751">
        <ele>116.1</ele>
        <time>2015-07-13T20:01:14.843Z</time>
      </trkpt>
      <trkpt lat="48.85989" lon="2.27513">
        <ele>116.6</ele>
        <time>2015-07-13T20:01:15.847Z</time>
      </trkpt>
      <trkpt lat="48.85983" lon="2.27517">
        <ele>117</ele>
        <time>2015-07-13T20:01:16.864Z</time>
      </trkpt>
      <trkpt lat="48.85976" lon="2.27518">
        <ele>117.4</ele>
        <time>2015-07-13T20:01:17.885Z</time>
      </trkpt>
      <trkpt lat="48.8597" lon="2.27518">
        <ele>117.6</ele>
        <time>2015-07-13T20:01:18.755Z</time>
      </trkpt>
      <trkpt lat="48.85963" lon="2.27518">
        <ele>118</ele>
        <time>2015-07-13T20:01:19.773Z</time>
      </trkpt>
      <trkpt lat="48.85958" lon="2.27514">
        <ele>118.1</ele>
        <time>2015-07-13T20:01:20.789Z</time>
      </trkpt>
      <trkpt lat="48.85953" lon="2.27513">
        <ele>118.3</ele>
        <time>2015-07-13T20:01:21.797Z</time>
      </trkpt>
      <trkpt lat="48.85945" lon="2.27514">
        <ele>118.1</ele>
        <time>2015-07-13T20:01:23.826Z</time>
      </trkpt>
      <trkpt lat="48.85941" lon="2.27512">
        <ele>118</ele>
        <time>2015-07-13T20:01:24.765Z</time>
      </trkpt>
      <trkpt lat="48.85934" lon="2.27508">
        <ele>118.2</ele>
        <time>2015-07-13T20:01:26.793Z</time>
      </trkpt>
      <trkpt lat="48.85928" lon="2.2751">
        <ele>118.6</ele>
        <time>2015-07-13T20:01:27.813Z</time>
      </trkpt>
      <trkpt lat="48.85923" lon="2.27508">
        <ele>118.4</ele>
        <time>2015-07-13T20:01:28.844Z</time>
      </trkpt>
      <trkpt lat="48.85917" lon="2.27507">
        <ele>118.7</ele>
        <time>2015-07-13T20:01:29.865Z</time>
      </trkpt>
      <trkpt lat="48.8591" lon="2.27505">
        <ele>118.5</ele>
        <time>2015-07-13T20:01:30.772Z</time>
      </trkpt>
      <trkpt lat="48.85904" lon="2.27505">
        <ele>118.6</ele>
        <time>2015-07-13T20:01:31.783Z</time>
      </trkpt>
      <trkpt lat="48.85898" lon="2.27506">
        <ele>118.5</ele>
        <time>2015-07-13T20:01:32.786Z</time>
      </trkpt>
      <trkpt lat="48.85893" lon="2.27506">
        <ele>118.6</ele>
        <time>2015-07-13T20:01:33.794Z</time>
      </trkpt>
      <trkpt lat="48.85887" lon="2.27506">
        <ele>118.6</ele>
        <time>2015-07-13T20:01:34.808Z</time>
      </trkpt>
      <trkpt lat="48.85882" lon="2.27505">
        <ele>118.4</ele>
        <time>2015-07-13T20:01:35.820Z</time>
      </trkpt>
      <trkpt lat="48.85878" lon="2.27504">
        <ele>118.4</ele>
        <time>2015-07-13T20:01:36.838Z</time>
      </trkpt>
      <trkpt lat="48.85873" lon="2.27504">
        <ele>118.6</ele>
        <time>2015-07-13T20:01:37.759Z</time>
      </trkpt>
      <trkpt lat="48.85866" lon="2.27505">
        <ele>118.5</ele>
        <time>2015-07-13T20:01:38.762Z</time>
      </trkpt>
      <trkpt lat="48.8586" lon="2.27506">
        <ele>118.3</ele>
        <time>2015-07-13T20:01:39.786Z</time>
      </trkpt>
      <trkpt lat="48.85852" lon="2.2751">
        <ele>118.3</ele>
        <time>2015-07-13T20:01:41.805Z</time>
      </trkpt>
      <trkpt lat="48.85849" lon="2.27511">
        <ele>118.3</ele>
        <time>2015-07-13T20:01:42.958Z</time>
      </trkpt>
      <trkpt lat="48.85841" lon="2.27513">
        <ele>118.3</ele>
        <time>2015-07-13T20:01:46.833Z</time>
      </trkpt>
      <trkpt lat="48.85841" lon="2.2751">
        <ele>118.3</ele>
        <time>2015-07-13T20:01:47.837Z</time>
      </trkpt>
      <trkpt lat="48.8584" lon="2.27505">
        <ele>118.1</ele>
        <time>2015-07-13T20:02:36.818Z</time>
      </trkpt>
      <trkpt lat="48.85835" lon="2.27491">
        <ele>111.1</ele>
        <time>2015-07-13T20:02:37.752Z</time>
      </trkpt>
      <trkpt lat="48.85827" lon="2.2749">
        <ele>111.3</ele>
        <time>2015-07-13T20:02:40.799Z</time>
      </trkpt>
      <trkpt lat="48.85825" lon="2.27489">
        <ele>111.4</ele>
        <time>2015-07-13T20:02:41.819Z</time>
      </trkpt>
      <trkpt lat="48.85817" lon="2.27486">
        <ele>111.8</ele>
        <time>2015-07-13T20:02:44.866Z</time>
      </trkpt>
      <trkpt lat="48.85815" lon="2.27484">
        <ele>112.1</ele>
        <time>2015-07-13T20:02:45.752Z</time>
      </trkpt>
      <trkpt lat="48.85808" lon="2.27481">
        <ele>112.7</ele>
        <time>2015-07-13T20:02:48.843Z</time>
      </trkpt>
      <trkpt lat="48.85806" lon="2.27479">
        <ele>113</ele>
        <time>2015-07-13T20:02:49.854Z</time>
      </trkpt>
      <trkpt lat="48.85798" lon="2.27474">
        <ele>113.2</ele>
        <time>2015-07-13T20:02:52.790Z</time>
      </trkpt>
      <trkpt lat="48.85794" lon="2.27474">
        <ele>113.2</ele>
        <time>2015-07-13T20:02:53.950Z</time>
      </trkpt>
      <trkpt lat="48.85789" lon="2.27474">
        <ele>113.2</ele>
        <time>2015-07-13T20:02:54.797Z</time>
      </trkpt>
      <trkpt lat="48.85784" lon="2.27475">
        <ele>113.3</ele>
        <time>2015-07-13T20:02:55.819Z</time>
      </trkpt>
      <trkpt lat="48.85779" lon="2.27476">
        <ele>113.2</ele>
        <time>2015-07-13T20:02:56.838Z</time>
      </trkpt>
      <trkpt lat="48.85774" lon="2.27475">
        <ele>113.3</ele>
        <time>2015-07-13T20:02:57.847Z</time>
      </trkpt>
      <trkpt lat="48.85768" lon="2.27474">
        <ele>114.1</ele>
        <time>2015-07-13T20:02:58.878Z</time>
      </trkpt>
      <trkpt lat="48.85764" lon="2.27476">
        <ele>114.5</ele>
        <time>2015-07-13T20:02:59.885Z</time>
      </trkpt>
      <trkpt lat="48.8576" lon="2.27479">
        <ele>114.4</ele>
        <time>2015-07-13T20:03:00.820Z</time>
      </trkpt>
      <trkpt lat="48.85755" lon="2.27481">
        <ele>114.9</ele>
        <time>2015-07-13T20:03:01.829Z</time>
      </trkpt>
      <trkpt lat="48.8575" lon="2.27482">
        <ele>115.2</ele>
        <time>2015-07-13T20:03:02.834Z</time>
      </trkpt>
      <trkpt lat="48.85745" lon="2.27484">
        <ele>115.8</ele>
        <time>2015-07-13T20:03:03.852Z</time>
      </trkpt>
      <trkpt lat="48.8574" lon="2.27485">
        <ele>116.7</ele>
        <time>2015-07-13T20:03:04.858Z</time>
      </trkpt>
      <trkpt lat="48.85735" lon="2.27486">
        <ele>117.6</ele>
        <time>2015-07-13T20:03:05.894Z</time>
      </trkpt>
      <trkpt lat="48.85731" lon="2.27487">
        <ele>118.3</ele>
        <time>2015-07-13T20:03:06.777Z</time>
      </trkpt>
      <trkpt lat="48.85726" lon="2.27487">
        <ele>118.9</ele>
        <time>2015-07-13T20:03:07.777Z</time>
      </trkpt>
      <trkpt lat="48.85721" lon="2.27485">
        <ele>119.5</ele>
        <time>2015-07-13T20:03:08.784Z</time>
      </trkpt>
      <trkpt lat="48.85716" lon="2.27484">
        <ele>119.8</ele>
        <time>2015-07-13T20:03:09.828Z</time>
      </trkpt>
      <trkpt lat="48.85711" lon="2.27484">
        <ele>120.6</ele>
        <time>2015-07-13T20:03:10.857Z</time>
      </trkpt>
      <trkpt lat="48.85706" lon="2.27483">
        <ele>121.2</ele>
        <time>2015-07-13T20:03:11.870Z</time>
      </trkpt>
      <trkpt lat="48.85697" lon="2.27483">
        <ele>122</ele>
        <time>2015-07-13T20:03:13.793Z</time>
      </trkpt>
      <trkpt lat="48.85693" lon="2.27482">
        <ele>122.3</ele>
        <time>2015-07-13T20:03:14.812Z</time>
      </trkpt>
      <trkpt lat="48.85685" lon="2.27482">
        <ele>122.7</ele>
        <time>2015-07-13T20:03:16.844Z</time>
      </trkpt>
      <trkpt lat="48.85682" lon="2.27482">
        <ele>122.5</ele>
        <time>2015-07-13T20:03:17.878Z</time>
      </trkpt>
      <trkpt lat="48.85674" lon="2.27482">
        <ele>122.4</ele>
        <time>2015-07-13T20:03:19.791Z</time>
      </trkpt>
      <trkpt lat="48.8567" lon="2.27483">
        <ele>122.6</ele>
        <time>2015-07-13T20:03:20.814Z</time>
      </trkpt>
      <trkpt lat="48.85662" lon="2.27486">
        <ele>122.6</ele>
        <time>2015-07-13T20:03:22.791Z</time>
      </trkpt>
      <trkpt lat="48.85657" lon="2.27484">
        <ele>122.4</ele>
        <time>2015-07-13T20:03:23.921Z</time>
      </trkpt>
      <trkpt lat="48.85648" lon="2.27488">
        <ele>122.1</ele>
        <time>2015-07-13T20:03:25.816Z</time>
      </trkpt>
      <trkpt lat="48.85644" lon="2.27489">
        <ele>122.4</ele>
        <time>2015-07-13T20:03:26.872Z</time>
      </trkpt>
      <trkpt lat="48.85636" lon="2.27494">
        <ele>122.9</ele>
        <time>2015-07-13T20:03:28.820Z</time>
      </trkpt>
      <trkpt lat="48.85632" lon="2.27495">
        <ele>123.5</ele>
        <time>2015-07-13T20:03:29.920Z</time>
      </trkpt>
      <trkpt lat="48.85623" lon="2.27498">
        <ele>124</ele>
        <time>2015-07-13T20:03:31.787Z</time>
      </trkpt>
      <trkpt lat="48.85619" lon="2.27501">
        <ele>123.6</ele>
        <time>2015-07-13T20:03:32.824Z</time>
      </trkpt>
      <trkpt lat="48.85614" lon="2.27501">
        <ele>123.7</ele>
        <time>2015-07-13T20:03:33.792Z</time>
      </trkpt>
      <trkpt lat="48.85609" lon="2.27502">
        <ele>123.8</ele>
        <time>2015-07-13T20:03:34.796Z</time>
      </trkpt>
      <trkpt lat="48.85604" lon="2.27502">
        <ele>123.6</ele>
        <time>2015-07-13T20:03:35.837Z</time>
      </trkpt>
      <trkpt lat="48.85599" lon="2.27503">
        <ele>123.6</ele>
        <time>2015-07-13T20:03:36.830Z</time>
      </trkpt>
      <trkpt lat="48.85594" lon="2.27505">
        <ele>123.5</ele>
        <time>2015-07-13T20:03:37.835Z</time>
      </trkpt>
      <trkpt lat="48.85589" lon="2.27506">
        <ele>123.6</ele>
        <time>2015-07-13T20:03:38.858Z</time>
      </trkpt>
      <trkpt lat="48.85584" lon="2.27507">
        <ele>123.7</ele>
        <time>2015-07-13T20:03:39.784Z</time>
      </trkpt>
      <trkpt lat="48.85579" lon="2.27509">
        <ele>123.7</ele>
        <time>2015-07-13T20:03:40.808Z</time>
      </trkpt>
      <trkpt lat="48.85573" lon="2.27511">
        <ele>123.9</ele>
        <time>2015-07-13T20:03:41.849Z</time>
      </trkpt>
      <trkpt lat="48.85568" lon="2.27513">
        <ele>124</ele>
        <time>2015-07-13T20:03:42.745Z</time>
      </trkpt>
      <trkpt lat="48.85563" lon="2.27515">
        <ele>124</ele>
        <time>2015-07-13T20:03:43.759Z</time>
      </trkpt>
      <trkpt lat="48.85558" lon="2.27516">
        <ele>124</ele>
        <time>2015-07-13T20:03:44.782Z</time>
      </trkpt>
      <trkpt lat="48.85553" lon="2.2752">
        <ele>124.2</ele>
        <time>2015-07-13T20:03:45.811Z</time>
      </trkpt>
      <trkpt lat="48.85548" lon="2.27522">
        <ele>123.9</ele>
        <time>2015-07-13T20:03:46.854Z</time>
      </trkpt>
      <trkpt lat="48.85543" lon="2.27525">
        <ele>123.6</ele>
        <time>2015-07-13T20:03:47.871Z</time>
      </trkpt>
      <trkpt lat="48.85538" lon="2.27526">
        <ele>123.3</ele>
        <time>2015-07-13T20:03:48.781Z</time>
      </trkpt>
      <trkpt lat="48.85533" lon="2.27527">
        <ele>123</ele>
        <time>2015-07-13T20:03:49.802Z</time>
      </trkpt>
      <trkpt lat="48.85528" lon="2.27529">
        <ele>122.8</ele>
        <time>2015-07-13T20:03:50.832Z</time>
      </trkpt>
      <trkpt lat="48.85523" lon="2.2753">
        <ele>122.8</ele>
        <time>2015-07-13T20:03:51.841Z</time>
      </trkpt>
      <trkpt lat="48.85518" lon="2.27531">
        <ele>122.7</ele>
        <time>2015-07-13T20:03:52.856Z</time>
      </trkpt>
      <trkpt lat="48.85513" lon="2.27532">
        <ele>122.6</ele>
        <time>2015-07-13T20:03:53.861Z</time>
      </trkpt>
      <trkpt lat="48.85507" lon="2.27535">
        <ele>122.3</ele>
        <time>2015-07-13T20:03:54.787Z</time>
      </trkpt>
      <trkpt lat="48.85502" lon="2.27537">
        <ele>122.1</ele>
        <time>2015-07-13T20:03:55.775Z</time>
      </trkpt>
      <trkpt lat="48.85496" lon="2.2754">
        <ele>121.9</ele>
        <time>2015-07-13T20:03:56.783Z</time>
      </trkpt>
      <trkpt lat="48.85491" lon="2.27543">
        <ele>121.7</ele>
        <time>2015-07-13T20:03:57.793Z</time>
      </trkpt>
      <trkpt lat="48.85485" lon="2.27546">
        <ele>121.6</ele>
        <time>2015-07-13T20:03:58.817Z</time>
      </trkpt>
      <trkpt lat="48.85479" lon="2.27547">
        <ele>121.4</ele>
        <time>2015-07-13T20:03:59.827Z</time>
      </trkpt>
      <trkpt lat="48.85472" lon="2.27548">
        <ele>121.3</ele>
        <time>2015-07-13T20:04:00.840Z</time>
      </trkpt>
      <trkpt lat="48.85466" lon="2.27549">
        <ele>121.3</ele>
        <time>2015-07-13T20:04:01.737Z</time>
      </trkpt>
      <trkpt lat="48.8546" lon="2.2755">
        <ele>121.2</ele>
        <time>2015-07-13T20:04:02.755Z</time>
      </trkpt>
      <trkpt lat="48.85454" lon="2.27552">
        <ele>121.5</ele>
        <time>2015-07-13T20:04:03.764Z</time>
      </trkpt>
      <trkpt lat="48.85448" lon="2.27553">
        <ele>121.5</ele>
        <time>2015-07-13T20:04:04.867Z</time>
      </trkpt>
      <trkpt lat="48.85442" lon="2.27555">
        <ele>121.5</ele>
        <time>2015-07-13T20:04:05.807Z</time>
      </trkpt>
      <trkpt lat="48.85436" lon="2.27556">
        <ele>121.4</ele>
        <time>2015-07-13T20:04:06.802Z</time>
      </trkpt>
      <trkpt lat="48.8543" lon="2.27557">
        <ele>121.4</ele>
        <time>2015-07-13T20:04:07.816Z</time>
      </trkpt>
      <trkpt lat="48.85423" lon="2.27558">
        <ele>121.3</ele>
        <time>2015-07-13T20:04:08.828Z</time>
      </trkpt>
      <trkpt lat="48.85417" lon="2.27558">
        <ele>121.1</ele>
        <time>2015-07-13T20:04:09.756Z</time>
      </trkpt>
      <trkpt lat="48.8541" lon="2.27559">
        <ele>120.9</ele>
        <time>2015-07-13T20:04:10.851Z</time>
      </trkpt>
      <trkpt lat="48.85404" lon="2.27558">
        <ele>120.6</ele>
        <time>2015-07-13T20:04:11.858Z</time>
      </trkpt>
      <trkpt lat="48.85399" lon="2.2756">
        <ele>120.2</ele>
        <time>2015-07-13T20:04:12.768Z</time>
      </trkpt>
      <trkpt lat="48.85392" lon="2.27561">
        <ele>120.5</ele>
        <time>2015-07-13T20:04:13.774Z</time>
      </trkpt>
      <trkpt lat="48.85386" lon="2.27562">
        <ele>120</ele>
        <time>2015-07-13T20:04:14.779Z</time>
      </trkpt>
      <trkpt lat="48.8538" lon="2.27563">
        <ele>119.5</ele>
        <time>2015-07-13T20:04:15.783Z</time>
      </trkpt>
      <trkpt lat="48.85374" lon="2.27565">
        <ele>119.4</ele>
        <time>2015-07-13T20:04:16.798Z</time>
      </trkpt>
      <trkpt lat="48.85367" lon="2.27566">
        <ele>119.1</ele>
        <time>2015-07-13T20:04:17.814Z</time>
      </trkpt>
      <trkpt lat="48.85361" lon="2.27567">
        <ele>119.1</ele>
        <time>2015-07-13T20:04:18.816Z</time>
      </trkpt>
      <trkpt lat="48.85354" lon="2.27568">
        <ele>119.2</ele>
        <time>2015-07-13T20:04:19.829Z</time>
      </trkpt>
      <trkpt lat="48.85349" lon="2.2757">
        <ele>119.3</ele>
        <time>2015-07-13T20:04:20.767Z</time>
      </trkpt>
      <trkpt lat="48.85342" lon="2.27572">
        <ele>119.1</ele>
        <time>2015-07-13T20:04:21.772Z</time>
      </trkpt>
      <trkpt lat="48.85337" lon="2.27576">
        <ele>119.1</ele>
        <time>2015-07-13T20:04:22.781Z</time>
      </trkpt>
      <trkpt lat="48.8533" lon="2.27579">
        <ele>118.8</ele>
        <time>2015-07-13T20:04:23.805Z</time>
      </trkpt>
      <trkpt lat="48.85323" lon="2.27579">
        <ele>118.6</ele>
        <time>2015-07-13T20:04:24.817Z</time>
      </trkpt>
      <trkpt lat="48.85316" lon="2.2758">
        <ele>118.2</ele>
        <time>2015-07-13T20:04:25.843Z</time>
      </trkpt>
      <trkpt lat="48.85309" lon="2.27581">
        <ele>118.4</ele>
        <time>2015-07-13T20:04:26.769Z</time>
      </trkpt>
      <trkpt lat="48.85304" lon="2.2758">
        <ele>118.5</ele>
        <time>2015-07-13T20:04:27.773Z</time>
      </trkpt>
      <trkpt lat="48.85298" lon="2.27579">
        <ele>118.6</ele>
        <time>2015-07-13T20:04:28.784Z</time>
      </trkpt>
      <trkpt lat="48.85291" lon="2.27579">
        <ele>118.5</ele>
        <time>2015-07-13T20:04:29.882Z</time>
      </trkpt>
      <trkpt lat="48.85285" lon="2.2758">
        <ele>118.2</ele>
        <time>2015-07-13T20:04:30.754Z</time>
      </trkpt>
      <trkpt lat="48.8528" lon="2.2758">
        <ele>117.9</ele>
        <time>2015-07-13T20:04:31.771Z</time>
      </trkpt>
      <trkpt lat="48.85274" lon="2.27582">
        <ele>117.5</ele>
        <time>2015-07-13T20:04:32.805Z</time>
      </trkpt>
      <trkpt lat="48.85269" lon="2.27585">
        <ele>116.2</ele>
        <time>2015-07-13T20:04:33.831Z</time>
      </trkpt>
      <trkpt lat="48.85268" lon="2.27593">
        <ele>111.1</ele>
        <time>2015-07-13T20:04:34.842Z</time>
      </trkpt>
      <trkpt lat="48.85266" lon="2.27601">
        <ele>106.8</ele>
        <time>2015-07-13T20:04:35.860Z</time>
      </trkpt>
      <trkpt lat="48.85264" lon="2.27607">
        <ele>104.4</ele>
        <time>2015-07-13T20:04:36.870Z</time>
      </trkpt>
      <trkpt lat="48.85261" lon="2.27612">
        <ele>104.1</ele>
        <time>2015-07-13T20:04:37.787Z</time>
      </trkpt>
      <trkpt lat="48.85257" lon="2.27618">
        <ele>103.3</ele>
        <time>2015-07-13T20:04:38.791Z</time>
      </trkpt>
      <trkpt lat="48.85254" lon="2.27627">
        <ele>102.1</ele>
        <time>2015-07-13T20:04:39.807Z</time>
      </trkpt>
      <trkpt lat="48.85249" lon="2.27636">
        <ele>101.9</ele>
        <time>2015-07-13T20:04:40.818Z</time>
      </trkpt>
      <trkpt lat="48.85244" lon="2.27645">
        <ele>101.9</ele>
        <time>2015-07-13T20:04:41.840Z</time>
      </trkpt>
      <trkpt lat="48.8524" lon="2.27652">
        <ele>101.8</ele>
        <time>2015-07-13T20:04:42.840Z</time>
      </trkpt>
      <trkpt lat="48.85236" lon="2.27661">
        <ele>102.5</ele>
        <time>2015-07-13T20:04:43.778Z</time>
      </trkpt>
      <trkpt lat="48.85231" lon="2.27667">
        <ele>102.8</ele>
        <time>2015-07-13T20:04:44.779Z</time>
      </trkpt>
      <trkpt lat="48.85226" lon="2.27675">
        <ele>103.5</ele>
        <time>2015-07-13T20:04:45.776Z</time>
      </trkpt>
      <trkpt lat="48.85219" lon="2.27688">
        <ele>105.8</ele>
        <time>2015-07-13T20:04:46.788Z</time>
      </trkpt>
      <trkpt lat="48.85213" lon="2.27705">
        <ele>108.8</ele>
        <time>2015-07-13T20:04:47.819Z</time>
      </trkpt>
      <trkpt lat="48.85207" lon="2.27719">
        <ele>110.7</ele>
        <time>2015-07-13T20:04:48.834Z</time>
      </trkpt>
      <trkpt lat="48.85207" lon="2.27727">
        <ele>111.9</ele>
        <time>2015-07-13T20:04:49.834Z</time>
      </trkpt>
      <trkpt lat="48.85206" lon="2.27734">
        <ele>112.2</ele>
        <time>2015-07-13T20:04:50.840Z</time>
      </trkpt>
      <trkpt lat="48.85205" lon="2.27741">
        <ele>112.8</ele>
        <time>2015-07-13T20:04:51.782Z</time>
      </trkpt>
      <trkpt lat="48.85203" lon="2.27748">
        <ele>113.2</ele>
        <time>2015-07-13T20:04:52.775Z</time>
      </trkpt>
      <trkpt lat="48.852" lon="2.27753">
        <ele>113.2</ele>
        <time>2015-07-13T20:04:53.847Z</time>
      </trkpt>
      <trkpt lat="48.85197" lon="2.27759">
        <ele>112.7</ele>
        <time>2015-07-13T20:04:54.767Z</time>
      </trkpt>
      <trkpt lat="48.85191" lon="2.27769">
        <ele>111.8</ele>
        <time>2015-07-13T20:04:55.782Z</time>
      </trkpt>
      <trkpt lat="48.85184" lon="2.27779">
        <ele>111</ele>
        <time>2015-07-13T20:04:56.790Z</time>
      </trkpt>
      <trkpt lat="48.85178" lon="2.27789">
        <ele>111.5</ele>
        <time>2015-07-13T20:04:57.773Z</time>
      </trkpt>
      <trkpt lat="48.85172" lon="2.27797">
        <ele>111.2</ele>
        <time>2015-07-13T20:04:58.781Z</time>
      </trkpt>
      <trkpt lat="48.85168" lon="2.27807">
        <ele>110.5</ele>
        <time>2015-07-13T20:04:59.959Z</time>
      </trkpt>
      <trkpt lat="48.85163" lon="2.27813">
        <ele>110.1</ele>
        <time>2015-07-13T20:05:00.751Z</time>
      </trkpt>
      <trkpt lat="48.85159" lon="2.2782">
        <ele>109.6</ele>
        <time>2015-07-13T20:05:01.781Z</time>
      </trkpt>
      <trkpt lat="48.85154" lon="2.27826">
        <ele>109.5</ele>
        <time>2015-07-13T20:05:02.789Z</time>
      </trkpt>
      <trkpt lat="48.8515" lon="2.27831">
        <ele>109.4</ele>
        <time>2015-07-13T20:05:03.800Z</time>
      </trkpt>
      <trkpt lat="48.85146" lon="2.27836">
        <ele>109.4</ele>
        <time>2015-07-13T20:05:04.829Z</time>
      </trkpt>
      <trkpt lat="48.85142" lon="2.2784">
        <ele>109.3</ele>
        <time>2015-07-13T20:05:05.849Z</time>
      </trkpt>
      <trkpt lat="48.85136" lon="2.27849">
        <ele>107.3</ele>
        <time>2015-07-13T20:05:07.875Z</time>
      </trkpt>
      <trkpt lat="48.85134" lon="2.27852">
        <ele>107</ele>
        <time>2015-07-13T20:05:08.816Z</time>
      </trkpt>
      <trkpt lat="48.85131" lon="2.27861">
        <ele>105.6</ele>
        <time>2015-07-13T20:05:10.794Z</time>
      </trkpt>
      <trkpt lat="48.85129" lon="2.27866">
        <ele>105.6</ele>
        <time>2015-07-13T20:05:11.834Z</time>
      </trkpt>
      <trkpt lat="48.85122" lon="2.27874">
        <ele>103.5</ele>
        <time>2015-07-13T20:05:19.806Z</time>
      </trkpt>
      <trkpt lat="48.85122" lon="2.27876">
        <ele>103.8</ele>
        <time>2015-07-13T20:05:20.827Z</time>
      </trkpt>
      <trkpt lat="48.85119" lon="2.27885">
        <ele>104.2</ele>
        <time>2015-07-13T20:05:23.896Z</time>
      </trkpt>
      <trkpt lat="48.85112" lon="2.27893">
        <ele>103.4</ele>
        <time>2015-07-13T20:05:24.801Z</time>
      </trkpt>
      <trkpt lat="48.85105" lon="2.27899">
        <ele>102.8</ele>
        <time>2015-07-13T20:05:25.814Z</time>
      </trkpt>
      <trkpt lat="48.85099" lon="2.27904">
        <ele>102.6</ele>
        <time>2015-07-13T20:05:26.829Z</time>
      </trkpt>
      <trkpt lat="48.85094" lon="2.27909">
        <ele>102.2</ele>
        <time>2015-07-13T20:05:27.846Z</time>
      </trkpt>
      <trkpt lat="48.85091" lon="2.27912">
        <ele>101.9</ele>
        <time>2015-07-13T20:05:28.863Z</time>
      </trkpt>
      <trkpt lat="48.85086" lon="2.27918">
        <ele>101.6</ele>
        <time>2015-07-13T20:05:29.885Z</time>
      </trkpt>
      <trkpt lat="48.85082" lon="2.27924">
        <ele>101.2</ele>
        <time>2015-07-13T20:05:30.786Z</time>
      </trkpt>
      <trkpt lat="48.85077" lon="2.27931">
        <ele>101.3</ele>
        <time>2015-07-13T20:05:31.784Z</time>
      </trkpt>
      <trkpt lat="48.85072" lon="2.27938">
        <ele>101.2</ele>
        <time>2015-07-13T20:05:32.837Z</time>
      </trkpt>
      <trkpt lat="48.85068" lon="2.27944">
        <ele>101.2</ele>
        <time>2015-07-13T20:05:33.854Z</time>
      </trkpt>
      <trkpt lat="48.85063" lon="2.27951">
        <ele>101.1</ele>
        <time>2015-07-13T20:05:34.778Z</time>
      </trkpt>
      <trkpt lat="48.85059" lon="2.27958">
        <ele>100.6</ele>
        <time>2015-07-13T20:05:35.882Z</time>
      </trkpt>
      <trkpt lat="48.85054" lon="2.27965">
        <ele>100.5</ele>
        <time>2015-07-13T20:05:36.805Z</time>
      </trkpt>
      <trkpt lat="48.85049" lon="2.27972">
        <ele>100.4</ele>
        <time>2015-07-13T20:05:37.799Z</time>
      </trkpt>
      <trkpt lat="48.85044" lon="2.2798">
        <ele>100.6</ele>
        <time>2015-07-13T20:05:38.807Z</time>
      </trkpt>
      <trkpt lat="48.85039" lon="2.27989">
        <ele>100.6</ele>
        <time>2015-07-13T20:05:39.839Z</time>
      </trkpt>
      <trkpt lat="48.85034" lon="2.27996">
        <ele>100.4</ele>
        <time>2015-07-13T20:05:40.854Z</time>
      </trkpt>
      <trkpt lat="48.85029" lon="2.28004">
        <ele>99.9</ele>
        <time>2015-07-13T20:05:41.862Z</time>
      </trkpt>
      <trkpt lat="48.85024" lon="2.28013">
        <ele>99.2</ele>
        <time>2015-07-13T20:05:42.873Z</time>
      </trkpt>
      <trkpt lat="48.85019" lon="2.28021">
        <ele>99.3</ele>
        <time>2015-07-13T20:05:43.814Z</time>
      </trkpt>
      <trkpt lat="48.85014" lon="2.28028">
        <ele>98.9</ele>
        <time>2015-07-13T20:05:44.829Z</time>
      </trkpt>
      <trkpt lat="48.85009" lon="2.28035">
        <ele>98.5</ele>
        <time>2015-07-13T20:05:45.836Z</time>
      </trkpt>
      <trkpt lat="48.85005" lon="2.28042">
        <ele>98.2</ele>
        <time>2015-07-13T20:05:46.850Z</time>
      </trkpt>
      <trkpt lat="48.85" lon="2.28049">
        <ele>97.8</ele>
        <time>2015-07-13T20:05:47.863Z</time>
      </trkpt>
      <trkpt lat="48.84996" lon="2.28056">
        <ele>97.7</ele>
        <time>2015-07-13T20:05:48.804Z</time>
      </trkpt>
      <trkpt lat="48.84991" lon="2.28063">
        <ele>97</ele>
        <time>2015-07-13T20:05:49.806Z</time>
      </trkpt>
      <trkpt lat="48.84987" lon="2.2807">
        <ele>96.6</ele>
        <time>2015-07-13T20:05:50.889Z</time>
      </trkpt>
      <trkpt lat="48.84982" lon="2.28078">
        <ele>96.2</ele>
        <time>2015-07-13T20:05:51.804Z</time>
      </trkpt>
      <trkpt lat="48.84978" lon="2.28085">
        <ele>95.8</ele>
        <time>2015-07-13T20:05:52.830Z</time>
      </trkpt>
      <trkpt lat="48.84973" lon="2.28092">
        <ele>95.5</ele>
        <time>2015-07-13T20:05:53.851Z</time>
      </trkpt>
      <trkpt lat="48.84969" lon="2.28098">
        <ele>95.2</ele>
        <time>2015-07-13T20:05:54.849Z</time>
      </trkpt>
      <trkpt lat="48.84965" lon="2.28105">
        <ele>95.2</ele>
        <time>2015-07-13T20:05:55.769Z</time>
      </trkpt>
      <trkpt lat="48.84961" lon="2.28111">
        <ele>95.2</ele>
        <time>2015-07-13T20:05:56.812Z</time>
      </trkpt>
      <trkpt lat="48.84956" lon="2.28117">
        <ele>95.2</ele>
        <time>2015-07-13T20:05:57.822Z</time>
      </trkpt>
      <trkpt lat="48.84952" lon="2.28122">
        <ele>95.1</ele>
        <time>2015-07-13T20:05:58.826Z</time>
      </trkpt>
      <trkpt lat="48.84945" lon="2.2813">
        <ele>94.5</ele>
        <time>2015-07-13T20:06:01.773Z</time>
      </trkpt>
      <trkpt lat="48.84943" lon="2.28132">
        <ele>94.5</ele>
        <time>2015-07-13T20:06:02.792Z</time>
      </trkpt>
      <trkpt lat="48.84937" lon="2.28139">
        <ele>94.4</ele>
        <time>2015-07-13T20:06:05.880Z</time>
      </trkpt>
      <trkpt lat="48.84935" lon="2.28141">
        <ele>94.5</ele>
        <time>2015-07-13T20:06:06.814Z</time>
      </trkpt>
      <trkpt lat="48.8493" lon="2.28148">
        <ele>92.6</ele>
        <time>2015-07-13T20:06:22.879Z</time>
      </trkpt>
      <trkpt lat="48.84928" lon="2.28152">
        <ele>93.2</ele>
        <time>2015-07-13T20:06:23.983Z</time>
      </trkpt>
      <trkpt lat="48.84923" lon="2.28163">
        <ele>93.3</ele>
        <time>2015-07-13T20:06:26.916Z</time>
      </trkpt>
      <trkpt lat="48.84921" lon="2.28167">
        <ele>93.2</ele>
        <time>2015-07-13T20:06:27.846Z</time>
      </trkpt>
      <trkpt lat="48.84916" lon="2.28177">
        <ele>93</ele>
        <time>2015-07-13T20:06:29.891Z</time>
      </trkpt>
      <trkpt lat="48.84913" lon="2.28182">
        <ele>93.2</ele>
        <time>2015-07-13T20:06:30.938Z</time>
      </trkpt>
      <trkpt lat="48.8491" lon="2.28193">
        <ele>93.4</ele>
        <time>2015-07-13T20:06:32.870Z</time>
      </trkpt>
      <trkpt lat="48.84906" lon="2.28201">
        <ele>94.7</ele>
        <time>2015-07-13T20:06:33.779Z</time>
      </trkpt>
      <trkpt lat="48.849" lon="2.2821">
        <ele>96.7</ele>
        <time>2015-07-13T20:06:35.852Z</time>
      </trkpt>
      <trkpt lat="48.84898" lon="2.28214">
        <ele>97.4</ele>
        <time>2015-07-13T20:06:36.810Z</time>
      </trkpt>
      <trkpt lat="48.84894" lon="2.28223">
        <ele>98.8</ele>
        <time>2015-07-13T20:06:38.775Z</time>
      </trkpt>
      <trkpt lat="48.84891" lon="2.28227">
        <ele>99.1</ele>
        <time>2015-07-13T20:06:39.837Z</time>
      </trkpt>
      <trkpt lat="48.84887" lon="2.28233">
        <ele>99</ele>
        <time>2015-07-13T20:06:40.855Z</time>
      </trkpt>
      <trkpt lat="48.84883" lon="2.2824">
        <ele>99.2</ele>
        <time>2015-07-13T20:06:41.864Z</time>
      </trkpt>
      <trkpt lat="48.84881" lon="2.28245">
        <ele>99.5</ele>
        <time>2015-07-13T20:06:42.785Z</time>
      </trkpt>
      <trkpt lat="48.84878" lon="2.28252">
        <ele>99.8</ele>
        <time>2015-07-13T20:06:43.795Z</time>
      </trkpt>
      <trkpt lat="48.84874" lon="2.2826">
        <ele>100</ele>
        <time>2015-07-13T20:06:44.811Z</time>
      </trkpt>
      <trkpt lat="48.8487" lon="2.28269">
        <ele>100.3</ele>
        <time>2015-07-13T20:06:45.820Z</time>
      </trkpt>
      <trkpt lat="48.84866" lon="2.28274">
        <ele>100.8</ele>
        <time>2015-07-13T20:06:46.826Z</time>
      </trkpt>
      <trkpt lat="48.84862" lon="2.28279">
        <ele>101.1</ele>
        <time>2015-07-13T20:06:47.842Z</time>
      </trkpt>
      <trkpt lat="48.84859" lon="2.28287">
        <ele>101.6</ele>
        <time>2015-07-13T20:06:48.821Z</time>
      </trkpt>
      <trkpt lat="48.84856" lon="2.28298">
        <ele>102.6</ele>
        <time>2015-07-13T20:06:49.783Z</time>
      </trkpt>
      <trkpt lat="48.84851" lon="2.28307">
        <ele>102.5</ele>
        <time>2015-07-13T20:06:50.795Z</time>
      </trkpt>
      <trkpt lat="48.8483" lon="2.28355">
        <ele>102.7</ele>
        <time>2015-07-13T20:06:51.810Z</time>
      </trkpt>
      <trkpt lat="48.84827" lon="2.28364">
        <ele>103.1</ele>
        <time>2015-07-13T20:06:52.825Z</time>
      </trkpt>
      <trkpt lat="48.8482" lon="2.2837">
        <ele>103.2</ele>
        <time>2015-07-13T20:06:53.835Z</time>
      </trkpt>
      <trkpt lat="48.84814" lon="2.28379">
        <ele>103.3</ele>
        <time>2015-07-13T20:06:54.846Z</time>
      </trkpt>
      <trkpt lat="48.8481" lon="2.2839">
        <ele>103.3</ele>
        <time>2015-07-13T20:06:55.850Z</time>
      </trkpt>
      <trkpt lat="48.84804" lon="2.28399">
        <ele>103.3</ele>
        <time>2015-07-13T20:06:56.867Z</time>
      </trkpt>
      <trkpt lat="48.84797" lon="2.28407">
        <ele>103.4</ele>
        <time>2015-07-13T20:06:57.783Z</time>
      </trkpt>
      <trkpt lat="48.84788" lon="2.2841">
        <ele>105.9</ele>
        <time>2015-07-13T20:06:58.828Z</time>
      </trkpt>
      <trkpt lat="48.8478" lon="2.28418">
        <ele>106.1</ele>
        <time>2015-07-13T20:06:59.866Z</time>
      </trkpt>
      <trkpt lat="48.84773" lon="2.28425">
        <ele>106.2</ele>
        <time>2015-07-13T20:07:00.773Z</time>
      </trkpt>
      <trkpt lat="48.84768" lon="2.28432">
        <ele>106.1</ele>
        <time>2015-07-13T20:07:01.783Z</time>
      </trkpt>
      <trkpt lat="48.84762" lon="2.28438">
        <ele>106.9</ele>
        <time>2015-07-13T20:07:02.785Z</time>
      </trkpt>
      <trkpt lat="48.84755" lon="2.28444">
        <ele>108.1</ele>
        <time>2015-07-13T20:07:03.812Z</time>
      </trkpt>
      <trkpt lat="48.84749" lon="2.28452">
        <ele>108.8</ele>
        <time>2015-07-13T20:07:04.833Z</time>
      </trkpt>
      <trkpt lat="48.84742" lon="2.28461">
        <ele>109.4</ele>
        <time>2015-07-13T20:07:05.833Z</time>
      </trkpt>
      <trkpt lat="48.84736" lon="2.28469">
        <ele>109.7</ele>
        <time>2015-07-13T20:07:06.848Z</time>
      </trkpt>
      <trkpt lat="48.84729" lon="2.28477">
        <ele>109.9</ele>
        <time>2015-07-13T20:07:07.782Z</time>
      </trkpt>
      <trkpt lat="48.84723" lon="2.28485">
        <ele>110.2</ele>
        <time>2015-07-13T20:07:08.792Z</time>
      </trkpt>
      <trkpt lat="48.84716" lon="2.28492">
        <ele>110.6</ele>
        <time>2015-07-13T20:07:09.803Z</time>
      </trkpt>
      <trkpt lat="48.8471" lon="2.285">
        <ele>111.1</ele>
        <time>2015-07-13T20:07:10.832Z</time>
      </trkpt>
      <trkpt lat="48.84704" lon="2.28506">
        <ele>111.8</ele>
        <time>2015-07-13T20:07:11.850Z</time>
      </trkpt>
      <trkpt lat="48.84698" lon="2.28513">
        <ele>112.3</ele>
        <time>2015-07-13T20:07:12.849Z</time>
      </trkpt>
      <trkpt lat="48.84694" lon="2.28522">
        <ele>112.9</ele>
        <time>2015-07-13T20:07:13.858Z</time>
      </trkpt>
      <trkpt lat="48.84689" lon="2.28528">
        <ele>113.1</ele>
        <time>2015-07-13T20:07:14.743Z</time>
      </trkpt>
      <trkpt lat="48.84685" lon="2.28535">
        <ele>113.3</ele>
        <time>2015-07-13T20:07:15.775Z</time>
      </trkpt>
      <trkpt lat="48.84682" lon="2.28544">
        <ele>113.2</ele>
        <time>2015-07-13T20:07:16.775Z</time>
      </trkpt>
      <trkpt lat="48.84679" lon="2.28552">
        <ele>112.3</ele>
        <time>2015-07-13T20:07:17.822Z</time>
      </trkpt>
      <trkpt lat="48.84676" lon="2.28559">
        <ele>111.8</ele>
        <time>2015-07-13T20:07:18.832Z</time>
      </trkpt>
      <trkpt lat="48.84674" lon="2.28566">
        <ele>111.2</ele>
        <time>2015-07-13T20:07:19.838Z</time>
      </trkpt>
      <trkpt lat="48.84672" lon="2.28571">
        <ele>110.1</ele>
        <time>2015-07-13T20:07:20.863Z</time>
      </trkpt>
      <trkpt lat="48.84668" lon="2.2858">
        <ele>110.1</ele>
        <time>2015-07-13T20:07:22.767Z</time>
      </trkpt>
      <trkpt lat="48.84666" lon="2.28583">
        <ele>110.1</ele>
        <time>2015-07-13T20:07:23.845Z</time>
      </trkpt>
      <trkpt lat="48.84662" lon="2.2859">
        <ele>110.2</ele>
        <time>2015-07-13T20:07:25.783Z</time>
      </trkpt>
      <trkpt lat="48.84659" lon="2.28596">
        <ele>111.4</ele>
        <time>2015-07-13T20:07:26.800Z</time>
      </trkpt>
      <trkpt lat="48.84653" lon="2.28603">
        <ele>113.5</ele>
        <time>2015-07-13T20:07:28.849Z</time>
      </trkpt>
      <trkpt lat="48.8465" lon="2.28606">
        <ele>114.2</ele>
        <time>2015-07-13T20:07:29.894Z</time>
      </trkpt>
      <trkpt lat="48.84646" lon="2.28612">
        <ele>115.1</ele>
        <time>2015-07-13T20:07:31.787Z</time>
      </trkpt>
      <trkpt lat="48.84643" lon="2.28617">
        <ele>116.3</ele>
        <time>2015-07-13T20:07:32.798Z</time>
      </trkpt>
      <trkpt lat="48.84641" lon="2.28628">
        <ele>114.4</ele>
        <time>2015-07-13T20:07:41.848Z</time>
      </trkpt>
      <trkpt lat="48.84637" lon="2.28634">
        <ele>113.2</ele>
        <time>2015-07-13T20:07:42.801Z</time>
      </trkpt>
      <trkpt lat="48.8463" lon="2.28638">
        <ele>112.4</ele>
        <time>2015-07-13T20:07:44.775Z</time>
      </trkpt>
      <trkpt lat="48.84627" lon="2.2864">
        <ele>112.3</ele>
        <time>2015-07-13T20:07:45.815Z</time>
      </trkpt>
      <trkpt lat="48.84622" lon="2.28651">
        <ele>112.8</ele>
        <time>2015-07-13T20:07:47.866Z</time>
      </trkpt>
      <trkpt lat="48.8462" lon="2.28656">
        <ele>113.1</ele>
        <time>2015-07-13T20:07:48.803Z</time>
      </trkpt>
      <trkpt lat="48.84615" lon="2.28666">
        <ele>113.2</ele>
        <time>2015-07-13T20:07:50.787Z</time>
      </trkpt>
      <trkpt lat="48.84612" lon="2.2867">
        <ele>112.8</ele>
        <time>2015-07-13T20:07:51.801Z</time>
      </trkpt>
      <trkpt lat="48.84608" lon="2.28676">
        <ele>112.6</ele>
        <time>2015-07-13T20:07:52.810Z</time>
      </trkpt>
      <trkpt lat="48.84605" lon="2.28682">
        <ele>112.4</ele>
        <time>2015-07-13T20:07:53.870Z</time>
      </trkpt>
      <trkpt lat="48.846" lon="2.28693">
        <ele>112.3</ele>
        <time>2015-07-13T20:07:55.801Z</time>
      </trkpt>
      <trkpt lat="48.84597" lon="2.28699">
        <ele>112.2</ele>
        <time>2015-07-13T20:07:56.840Z</time>
      </trkpt>
      <trkpt lat="48.84595" lon="2.28708">
        <ele>112.3</ele>
        <time>2015-07-13T20:07:57.777Z</time>
      </trkpt>
      <trkpt lat="48.84591" lon="2.28716">
        <ele>112.3</ele>
        <time>2015-07-13T20:07:58.776Z</time>
      </trkpt>
      <trkpt lat="48.84585" lon="2.28729">
        <ele>112.5</ele>
        <time>2015-07-13T20:07:59.860Z</time>
      </trkpt>
      <trkpt lat="48.8458" lon="2.28738">
        <ele>113.2</ele>
        <time>2015-07-13T20:08:00.858Z</time>
      </trkpt>
      <trkpt lat="48.84576" lon="2.28746">
        <ele>113</ele>
        <time>2015-07-13T20:08:01.812Z</time>
      </trkpt>
      <trkpt lat="48.84573" lon="2.28754">
        <ele>112.8</ele>
        <time>2015-07-13T20:08:02.826Z</time>
      </trkpt>
      <trkpt lat="48.8457" lon="2.28762">
        <ele>112.6</ele>
        <time>2015-07-13T20:08:03.830Z</time>
      </trkpt>
      <trkpt lat="48.84568" lon="2.28769">
        <ele>112.6</ele>
        <time>2015-07-13T20:08:04.839Z</time>
      </trkpt>
      <trkpt lat="48.84567" lon="2.28776">
        <ele>112.5</ele>
        <time>2015-07-13T20:08:05.847Z</time>
      </trkpt>
      <trkpt lat="48.84567" lon="2.28784">
        <ele>112</ele>
        <time>2015-07-13T20:08:06.765Z</time>
      </trkpt>
      <trkpt lat="48.84565" lon="2.28791">
        <ele>111.9</ele>
        <time>2015-07-13T20:08:07.783Z</time>
      </trkpt>
      <trkpt lat="48.84561" lon="2.28799">
        <ele>112.3</ele>
        <time>2015-07-13T20:08:08.806Z</time>
      </trkpt>
      <trkpt lat="48.84557" lon="2.28806">
        <ele>112.1</ele>
        <time>2015-07-13T20:08:09.813Z</time>
      </trkpt>
      <trkpt lat="48.84555" lon="2.28815">
        <ele>111.9</ele>
        <time>2015-07-13T20:08:10.833Z</time>
      </trkpt>
      <trkpt lat="48.84551" lon="2.2882">
        <ele>111.8</ele>
        <time>2015-07-13T20:08:11.847Z</time>
      </trkpt>
      <trkpt lat="48.84546" lon="2.28831">
        <ele>111.2</ele>
        <time>2015-07-13T20:08:13.763Z</time>
      </trkpt>
      <trkpt lat="48.84543" lon="2.28836">
        <ele>111.1</ele>
        <time>2015-07-13T20:08:14.774Z</time>
      </trkpt>
      <trkpt lat="48.8454" lon="2.28842">
        <ele>110.8</ele>
        <time>2015-07-13T20:08:15.801Z</time>
      </trkpt>
      <trkpt lat="48.84537" lon="2.28848">
        <ele>110.7</ele>
        <time>2015-07-13T20:08:16.848Z</time>
      </trkpt>
      <trkpt lat="48.84534" lon="2.28855">
        <ele>110.6</ele>
        <time>2015-07-13T20:08:17.869Z</time>
      </trkpt>
      <trkpt lat="48.8453" lon="2.28862">
        <ele>110.6</ele>
        <time>2015-07-13T20:08:18.767Z</time>
      </trkpt>
      <trkpt lat="48.84527" lon="2.28869">
        <ele>110.7</ele>
        <time>2015-07-13T20:08:19.787Z</time>
      </trkpt>
      <trkpt lat="48.84525" lon="2.28877">
        <ele>110.9</ele>
        <time>2015-07-13T20:08:20.799Z</time>
      </trkpt>
      <trkpt lat="48.84522" lon="2.28884">
        <ele>111.2</ele>
        <time>2015-07-13T20:08:21.814Z</time>
      </trkpt>
      <trkpt lat="48.84521" lon="2.2889">
        <ele>111</ele>
        <time>2015-07-13T20:08:22.821Z</time>
      </trkpt>
      <trkpt lat="48.8452" lon="2.28897">
        <ele>110.9</ele>
        <time>2015-07-13T20:08:23.842Z</time>
      </trkpt>
      <trkpt lat="48.84518" lon="2.28904">
        <ele>110.8</ele>
        <time>2015-07-13T20:08:24.771Z</time>
      </trkpt>
      <trkpt lat="48.84518" lon="2.28912">
        <ele>110.7</ele>
        <time>2015-07-13T20:08:25.769Z</time>
      </trkpt>
      <trkpt lat="48.84517" lon="2.28921">
        <ele>110.3</ele>
        <time>2015-07-13T20:08:26.765Z</time>
      </trkpt>
      <trkpt lat="48.84514" lon="2.28928">
        <ele>110.5</ele>
        <time>2015-07-13T20:08:27.775Z</time>
      </trkpt>
      <trkpt lat="48.84512" lon="2.28935">
        <ele>110.8</ele>
        <time>2015-07-13T20:08:28.781Z</time>
      </trkpt>
      <trkpt lat="48.8451" lon="2.2894">
        <ele>110.6</ele>
        <time>2015-07-13T20:08:29.839Z</time>
      </trkpt>
      <trkpt lat="48.84508" lon="2.28947">
        <ele>110.8</ele>
        <time>2015-07-13T20:08:30.829Z</time>
      </trkpt>
      <trkpt lat="48.84506" lon="2.28953">
        <ele>111.2</ele>
        <time>2015-07-13T20:08:31.759Z</time>
      </trkpt>
      <trkpt lat="48.84503" lon="2.2896">
        <ele>111.6</ele>
        <time>2015-07-13T20:08:32.765Z</time>
      </trkpt>
      <trkpt lat="48.845" lon="2.28966">
        <ele>111.9</ele>
        <time>2015-07-13T20:08:33.766Z</time>
      </trkpt>
      <trkpt lat="48.84496" lon="2.28971">
        <ele>112.1</ele>
        <time>2015-07-13T20:08:34.770Z</time>
      </trkpt>
      <trkpt lat="48.8449" lon="2.28978">
        <ele>111.7</ele>
        <time>2015-07-13T20:08:35.795Z</time>
      </trkpt>
      <trkpt lat="48.84488" lon="2.28982">
        <ele>111.8</ele>
        <time>2015-07-13T20:08:36.796Z</time>
      </trkpt>
      <trkpt lat="48.84482" lon="2.28993">
        <ele>111.3</ele>
        <time>2015-07-13T20:08:38.819Z</time>
      </trkpt>
      <trkpt lat="48.84479" lon="2.28998">
        <ele>111.2</ele>
        <time>2015-07-13T20:08:39.832Z</time>
      </trkpt>
      <trkpt lat="48.84477" lon="2.29008">
        <ele>110.5</ele>
        <time>2015-07-13T20:08:41.846Z</time>
      </trkpt>
      <trkpt lat="48.84476" lon="2.29012">
        <ele>110.3</ele>
        <time>2015-07-13T20:08:42.795Z</time>
      </trkpt>
      <trkpt lat="48.84474" lon="2.29024">
        <ele>108.5</ele>
        <time>2015-07-13T20:08:44.837Z</time>
      </trkpt>
      <trkpt lat="48.84471" lon="2.2903">
        <ele>107.7</ele>
        <time>2015-07-13T20:08:45.857Z</time>
      </trkpt>
      <trkpt lat="48.84466" lon="2.29037">
        <ele>107.7</ele>
        <time>2015-07-13T20:08:47.813Z</time>
      </trkpt>
      <trkpt lat="48.84463" lon="2.29043">
        <ele>107.8</ele>
        <time>2015-07-13T20:08:48.846Z</time>
      </trkpt>
      <trkpt lat="48.8446" lon="2.29051">
        <ele>108.6</ele>
        <time>2015-07-13T20:08:50.858Z</time>
      </trkpt>
      <trkpt lat="48.84458" lon="2.29057">
        <ele>108.9</ele>
        <time>2015-07-13T20:08:51.840Z</time>
      </trkpt>
      <trkpt lat="48.84456" lon="2.29062">
        <ele>109.1</ele>
        <time>2015-07-13T20:08:52.795Z</time>
      </trkpt>
      <trkpt lat="48.84454" lon="2.2907">
        <ele>109.9</ele>
        <time>2015-07-13T20:08:53.847Z</time>
      </trkpt>
      <trkpt lat="48.84452" lon="2.29077">
        <ele>110.8</ele>
        <time>2015-07-13T20:08:54.838Z</time>
      </trkpt>
      <trkpt lat="48.84451" lon="2.29083">
        <ele>111.5</ele>
        <time>2015-07-13T20:08:55.857Z</time>
      </trkpt>
      <trkpt lat="48.84449" lon="2.29089">
        <ele>111.9</ele>
        <time>2015-07-13T20:08:56.871Z</time>
      </trkpt>
      <trkpt lat="48.84446" lon="2.29095">
        <ele>112.4</ele>
        <time>2015-07-13T20:08:57.756Z</time>
      </trkpt>
      <trkpt lat="48.84443" lon="2.29101">
        <ele>112.7</ele>
        <time>2015-07-13T20:08:58.795Z</time>
      </trkpt>
      <trkpt lat="48.8444" lon="2.29109">
        <ele>113.2</ele>
        <time>2015-07-13T20:08:59.904Z</time>
      </trkpt>
      <trkpt lat="48.84438" lon="2.29117">
        <ele>113.6</ele>
        <time>2015-07-13T20:09:00.743Z</time>
      </trkpt>
      <trkpt lat="48.84436" lon="2.29123">
        <ele>113.9</ele>
        <time>2015-07-13T20:09:01.751Z</time>
      </trkpt>
      <trkpt lat="48.84433" lon="2.2913">
        <ele>114</ele>
        <time>2015-07-13T20:09:02.622Z</time>
      </trkpt>
      <trkpt lat="48.8443" lon="2.29137">
        <ele>114.4</ele>
        <time>2015-07-13T20:09:03.798Z</time>
      </trkpt>
      <trkpt lat="48.84427" lon="2.29143">
        <ele>114.8</ele>
        <time>2015-07-13T20:09:04.861Z</time>
      </trkpt>
      <trkpt lat="48.84425" lon="2.29149">
        <ele>115.1</ele>
        <time>2015-07-13T20:09:05.870Z</time>
      </trkpt>
      <trkpt lat="48.84422" lon="2.29154">
        <ele>115.1</ele>
        <time>2015-07-13T20:09:06.764Z</time>
      </trkpt>
      <trkpt lat="48.84418" lon="2.2916">
        <ele>115.2</ele>
        <time>2015-07-13T20:09:07.757Z</time>
      </trkpt>
      <trkpt lat="48.84415" lon="2.29167">
        <ele>115.3</ele>
        <time>2015-07-13T20:09:08.800Z</time>
      </trkpt>
      <trkpt lat="48.84413" lon="2.29175">
        <ele>115.5</ele>
        <time>2015-07-13T20:09:09.815Z</time>
      </trkpt>
      <trkpt lat="48.84409" lon="2.29182">
        <ele>115.4</ele>
        <time>2015-07-13T20:09:10.810Z</time>
      </trkpt>
      <trkpt lat="48.84407" lon="2.29187">
        <ele>115.5</ele>
        <time>2015-07-13T20:09:11.820Z</time>
      </trkpt>
      <trkpt lat="48.84404" lon="2.29193">
        <ele>115.2</ele>
        <time>2015-07-13T20:09:12.755Z</time>
      </trkpt>
      <trkpt lat="48.84401" lon="2.292">
        <ele>114.9</ele>
        <time>2015-07-13T20:09:13.806Z</time>
      </trkpt>
      <trkpt lat="48.84399" lon="2.29207">
        <ele>114.9</ele>
        <time>2015-07-13T20:09:14.815Z</time>
      </trkpt>
      <trkpt lat="48.84397" lon="2.29214">
        <ele>114.6</ele>
        <time>2015-07-13T20:09:15.825Z</time>
      </trkpt>
      <trkpt lat="48.84394" lon="2.29222">
        <ele>114.4</ele>
        <time>2015-07-13T20:09:16.745Z</time>
      </trkpt>
      <trkpt lat="48.84391" lon="2.2923">
        <ele>114.3</ele>
        <time>2015-07-13T20:09:17.833Z</time>
      </trkpt>
      <trkpt lat="48.84388" lon="2.29238">
        <ele>113.9</ele>
        <time>2015-07-13T20:09:18.784Z</time>
      </trkpt>
      <trkpt lat="48.84384" lon="2.29245">
        <ele>113.4</ele>
        <time>2015-07-13T20:09:19.769Z</time>
      </trkpt>
      <trkpt lat="48.84381" lon="2.29252">
        <ele>112.9</ele>
        <time>2015-07-13T20:09:20.776Z</time>
      </trkpt>
      <trkpt lat="48.84379" lon="2.29259">
        <ele>112.3</ele>
        <time>2015-07-13T20:09:21.790Z</time>
      </trkpt>
      <trkpt lat="48.84376" lon="2.29265">
        <ele>112.1</ele>
        <time>2015-07-13T20:09:22.818Z</time>
      </trkpt>
      <trkpt lat="48.84372" lon="2.29271">
        <ele>111.9</ele>
        <time>2015-07-13T20:09:23.823Z</time>
      </trkpt>
      <trkpt lat="48.84368" lon="2.29276">
        <ele>111.7</ele>
        <time>2015-07-13T20:09:24.838Z</time>
      </trkpt>
      <trkpt lat="48.84366" lon="2.29283">
        <ele>111.2</ele>
        <time>2015-07-13T20:09:25.851Z</time>
      </trkpt>
      <trkpt lat="48.84364" lon="2.29292">
        <ele>110.2</ele>
        <time>2015-07-13T20:09:26.853Z</time>
      </trkpt>
      <trkpt lat="48.84362" lon="2.293">
        <ele>109.3</ele>
        <time>2015-07-13T20:09:27.800Z</time>
      </trkpt>
      <trkpt lat="48.84359" lon="2.29306">
        <ele>109.3</ele>
        <time>2015-07-13T20:09:28.770Z</time>
      </trkpt>
      <trkpt lat="48.84356" lon="2.29313">
        <ele>109.8</ele>
        <time>2015-07-13T20:09:29.849Z</time>
      </trkpt>
      <trkpt lat="48.84351" lon="2.29324">
        <ele>110.4</ele>
        <time>2015-07-13T20:09:31.763Z</time>
      </trkpt>
      <trkpt lat="48.84349" lon="2.2933">
        <ele>110.3</ele>
        <time>2015-07-13T20:09:32.790Z</time>
      </trkpt>
      <trkpt lat="48.84344" lon="2.2934">
        <ele>110</ele>
        <time>2015-07-13T20:09:36.801Z</time>
      </trkpt>
      <trkpt lat="48.84344" lon="2.29343">
        <ele>109.6</ele>
        <time>2015-07-13T20:09:37.812Z</time>
      </trkpt>
      <trkpt lat="48.84344" lon="2.29342">
        <ele>108.3</ele>
        <time>2015-07-13T20:09:48.834Z</time>
      </trkpt>
      <trkpt lat="48.84353" lon="2.29337">
        <ele>105.6</ele>
        <time>2015-07-13T20:09:49.814Z</time>
      </trkpt>
      <trkpt lat="48.84358" lon="2.29347">
        <ele>104.4</ele>
        <time>2015-07-13T20:09:51.851Z</time>
      </trkpt>
      <trkpt lat="48.8436" lon="2.29354">
        <ele>103.6</ele>
        <time>2015-07-13T20:09:52.808Z</time>
      </trkpt>
      <trkpt lat="48.84361" lon="2.29365">
        <ele>104</ele>
        <time>2015-07-13T20:09:54.847Z</time>
      </trkpt>
      <trkpt lat="48.8436" lon="2.29371">
        <ele>104.3</ele>
        <time>2015-07-13T20:09:55.754Z</time>
      </trkpt>
      <trkpt lat="48.84357" lon="2.29376">
        <ele>104.4</ele>
        <time>2015-07-13T20:09:56.784Z</time>
      </trkpt>
      <trkpt lat="48.84353" lon="2.29382">
        <ele>104.5</ele>
        <time>2015-07-13T20:09:57.805Z</time>
      </trkpt>
      <trkpt lat="48.84351" lon="2.29389">
        <ele>104.7</ele>
        <time>2015-07-13T20:09:58.827Z</time>
      </trkpt>
      <trkpt lat="48.84347" lon="2.29396">
        <ele>104.6</ele>
        <time>2015-07-13T20:09:59.853Z</time>
      </trkpt>
      <trkpt lat="48.84345" lon="2.29402">
        <ele>104.3</ele>
        <time>2015-07-13T20:10:00.753Z</time>
      </trkpt>
      <trkpt lat="48.84342" lon="2.29407">
        <ele>104</ele>
        <time>2015-07-13T20:10:01.778Z</time>
      </trkpt>
      <trkpt lat="48.84338" lon="2.29418">
        <ele>103.5</ele>
        <time>2015-07-13T20:10:03.854Z</time>
      </trkpt>
      <trkpt lat="48.84333" lon="2.29422">
        <ele>103.5</ele>
        <time>2015-07-13T20:10:04.768Z</time>
      </trkpt>
      <trkpt lat="48.84329" lon="2.29429">
        <ele>103.4</ele>
        <time>2015-07-13T20:10:05.817Z</time>
      </trkpt>
      <trkpt lat="48.84324" lon="2.29437">
        <ele>103.4</ele>
        <time>2015-07-13T20:10:06.809Z</time>
      </trkpt>
      <trkpt lat="48.84319" lon="2.29446">
        <ele>103.6</ele>
        <time>2015-07-13T20:10:07.817Z</time>
      </trkpt>
      <trkpt lat="48.84314" lon="2.29455">
        <ele>103.8</ele>
        <time>2015-07-13T20:10:08.821Z</time>
      </trkpt>
      <trkpt lat="48.84311" lon="2.29464">
        <ele>104</ele>
        <time>2015-07-13T20:10:09.827Z</time>
      </trkpt>
      <trkpt lat="48.84309" lon="2.2947">
        <ele>104.5</ele>
        <time>2015-07-13T20:10:10.844Z</time>
      </trkpt>
      <trkpt lat="48.84308" lon="2.29477">
        <ele>104.8</ele>
        <time>2015-07-13T20:10:11.893Z</time>
      </trkpt>
      <trkpt lat="48.84309" lon="2.29485">
        <ele>104.7</ele>
        <time>2015-07-13T20:10:12.765Z</time>
      </trkpt>
      <trkpt lat="48.84308" lon="2.29493">
        <ele>104.5</ele>
        <time>2015-07-13T20:10:13.779Z</time>
      </trkpt>
      <trkpt lat="48.84306" lon="2.295">
        <ele>104.8</ele>
        <time>2015-07-13T20:10:14.808Z</time>
      </trkpt>
      <trkpt lat="48.84303" lon="2.2951">
        <ele>105.4</ele>
        <time>2015-07-13T20:10:16.787Z</time>
      </trkpt>
      <trkpt lat="48.84301" lon="2.29513">
        <ele>105.7</ele>
        <time>2015-07-13T20:10:17.816Z</time>
      </trkpt>
      <trkpt lat="48.84296" lon="2.29518">
        <ele>105.9</ele>
        <time>2015-07-13T20:10:19.844Z</time>
      </trkpt>
      <trkpt lat="48.84291" lon="2.29522">
        <ele>105.3</ele>
        <time>2015-07-13T20:10:20.793Z</time>
      </trkpt>
      <trkpt lat="48.84286" lon="2.29527">
        <ele>104.3</ele>
        <time>2015-07-13T20:10:21.782Z</time>
      </trkpt>
      <trkpt lat="48.84281" lon="2.29531">
        <ele>103.6</ele>
        <time>2015-07-13T20:10:22.780Z</time>
      </trkpt>
      <trkpt lat="48.84277" lon="2.29536">
        <ele>103.5</ele>
        <time>2015-07-13T20:10:23.804Z</time>
      </trkpt>
      <trkpt lat="48.84272" lon="2.2954">
        <ele>103.4</ele>
        <time>2015-07-13T20:10:24.851Z</time>
      </trkpt>
      <trkpt lat="48.84263" lon="2.29543">
        <ele>102.5</ele>
        <time>2015-07-13T20:10:26.784Z</time>
      </trkpt>
      <trkpt lat="48.8426" lon="2.29546">
        <ele>101.9</ele>
        <time>2015-07-13T20:10:27.875Z</time>
      </trkpt>
      <trkpt lat="48.84253" lon="2.29552">
        <ele>100.9</ele>
        <time>2015-07-13T20:10:29.891Z</time>
      </trkpt>
      <trkpt lat="48.84249" lon="2.29555">
        <ele>100.3</ele>
        <time>2015-07-13T20:10:30.862Z</time>
      </trkpt>
      <trkpt lat="48.84241" lon="2.29561">
        <ele>99.9</ele>
        <time>2015-07-13T20:10:32.808Z</time>
      </trkpt>
      <trkpt lat="48.84238" lon="2.29563">
        <ele>99.4</ele>
        <time>2015-07-13T20:10:33.811Z</time>
      </trkpt>
      <trkpt lat="48.84234" lon="2.29566">
        <ele>99.3</ele>
        <time>2015-07-13T20:10:34.833Z</time>
      </trkpt>
      <trkpt lat="48.8423" lon="2.2957">
        <ele>98.9</ele>
        <time>2015-07-13T20:10:35.838Z</time>
      </trkpt>
      <trkpt lat="48.84225" lon="2.29573">
        <ele>98.8</ele>
        <time>2015-07-13T20:10:37.226Z</time>
      </trkpt>
      <trkpt lat="48.8422" lon="2.29576">
        <ele>98.9</ele>
        <time>2015-07-13T20:10:37.775Z</time>
      </trkpt>
      <trkpt lat="48.84216" lon="2.29579">
        <ele>98.7</ele>
        <time>2015-07-13T20:10:38.783Z</time>
      </trkpt>
      <trkpt lat="48.84212" lon="2.29583">
        <ele>98.6</ele>
        <time>2015-07-13T20:10:39.808Z</time>
      </trkpt>
      <trkpt lat="48.84205" lon="2.2959">
        <ele>98.3</ele>
        <time>2015-07-13T20:10:42.264Z</time>
      </trkpt>
      <trkpt lat="48.84202" lon="2.29594">
        <ele>98.1</ele>
        <time>2015-07-13T20:10:42.744Z</time>
      </trkpt>
      <trkpt lat="48.84195" lon="2.296">
        <ele>97.8</ele>
        <time>2015-07-13T20:10:45.109Z</time>
      </trkpt>
      <trkpt lat="48.8419" lon="2.29604">
        <ele>97.8</ele>
        <time>2015-07-13T20:10:45.772Z</time>
      </trkpt>
      <trkpt lat="48.84186" lon="2.29608">
        <ele>97.7</ele>
        <time>2015-07-13T20:10:47.300Z</time>
      </trkpt>
      <trkpt lat="48.84181" lon="2.29613">
        <ele>97.6</ele>
        <time>2015-07-13T20:10:47.849Z</time>
      </trkpt>
      <trkpt lat="48.84177" lon="2.2962">
        <ele>96.3</ele>
        <time>2015-07-13T20:10:48.770Z</time>
      </trkpt>
      <trkpt lat="48.84172" lon="2.29623">
        <ele>95.8</ele>
        <time>2015-07-13T20:10:49.783Z</time>
      </trkpt>
      <trkpt lat="48.84168" lon="2.29627">
        <ele>95.6</ele>
        <time>2015-07-13T20:10:50.791Z</time>
      </trkpt>
      <trkpt lat="48.84163" lon="2.29631">
        <ele>95.4</ele>
        <time>2015-07-13T20:10:51.793Z</time>
      </trkpt>
      <trkpt lat="48.84158" lon="2.29636">
        <ele>95.3</ele>
        <time>2015-07-13T20:10:52.814Z</time>
      </trkpt>
      <trkpt lat="48.84153" lon="2.2964">
        <ele>95.1</ele>
        <time>2015-07-13T20:10:53.827Z</time>
      </trkpt>
      <trkpt lat="48.8415" lon="2.29647">
        <ele>95.1</ele>
        <time>2015-07-13T20:10:54.832Z</time>
      </trkpt>
      <trkpt lat="48.84145" lon="2.29651">
        <ele>95.4</ele>
        <time>2015-07-13T20:10:55.858Z</time>
      </trkpt>
      <trkpt lat="48.8414" lon="2.29656">
        <ele>95.9</ele>
        <time>2015-07-13T20:10:56.773Z</time>
      </trkpt>
      <trkpt lat="48.84136" lon="2.29663">
        <ele>96.3</ele>
        <time>2015-07-13T20:10:57.777Z</time>
      </trkpt>
      <trkpt lat="48.84132" lon="2.29672">
        <ele>97.3</ele>
        <time>2015-07-13T20:10:58.802Z</time>
      </trkpt>
      <trkpt lat="48.84129" lon="2.29678">
        <ele>97.3</ele>
        <time>2015-07-13T20:10:59.832Z</time>
      </trkpt>
      <trkpt lat="48.84124" lon="2.29686">
        <ele>98.6</ele>
        <time>2015-07-13T20:11:01.758Z</time>
      </trkpt>
      <trkpt lat="48.84121" lon="2.29688">
        <ele>98.7</ele>
        <time>2015-07-13T20:11:02.855Z</time>
      </trkpt>
      <trkpt lat="48.84114" lon="2.29694">
        <ele>98.8</ele>
        <time>2015-07-13T20:11:04.781Z</time>
      </trkpt>
      <trkpt lat="48.84111" lon="2.29696">
        <ele>99.3</ele>
        <time>2015-07-13T20:11:05.801Z</time>
      </trkpt>
      <trkpt lat="48.84104" lon="2.29702">
        <ele>100</ele>
        <time>2015-07-13T20:11:07.831Z</time>
      </trkpt>
      <trkpt lat="48.84101" lon="2.29705">
        <ele>100.6</ele>
        <time>2015-07-13T20:11:08.819Z</time>
      </trkpt>
      <trkpt lat="48.84096" lon="2.29712">
        <ele>101.3</ele>
        <time>2015-07-13T20:11:10.821Z</time>
      </trkpt>
      <trkpt lat="48.84094" lon="2.29717">
        <ele>101.6</ele>
        <time>2015-07-13T20:11:11.862Z</time>
      </trkpt>
      <trkpt lat="48.84094" lon="2.29726">
        <ele>100.8</ele>
        <time>2015-07-13T20:11:13.747Z</time>
      </trkpt>
      <trkpt lat="48.84095" lon="2.29732">
        <ele>100.2</ele>
        <time>2015-07-13T20:11:14.782Z</time>
      </trkpt>
      <trkpt lat="48.84098" lon="2.29737">
        <ele>99.5</ele>
        <time>2015-07-13T20:11:15.794Z</time>
      </trkpt>
      <trkpt lat="48.84102" lon="2.29744">
        <ele>97.9</ele>
        <time>2015-07-13T20:11:16.811Z</time>
      </trkpt>
      <trkpt lat="48.84105" lon="2.29751">
        <ele>97.2</ele>
        <time>2015-07-13T20:11:17.837Z</time>
      </trkpt>
      <trkpt lat="48.84109" lon="2.29757">
        <ele>97.1</ele>
        <time>2015-07-13T20:11:18.907Z</time>
      </trkpt>
      <trkpt lat="48.84112" lon="2.29766">
        <ele>97.3</ele>
        <time>2015-07-13T20:11:19.850Z</time>
      </trkpt>
      <trkpt lat="48.84114" lon="2.29774">
        <ele>97.2</ele>
        <time>2015-07-13T20:11:20.758Z</time>
      </trkpt>
      <trkpt lat="48.84115" lon="2.29783">
        <ele>97.3</ele>
        <time>2015-07-13T20:11:21.805Z</time>
      </trkpt>
      <trkpt lat="48.84118" lon="2.2979">
        <ele>97.4</ele>
        <time>2015-07-13T20:11:22.760Z</time>
      </trkpt>
      <trkpt lat="48.8412" lon="2.29797">
        <ele>97.5</ele>
        <time>2015-07-13T20:11:23.835Z</time>
      </trkpt>
      <trkpt lat="48.84122" lon="2.29803">
        <ele>97.3</ele>
        <time>2015-07-13T20:11:24.820Z</time>
      </trkpt>
      <trkpt lat="48.84124" lon="2.2981">
        <ele>97.4</ele>
        <time>2015-07-13T20:11:25.858Z</time>
      </trkpt>
      <trkpt lat="48.84126" lon="2.29816">
        <ele>97.4</ele>
        <time>2015-07-13T20:11:26.775Z</time>
      </trkpt>
      <trkpt lat="48.84129" lon="2.29821">
        <ele>97.8</ele>
        <time>2015-07-13T20:11:27.994Z</time>
      </trkpt>
      <trkpt lat="48.84132" lon="2.29826">
        <ele>98.5</ele>
        <time>2015-07-13T20:11:28.837Z</time>
      </trkpt>
      <trkpt lat="48.84135" lon="2.29832">
        <ele>98.8</ele>
        <time>2015-07-13T20:11:29.849Z</time>
      </trkpt>
      <trkpt lat="48.84138" lon="2.29838">
        <ele>99.3</ele>
        <time>2015-07-13T20:11:30.818Z</time>
      </trkpt>
      <trkpt lat="48.84141" lon="2.2985">
        <ele>99.7</ele>
        <time>2015-07-13T20:11:32.770Z</time>
      </trkpt>
      <trkpt lat="48.84142" lon="2.29856">
        <ele>99.8</ele>
        <time>2015-07-13T20:11:33.779Z</time>
      </trkpt>
      <trkpt lat="48.84145" lon="2.29869">
        <ele>100.2</ele>
        <time>2015-07-13T20:11:35.868Z</time>
      </trkpt>
      <trkpt lat="48.84147" lon="2.29874">
        <ele>100.4</ele>
        <time>2015-07-13T20:11:36.763Z</time>
      </trkpt>
      <trkpt lat="48.84151" lon="2.29885">
        <ele>101.2</ele>
        <time>2015-07-13T20:11:38.778Z</time>
      </trkpt>
      <trkpt lat="48.84153" lon="2.2989">
        <ele>101.2</ele>
        <time>2015-07-13T20:11:39.792Z</time>
      </trkpt>
      <trkpt lat="48.84156" lon="2.29899">
        <ele>101.1</ele>
        <time>2015-07-13T20:11:41.829Z</time>
      </trkpt>
      <trkpt lat="48.84158" lon="2.29903">
        <ele>100.8</ele>
        <time>2015-07-13T20:11:42.854Z</time>
      </trkpt>
      <trkpt lat="48.84156" lon="2.29916">
        <ele>101</ele>
        <time>2015-07-13T20:11:46.807Z</time>
      </trkpt>
      <trkpt lat="48.84153" lon="2.2992">
        <ele>100.2</ele>
        <time>2015-07-13T20:11:47.821Z</time>
      </trkpt>
      <trkpt lat="48.84151" lon="2.29929">
        <ele>99.9</ele>
        <time>2015-07-13T20:11:59.841Z</time>
      </trkpt>
      <trkpt lat="48.84146" lon="2.29953">
        <ele>102.1</ele>
        <time>2015-07-13T20:12:00.737Z</time>
      </trkpt>
      <trkpt lat="48.84141" lon="2.29959">
        <ele>102.2</ele>
        <time>2015-07-13T20:12:02.778Z</time>
      </trkpt>
      <trkpt lat="48.84139" lon="2.29963">
        <ele>102.3</ele>
        <time>2015-07-13T20:12:03.795Z</time>
      </trkpt>
      <trkpt lat="48.84133" lon="2.2997">
        <ele>102.3</ele>
        <time>2015-07-13T20:12:06.786Z</time>
      </trkpt>
      <trkpt lat="48.84132" lon="2.29974">
        <ele>102</ele>
        <time>2015-07-13T20:12:07.780Z</time>
      </trkpt>
      <trkpt lat="48.84128" lon="2.29986">
        <ele>100.4</ele>
        <time>2015-07-13T20:12:11.835Z</time>
      </trkpt>
      <trkpt lat="48.84126" lon="2.29988">
        <ele>100.4</ele>
        <time>2015-07-13T20:12:13.000Z</time>
      </trkpt>
      <trkpt lat="48.84119" lon="2.29992">
        <ele>93.1</ele>
        <time>2015-07-13T20:13:46.789Z</time>
      </trkpt>
      <trkpt lat="48.84117" lon="2.29993">
        <ele>93</ele>
        <time>2015-07-13T20:13:47.809Z</time>
      </trkpt>
      <trkpt lat="48.84116" lon="2.29993">
        <ele>92.9</ele>
        <time>2015-07-13T20:14:14.801Z</time>
      </trkpt>
      <trkpt lat="48.84085" lon="2.30025">
        <ele>97</ele>
        <time>2015-07-13T20:14:15.797Z</time>
      </trkpt>
      <trkpt lat="48.84087" lon="2.30036">
        <ele>92.4</ele>
        <time>2015-07-13T20:14:46.787Z</time>
      </trkpt>
      <trkpt lat="48.84088" lon="2.30039">
        <ele>92.6</ele>
        <time>2015-07-13T20:14:47.835Z</time>
      </trkpt>
      <trkpt lat="48.84087" lon="2.30051">
        <ele>92.8</ele>
        <time>2015-07-13T20:14:51.886Z</time>
      </trkpt>
      <trkpt lat="48.84085" lon="2.30055">
        <ele>93.1</ele>
        <time>2015-07-13T20:14:52.748Z</time>
      </trkpt>
      <trkpt lat="48.8408" lon="2.30061">
        <ele>93.4</ele>
        <time>2015-07-13T20:14:54.833Z</time>
      </trkpt>
      <trkpt lat="48.84077" lon="2.30064">
        <ele>93.6</ele>
        <time>2015-07-13T20:14:55.848Z</time>
      </trkpt>
      <trkpt lat="48.8407" lon="2.30067">
        <ele>93</ele>
        <time>2015-07-13T20:14:57.855Z</time>
      </trkpt>
      <trkpt lat="48.84067" lon="2.30068">
        <ele>92.7</ele>
        <time>2015-07-13T20:14:58.793Z</time>
      </trkpt>
      <trkpt lat="48.84059" lon="2.30069">
        <ele>92.4</ele>
        <time>2015-07-13T20:15:00.745Z</time>
      </trkpt>
      <trkpt lat="48.84055" lon="2.30071">
        <ele>92.3</ele>
        <time>2015-07-13T20:15:01.798Z</time>
      </trkpt>
      <trkpt lat="48.84048" lon="2.30076">
        <ele>92.7</ele>
        <time>2015-07-13T20:15:04.191Z</time>
      </trkpt>
      <trkpt lat="48.84045" lon="2.30079">
        <ele>92.9</ele>
        <time>2015-07-13T20:15:04.822Z</time>
      </trkpt>
      <trkpt lat="48.84038" lon="2.30086">
        <ele>93.2</ele>
        <time>2015-07-13T20:15:06.769Z</time>
      </trkpt>
      <trkpt lat="48.84033" lon="2.30089">
        <ele>93.2</ele>
        <time>2015-07-13T20:15:07.762Z</time>
      </trkpt>
      <trkpt lat="48.84026" lon="2.30091">
        <ele>93.3</ele>
        <time>2015-07-13T20:15:09.803Z</time>
      </trkpt>
      <trkpt lat="48.84022" lon="2.30091">
        <ele>93.3</ele>
        <time>2015-07-13T20:15:10.808Z</time>
      </trkpt>
      <trkpt lat="48.84016" lon="2.30094">
        <ele>93.3</ele>
        <time>2015-07-13T20:15:12.859Z</time>
      </trkpt>
      <trkpt lat="48.84012" lon="2.30095">
        <ele>93.6</ele>
        <time>2015-07-13T20:15:13.731Z</time>
      </trkpt>
      <trkpt lat="48.84006" lon="2.30099">
        <ele>93.9</ele>
        <time>2015-07-13T20:15:15.769Z</time>
      </trkpt>
      <trkpt lat="48.84003" lon="2.30101">
        <ele>94</ele>
        <time>2015-07-13T20:15:16.747Z</time>
      </trkpt>
      <trkpt lat="48.83996" lon="2.30103">
        <ele>94.4</ele>
        <time>2015-07-13T20:15:18.804Z</time>
      </trkpt>
      <trkpt lat="48.83993" lon="2.30105">
        <ele>94.6</ele>
        <time>2015-07-13T20:15:19.829Z</time>
      </trkpt>
      <trkpt lat="48.83987" lon="2.30109">
        <ele>94.9</ele>
        <time>2015-07-13T20:15:21.737Z</time>
      </trkpt>
      <trkpt lat="48.83984" lon="2.30111">
        <ele>95</ele>
        <time>2015-07-13T20:15:22.752Z</time>
      </trkpt>
      <trkpt lat="48.83979" lon="2.30117">
        <ele>95.4</ele>
        <time>2015-07-13T20:15:24.745Z</time>
      </trkpt>
      <trkpt lat="48.83977" lon="2.30121">
        <ele>95.7</ele>
        <time>2015-07-13T20:15:25.758Z</time>
      </trkpt>
      <trkpt lat="48.83969" lon="2.30123">
        <ele>96.7</ele>
        <time>2015-07-13T20:15:28.964Z</time>
      </trkpt>
      <trkpt lat="48.83967" lon="2.30124">
        <ele>97.2</ele>
        <time>2015-07-13T20:15:29.875Z</time>
      </trkpt>
      <trkpt lat="48.8396" lon="2.30126">
        <ele>100.1</ele>
        <time>2015-07-13T20:15:32.743Z</time>
      </trkpt>
      <trkpt lat="48.83957" lon="2.30129">
        <ele>101.7</ele>
        <time>2015-07-13T20:15:33.760Z</time>
      </trkpt>
      <trkpt lat="48.83955" lon="2.30139">
        <ele>102</ele>
        <time>2015-07-13T20:15:36.789Z</time>
      </trkpt>
      <trkpt lat="48.83954" lon="2.30143">
        <ele>102.1</ele>
        <time>2015-07-13T20:15:37.802Z</time>
      </trkpt>
      <trkpt lat="48.83957" lon="2.30151">
        <ele>100.8</ele>
        <time>2015-07-13T20:15:39.739Z</time>
      </trkpt>
      <trkpt lat="48.83958" lon="2.30157">
        <ele>100.5</ele>
        <time>2015-07-13T20:15:40.860Z</time>
      </trkpt>
      <trkpt lat="48.8396" lon="2.30167">
        <ele>100.3</ele>
        <time>2015-07-13T20:15:42.768Z</time>
      </trkpt>
      <trkpt lat="48.83961" lon="2.30172">
        <ele>100.2</ele>
        <time>2015-07-13T20:15:43.784Z</time>
      </trkpt>
      <trkpt lat="48.83965" lon="2.30181">
        <ele>99.9</ele>
        <time>2015-07-13T20:15:45.811Z</time>
      </trkpt>
      <trkpt lat="48.83966" lon="2.30186">
        <ele>99.7</ele>
        <time>2015-07-13T20:15:46.818Z</time>
      </trkpt>
      <trkpt lat="48.83969" lon="2.30198">
        <ele>100.1</ele>
        <time>2015-07-13T20:15:49.456Z</time>
      </trkpt>
      <trkpt lat="48.83972" lon="2.30203">
        <ele>100.5</ele>
        <time>2015-07-13T20:15:49.843Z</time>
      </trkpt>
      <trkpt lat="48.83976" lon="2.30213">
        <ele>101.8</ele>
        <time>2015-07-13T20:15:51.748Z</time>
      </trkpt>
      <trkpt lat="48.83979" lon="2.30219">
        <ele>102.6</ele>
        <time>2015-07-13T20:15:52.749Z</time>
      </trkpt>
      <trkpt lat="48.83982" lon="2.3023">
        <ele>102.9</ele>
        <time>2015-07-13T20:15:54.833Z</time>
      </trkpt>
      <trkpt lat="48.83984" lon="2.30235">
        <ele>103</ele>
        <time>2015-07-13T20:15:55.854Z</time>
      </trkpt>
      <trkpt lat="48.83987" lon="2.30248">
        <ele>103.4</ele>
        <time>2015-07-13T20:15:57.771Z</time>
      </trkpt>
      <trkpt lat="48.83989" lon="2.30254">
        <ele>104.2</ele>
        <time>2015-07-13T20:15:58.795Z</time>
      </trkpt>
      <trkpt lat="48.83994" lon="2.30264">
        <ele>105.5</ele>
        <time>2015-07-13T20:16:00.753Z</time>
      </trkpt>
      <trkpt lat="48.83998" lon="2.30269">
        <ele>107.1</ele>
        <time>2015-07-13T20:16:01.793Z</time>
      </trkpt>
      <trkpt lat="48.84" lon="2.30275">
        <ele>107.8</ele>
        <time>2015-07-13T20:16:02.787Z</time>
      </trkpt>
      <trkpt lat="48.84002" lon="2.30282">
        <ele>108.6</ele>
        <time>2015-07-13T20:16:03.796Z</time>
      </trkpt>
      <trkpt lat="48.84003" lon="2.30289">
        <ele>109.2</ele>
        <time>2015-07-13T20:16:04.805Z</time>
      </trkpt>
      <trkpt lat="48.84005" lon="2.30296">
        <ele>109.9</ele>
        <time>2015-07-13T20:16:05.842Z</time>
      </trkpt>
      <trkpt lat="48.84006" lon="2.30304">
        <ele>110.5</ele>
        <time>2015-07-13T20:16:06.789Z</time>
      </trkpt>
      <trkpt lat="48.84008" lon="2.30311">
        <ele>110.8</ele>
        <time>2015-07-13T20:16:07.861Z</time>
      </trkpt>
      <trkpt lat="48.8401" lon="2.30319">
        <ele>110.8</ele>
        <time>2015-07-13T20:16:08.775Z</time>
      </trkpt>
      <trkpt lat="48.84012" lon="2.30327">
        <ele>111.3</ele>
        <time>2015-07-13T20:16:09.814Z</time>
      </trkpt>
      <trkpt lat="48.84014" lon="2.30335">
        <ele>111.8</ele>
        <time>2015-07-13T20:16:10.827Z</time>
      </trkpt>
      <trkpt lat="48.84017" lon="2.30343">
        <ele>112.5</ele>
        <time>2015-07-13T20:16:11.839Z</time>
      </trkpt>
      <trkpt lat="48.84019" lon="2.30352">
        <ele>113</ele>
        <time>2015-07-13T20:16:12.853Z</time>
      </trkpt>
      <trkpt lat="48.84021" lon="2.30359">
        <ele>113.4</ele>
        <time>2015-07-13T20:16:13.772Z</time>
      </trkpt>
      <trkpt lat="48.84023" lon="2.30368">
        <ele>114</ele>
        <time>2015-07-13T20:16:14.782Z</time>
      </trkpt>
      <trkpt lat="48.84026" lon="2.30376">
        <ele>114.6</ele>
        <time>2015-07-13T20:16:15.789Z</time>
      </trkpt>
      <trkpt lat="48.84028" lon="2.30384">
        <ele>115</ele>
        <time>2015-07-13T20:16:16.821Z</time>
      </trkpt>
      <trkpt lat="48.8403" lon="2.30392">
        <ele>115.5</ele>
        <time>2015-07-13T20:16:17.840Z</time>
      </trkpt>
      <trkpt lat="48.84033" lon="2.30398">
        <ele>116</ele>
        <time>2015-07-13T20:16:18.853Z</time>
      </trkpt>
      <trkpt lat="48.84036" lon="2.30403">
        <ele>116.5</ele>
        <time>2015-07-13T20:16:19.778Z</time>
      </trkpt>
      <trkpt lat="48.84039" lon="2.30415">
        <ele>117.2</ele>
        <time>2015-07-13T20:16:21.999Z</time>
      </trkpt>
      <trkpt lat="48.84041" lon="2.30421">
        <ele>117.5</ele>
        <time>2015-07-13T20:16:22.790Z</time>
      </trkpt>
      <trkpt lat="48.84043" lon="2.30431">
        <ele>118.2</ele>
        <time>2015-07-13T20:16:24.852Z</time>
      </trkpt>
      <trkpt lat="48.84045" lon="2.30435">
        <ele>118.7</ele>
        <time>2015-07-13T20:16:25.857Z</time>
      </trkpt>
      <trkpt lat="48.84041" lon="2.30447">
        <ele>117.1</ele>
        <time>2015-07-13T20:16:28.809Z</time>
      </trkpt>
      <trkpt lat="48.84037" lon="2.3045">
        <ele>115.2</ele>
        <time>2015-07-13T20:16:29.862Z</time>
      </trkpt>
      <trkpt lat="48.84029" lon="2.30453">
        <ele>113.2</ele>
        <time>2015-07-13T20:16:31.779Z</time>
      </trkpt>
      <trkpt lat="48.84025" lon="2.30454">
        <ele>112.6</ele>
        <time>2015-07-13T20:16:32.794Z</time>
      </trkpt>
      <trkpt lat="48.84018" lon="2.30457">
        <ele>111.2</ele>
        <time>2015-07-13T20:16:34.803Z</time>
      </trkpt>
      <trkpt lat="48.84014" lon="2.30459">
        <ele>110.9</ele>
        <time>2015-07-13T20:16:35.854Z</time>
      </trkpt>
      <trkpt lat="48.84006" lon="2.30462">
        <ele>110.4</ele>
        <time>2015-07-13T20:16:37.760Z</time>
      </trkpt>
      <trkpt lat="48.84001" lon="2.30463">
        <ele>110.2</ele>
        <time>2015-07-13T20:16:38.768Z</time>
      </trkpt>
      <trkpt lat="48.83996" lon="2.30464">
        <ele>109.9</ele>
        <time>2015-07-13T20:16:39.778Z</time>
      </trkpt>
      <trkpt lat="48.83992" lon="2.30467">
        <ele>110</ele>
        <time>2015-07-13T20:16:40.812Z</time>
      </trkpt>
      <trkpt lat="48.83987" lon="2.3047">
        <ele>110.3</ele>
        <time>2015-07-13T20:16:41.882Z</time>
      </trkpt>
      <trkpt lat="48.83982" lon="2.30473">
        <ele>110.3</ele>
        <time>2015-07-13T20:16:42.766Z</time>
      </trkpt>
      <trkpt lat="48.83976" lon="2.30476">
        <ele>110.2</ele>
        <time>2015-07-13T20:16:43.783Z</time>
      </trkpt>
      <trkpt lat="48.8397" lon="2.30477">
        <ele>110.1</ele>
        <time>2015-07-13T20:16:44.794Z</time>
      </trkpt>
      <trkpt lat="48.83965" lon="2.30479">
        <ele>110.1</ele>
        <time>2015-07-13T20:16:45.802Z</time>
      </trkpt>
      <trkpt lat="48.8396" lon="2.30478">
        <ele>110.3</ele>
        <time>2015-07-13T20:16:46.816Z</time>
      </trkpt>
      <trkpt lat="48.83955" lon="2.3048">
        <ele>110.6</ele>
        <time>2015-07-13T20:16:46.983Z</time>
      </trkpt>
      <trkpt lat="48.83949" lon="2.30484">
        <ele>110.8</ele>
        <time>2015-07-13T20:16:48.734Z</time>
      </trkpt>
      <trkpt lat="48.83943" lon="2.30487">
        <ele>110.9</ele>
        <time>2015-07-13T20:16:49.773Z</time>
      </trkpt>
      <trkpt lat="48.83937" lon="2.3049">
        <ele>110.8</ele>
        <time>2015-07-13T20:16:50.767Z</time>
      </trkpt>
      <trkpt lat="48.83931" lon="2.30493">
        <ele>110.9</ele>
        <time>2015-07-13T20:16:51.782Z</time>
      </trkpt>
      <trkpt lat="48.83924" lon="2.30497">
        <ele>111.2</ele>
        <time>2015-07-13T20:16:52.789Z</time>
      </trkpt>
      <trkpt lat="48.83919" lon="2.30501">
        <ele>111</ele>
        <time>2015-07-13T20:16:53.837Z</time>
      </trkpt>
      <trkpt lat="48.83913" lon="2.30504">
        <ele>111.2</ele>
        <time>2015-07-13T20:16:54.841Z</time>
      </trkpt>
      <trkpt lat="48.83907" lon="2.30508">
        <ele>111.2</ele>
        <time>2015-07-13T20:16:55.780Z</time>
      </trkpt>
      <trkpt lat="48.83901" lon="2.3051">
        <ele>111.1</ele>
        <time>2015-07-13T20:16:56.763Z</time>
      </trkpt>
      <trkpt lat="48.83895" lon="2.30511">
        <ele>110.6</ele>
        <time>2015-07-13T20:16:57.780Z</time>
      </trkpt>
      <trkpt lat="48.83888" lon="2.30515">
        <ele>110.4</ele>
        <time>2015-07-13T20:16:58.801Z</time>
      </trkpt>
      <trkpt lat="48.83883" lon="2.30519">
        <ele>110.2</ele>
        <time>2015-07-13T20:16:59.839Z</time>
      </trkpt>
      <trkpt lat="48.83877" lon="2.30522">
        <ele>109.7</ele>
        <time>2015-07-13T20:17:00.833Z</time>
      </trkpt>
      <trkpt lat="48.83872" lon="2.30526">
        <ele>109.3</ele>
        <time>2015-07-13T20:17:01.728Z</time>
      </trkpt>
      <trkpt lat="48.83866" lon="2.3053">
        <ele>108.9</ele>
        <time>2015-07-13T20:17:02.762Z</time>
      </trkpt>
      <trkpt lat="48.8386" lon="2.30533">
        <ele>107.8</ele>
        <time>2015-07-13T20:17:03.771Z</time>
      </trkpt>
      <trkpt lat="48.83854" lon="2.30535">
        <ele>107.2</ele>
        <time>2015-07-13T20:17:04.929Z</time>
      </trkpt>
      <trkpt lat="48.83849" lon="2.30537">
        <ele>107.1</ele>
        <time>2015-07-13T20:17:05.809Z</time>
      </trkpt>
      <trkpt lat="48.83844" lon="2.3054">
        <ele>107</ele>
        <time>2015-07-13T20:17:06.836Z</time>
      </trkpt>
      <trkpt lat="48.83838" lon="2.30543">
        <ele>107</ele>
        <time>2015-07-13T20:17:07.759Z</time>
      </trkpt>
      <trkpt lat="48.83832" lon="2.30546">
        <ele>107.1</ele>
        <time>2015-07-13T20:17:08.766Z</time>
      </trkpt>
      <trkpt lat="48.83826" lon="2.30549">
        <ele>107.3</ele>
        <time>2015-07-13T20:17:09.771Z</time>
      </trkpt>
      <trkpt lat="48.8382" lon="2.30553">
        <ele>107.8</ele>
        <time>2015-07-13T20:17:10.791Z</time>
      </trkpt>
      <trkpt lat="48.83813" lon="2.30557">
        <ele>108.2</ele>
        <time>2015-07-13T20:17:11.833Z</time>
      </trkpt>
      <trkpt lat="48.83806" lon="2.30561">
        <ele>108.9</ele>
        <time>2015-07-13T20:17:12.733Z</time>
      </trkpt>
      <trkpt lat="48.838" lon="2.30567">
        <ele>109.4</ele>
        <time>2015-07-13T20:17:13.763Z</time>
      </trkpt>
      <trkpt lat="48.83793" lon="2.30574">
        <ele>109.7</ele>
        <time>2015-07-13T20:17:14.769Z</time>
      </trkpt>
      <trkpt lat="48.83786" lon="2.30578">
        <ele>110</ele>
        <time>2015-07-13T20:17:15.779Z</time>
      </trkpt>
      <trkpt lat="48.8378" lon="2.30584">
        <ele>110.1</ele>
        <time>2015-07-13T20:17:16.783Z</time>
      </trkpt>
      <trkpt lat="48.83773" lon="2.30587">
        <ele>109.8</ele>
        <time>2015-07-13T20:17:17.817Z</time>
      </trkpt>
      <trkpt lat="48.83768" lon="2.30591">
        <ele>109.4</ele>
        <time>2015-07-13T20:17:18.829Z</time>
      </trkpt>
      <trkpt lat="48.83762" lon="2.30596">
        <ele>109.1</ele>
        <time>2015-07-13T20:17:19.843Z</time>
      </trkpt>
      <trkpt lat="48.83756" lon="2.30601">
        <ele>108.7</ele>
        <time>2015-07-13T20:17:20.765Z</time>
      </trkpt>
      <trkpt lat="48.8375" lon="2.30602">
        <ele>108.6</ele>
        <time>2015-07-13T20:17:21.768Z</time>
      </trkpt>
      <trkpt lat="48.83743" lon="2.30604">
        <ele>108.9</ele>
        <time>2015-07-13T20:17:22.798Z</time>
      </trkpt>
      <trkpt lat="48.83735" lon="2.30604">
        <ele>109.5</ele>
        <time>2015-07-13T20:17:23.804Z</time>
      </trkpt>
      <trkpt lat="48.83728" lon="2.30605">
        <ele>109.3</ele>
        <time>2015-07-13T20:17:24.812Z</time>
      </trkpt>
      <trkpt lat="48.83722" lon="2.30606">
        <ele>109.3</ele>
        <time>2015-07-13T20:17:25.820Z</time>
      </trkpt>
      <trkpt lat="48.83716" lon="2.3061">
        <ele>109.8</ele>
        <time>2015-07-13T20:17:26.825Z</time>
      </trkpt>
      <trkpt lat="48.8371" lon="2.30613">
        <ele>110.2</ele>
        <time>2015-07-13T20:17:27.839Z</time>
      </trkpt>
      <trkpt lat="48.83705" lon="2.30616">
        <ele>110.3</ele>
        <time>2015-07-13T20:17:28.858Z</time>
      </trkpt>
      <trkpt lat="48.83699" lon="2.30618">
        <ele>110.6</ele>
        <time>2015-07-13T20:17:30.001Z</time>
      </trkpt>
      <trkpt lat="48.83695" lon="2.30621">
        <ele>110.3</ele>
        <time>2015-07-13T20:17:30.745Z</time>
      </trkpt>
      <trkpt lat="48.83691" lon="2.30623">
        <ele>110.1</ele>
        <time>2015-07-13T20:17:31.738Z</time>
      </trkpt>
      <trkpt lat="48.83686" lon="2.30627">
        <ele>109.8</ele>
        <time>2015-07-13T20:17:32.750Z</time>
      </trkpt>
      <trkpt lat="48.8368" lon="2.30633">
        <ele>109.8</ele>
        <time>2015-07-13T20:17:34.749Z</time>
      </trkpt>
      <trkpt lat="48.83675" lon="2.30634">
        <ele>109.6</ele>
        <time>2015-07-13T20:17:35.841Z</time>
      </trkpt>
      <trkpt lat="48.83669" lon="2.30631">
        <ele>109.1</ele>
        <time>2015-07-13T20:17:37.767Z</time>
      </trkpt>
      <trkpt lat="48.83666" lon="2.30631">
        <ele>109</ele>
        <time>2015-07-13T20:17:38.782Z</time>
      </trkpt>
      <trkpt lat="48.83657" lon="2.30634">
        <ele>109</ele>
        <time>2015-07-13T20:17:41.762Z</time>
      </trkpt>
      <trkpt lat="48.83655" lon="2.30635">
        <ele>109.2</ele>
        <time>2015-07-13T20:17:42.764Z</time>
      </trkpt>
      <trkpt lat="48.83649" lon="2.30638">
        <ele>109.3</ele>
        <time>2015-07-13T20:17:44.791Z</time>
      </trkpt>
      <trkpt lat="48.83646" lon="2.30642">
        <ele>109.7</ele>
        <time>2015-07-13T20:17:45.827Z</time>
      </trkpt>
      <trkpt lat="48.8364" lon="2.30649">
        <ele>111.6</ele>
        <time>2015-07-13T20:18:00.760Z</time>
      </trkpt>
      <trkpt lat="48.83633" lon="2.30641">
        <ele>112.3</ele>
        <time>2015-07-13T20:18:01.818Z</time>
      </trkpt>
      <trkpt lat="48.83635" lon="2.30654">
        <ele>111.9</ele>
        <time>2015-07-13T20:18:11.831Z</time>
      </trkpt>
      <trkpt lat="48.83633" lon="2.30658">
        <ele>112.1</ele>
        <time>2015-07-13T20:18:12.841Z</time>
      </trkpt>
      <trkpt lat="48.83629" lon="2.30667">
        <ele>112.6</ele>
        <time>2015-07-13T20:18:15.771Z</time>
      </trkpt>
      <trkpt lat="48.83628" lon="2.30669">
        <ele>112.9</ele>
        <time>2015-07-13T20:18:16.796Z</time>
      </trkpt>
      <trkpt lat="48.83625" lon="2.3068">
        <ele>113.8</ele>
        <time>2015-07-13T20:18:19.859Z</time>
      </trkpt>
      <trkpt lat="48.83623" lon="2.30682">
        <ele>114.3</ele>
        <time>2015-07-13T20:18:20.832Z</time>
      </trkpt>
      <trkpt lat="48.83615" lon="2.30688">
        <ele>115.9</ele>
        <time>2015-07-13T20:18:24.833Z</time>
      </trkpt>
      <trkpt lat="48.83612" lon="2.30691">
        <ele>116.3</ele>
        <time>2015-07-13T20:18:25.827Z</time>
      </trkpt>
      <trkpt lat="48.83609" lon="2.30695">
        <ele>116.7</ele>
        <time>2015-07-13T20:18:26.832Z</time>
      </trkpt>
      <trkpt lat="48.83605" lon="2.307">
        <ele>116.7</ele>
        <time>2015-07-13T20:18:27.862Z</time>
      </trkpt>
      <trkpt lat="48.83599" lon="2.30704">
        <ele>116.8</ele>
        <time>2015-07-13T20:18:28.802Z</time>
      </trkpt>
      <trkpt lat="48.83593" lon="2.3071">
        <ele>117.4</ele>
        <time>2015-07-13T20:18:29.841Z</time>
      </trkpt>
      <trkpt lat="48.83588" lon="2.30716">
        <ele>117.6</ele>
        <time>2015-07-13T20:18:30.851Z</time>
      </trkpt>
      <trkpt lat="48.83583" lon="2.30721">
        <ele>117.8</ele>
        <time>2015-07-13T20:18:31.781Z</time>
      </trkpt>
      <trkpt lat="48.83579" lon="2.30725">
        <ele>118.2</ele>
        <time>2015-07-13T20:18:33.497Z</time>
      </trkpt>
      <trkpt lat="48.83574" lon="2.30729">
        <ele>118.7</ele>
        <time>2015-07-13T20:18:33.761Z</time>
      </trkpt>
      <trkpt lat="48.8357" lon="2.30733">
        <ele>119.5</ele>
        <time>2015-07-13T20:18:34.773Z</time>
      </trkpt>
      <trkpt lat="48.83565" lon="2.30736">
        <ele>120.3</ele>
        <time>2015-07-13T20:18:35.785Z</time>
      </trkpt>
      <trkpt lat="48.83558" lon="2.30743">
        <ele>120.4</ele>
        <time>2015-07-13T20:18:38.543Z</time>
      </trkpt>
      <trkpt lat="48.83554" lon="2.30747">
        <ele>120.7</ele>
        <time>2015-07-13T20:18:38.808Z</time>
      </trkpt>
      <trkpt lat="48.83549" lon="2.30753">
        <ele>120.7</ele>
        <time>2015-07-13T20:18:39.829Z</time>
      </trkpt>
      <trkpt lat="48.83545" lon="2.30757">
        <ele>120.8</ele>
        <time>2015-07-13T20:18:40.832Z</time>
      </trkpt>
      <trkpt lat="48.83541" lon="2.30762">
        <ele>120.8</ele>
        <time>2015-07-13T20:18:41.833Z</time>
      </trkpt>
      <trkpt lat="48.83536" lon="2.30767">
        <ele>121</ele>
        <time>2015-07-13T20:18:42.725Z</time>
      </trkpt>
      <trkpt lat="48.83532" lon="2.30771">
        <ele>121.2</ele>
        <time>2015-07-13T20:18:43.778Z</time>
      </trkpt>
      <trkpt lat="48.83527" lon="2.30773">
        <ele>121.9</ele>
        <time>2015-07-13T20:18:44.786Z</time>
      </trkpt>
      <trkpt lat="48.83522" lon="2.30775">
        <ele>122.3</ele>
        <time>2015-07-13T20:18:45.801Z</time>
      </trkpt>
      <trkpt lat="48.83517" lon="2.30779">
        <ele>122.6</ele>
        <time>2015-07-13T20:18:46.817Z</time>
      </trkpt>
      <trkpt lat="48.83513" lon="2.30783">
        <ele>122.8</ele>
        <time>2015-07-13T20:18:47.826Z</time>
      </trkpt>
      <trkpt lat="48.83509" lon="2.30787">
        <ele>122.4</ele>
        <time>2015-07-13T20:18:48.835Z</time>
      </trkpt>
      <trkpt lat="48.83505" lon="2.3079">
        <ele>122</ele>
        <time>2015-07-13T20:18:49.763Z</time>
      </trkpt>
      <trkpt lat="48.83501" lon="2.30793">
        <ele>121.9</ele>
        <time>2015-07-13T20:18:50.769Z</time>
      </trkpt>
      <trkpt lat="48.83496" lon="2.30797">
        <ele>122</ele>
        <time>2015-07-13T20:18:51.775Z</time>
      </trkpt>
      <trkpt lat="48.83492" lon="2.30803">
        <ele>122.4</ele>
        <time>2015-07-13T20:18:52.798Z</time>
      </trkpt>
      <trkpt lat="48.83487" lon="2.30808">
        <ele>122.9</ele>
        <time>2015-07-13T20:18:53.814Z</time>
      </trkpt>
      <trkpt lat="48.83483" lon="2.30815">
        <ele>123</ele>
        <time>2015-07-13T20:18:54.832Z</time>
      </trkpt>
      <trkpt lat="48.83478" lon="2.30821">
        <ele>123.1</ele>
        <time>2015-07-13T20:18:55.760Z</time>
      </trkpt>
      <trkpt lat="48.83473" lon="2.30826">
        <ele>123.2</ele>
        <time>2015-07-13T20:18:56.764Z</time>
      </trkpt>
      <trkpt lat="48.83469" lon="2.3083">
        <ele>123.1</ele>
        <time>2015-07-13T20:18:57.767Z</time>
      </trkpt>
      <trkpt lat="48.83464" lon="2.30834">
        <ele>123</ele>
        <time>2015-07-13T20:18:58.776Z</time>
      </trkpt>
      <trkpt lat="48.8346" lon="2.30839">
        <ele>122.6</ele>
        <time>2015-07-13T20:18:59.838Z</time>
      </trkpt>
      <trkpt lat="48.83456" lon="2.30844">
        <ele>122.7</ele>
        <time>2015-07-13T20:19:00.726Z</time>
      </trkpt>
      <trkpt lat="48.83452" lon="2.3085">
        <ele>122.7</ele>
        <time>2015-07-13T20:19:01.758Z</time>
      </trkpt>
      <trkpt lat="48.83448" lon="2.30857">
        <ele>123.6</ele>
        <time>2015-07-13T20:19:02.772Z</time>
      </trkpt>
      <trkpt lat="48.83444" lon="2.30862">
        <ele>123.2</ele>
        <time>2015-07-13T20:19:03.792Z</time>
      </trkpt>
      <trkpt lat="48.83441" lon="2.30866">
        <ele>122.6</ele>
        <time>2015-07-13T20:19:04.804Z</time>
      </trkpt>
      <trkpt lat="48.83434" lon="2.30871">
        <ele>122</ele>
        <time>2015-07-13T20:19:06.832Z</time>
      </trkpt>
      <trkpt lat="48.8343" lon="2.30872">
        <ele>121.9</ele>
        <time>2015-07-13T20:19:07.850Z</time>
      </trkpt>
      <trkpt lat="48.83422" lon="2.30876">
        <ele>121.8</ele>
        <time>2015-07-13T20:19:09.756Z</time>
      </trkpt>
      <trkpt lat="48.83418" lon="2.30878">
        <ele>121.7</ele>
        <time>2015-07-13T20:19:10.823Z</time>
      </trkpt>
      <trkpt lat="48.83411" lon="2.30883">
        <ele>121.6</ele>
        <time>2015-07-13T20:19:12.819Z</time>
      </trkpt>
      <trkpt lat="48.83407" lon="2.30885">
        <ele>121.3</ele>
        <time>2015-07-13T20:19:13.844Z</time>
      </trkpt>
      <trkpt lat="48.83399" lon="2.30892">
        <ele>121</ele>
        <time>2015-07-13T20:19:15.893Z</time>
      </trkpt>
      <trkpt lat="48.83396" lon="2.30896">
        <ele>121</ele>
        <time>2015-07-13T20:19:16.846Z</time>
      </trkpt>
      <trkpt lat="48.83391" lon="2.309">
        <ele>120.8</ele>
        <time>2015-07-13T20:19:17.866Z</time>
      </trkpt>
      <trkpt lat="48.83387" lon="2.30903">
        <ele>121</ele>
        <time>2015-07-13T20:19:18.768Z</time>
      </trkpt>
      <trkpt lat="48.83379" lon="2.30907">
        <ele>121.8</ele>
        <time>2015-07-13T20:19:20.790Z</time>
      </trkpt>
      <trkpt lat="48.83376" lon="2.3091">
        <ele>122.4</ele>
        <time>2015-07-13T20:19:21.818Z</time>
      </trkpt>
      <trkpt lat="48.83367" lon="2.30911">
        <ele>122.8</ele>
        <time>2015-07-13T20:19:24.842Z</time>
      </trkpt>
      <trkpt lat="48.83365" lon="2.30911">
        <ele>122.5</ele>
        <time>2015-07-13T20:19:25.866Z</time>
      </trkpt>
      <trkpt lat="48.8336" lon="2.3091">
        <ele>122.1</ele>
        <time>2015-07-13T20:20:41.822Z</time>
      </trkpt>
      <trkpt lat="48.8337" lon="2.30933">
        <ele>116</ele>
        <time>2015-07-13T20:20:42.829Z</time>
      </trkpt>
      <trkpt lat="48.83377" lon="2.30941">
        <ele>116</ele>
        <time>2015-07-13T20:20:46.783Z</time>
      </trkpt>
      <trkpt lat="48.83379" lon="2.30942">
        <ele>116.1</ele>
        <time>2015-07-13T20:20:47.865Z</time>
      </trkpt>
      <trkpt lat="48.83385" lon="2.30944">
        <ele>116.3</ele>
        <time>2015-07-13T20:20:49.785Z</time>
      </trkpt>
      <trkpt lat="48.83388" lon="2.30945">
        <ele>116.5</ele>
        <time>2015-07-13T20:20:50.802Z</time>
      </trkpt>
      <trkpt lat="48.83395" lon="2.30953">
        <ele>116.2</ele>
        <time>2015-07-13T20:20:52.741Z</time>
      </trkpt>
      <trkpt lat="48.83399" lon="2.30956">
        <ele>116.4</ele>
        <time>2015-07-13T20:20:53.806Z</time>
      </trkpt>
      <trkpt lat="48.83405" lon="2.30963">
        <ele>116.6</ele>
        <time>2015-07-13T20:20:55.781Z</time>
      </trkpt>
      <trkpt lat="48.83406" lon="2.30968">
        <ele>116.6</ele>
        <time>2015-07-13T20:20:56.772Z</time>
      </trkpt>
      <trkpt lat="48.83414" lon="2.30975">
        <ele>116.9</ele>
        <time>2015-07-13T20:20:58.818Z</time>
      </trkpt>
      <trkpt lat="48.8342" lon="2.30979">
        <ele>117</ele>
        <time>2015-07-13T20:20:59.843Z</time>
      </trkpt>
      <trkpt lat="48.83425" lon="2.30986">
        <ele>117.3</ele>
        <time>2015-07-13T20:21:00.811Z</time>
      </trkpt>
      <trkpt lat="48.8343" lon="2.30995">
        <ele>117.6</ele>
        <time>2015-07-13T20:21:01.729Z</time>
      </trkpt>
      <trkpt lat="48.83437" lon="2.31006">
        <ele>118.1</ele>
        <time>2015-07-13T20:21:02.760Z</time>
      </trkpt>
      <trkpt lat="48.83445" lon="2.31017">
        <ele>118.5</ele>
        <time>2015-07-13T20:21:03.781Z</time>
      </trkpt>
      <trkpt lat="48.83452" lon="2.31024">
        <ele>119.1</ele>
        <time>2015-07-13T20:21:04.841Z</time>
      </trkpt>
      <trkpt lat="48.83458" lon="2.31031">
        <ele>119.4</ele>
        <time>2015-07-13T20:21:05.767Z</time>
      </trkpt>
      <trkpt lat="48.83466" lon="2.3104">
        <ele>119.7</ele>
        <time>2015-07-13T20:21:06.714Z</time>
      </trkpt>
      <trkpt lat="48.83466" lon="2.3104">
        <ele>119.7</ele>
        <time>2015-07-13T20:21:05.285Z</time>
      </trkpt>
      <trkpt lat="48.83476" lon="2.31052">
        <ele>120</ele>
        <time>2015-07-13T20:21:07.725Z</time>
      </trkpt>
      <trkpt lat="48.83484" lon="2.31062">
        <ele>120.4</ele>
        <time>2015-07-13T20:21:08.742Z</time>
      </trkpt>
      <trkpt lat="48.83491" lon="2.31065">
        <ele>122.6</ele>
        <time>2015-07-13T20:21:13.787Z</time>
      </trkpt>
      <trkpt lat="48.83493" lon="2.31064">
        <ele>123.2</ele>
        <time>2015-07-13T20:21:14.844Z</time>
      </trkpt>
      <trkpt lat="48.83497" lon="2.31075">
        <ele>124.7</ele>
        <time>2015-07-13T20:21:21.804Z</time>
      </trkpt>
      <trkpt lat="48.83501" lon="2.3108">
        <ele>124.3</ele>
        <time>2015-07-13T20:21:22.821Z</time>
      </trkpt>
      <trkpt lat="48.83505" lon="2.31084">
        <ele>123.9</ele>
        <time>2015-07-13T20:21:23.842Z</time>
      </trkpt>
      <trkpt lat="48.83509" lon="2.31089">
        <ele>123.5</ele>
        <time>2015-07-13T20:21:24.716Z</time>
      </trkpt>
      <trkpt lat="48.83516" lon="2.31097">
        <ele>123.3</ele>
        <time>2015-07-13T20:21:26.741Z</time>
      </trkpt>
      <trkpt lat="48.8352" lon="2.311">
        <ele>123.1</ele>
        <time>2015-07-13T20:21:27.770Z</time>
      </trkpt>
      <trkpt lat="48.83526" lon="2.31102">
        <ele>123.1</ele>
        <time>2015-07-13T20:21:28.722Z</time>
      </trkpt>
      <trkpt lat="48.8353" lon="2.31104">
        <ele>122.7</ele>
        <time>2015-07-13T20:21:29.797Z</time>
      </trkpt>
      <trkpt lat="48.83534" lon="2.31109">
        <ele>122.9</ele>
        <time>2015-07-13T20:21:30.714Z</time>
      </trkpt>
      <trkpt lat="48.83537" lon="2.31114">
        <ele>123</ele>
        <time>2015-07-13T20:21:31.715Z</time>
      </trkpt>
      <trkpt lat="48.83541" lon="2.31119">
        <ele>123.2</ele>
        <time>2015-07-13T20:21:32.742Z</time>
      </trkpt>
      <trkpt lat="48.83546" lon="2.31124">
        <ele>122.4</ele>
        <time>2015-07-13T20:21:33.752Z</time>
      </trkpt>
      <trkpt lat="48.83552" lon="2.31133">
        <ele>121.3</ele>
        <time>2015-07-13T20:21:35.762Z</time>
      </trkpt>
      <trkpt lat="48.83555" lon="2.31135">
        <ele>121.3</ele>
        <time>2015-07-13T20:21:36.760Z</time>
      </trkpt>
      <trkpt lat="48.83563" lon="2.31137">
        <ele>121.3</ele>
        <time>2015-07-13T20:21:38.782Z</time>
      </trkpt>
      <trkpt lat="48.83571" lon="2.31133">
        <ele>121.6</ele>
        <time>2015-07-13T20:21:39.788Z</time>
      </trkpt>
      <trkpt lat="48.8358" lon="2.31135">
        <ele>122.6</ele>
        <time>2015-07-13T20:21:41.853Z</time>
      </trkpt>
      <trkpt lat="48.83582" lon="2.31136">
        <ele>122.6</ele>
        <time>2015-07-13T20:21:42.763Z</time>
      </trkpt>
      <trkpt lat="48.8359" lon="2.31138">
        <ele>122.7</ele>
        <time>2015-07-13T20:21:45.758Z</time>
      </trkpt>
      <trkpt lat="48.83593" lon="2.31141">
        <ele>122.5</ele>
        <time>2015-07-13T20:21:46.733Z</time>
      </trkpt>
      <trkpt lat="48.83599" lon="2.3115">
        <ele>121.9</ele>
        <time>2015-07-13T20:21:48.727Z</time>
      </trkpt>
      <trkpt lat="48.83602" lon="2.31153">
        <ele>121.6</ele>
        <time>2015-07-13T20:21:49.751Z</time>
      </trkpt>
      <trkpt lat="48.83606" lon="2.31156">
        <ele>121.3</ele>
        <time>2015-07-13T20:21:52.430Z</time>
      </trkpt>
      <trkpt lat="48.83612" lon="2.31163">
        <ele>121.6</ele>
        <time>2015-07-13T20:21:52.519Z</time>
      </trkpt>
      <trkpt lat="48.83618" lon="2.3117">
        <ele>121.4</ele>
        <time>2015-07-13T20:21:52.732Z</time>
      </trkpt>
      <trkpt lat="48.83622" lon="2.31175">
        <ele>120.8</ele>
        <time>2015-07-13T20:21:53.783Z</time>
      </trkpt>
      <trkpt lat="48.83627" lon="2.3118">
        <ele>120.2</ele>
        <time>2015-07-13T20:21:54.802Z</time>
      </trkpt>
      <trkpt lat="48.83631" lon="2.31185">
        <ele>119.8</ele>
        <time>2015-07-13T20:21:55.735Z</time>
      </trkpt>
      <trkpt lat="48.83635" lon="2.3119">
        <ele>119.4</ele>
        <time>2015-07-13T20:21:56.771Z</time>
      </trkpt>
      <trkpt lat="48.8364" lon="2.31195">
        <ele>119.4</ele>
        <time>2015-07-13T20:21:57.780Z</time>
      </trkpt>
      <trkpt lat="48.83646" lon="2.31205">
        <ele>119.2</ele>
        <time>2015-07-13T20:21:59.809Z</time>
      </trkpt>
      <trkpt lat="48.83649" lon="2.3121">
        <ele>119</ele>
        <time>2015-07-13T20:22:00.734Z</time>
      </trkpt>
      <trkpt lat="48.83656" lon="2.31218">
        <ele>118.7</ele>
        <time>2015-07-13T20:22:02.769Z</time>
      </trkpt>
      <trkpt lat="48.83661" lon="2.31222">
        <ele>118.5</ele>
        <time>2015-07-13T20:22:03.778Z</time>
      </trkpt>
      <trkpt lat="48.83667" lon="2.3123">
        <ele>117.5</ele>
        <time>2015-07-13T20:22:05.749Z</time>
      </trkpt>
      <trkpt lat="48.83669" lon="2.31235">
        <ele>117.4</ele>
        <time>2015-07-13T20:22:06.740Z</time>
      </trkpt>
      <trkpt lat="48.83676" lon="2.31244">
        <ele>116.9</ele>
        <time>2015-07-13T20:22:08.757Z</time>
      </trkpt>
      <trkpt lat="48.83678" lon="2.31249">
        <ele>116.8</ele>
        <time>2015-07-13T20:22:10.147Z</time>
      </trkpt>
      <trkpt lat="48.83684" lon="2.31258">
        <ele>116.6</ele>
        <time>2015-07-13T20:22:11.793Z</time>
      </trkpt>
      <trkpt lat="48.83688" lon="2.31262">
        <ele>116.6</ele>
        <time>2015-07-13T20:22:13.375Z</time>
      </trkpt>
      <trkpt lat="48.83692" lon="2.31266">
        <ele>116.8</ele>
        <time>2015-07-13T20:22:13.841Z</time>
      </trkpt>
      <trkpt lat="48.83695" lon="2.31272">
        <ele>116.8</ele>
        <time>2015-07-13T20:22:14.730Z</time>
      </trkpt>
      <trkpt lat="48.83698" lon="2.31277">
        <ele>116.7</ele>
        <time>2015-07-13T20:22:15.750Z</time>
      </trkpt>
      <trkpt lat="48.83701" lon="2.31283">
        <ele>116.5</ele>
        <time>2015-07-13T20:22:16.781Z</time>
      </trkpt>
      <trkpt lat="48.83705" lon="2.31289">
        <ele>116.1</ele>
        <time>2015-07-13T20:22:18.001Z</time>
      </trkpt>
      <trkpt lat="48.83708" lon="2.31295">
        <ele>116</ele>
        <time>2015-07-13T20:22:18.867Z</time>
      </trkpt>
      <trkpt lat="48.83711" lon="2.31301">
        <ele>115.7</ele>
        <time>2015-07-13T20:22:19.761Z</time>
      </trkpt>
      <trkpt lat="48.83715" lon="2.31307">
        <ele>115.8</ele>
        <time>2015-07-13T20:22:20.753Z</time>
      </trkpt>
      <trkpt lat="48.8372" lon="2.31311">
        <ele>115.8</ele>
        <time>2015-07-13T20:22:21.769Z</time>
      </trkpt>
      <trkpt lat="48.83725" lon="2.31316">
        <ele>115.6</ele>
        <time>2015-07-13T20:22:22.790Z</time>
      </trkpt>
      <trkpt lat="48.83731" lon="2.31321">
        <ele>115.8</ele>
        <time>2015-07-13T20:22:23.891Z</time>
      </trkpt>
      <trkpt lat="48.83736" lon="2.31325">
        <ele>116</ele>
        <time>2015-07-13T20:22:24.744Z</time>
      </trkpt>
      <trkpt lat="48.83741" lon="2.3133">
        <ele>115.9</ele>
        <time>2015-07-13T20:22:25.758Z</time>
      </trkpt>
      <trkpt lat="48.83746" lon="2.31335">
        <ele>115.8</ele>
        <time>2015-07-13T20:22:26.777Z</time>
      </trkpt>
      <trkpt lat="48.83751" lon="2.3134">
        <ele>115.6</ele>
        <time>2015-07-13T20:22:27.784Z</time>
      </trkpt>
      <trkpt lat="48.83755" lon="2.31344">
        <ele>115.7</ele>
        <time>2015-07-13T20:22:28.845Z</time>
      </trkpt>
      <trkpt lat="48.83758" lon="2.3135">
        <ele>115.8</ele>
        <time>2015-07-13T20:22:29.907Z</time>
      </trkpt>
      <trkpt lat="48.83762" lon="2.31356">
        <ele>115.8</ele>
        <time>2015-07-13T20:22:30.745Z</time>
      </trkpt>
      <trkpt lat="48.83766" lon="2.31362">
        <ele>115.8</ele>
        <time>2015-07-13T20:22:31.752Z</time>
      </trkpt>
      <trkpt lat="48.8377" lon="2.31367">
        <ele>115.9</ele>
        <time>2015-07-13T20:22:32.782Z</time>
      </trkpt>
      <trkpt lat="48.83774" lon="2.31372">
        <ele>116</ele>
        <time>2015-07-13T20:22:33.740Z</time>
      </trkpt>
      <trkpt lat="48.83777" lon="2.31378">
        <ele>116</ele>
        <time>2015-07-13T20:22:34.764Z</time>
      </trkpt>
      <trkpt lat="48.8378" lon="2.31384">
        <ele>116</ele>
        <time>2015-07-13T20:22:35.781Z</time>
      </trkpt>
      <trkpt lat="48.83784" lon="2.31389">
        <ele>116.2</ele>
        <time>2015-07-13T20:22:36.807Z</time>
      </trkpt>
      <trkpt lat="48.83787" lon="2.31395">
        <ele>116.3</ele>
        <time>2015-07-13T20:22:37.826Z</time>
      </trkpt>
      <trkpt lat="48.83791" lon="2.31399">
        <ele>116.4</ele>
        <time>2015-07-13T20:22:38.734Z</time>
      </trkpt>
      <trkpt lat="48.83796" lon="2.31404">
        <ele>116.5</ele>
        <time>2015-07-13T20:22:39.763Z</time>
      </trkpt>
      <trkpt lat="48.83799" lon="2.31411">
        <ele>116.5</ele>
        <time>2015-07-13T20:22:40.798Z</time>
      </trkpt>
      <trkpt lat="48.83803" lon="2.31416">
        <ele>116.4</ele>
        <time>2015-07-13T20:22:41.864Z</time>
      </trkpt>
      <trkpt lat="48.83808" lon="2.31419">
        <ele>117.2</ele>
        <time>2015-07-13T20:22:42.734Z</time>
      </trkpt>
      <trkpt lat="48.83815" lon="2.31427">
        <ele>116.4</ele>
        <time>2015-07-13T20:22:44.787Z</time>
      </trkpt>
      <trkpt lat="48.8382" lon="2.31428">
        <ele>115.9</ele>
        <time>2015-07-13T20:22:45.797Z</time>
      </trkpt>
      <trkpt lat="48.83823" lon="2.31432">
        <ele>115.7</ele>
        <time>2015-07-13T20:22:46.804Z</time>
      </trkpt>
      <trkpt lat="48.83827" lon="2.31435">
        <ele>116.1</ele>
        <time>2015-07-13T20:22:47.817Z</time>
      </trkpt>
      <trkpt lat="48.83834" lon="2.31444">
        <ele>116.1</ele>
        <time>2015-07-13T20:22:49.838Z</time>
      </trkpt>
      <trkpt lat="48.83837" lon="2.31448">
        <ele>116</ele>
        <time>2015-07-13T20:22:50.800Z</time>
      </trkpt>
      <trkpt lat="48.83844" lon="2.31453">
        <ele>115.3</ele>
        <time>2015-07-13T20:22:52.769Z</time>
      </trkpt>
      <trkpt lat="48.83847" lon="2.31454">
        <ele>115</ele>
        <time>2015-07-13T20:22:53.851Z</time>
      </trkpt>
      <trkpt lat="48.83855" lon="2.31457">
        <ele>115.6</ele>
        <time>2015-07-13T20:22:56.799Z</time>
      </trkpt>
      <trkpt lat="48.83855" lon="2.3146">
        <ele>116.2</ele>
        <time>2015-07-13T20:22:57.806Z</time>
      </trkpt>
      <trkpt lat="48.83852" lon="2.3147">
        <ele>117.7</ele>
        <time>2015-07-13T20:23:02.763Z</time>
      </trkpt>
      <trkpt lat="48.83852" lon="2.31473">
        <ele>118</ele>
        <time>2015-07-13T20:23:03.780Z</time>
      </trkpt>
      <trkpt lat="48.8385" lon="2.31483">
        <ele>118.6</ele>
        <time>2015-07-13T20:23:06.757Z</time>
      </trkpt>
      <trkpt lat="48.83848" lon="2.31487">
        <ele>119</ele>
        <time>2015-07-13T20:23:07.857Z</time>
      </trkpt>
      <trkpt lat="48.83851" lon="2.31498">
        <ele>119.5</ele>
        <time>2015-07-13T20:23:10.797Z</time>
      </trkpt>
      <trkpt lat="48.83852" lon="2.31503">
        <ele>119.7</ele>
        <time>2015-07-13T20:23:12.002Z</time>
      </trkpt>
      <trkpt lat="48.83854" lon="2.31508">
        <ele>119.9</ele>
        <time>2015-07-13T20:23:12.823Z</time>
      </trkpt>
      <trkpt lat="48.83857" lon="2.31515">
        <ele>120</ele>
        <time>2015-07-13T20:23:13.847Z</time>
      </trkpt>
      <trkpt lat="48.83857" lon="2.31521">
        <ele>120</ele>
        <time>2015-07-13T20:23:14.841Z</time>
      </trkpt>
      <trkpt lat="48.83859" lon="2.31529">
        <ele>120.4</ele>
        <time>2015-07-13T20:23:15.793Z</time>
      </trkpt>
      <trkpt lat="48.83861" lon="2.31536">
        <ele>120.7</ele>
        <time>2015-07-13T20:23:16.778Z</time>
      </trkpt>
      <trkpt lat="48.83863" lon="2.31544">
        <ele>120.9</ele>
        <time>2015-07-13T20:23:17.824Z</time>
      </trkpt>
      <trkpt lat="48.83866" lon="2.31556">
        <ele>121.4</ele>
        <time>2015-07-13T20:23:19.774Z</time>
      </trkpt>
      <trkpt lat="48.83868" lon="2.31563">
        <ele>121.4</ele>
        <time>2015-07-13T20:23:20.816Z</time>
      </trkpt>
      <trkpt lat="48.8387" lon="2.31574">
        <ele>122.5</ele>
        <time>2015-07-13T20:23:22.787Z</time>
      </trkpt>
      <trkpt lat="48.83871" lon="2.31579">
        <ele>123.1</ele>
        <time>2015-07-13T20:23:23.831Z</time>
      </trkpt>
      <trkpt lat="48.83874" lon="2.3159">
        <ele>124</ele>
        <time>2015-07-13T20:23:26.872Z</time>
      </trkpt>
      <trkpt lat="48.83876" lon="2.31594">
        <ele>124.2</ele>
        <time>2015-07-13T20:23:27.796Z</time>
      </trkpt>
      <trkpt lat="48.83879" lon="2.31603">
        <ele>124.1</ele>
        <time>2015-07-13T20:23:29.851Z</time>
      </trkpt>
      <trkpt lat="48.8388" lon="2.31609">
        <ele>123.9</ele>
        <time>2015-07-13T20:23:30.777Z</time>
      </trkpt>
      <trkpt lat="48.83883" lon="2.31621">
        <ele>124</ele>
        <time>2015-07-13T20:23:32.811Z</time>
      </trkpt>
      <trkpt lat="48.83885" lon="2.31626">
        <ele>124.1</ele>
        <time>2015-07-13T20:23:33.744Z</time>
      </trkpt>
      <trkpt lat="48.83889" lon="2.31636">
        <ele>124.3</ele>
        <time>2015-07-13T20:23:36.638Z</time>
      </trkpt>
      <trkpt lat="48.8389" lon="2.3164">
        <ele>124.7</ele>
        <time>2015-07-13T20:23:36.822Z</time>
      </trkpt>
      <trkpt lat="48.8389" lon="2.31653">
        <ele>125.6</ele>
        <time>2015-07-13T20:23:39.778Z</time>
      </trkpt>
      <trkpt lat="48.8389" lon="2.31655">
        <ele>125.9</ele>
        <time>2015-07-13T20:23:40.861Z</time>
      </trkpt>
      <trkpt lat="48.8389" lon="2.31663">
        <ele>128.2</ele>
        <time>2015-07-13T20:23:42.791Z</time>
      </trkpt>
      <trkpt lat="48.83887" lon="2.31672">
        <ele>130.3</ele>
        <time>2015-07-13T20:23:43.806Z</time>
      </trkpt>
      <trkpt lat="48.83888" lon="2.31671">
        <ele>130.2</ele>
        <time>2015-07-13T20:24:17.830Z</time>
      </trkpt>
      <trkpt lat="48.83881" lon="2.31659">
        <ele>126.3</ele>
        <time>2015-07-13T20:24:18.755Z</time>
      </trkpt>
      <trkpt lat="48.83878" lon="2.31671">
        <ele>130.2</ele>
        <time>2015-07-13T20:24:23.947Z</time>
      </trkpt>
      <trkpt lat="48.83878" lon="2.31673">
        <ele>130.8</ele>
        <time>2015-07-13T20:24:24.850Z</time>
      </trkpt>
      <trkpt lat="48.83879" lon="2.31683">
        <ele>140</ele>
        <time>2015-07-13T20:24:36.743Z</time>
      </trkpt>
      <trkpt lat="48.83876" lon="2.3169">
        <ele>140.3</ele>
        <time>2015-07-13T20:24:37.772Z</time>
      </trkpt>
      <trkpt lat="48.83874" lon="2.317">
        <ele>140.8</ele>
        <time>2015-07-13T20:24:39.156Z</time>
      </trkpt>
      <trkpt lat="48.8387" lon="2.31708">
        <ele>140.8</ele>
        <time>2015-07-13T20:24:39.801Z</time>
      </trkpt>
      <trkpt lat="48.83866" lon="2.31715">
        <ele>140.5</ele>
        <time>2015-07-13T20:24:40.817Z</time>
      </trkpt>
      <trkpt lat="48.8386" lon="2.31721">
        <ele>140.1</ele>
        <time>2015-07-13T20:24:41.815Z</time>
      </trkpt>
      <trkpt lat="48.83855" lon="2.31726">
        <ele>139.9</ele>
        <time>2015-07-13T20:24:42.834Z</time>
      </trkpt>
      <trkpt lat="48.83852" lon="2.31732">
        <ele>139.7</ele>
        <time>2015-07-13T20:24:43.847Z</time>
      </trkpt>
      <trkpt lat="48.83848" lon="2.31739">
        <ele>139.4</ele>
        <time>2015-07-13T20:24:44.755Z</time>
      </trkpt>
      <trkpt lat="48.83844" lon="2.31747">
        <ele>139</ele>
        <time>2015-07-13T20:24:45.781Z</time>
      </trkpt>
      <trkpt lat="48.83841" lon="2.31756">
        <ele>139.6</ele>
        <time>2015-07-13T20:24:46.792Z</time>
      </trkpt>
      <trkpt lat="48.83835" lon="2.31768">
        <ele>141.4</ele>
        <time>2015-07-13T20:24:47.821Z</time>
      </trkpt>
      <trkpt lat="48.8383" lon="2.31776">
        <ele>142.8</ele>
        <time>2015-07-13T20:24:48.814Z</time>
      </trkpt>
      <trkpt lat="48.83824" lon="2.31784">
        <ele>144</ele>
        <time>2015-07-13T20:24:49.740Z</time>
      </trkpt>
      <trkpt lat="48.83819" lon="2.31789">
        <ele>145</ele>
        <time>2015-07-13T20:24:51.370Z</time>
      </trkpt>
      <trkpt lat="48.83813" lon="2.31794">
        <ele>145.8</ele>
        <time>2015-07-13T20:24:51.733Z</time>
      </trkpt>
      <trkpt lat="48.83806" lon="2.31798">
        <ele>146.8</ele>
        <time>2015-07-13T20:24:54.356Z</time>
      </trkpt>
      <trkpt lat="48.83804" lon="2.31799">
        <ele>146.8</ele>
        <time>2015-07-13T20:24:54.772Z</time>
      </trkpt>
      <trkpt lat="48.83801" lon="2.318">
        <ele>147</ele>
        <time>2015-07-13T20:24:56.816Z</time>
      </trkpt>
      <trkpt lat="48.83794" lon="2.31806">
        <ele>146.1</ele>
        <time>2015-07-13T20:24:58.778Z</time>
      </trkpt>
      <trkpt lat="48.83789" lon="2.31807">
        <ele>145.6</ele>
        <time>2015-07-13T20:24:59.856Z</time>
      </trkpt>
      <trkpt lat="48.83782" lon="2.31805">
        <ele>145.4</ele>
        <time>2015-07-13T20:25:00.855Z</time>
      </trkpt>
      <trkpt lat="48.83775" lon="2.31803">
        <ele>145.7</ele>
        <time>2015-07-13T20:25:01.831Z</time>
      </trkpt>
      <trkpt lat="48.83767" lon="2.318">
        <ele>145.8</ele>
        <time>2015-07-13T20:25:02.780Z</time>
      </trkpt>
      <trkpt lat="48.8376" lon="2.31796">
        <ele>145.6</ele>
        <time>2015-07-13T20:25:03.786Z</time>
      </trkpt>
      <trkpt lat="48.83752" lon="2.3179">
        <ele>145.5</ele>
        <time>2015-07-13T20:25:04.742Z</time>
      </trkpt>
      <trkpt lat="48.83742" lon="2.3178">
        <ele>146.3</ele>
        <time>2015-07-13T20:25:05.822Z</time>
      </trkpt>
      <trkpt lat="48.83742" lon="2.3178">
        <ele>146.3</ele>
        <time>2015-07-13T20:25:04.500Z</time>
      </trkpt>
      <trkpt lat="48.83733" lon="2.31776">
        <ele>145.3</ele>
        <time>2015-07-13T20:25:06.845Z</time>
      </trkpt>
      <trkpt lat="48.83727" lon="2.31776">
        <ele>144.1</ele>
        <time>2015-07-13T20:25:07.768Z</time>
      </trkpt>
      <trkpt lat="48.83723" lon="2.31777">
        <ele>143</ele>
        <time>2015-07-13T20:25:08.776Z</time>
      </trkpt>
      <trkpt lat="48.83722" lon="2.31785">
        <ele>138.3</ele>
        <time>2015-07-13T20:25:34.815Z</time>
      </trkpt>
      <trkpt lat="48.83734" lon="2.31798">
        <ele>129.5</ele>
        <time>2015-07-13T20:25:35.834Z</time>
      </trkpt>
      <trkpt lat="48.83726" lon="2.31795">
        <ele>128.3</ele>
        <time>2015-07-13T20:25:37.818Z</time>
      </trkpt>
      <trkpt lat="48.83722" lon="2.31793">
        <ele>127.9</ele>
        <time>2015-07-13T20:25:38.837Z</time>
      </trkpt>
      <trkpt lat="48.83714" lon="2.31793">
        <ele>127.4</ele>
        <time>2015-07-13T20:25:40.806Z</time>
      </trkpt>
      <trkpt lat="48.8371" lon="2.31794">
        <ele>127.5</ele>
        <time>2015-07-13T20:25:41.865Z</time>
      </trkpt>
      <trkpt lat="48.83703" lon="2.31799">
        <ele>127.7</ele>
        <time>2015-07-13T20:25:43.787Z</time>
      </trkpt>
      <trkpt lat="48.83699" lon="2.31804">
        <ele>128</ele>
        <time>2015-07-13T20:25:44.803Z</time>
      </trkpt>
      <trkpt lat="48.83694" lon="2.31808">
        <ele>128.6</ele>
        <time>2015-07-13T20:25:45.844Z</time>
      </trkpt>
      <trkpt lat="48.83691" lon="2.31812">
        <ele>129.2</ele>
        <time>2015-07-13T20:25:46.854Z</time>
      </trkpt>
      <trkpt lat="48.83688" lon="2.31825">
        <ele>129.2</ele>
        <time>2015-07-13T20:25:48.780Z</time>
      </trkpt>
      <trkpt lat="48.83689" lon="2.31832">
        <ele>129.1</ele>
        <time>2015-07-13T20:25:49.765Z</time>
      </trkpt>
      <trkpt lat="48.83688" lon="2.31839">
        <ele>129.3</ele>
        <time>2015-07-13T20:25:50.817Z</time>
      </trkpt>
      <trkpt lat="48.83687" lon="2.31849">
        <ele>130</ele>
        <time>2015-07-13T20:25:51.794Z</time>
      </trkpt>
      <trkpt lat="48.83686" lon="2.31859">
        <ele>130.6</ele>
        <time>2015-07-13T20:25:52.864Z</time>
      </trkpt>
      <trkpt lat="48.83685" lon="2.31869">
        <ele>131.7</ele>
        <time>2015-07-13T20:25:53.870Z</time>
      </trkpt>
      <trkpt lat="48.8368" lon="2.3188">
        <ele>130.6</ele>
        <time>2015-07-13T20:25:56.746Z</time>
      </trkpt>
      <trkpt lat="48.83679" lon="2.3188">
        <ele>130.4</ele>
        <time>2015-07-13T20:25:57.852Z</time>
      </trkpt>
      <trkpt lat="48.83673" lon="2.31874">
        <ele>129.7</ele>
        <time>2015-07-13T20:26:00.769Z</time>
      </trkpt>
      <trkpt lat="48.8367" lon="2.31873">
        <ele>129.3</ele>
        <time>2015-07-13T20:26:01.775Z</time>
      </trkpt>
      <trkpt lat="48.83663" lon="2.31873">
        <ele>128.4</ele>
        <time>2015-07-13T20:26:03.828Z</time>
      </trkpt>
      <trkpt lat="48.8366" lon="2.31874">
        <ele>128.1</ele>
        <time>2015-07-13T20:26:05.065Z</time>
      </trkpt>
      <trkpt lat="48.83651" lon="2.31877">
        <ele>127.8</ele>
        <time>2015-07-13T20:26:06.734Z</time>
      </trkpt>
      <trkpt lat="48.83647" lon="2.31878">
        <ele>127.6</ele>
        <time>2015-07-13T20:26:07.745Z</time>
      </trkpt>
      <trkpt lat="48.83638" lon="2.31878">
        <ele>127.3</ele>
        <time>2015-07-13T20:26:09.725Z</time>
      </trkpt>
      <trkpt lat="48.83634" lon="2.3188">
        <ele>127.1</ele>
        <time>2015-07-13T20:26:10.848Z</time>
      </trkpt>
      <trkpt lat="48.83629" lon="2.31881">
        <ele>126.7</ele>
        <time>2015-07-13T20:26:11.814Z</time>
      </trkpt>
      <trkpt lat="48.83625" lon="2.31883">
        <ele>126.4</ele>
        <time>2015-07-13T20:26:12.819Z</time>
      </trkpt>
      <trkpt lat="48.83617" lon="2.3189">
        <ele>126</ele>
        <time>2015-07-13T20:26:14.752Z</time>
      </trkpt>
      <trkpt lat="48.83614" lon="2.31894">
        <ele>126.1</ele>
        <time>2015-07-13T20:26:15.796Z</time>
      </trkpt>
      <trkpt lat="48.83607" lon="2.31899">
        <ele>126.5</ele>
        <time>2015-07-13T20:26:17.842Z</time>
      </trkpt>
      <trkpt lat="48.83603" lon="2.31901">
        <ele>126.5</ele>
        <time>2015-07-13T20:26:18.748Z</time>
      </trkpt>
      <trkpt lat="48.83597" lon="2.31906">
        <ele>126.6</ele>
        <time>2015-07-13T20:26:20.723Z</time>
      </trkpt>
      <trkpt lat="48.83595" lon="2.3191">
        <ele>126.2</ele>
        <time>2015-07-13T20:26:21.847Z</time>
      </trkpt>
      <trkpt lat="48.83589" lon="2.31917">
        <ele>126.2</ele>
        <time>2015-07-13T20:26:23.831Z</time>
      </trkpt>
      <trkpt lat="48.83586" lon="2.3192">
        <ele>126.4</ele>
        <time>2015-07-13T20:26:24.838Z</time>
      </trkpt>
      <trkpt lat="48.8358" lon="2.31927">
        <ele>126.7</ele>
        <time>2015-07-13T20:26:26.765Z</time>
      </trkpt>
      <trkpt lat="48.83578" lon="2.31931">
        <ele>126.5</ele>
        <time>2015-07-13T20:26:27.790Z</time>
      </trkpt>
      <trkpt lat="48.83574" lon="2.31935">
        <ele>126.4</ele>
        <time>2015-07-13T20:26:28.770Z</time>
      </trkpt>
      <trkpt lat="48.8357" lon="2.31939">
        <ele>126.5</ele>
        <time>2015-07-13T20:26:29.915Z</time>
      </trkpt>
      <trkpt lat="48.83566" lon="2.31944">
        <ele>126.6</ele>
        <time>2015-07-13T20:26:30.746Z</time>
      </trkpt>
      <trkpt lat="48.83563" lon="2.3195">
        <ele>126.6</ele>
        <time>2015-07-13T20:26:31.747Z</time>
      </trkpt>
      <trkpt lat="48.8356" lon="2.31955">
        <ele>126.7</ele>
        <time>2015-07-13T20:26:32.796Z</time>
      </trkpt>
      <trkpt lat="48.83557" lon="2.31961">
        <ele>126.7</ele>
        <time>2015-07-13T20:26:33.735Z</time>
      </trkpt>
      <trkpt lat="48.83554" lon="2.31966">
        <ele>126.7</ele>
        <time>2015-07-13T20:26:34.748Z</time>
      </trkpt>
      <trkpt lat="48.83551" lon="2.31971">
        <ele>126.7</ele>
        <time>2015-07-13T20:26:35.783Z</time>
      </trkpt>
      <trkpt lat="48.83546" lon="2.31975">
        <ele>126.8</ele>
        <time>2015-07-13T20:26:36.794Z</time>
      </trkpt>
      <trkpt lat="48.83542" lon="2.31978">
        <ele>126.8</ele>
        <time>2015-07-13T20:26:37.804Z</time>
      </trkpt>
      <trkpt lat="48.83537" lon="2.31986">
        <ele>126.5</ele>
        <time>2015-07-13T20:26:39.744Z</time>
      </trkpt>
      <trkpt lat="48.83534" lon="2.3199">
        <ele>126.1</ele>
        <time>2015-07-13T20:26:40.797Z</time>
      </trkpt>
      <trkpt lat="48.83528" lon="2.31998">
        <ele>125.4</ele>
        <time>2015-07-13T20:26:42.744Z</time>
      </trkpt>
      <trkpt lat="48.83524" lon="2.32003">
        <ele>125.2</ele>
        <time>2015-07-13T20:26:43.771Z</time>
      </trkpt>
      <trkpt lat="48.83517" lon="2.32008">
        <ele>124.8</ele>
        <time>2015-07-13T20:26:45.757Z</time>
      </trkpt>
      <trkpt lat="48.83513" lon="2.32012">
        <ele>124.4</ele>
        <time>2015-07-13T20:26:46.770Z</time>
      </trkpt>
      <trkpt lat="48.83512" lon="2.32021">
        <ele>122.6</ele>
        <time>2015-07-13T20:26:48.750Z</time>
      </trkpt>
      <trkpt lat="48.83509" lon="2.32024">
        <ele>122.3</ele>
        <time>2015-07-13T20:26:49.802Z</time>
      </trkpt>
      <trkpt lat="48.83503" lon="2.32033">
        <ele>121.6</ele>
        <time>2015-07-13T20:26:51.756Z</time>
      </trkpt>
      <trkpt lat="48.835" lon="2.32039">
        <ele>121.5</ele>
        <time>2015-07-13T20:26:52.739Z</time>
      </trkpt>
      <trkpt lat="48.83497" lon="2.32045">
        <ele>121.4</ele>
        <time>2015-07-13T20:26:53.804Z</time>
      </trkpt>
      <trkpt lat="48.83494" lon="2.3205">
        <ele>121.4</ele>
        <time>2015-07-13T20:26:54.742Z</time>
      </trkpt>
      <trkpt lat="48.8349" lon="2.32058">
        <ele>121.3</ele>
        <time>2015-07-13T20:26:55.756Z</time>
      </trkpt>
      <trkpt lat="48.83487" lon="2.32065">
        <ele>121.5</ele>
        <time>2015-07-13T20:26:56.797Z</time>
      </trkpt>
      <trkpt lat="48.83484" lon="2.3207">
        <ele>121.5</ele>
        <time>2015-07-13T20:26:57.798Z</time>
      </trkpt>
      <trkpt lat="48.83481" lon="2.32077">
        <ele>121.5</ele>
        <time>2015-07-13T20:26:58.814Z</time>
      </trkpt>
      <trkpt lat="48.83478" lon="2.32084">
        <ele>121.6</ele>
        <time>2015-07-13T20:26:59.840Z</time>
      </trkpt>
      <trkpt lat="48.83475" lon="2.32092">
        <ele>121.5</ele>
        <time>2015-07-13T20:27:00.793Z</time>
      </trkpt>
      <trkpt lat="48.83472" lon="2.32098">
        <ele>121.7</ele>
        <time>2015-07-13T20:27:01.729Z</time>
      </trkpt>
      <trkpt lat="48.83469" lon="2.32105">
        <ele>122</ele>
        <time>2015-07-13T20:27:02.725Z</time>
      </trkpt>
      <trkpt lat="48.83466" lon="2.32112">
        <ele>122.2</ele>
        <time>2015-07-13T20:27:03.769Z</time>
      </trkpt>
      <trkpt lat="48.83463" lon="2.32118">
        <ele>122.5</ele>
        <time>2015-07-13T20:27:04.781Z</time>
      </trkpt>
      <trkpt lat="48.8346" lon="2.32125">
        <ele>123</ele>
        <time>2015-07-13T20:27:05.795Z</time>
      </trkpt>
      <trkpt lat="48.83456" lon="2.3213">
        <ele>123.3</ele>
        <time>2015-07-13T20:27:06.813Z</time>
      </trkpt>
      <trkpt lat="48.83454" lon="2.32136">
        <ele>123.8</ele>
        <time>2015-07-13T20:27:07.738Z</time>
      </trkpt>
      <trkpt lat="48.8345" lon="2.32141">
        <ele>124.2</ele>
        <time>2015-07-13T20:27:08.744Z</time>
      </trkpt>
      <trkpt lat="48.83447" lon="2.32147">
        <ele>124.6</ele>
        <time>2015-07-13T20:27:09.771Z</time>
      </trkpt>
      <trkpt lat="48.83443" lon="2.32154">
        <ele>125.1</ele>
        <time>2015-07-13T20:27:10.830Z</time>
      </trkpt>
      <trkpt lat="48.83438" lon="2.32165">
        <ele>126.3</ele>
        <time>2015-07-13T20:27:12.725Z</time>
      </trkpt>
      <trkpt lat="48.83436" lon="2.32171">
        <ele>126.6</ele>
        <time>2015-07-13T20:27:13.730Z</time>
      </trkpt>
      <trkpt lat="48.83436" lon="2.3218">
        <ele>125.6</ele>
        <time>2015-07-13T20:27:15.811Z</time>
      </trkpt>
      <trkpt lat="48.83437" lon="2.32185">
        <ele>125.4</ele>
        <time>2015-07-13T20:27:16.815Z</time>
      </trkpt>
      <trkpt lat="48.83436" lon="2.32196">
        <ele>128.6</ele>
        <time>2015-07-13T20:27:20.723Z</time>
      </trkpt>
      <trkpt lat="48.83435" lon="2.322">
        <ele>128.7</ele>
        <time>2015-07-13T20:27:21.753Z</time>
      </trkpt>
      <trkpt lat="48.8343" lon="2.32211">
        <ele>129.5</ele>
        <time>2015-07-13T20:27:24.733Z</time>
      </trkpt>
      <trkpt lat="48.83426" lon="2.32216">
        <ele>129.8</ele>
        <time>2015-07-13T20:27:25.769Z</time>
      </trkpt>
      <trkpt lat="48.83423" lon="2.32221">
        <ele>130.1</ele>
        <time>2015-07-13T20:27:26.720Z</time>
      </trkpt>
      <trkpt lat="48.8342" lon="2.32228">
        <ele>130.2</ele>
        <time>2015-07-13T20:27:27.814Z</time>
      </trkpt>
      <trkpt lat="48.83417" lon="2.32234">
        <ele>130.3</ele>
        <time>2015-07-13T20:27:28.730Z</time>
      </trkpt>
      <trkpt lat="48.83414" lon="2.3224">
        <ele>130.4</ele>
        <time>2015-07-13T20:27:29.797Z</time>
      </trkpt>
      <trkpt lat="48.83411" lon="2.32246">
        <ele>130.5</ele>
        <time>2015-07-13T20:27:30.810Z</time>
      </trkpt>
      <trkpt lat="48.83407" lon="2.32252">
        <ele>130.5</ele>
        <time>2015-07-13T20:27:31.819Z</time>
      </trkpt>
      <trkpt lat="48.83403" lon="2.32257">
        <ele>130.5</ele>
        <time>2015-07-13T20:27:33.007Z</time>
      </trkpt>
      <trkpt lat="48.83398" lon="2.32263">
        <ele>130.3</ele>
        <time>2015-07-13T20:27:33.756Z</time>
      </trkpt>
      <trkpt lat="48.83394" lon="2.32268">
        <ele>130.4</ele>
        <time>2015-07-13T20:27:34.777Z</time>
      </trkpt>
      <trkpt lat="48.8339" lon="2.32272">
        <ele>130.4</ele>
        <time>2015-07-13T20:27:35.827Z</time>
      </trkpt>
      <trkpt lat="48.83384" lon="2.32278">
        <ele>131.1</ele>
        <time>2015-07-13T20:27:36.738Z</time>
      </trkpt>
      <trkpt lat="48.83379" lon="2.32284">
        <ele>131.6</ele>
        <time>2015-07-13T20:27:37.767Z</time>
      </trkpt>
      <trkpt lat="48.83376" lon="2.3229">
        <ele>131.6</ele>
        <time>2015-07-13T20:27:38.776Z</time>
      </trkpt>
      <trkpt lat="48.83371" lon="2.32295">
        <ele>131.4</ele>
        <time>2015-07-13T20:27:39.792Z</time>
      </trkpt>
      <trkpt lat="48.83368" lon="2.32302">
        <ele>131.4</ele>
        <time>2015-07-13T20:27:40.803Z</time>
      </trkpt>
      <trkpt lat="48.83365" lon="2.32309">
        <ele>131.5</ele>
        <time>2015-07-13T20:27:41.843Z</time>
      </trkpt>
      <trkpt lat="48.83363" lon="2.32315">
        <ele>131.6</ele>
        <time>2015-07-13T20:27:42.744Z</time>
      </trkpt>
      <trkpt lat="48.83361" lon="2.32322">
        <ele>131.8</ele>
        <time>2015-07-13T20:27:43.754Z</time>
      </trkpt>
      <trkpt lat="48.83358" lon="2.3233">
        <ele>131.9</ele>
        <time>2015-07-13T20:27:44.768Z</time>
      </trkpt>
      <trkpt lat="48.83355" lon="2.32338">
        <ele>131.7</ele>
        <time>2015-07-13T20:27:45.776Z</time>
      </trkpt>
      <trkpt lat="48.83352" lon="2.32348">
        <ele>131.9</ele>
        <time>2015-07-13T20:27:46.749Z</time>
      </trkpt>
      <trkpt lat="48.83348" lon="2.32356">
        <ele>132.1</ele>
        <time>2015-07-13T20:27:47.782Z</time>
      </trkpt>
      <trkpt lat="48.83343" lon="2.32363">
        <ele>132.4</ele>
        <time>2015-07-13T20:27:48.792Z</time>
      </trkpt>
      <trkpt lat="48.83338" lon="2.32369">
        <ele>132.8</ele>
        <time>2015-07-13T20:27:49.746Z</time>
      </trkpt>
      <trkpt lat="48.83334" lon="2.32376">
        <ele>133.2</ele>
        <time>2015-07-13T20:27:50.753Z</time>
      </trkpt>
      <trkpt lat="48.83332" lon="2.32383">
        <ele>133.5</ele>
        <time>2015-07-13T20:27:51.779Z</time>
      </trkpt>
      <trkpt lat="48.83329" lon="2.32389">
        <ele>133.4</ele>
        <time>2015-07-13T20:27:52.830Z</time>
      </trkpt>
      <trkpt lat="48.83326" lon="2.32395">
        <ele>133.3</ele>
        <time>2015-07-13T20:27:53.841Z</time>
      </trkpt>
      <trkpt lat="48.83324" lon="2.32401">
        <ele>133</ele>
        <time>2015-07-13T20:27:54.712Z</time>
      </trkpt>
      <trkpt lat="48.8332" lon="2.32406">
        <ele>132.4</ele>
        <time>2015-07-13T20:27:55.810Z</time>
      </trkpt>
      <trkpt lat="48.83318" lon="2.32413">
        <ele>132</ele>
        <time>2015-07-13T20:27:56.821Z</time>
      </trkpt>
      <trkpt lat="48.83316" lon="2.32419">
        <ele>131.7</ele>
        <time>2015-07-13T20:27:57.834Z</time>
      </trkpt>
      <trkpt lat="48.83313" lon="2.32426">
        <ele>131.6</ele>
        <time>2015-07-13T20:27:58.761Z</time>
      </trkpt>
      <trkpt lat="48.8331" lon="2.32433">
        <ele>131.5</ele>
        <time>2015-07-13T20:27:59.832Z</time>
      </trkpt>
      <trkpt lat="48.83307" lon="2.32441">
        <ele>130.9</ele>
        <time>2015-07-13T20:28:00.722Z</time>
      </trkpt>
      <trkpt lat="48.83306" lon="2.3245">
        <ele>130.4</ele>
        <time>2015-07-13T20:28:01.749Z</time>
      </trkpt>
      <trkpt lat="48.83304" lon="2.32458">
        <ele>130.1</ele>
        <time>2015-07-13T20:28:02.796Z</time>
      </trkpt>
      <trkpt lat="48.83301" lon="2.32466">
        <ele>130.4</ele>
        <time>2015-07-13T20:28:03.826Z</time>
      </trkpt>
      <trkpt lat="48.83296" lon="2.32471">
        <ele>129.9</ele>
        <time>2015-07-13T20:28:04.742Z</time>
      </trkpt>
      <trkpt lat="48.83292" lon="2.32477">
        <ele>129.4</ele>
        <time>2015-07-13T20:28:05.756Z</time>
      </trkpt>
      <trkpt lat="48.83284" lon="2.32481">
        <ele>129.5</ele>
        <time>2015-07-13T20:28:07.782Z</time>
      </trkpt>
      <trkpt lat="48.83281" lon="2.32483">
        <ele>129.8</ele>
        <time>2015-07-13T20:28:08.808Z</time>
      </trkpt>
      <trkpt lat="48.83274" lon="2.32484">
        <ele>130.4</ele>
        <time>2015-07-13T20:28:10.788Z</time>
      </trkpt>
      <trkpt lat="48.83272" lon="2.32485">
        <ele>131.1</ele>
        <time>2015-07-13T20:28:11.818Z</time>
      </trkpt>
      <trkpt lat="48.83266" lon="2.32496">
        <ele>131.4</ele>
        <time>2015-07-13T20:28:14.818Z</time>
      </trkpt>
      <trkpt lat="48.83264" lon="2.325">
        <ele>132.4</ele>
        <time>2015-07-13T20:28:15.799Z</time>
      </trkpt>
      <trkpt lat="48.83261" lon="2.3251">
        <ele>132.1</ele>
        <time>2015-07-13T20:28:17.843Z</time>
      </trkpt>
      <trkpt lat="48.83259" lon="2.32514">
        <ele>132.1</ele>
        <time>2015-07-13T20:28:18.900Z</time>
      </trkpt>
      <trkpt lat="48.83258" lon="2.32523">
        <ele>131.7</ele>
        <time>2015-07-13T20:28:20.800Z</time>
      </trkpt>
      <trkpt lat="48.83257" lon="2.32529">
        <ele>131.2</ele>
        <time>2015-07-13T20:28:21.835Z</time>
      </trkpt>
      <trkpt lat="48.83255" lon="2.32541">
        <ele>129.6</ele>
        <time>2015-07-13T20:28:23.907Z</time>
      </trkpt>
      <trkpt lat="48.83254" lon="2.32545">
        <ele>129.7</ele>
        <time>2015-07-13T20:28:24.770Z</time>
      </trkpt>
      <trkpt lat="48.8325" lon="2.32553">
        <ele>129.9</ele>
        <time>2015-07-13T20:28:26.859Z</time>
      </trkpt>
      <trkpt lat="48.83249" lon="2.32558">
        <ele>129.8</ele>
        <time>2015-07-13T20:28:27.790Z</time>
      </trkpt>
      <trkpt lat="48.83244" lon="2.32566">
        <ele>129.9</ele>
        <time>2015-07-13T20:28:30.780Z</time>
      </trkpt>
      <trkpt lat="48.83242" lon="2.3257">
        <ele>129.8</ele>
        <time>2015-07-13T20:28:31.759Z</time>
      </trkpt>
      <trkpt lat="48.83243" lon="2.32579">
        <ele>127.6</ele>
        <time>2015-07-13T20:28:33.810Z</time>
      </trkpt>
      <trkpt lat="48.83246" lon="2.32585">
        <ele>126</ele>
        <time>2015-07-13T20:28:34.818Z</time>
      </trkpt>
      <trkpt lat="48.83249" lon="2.32591">
        <ele>124.6</ele>
        <time>2015-07-13T20:28:35.815Z</time>
      </trkpt>
      <trkpt lat="48.83252" lon="2.32596">
        <ele>123.7</ele>
        <time>2015-07-13T20:28:36.834Z</time>
      </trkpt>
      <trkpt lat="48.83259" lon="2.32602">
        <ele>122.2</ele>
        <time>2015-07-13T20:28:38.862Z</time>
      </trkpt>
      <trkpt lat="48.83263" lon="2.32604">
        <ele>121.5</ele>
        <time>2015-07-13T20:28:39.833Z</time>
      </trkpt>
      <trkpt lat="48.83271" lon="2.32609">
        <ele>120.5</ele>
        <time>2015-07-13T20:28:41.799Z</time>
      </trkpt>
      <trkpt lat="48.83274" lon="2.32612">
        <ele>120.2</ele>
        <time>2015-07-13T20:28:42.815Z</time>
      </trkpt>
      <trkpt lat="48.83281" lon="2.32616">
        <ele>120</ele>
        <time>2015-07-13T20:28:44.788Z</time>
      </trkpt>
      <trkpt lat="48.83283" lon="2.32618">
        <ele>120.3</ele>
        <time>2015-07-13T20:28:45.804Z</time>
      </trkpt>
      <trkpt lat="48.83291" lon="2.32625">
        <ele>121.2</ele>
        <time>2015-07-13T20:28:48.724Z</time>
      </trkpt>
      <trkpt lat="48.83293" lon="2.32627">
        <ele>121.7</ele>
        <time>2015-07-13T20:28:49.796Z</time>
      </trkpt>
      <trkpt lat="48.83291" lon="2.32638">
        <ele>122.8</ele>
        <time>2015-07-13T20:28:53.787Z</time>
      </trkpt>
      <trkpt lat="48.8329" lon="2.32636">
        <ele>123.2</ele>
        <time>2015-07-13T20:28:54.727Z</time>
      </trkpt>
      <trkpt lat="48.83289" lon="2.32635">
        <ele>123.8</ele>
        <time>2015-07-13T20:29:02.772Z</time>
      </trkpt>
      <trkpt lat="48.83289" lon="2.32648">
        <ele>126.8</ele>
        <time>2015-07-13T20:29:03.781Z</time>
      </trkpt>
      <trkpt lat="48.83284" lon="2.32658">
        <ele>128.4</ele>
        <time>2015-07-13T20:29:06.786Z</time>
      </trkpt>
      <trkpt lat="48.83284" lon="2.3266">
        <ele>128.1</ele>
        <time>2015-07-13T20:29:07.761Z</time>
      </trkpt>
      <trkpt lat="48.8329" lon="2.32652">
        <ele>119.2</ele>
        <time>2015-07-13T20:29:16.846Z</time>
      </trkpt>
      <trkpt lat="48.83291" lon="2.32647">
        <ele>118.5</ele>
        <time>2015-07-13T20:29:17.887Z</time>
      </trkpt>
      <trkpt lat="48.83291" lon="2.32637">
        <ele>118.3</ele>
        <time>2015-07-13T20:29:19.782Z</time>
      </trkpt>
      <trkpt lat="48.83292" lon="2.32634">
        <ele>118.1</ele>
        <time>2015-07-13T20:29:20.796Z</time>
      </trkpt>
      <trkpt lat="48.83298" lon="2.32632">
        <ele>120.1</ele>
        <time>2015-07-13T20:29:30.771Z</time>
      </trkpt>
      <trkpt lat="48.83302" lon="2.3263">
        <ele>119.9</ele>
        <time>2015-07-13T20:29:31.763Z</time>
      </trkpt>
      <trkpt lat="48.83301" lon="2.3264">
        <ele>120.4</ele>
        <time>2015-07-13T20:29:36.787Z</time>
      </trkpt>
      <trkpt lat="48.833" lon="2.32644">
        <ele>120.7</ele>
        <time>2015-07-13T20:29:37.811Z</time>
      </trkpt>
      <trkpt lat="48.83298" lon="2.32652">
        <ele>120.8</ele>
        <time>2015-07-13T20:29:39.808Z</time>
      </trkpt>
      <trkpt lat="48.83295" lon="2.32657">
        <ele>120.3</ele>
        <time>2015-07-13T20:29:40.878Z</time>
      </trkpt>
      <trkpt lat="48.83292" lon="2.32668">
        <ele>120.1</ele>
        <time>2015-07-13T20:29:42.816Z</time>
      </trkpt>
      <trkpt lat="48.83291" lon="2.32673">
        <ele>120.1</ele>
        <time>2015-07-13T20:29:43.801Z</time>
      </trkpt>
      <trkpt lat="48.83289" lon="2.32685">
        <ele>120.2</ele>
        <time>2015-07-13T20:29:46.735Z</time>
      </trkpt>
      <trkpt lat="48.83288" lon="2.32688">
        <ele>120.2</ele>
        <time>2015-07-13T20:29:47.801Z</time>
      </trkpt>
      <trkpt lat="48.83286" lon="2.32697">
        <ele>120.6</ele>
        <time>2015-07-13T20:29:50.787Z</time>
      </trkpt>
      <trkpt lat="48.83283" lon="2.32701">
        <ele>120.4</ele>
        <time>2015-07-13T20:29:51.739Z</time>
      </trkpt>
      <trkpt lat="48.83279" lon="2.32712">
        <ele>120.7</ele>
        <time>2015-07-13T20:29:54.806Z</time>
      </trkpt>
      <trkpt lat="48.83279" lon="2.32717">
        <ele>120.4</ele>
        <time>2015-07-13T20:29:55.822Z</time>
      </trkpt>
      <trkpt lat="48.83279" lon="2.32728">
        <ele>120</ele>
        <time>2015-07-13T20:29:58.806Z</time>
      </trkpt>
      <trkpt lat="48.83278" lon="2.32732">
        <ele>120.4</ele>
        <time>2015-07-13T20:29:59.802Z</time>
      </trkpt>
      <trkpt lat="48.83279" lon="2.32737">
        <ele>120.4</ele>
        <time>2015-07-13T20:30:01.780Z</time>
      </trkpt>
      <trkpt lat="48.8328" lon="2.32734">
        <ele>119.3</ele>
        <time>2015-07-13T20:30:02.794Z</time>
      </trkpt>
      <trkpt lat="48.8328" lon="2.3273">
        <ele>118.3</ele>
        <time>2015-07-13T20:30:15.769Z</time>
      </trkpt>
      <trkpt lat="48.83284" lon="2.327">
        <ele>116.6</ele>
        <time>2015-07-13T20:30:16.780Z</time>
      </trkpt>
      <trkpt lat="48.83288" lon="2.32691">
        <ele>117</ele>
        <time>2015-07-13T20:30:20.786Z</time>
      </trkpt>
      <trkpt lat="48.83288" lon="2.32687">
        <ele>117.2</ele>
        <time>2015-07-13T20:30:21.755Z</time>
      </trkpt>
      <trkpt lat="48.83291" lon="2.32678">
        <ele>117.9</ele>
        <time>2015-07-13T20:30:23.822Z</time>
      </trkpt>
      <trkpt lat="48.83293" lon="2.32673">
        <ele>117.9</ele>
        <time>2015-07-13T20:30:24.842Z</time>
      </trkpt>
      <trkpt lat="48.83296" lon="2.32666">
        <ele>117.6</ele>
        <time>2015-07-13T20:30:25.748Z</time>
      </trkpt>
      <trkpt lat="48.83299" lon="2.3266">
        <ele>117.7</ele>
        <time>2015-07-13T20:30:26.766Z</time>
      </trkpt>
      <trkpt lat="48.83301" lon="2.32653">
        <ele>117.6</ele>
        <time>2015-07-13T20:30:27.782Z</time>
      </trkpt>
      <trkpt lat="48.83304" lon="2.32647">
        <ele>117.6</ele>
        <time>2015-07-13T20:30:28.802Z</time>
      </trkpt>
      <trkpt lat="48.8331" lon="2.32639">
        <ele>118.1</ele>
        <time>2015-07-13T20:30:30.761Z</time>
      </trkpt>
      <trkpt lat="48.83313" lon="2.32637">
        <ele>118.2</ele>
        <time>2015-07-13T20:30:31.789Z</time>
      </trkpt>
      <trkpt lat="48.83322" lon="2.32638">
        <ele>118.9</ele>
        <time>2015-07-13T20:30:34.779Z</time>
      </trkpt>
      <trkpt lat="48.83325" lon="2.32638">
        <ele>119.1</ele>
        <time>2015-07-13T20:30:35.813Z</time>
      </trkpt>
      <trkpt lat="48.83332" lon="2.32639">
        <ele>119.6</ele>
        <time>2015-07-13T20:30:37.724Z</time>
      </trkpt>
      <trkpt lat="48.83333" lon="2.32644">
        <ele>119.3</ele>
        <time>2015-07-13T20:30:38.758Z</time>
      </trkpt>
      <trkpt lat="48.83335" lon="2.32652">
        <ele>119</ele>
        <time>2015-07-13T20:30:39.774Z</time>
      </trkpt>
      <trkpt lat="48.83336" lon="2.32658">
        <ele>119</ele>
        <time>2015-07-13T20:30:40.785Z</time>
      </trkpt>
      <trkpt lat="48.83337" lon="2.32669">
        <ele>118.5</ele>
        <time>2015-07-13T20:30:42.852Z</time>
      </trkpt>
      <trkpt lat="48.83338" lon="2.32676">
        <ele>118.5</ele>
        <time>2015-07-13T20:30:43.846Z</time>
      </trkpt>
      <trkpt lat="48.83341" lon="2.32685">
        <ele>118.3</ele>
        <time>2015-07-13T20:30:44.775Z</time>
      </trkpt>
      <trkpt lat="48.83341" lon="2.32692">
        <ele>118.4</ele>
        <time>2015-07-13T20:30:45.837Z</time>
      </trkpt>
      <trkpt lat="48.83338" lon="2.327">
        <ele>118.3</ele>
        <time>2015-07-13T20:30:47.852Z</time>
      </trkpt>
      <trkpt lat="48.83336" lon="2.32706">
        <ele>118.2</ele>
        <time>2015-07-13T20:30:48.727Z</time>
      </trkpt>
      <trkpt lat="48.8333" lon="2.32713">
        <ele>119.1</ele>
        <time>2015-07-13T20:30:51.747Z</time>
      </trkpt>
      <trkpt lat="48.83328" lon="2.32715">
        <ele>119.4</ele>
        <time>2015-07-13T20:30:52.823Z</time>
      </trkpt>
      <trkpt lat="48.8333" lon="2.32705">
        <ele>122.7</ele>
        <time>2015-07-13T20:31:02.781Z</time>
      </trkpt>
      <trkpt lat="48.83331" lon="2.32701">
        <ele>122.7</ele>
        <time>2015-07-13T20:31:03.799Z</time>
      </trkpt>
      <trkpt lat="48.83335" lon="2.32694">
        <ele>122.2</ele>
        <time>2015-07-13T20:31:05.777Z</time>
      </trkpt>
      <trkpt lat="48.83337" lon="2.3269">
        <ele>122</ele>
        <time>2015-07-13T20:31:06.782Z</time>
      </trkpt>
      <trkpt lat="48.83341" lon="2.32684">
        <ele>121.7</ele>
        <time>2015-07-13T20:31:09.602Z</time>
      </trkpt>
      <trkpt lat="48.83343" lon="2.3268">
        <ele>121.3</ele>
        <time>2015-07-13T20:31:09.784Z</time>
      </trkpt>
      <trkpt lat="48.83343" lon="2.3267">
        <ele>121.1</ele>
        <time>2015-07-13T20:31:11.867Z</time>
      </trkpt>
      <trkpt lat="48.83343" lon="2.32664">
        <ele>120.9</ele>
        <time>2015-07-13T20:31:12.746Z</time>
      </trkpt>
      <trkpt lat="48.83345" lon="2.32655">
        <ele>121.2</ele>
        <time>2015-07-13T20:31:14.781Z</time>
      </trkpt>
      <trkpt lat="48.83345" lon="2.3265">
        <ele>121.3</ele>
        <time>2015-07-13T20:31:15.799Z</time>
      </trkpt>
      <trkpt lat="48.83339" lon="2.32641">
        <ele>121.5</ele>
        <time>2015-07-13T20:31:19.755Z</time>
      </trkpt>
      <trkpt lat="48.83337" lon="2.3264">
        <ele>121.3</ele>
        <time>2015-07-13T20:31:20.762Z</time>
      </trkpt>
      <trkpt lat="48.83329" lon="2.32638">
        <ele>118.7</ele>
        <time>2015-07-13T20:31:22.815Z</time>
      </trkpt>
      <trkpt lat="48.83326" lon="2.32636">
        <ele>118.6</ele>
        <time>2015-07-13T20:31:23.975Z</time>
      </trkpt>
      <trkpt lat="48.83318" lon="2.32634">
        <ele>118.1</ele>
        <time>2015-07-13T20:31:25.827Z</time>
      </trkpt>
      <trkpt lat="48.83315" lon="2.32632">
        <ele>118</ele>
        <time>2015-07-13T20:31:26.778Z</time>
      </trkpt>
      <trkpt lat="48.83308" lon="2.32629">
        <ele>117.8</ele>
        <time>2015-07-13T20:31:29.382Z</time>
      </trkpt>
      <trkpt lat="48.83305" lon="2.32628">
        <ele>117.9</ele>
        <time>2015-07-13T20:31:29.842Z</time>
      </trkpt>
      <trkpt lat="48.83297" lon="2.32625">
        <ele>118.6</ele>
        <time>2015-07-13T20:31:32.773Z</time>
      </trkpt>
      <trkpt lat="48.83295" lon="2.32625">
        <ele>118.6</ele>
        <time>2015-07-13T20:31:33.786Z</time>
      </trkpt>
      <trkpt lat="48.83288" lon="2.3262">
        <ele>118.8</ele>
        <time>2015-07-13T20:32:24.834Z</time>
      </trkpt>
      <trkpt lat="48.83281" lon="2.32616">
        <ele>123</ele>
        <time>2015-07-13T20:32:25.796Z</time>
      </trkpt>
      <trkpt lat="48.83274" lon="2.3261">
        <ele>123.5</ele>
        <time>2015-07-13T20:32:28.987Z</time>
      </trkpt>
      <trkpt lat="48.83272" lon="2.32607">
        <ele>123.5</ele>
        <time>2015-07-13T20:32:29.842Z</time>
      </trkpt>
      <trkpt lat="48.83265" lon="2.32601">
        <ele>124</ele>
        <time>2015-07-13T20:32:31.757Z</time>
      </trkpt>
      <trkpt lat="48.8326" lon="2.32598">
        <ele>123.8</ele>
        <time>2015-07-13T20:32:32.768Z</time>
      </trkpt>
      <trkpt lat="48.83254" lon="2.32594">
        <ele>123.9</ele>
        <time>2015-07-13T20:32:34.800Z</time>
      </trkpt>
      <trkpt lat="48.83251" lon="2.32593">
        <ele>124.2</ele>
        <time>2015-07-13T20:32:35.851Z</time>
      </trkpt>
      <trkpt lat="48.83244" lon="2.3259">
        <ele>125.6</ele>
        <time>2015-07-13T20:35:35.811Z</time>
      </trkpt>
      <trkpt lat="48.83262" lon="2.32591">
        <ele>119.1</ele>
        <time>2015-07-13T20:35:36.796Z</time>
      </trkpt>
      <trkpt lat="48.83267" lon="2.326">
        <ele>117.9</ele>
        <time>2015-07-13T20:35:40.825Z</time>
      </trkpt>
      <trkpt lat="48.83269" lon="2.32601">
        <ele>117.9</ele>
        <time>2015-07-13T20:35:41.839Z</time>
      </trkpt>
      <trkpt lat="48.83277" lon="2.32608">
        <ele>118.9</ele>
        <time>2015-07-13T20:40:59.848Z</time>
      </trkpt>
      <trkpt lat="48.83294" lon="2.32628">
        <ele>129.4</ele>
        <time>2015-07-13T20:41:00.759Z</time>
      </trkpt>
      <trkpt lat="48.83302" lon="2.32634">
        <ele>129</ele>
        <time>2015-07-13T20:41:04.815Z</time>
      </trkpt>
      <trkpt lat="48.83304" lon="2.32635">
        <ele>128.9</ele>
        <time>2015-07-13T20:41:05.809Z</time>
      </trkpt>
      <trkpt lat="48.83311" lon="2.32639">
        <ele>129.3</ele>
        <time>2015-07-13T20:41:10.836Z</time>
      </trkpt>
      <trkpt lat="48.83314" lon="2.3264">
        <ele>129.3</ele>
        <time>2015-07-13T20:41:11.853Z</time>
      </trkpt>
      <trkpt lat="48.83321" lon="2.32644">
        <ele>128.9</ele>
        <time>2015-07-13T20:41:13.795Z</time>
      </trkpt>
      <trkpt lat="48.83324" lon="2.32646">
        <ele>128.9</ele>
        <time>2015-07-13T20:41:14.813Z</time>
      </trkpt>
      <trkpt lat="48.83329" lon="2.32647">
        <ele>128.5</ele>
        <time>2015-07-13T20:41:16.761Z</time>
      </trkpt>
      <trkpt lat="48.83333" lon="2.32644">
        <ele>127.7</ele>
        <time>2015-07-13T20:41:17.804Z</time>
      </trkpt>
      <trkpt lat="48.83341" lon="2.32638">
        <ele>125.4</ele>
        <time>2015-07-13T20:41:20.846Z</time>
      </trkpt>
      <trkpt lat="48.83343" lon="2.32633">
        <ele>125.1</ele>
        <time>2015-07-13T20:41:21.751Z</time>
      </trkpt>
      <trkpt lat="48.83346" lon="2.32623">
        <ele>124.7</ele>
        <time>2015-07-13T20:41:23.891Z</time>
      </trkpt>
      <trkpt lat="48.83348" lon="2.32617">
        <ele>124.4</ele>
        <time>2015-07-13T20:41:24.758Z</time>
      </trkpt>
      <trkpt lat="48.83352" lon="2.32606">
        <ele>123.9</ele>
        <time>2015-07-13T20:41:26.808Z</time>
      </trkpt>
      <trkpt lat="48.83353" lon="2.326">
        <ele>124.1</ele>
        <time>2015-07-13T20:41:27.715Z</time>
      </trkpt>
      <trkpt lat="48.83357" lon="2.32588">
        <ele>124.8</ele>
        <time>2015-07-13T20:41:29.832Z</time>
      </trkpt>
      <trkpt lat="48.83359" lon="2.32584">
        <ele>125</ele>
        <time>2015-07-13T20:41:30.750Z</time>
      </trkpt>
      <trkpt lat="48.83367" lon="2.32584">
        <ele>124.7</ele>
        <time>2015-07-13T20:41:33.999Z</time>
      </trkpt>
      <trkpt lat="48.8337" lon="2.32586">
        <ele>124.8</ele>
        <time>2015-07-13T20:41:34.778Z</time>
      </trkpt>
      <trkpt lat="48.83375" lon="2.32591">
        <ele>125.2</ele>
        <time>2015-07-13T20:41:36.824Z</time>
      </trkpt>
      <trkpt lat="48.83379" lon="2.32594">
        <ele>125.5</ele>
        <time>2015-07-13T20:41:37.733Z</time>
      </trkpt>
      <trkpt lat="48.83385" lon="2.32598">
        <ele>126</ele>
        <time>2015-07-13T20:41:39.763Z</time>
      </trkpt>
      <trkpt lat="48.83388" lon="2.326">
        <ele>126.4</ele>
        <time>2015-07-13T20:41:40.783Z</time>
      </trkpt>
      <trkpt lat="48.83395" lon="2.32604">
        <ele>126.7</ele>
        <time>2015-07-13T20:41:42.795Z</time>
      </trkpt>
      <trkpt lat="48.83399" lon="2.32606">
        <ele>126.8</ele>
        <time>2015-07-13T20:41:43.774Z</time>
      </trkpt>
      <trkpt lat="48.83405" lon="2.3261">
        <ele>126.9</ele>
        <time>2015-07-13T20:41:45.742Z</time>
      </trkpt>
      <trkpt lat="48.83409" lon="2.32612">
        <ele>126.9</ele>
        <time>2015-07-13T20:41:46.749Z</time>
      </trkpt>
      <trkpt lat="48.83416" lon="2.32616">
        <ele>127.3</ele>
        <time>2015-07-13T20:41:49.284Z</time>
      </trkpt>
      <trkpt lat="48.83419" lon="2.32619">
        <ele>127.5</ele>
        <time>2015-07-13T20:41:49.779Z</time>
      </trkpt>
      <trkpt lat="48.83425" lon="2.32622">
        <ele>126.6</ele>
        <time>2015-07-13T20:41:51.820Z</time>
      </trkpt>
      <trkpt lat="48.83428" lon="2.32625">
        <ele>126.4</ele>
        <time>2015-07-13T20:41:52.831Z</time>
      </trkpt>
      <trkpt lat="48.83436" lon="2.32631">
        <ele>125.6</ele>
        <time>2015-07-13T20:41:54.714Z</time>
      </trkpt>
      <trkpt lat="48.8344" lon="2.32633">
        <ele>125.1</ele>
        <time>2015-07-13T20:41:55.759Z</time>
      </trkpt>
      <trkpt lat="48.83445" lon="2.32635">
        <ele>125.2</ele>
        <time>2015-07-13T20:41:56.754Z</time>
      </trkpt>
      <trkpt lat="48.83449" lon="2.32639">
        <ele>125.2</ele>
        <time>2015-07-13T20:41:57.760Z</time>
      </trkpt>
      <trkpt lat="48.83456" lon="2.32646">
        <ele>125.1</ele>
        <time>2015-07-13T20:41:59.797Z</time>
      </trkpt>
      <trkpt lat="48.8346" lon="2.3265">
        <ele>125</ele>
        <time>2015-07-13T20:42:00.808Z</time>
      </trkpt>
      <trkpt lat="48.83464" lon="2.32656">
        <ele>124.9</ele>
        <time>2015-07-13T20:42:01.739Z</time>
      </trkpt>
      <trkpt lat="48.83468" lon="2.32662">
        <ele>124.7</ele>
        <time>2015-07-13T20:42:02.739Z</time>
      </trkpt>
      <trkpt lat="48.83472" lon="2.32669">
        <ele>124.9</ele>
        <time>2015-07-13T20:42:03.739Z</time>
      </trkpt>
      <trkpt lat="48.83475" lon="2.32671">
        <ele>124.9</ele>
        <time>2015-07-13T20:42:04.743Z</time>
      </trkpt>
      <trkpt lat="48.83479" lon="2.32675">
        <ele>124.8</ele>
        <time>2015-07-13T20:42:05.778Z</time>
      </trkpt>
      <trkpt lat="48.83484" lon="2.32678">
        <ele>124.9</ele>
        <time>2015-07-13T20:42:06.778Z</time>
      </trkpt>
      <trkpt lat="48.83489" lon="2.32678">
        <ele>124.9</ele>
        <time>2015-07-13T20:42:07.804Z</time>
      </trkpt>
      <trkpt lat="48.83495" lon="2.32679">
        <ele>124.7</ele>
        <time>2015-07-13T20:42:08.702Z</time>
      </trkpt>
      <trkpt lat="48.83503" lon="2.32685">
        <ele>124.8</ele>
        <time>2015-07-13T20:42:10.742Z</time>
      </trkpt>
      <trkpt lat="48.83507" lon="2.32687">
        <ele>124.9</ele>
        <time>2015-07-13T20:42:11.753Z</time>
      </trkpt>
      <trkpt lat="48.83511" lon="2.3269">
        <ele>125.1</ele>
        <time>2015-07-13T20:42:12.781Z</time>
      </trkpt>
      <trkpt lat="48.83516" lon="2.32695">
        <ele>125.3</ele>
        <time>2015-07-13T20:42:13.808Z</time>
      </trkpt>
      <trkpt lat="48.83523" lon="2.32703">
        <ele>125.3</ele>
        <time>2015-07-13T20:42:15.746Z</time>
      </trkpt>
      <trkpt lat="48.83527" lon="2.32706">
        <ele>125.2</ele>
        <time>2015-07-13T20:42:16.760Z</time>
      </trkpt>
      <trkpt lat="48.83531" lon="2.3271">
        <ele>125.1</ele>
        <time>2015-07-13T20:42:17.821Z</time>
      </trkpt>
      <trkpt lat="48.83535" lon="2.32713">
        <ele>125.1</ele>
        <time>2015-07-13T20:42:18.715Z</time>
      </trkpt>
      <trkpt lat="48.8354" lon="2.32717">
        <ele>125</ele>
        <time>2015-07-13T20:42:19.739Z</time>
      </trkpt>
      <trkpt lat="48.83545" lon="2.32721">
        <ele>125</ele>
        <time>2015-07-13T20:42:20.749Z</time>
      </trkpt>
      <trkpt lat="48.83551" lon="2.32725">
        <ele>125</ele>
        <time>2015-07-13T20:42:21.759Z</time>
      </trkpt>
      <trkpt lat="48.83555" lon="2.32729">
        <ele>124.9</ele>
        <time>2015-07-13T20:42:22.764Z</time>
      </trkpt>
      <trkpt lat="48.8356" lon="2.32732">
        <ele>124.8</ele>
        <time>2015-07-13T20:42:23.789Z</time>
      </trkpt>
      <trkpt lat="48.83565" lon="2.32736">
        <ele>124.6</ele>
        <time>2015-07-13T20:42:24.726Z</time>
      </trkpt>
      <trkpt lat="48.8357" lon="2.32738">
        <ele>124.2</ele>
        <time>2015-07-13T20:42:25.737Z</time>
      </trkpt>
      <trkpt lat="48.83576" lon="2.3274">
        <ele>123.9</ele>
        <time>2015-07-13T20:42:26.749Z</time>
      </trkpt>
      <trkpt lat="48.83582" lon="2.32741">
        <ele>123.8</ele>
        <time>2015-07-13T20:42:27.754Z</time>
      </trkpt>
      <trkpt lat="48.83587" lon="2.32742">
        <ele>123.4</ele>
        <time>2015-07-13T20:42:28.762Z</time>
      </trkpt>
      <trkpt lat="48.83595" lon="2.32745">
        <ele>122.4</ele>
        <time>2015-07-13T20:42:29.791Z</time>
      </trkpt>
      <trkpt lat="48.836" lon="2.32748">
        <ele>121.9</ele>
        <time>2015-07-13T20:42:30.789Z</time>
      </trkpt>
      <trkpt lat="48.83608" lon="2.32753">
        <ele>120.5</ele>
        <time>2015-07-13T20:42:32.724Z</time>
      </trkpt>
      <trkpt lat="48.83609" lon="2.32758">
        <ele>121</ele>
        <time>2015-07-13T20:42:33.774Z</time>
      </trkpt>
      <trkpt lat="48.83609" lon="2.3276">
        <ele>121.1</ele>
        <time>2015-07-13T20:42:34.798Z</time>
      </trkpt>
      <trkpt lat="48.83607" lon="2.32761">
        <ele>121.2</ele>
        <time>2015-07-13T20:42:35.820Z</time>
      </trkpt>
      <trkpt lat="48.83606" lon="2.32761">
        <ele>121</ele>
        <time>2015-07-13T20:42:43.789Z</time>
      </trkpt>
      <trkpt lat="48.83604" lon="2.32766">
        <ele>119.2</ele>
        <time>2015-07-13T20:42:44.803Z</time>
      </trkpt>
      <trkpt lat="48.83599" lon="2.32775">
        <ele>117.7</ele>
        <time>2015-07-13T20:42:46.711Z</time>
      </trkpt>
      <trkpt lat="48.83597" lon="2.32781">
        <ele>116.8</ele>
        <time>2015-07-13T20:42:47.810Z</time>
      </trkpt>
      <trkpt lat="48.83593" lon="2.32792">
        <ele>116.3</ele>
        <time>2015-07-13T20:42:49.750Z</time>
      </trkpt>
      <trkpt lat="48.8359" lon="2.32797">
        <ele>116</ele>
        <time>2015-07-13T20:42:50.743Z</time>
      </trkpt>
      <trkpt lat="48.83588" lon="2.32802">
        <ele>115.5</ele>
        <time>2015-07-13T20:42:51.762Z</time>
      </trkpt>
      <trkpt lat="48.83586" lon="2.32808">
        <ele>114.9</ele>
        <time>2015-07-13T20:42:52.773Z</time>
      </trkpt>
      <trkpt lat="48.83581" lon="2.3282">
        <ele>114.8</ele>
        <time>2015-07-13T20:42:54.756Z</time>
      </trkpt>
      <trkpt lat="48.83578" lon="2.32826">
        <ele>114.8</ele>
        <time>2015-07-13T20:42:55.867Z</time>
      </trkpt>
      <trkpt lat="48.83575" lon="2.32833">
        <ele>114.5</ele>
        <time>2015-07-13T20:42:56.733Z</time>
      </trkpt>
      <trkpt lat="48.83573" lon="2.32839">
        <ele>114.3</ele>
        <time>2015-07-13T20:42:57.731Z</time>
      </trkpt>
      <trkpt lat="48.83571" lon="2.32849">
        <ele>113.9</ele>
        <time>2015-07-13T20:42:59.781Z</time>
      </trkpt>
      <trkpt lat="48.83569" lon="2.32853">
        <ele>113.6</ele>
        <time>2015-07-13T20:43:00.770Z</time>
      </trkpt>
      <trkpt lat="48.83566" lon="2.32863">
        <ele>113.1</ele>
        <time>2015-07-13T20:43:02.725Z</time>
      </trkpt>
      <trkpt lat="48.83563" lon="2.32869">
        <ele>113.1</ele>
        <time>2015-07-13T20:43:03.766Z</time>
      </trkpt>
      <trkpt lat="48.83559" lon="2.3288">
        <ele>113</ele>
        <time>2015-07-13T20:43:05.889Z</time>
      </trkpt>
      <trkpt lat="48.83557" lon="2.32883">
        <ele>112.9</ele>
        <time>2015-07-13T20:43:06.998Z</time>
      </trkpt>
      <trkpt lat="48.83554" lon="2.32893">
        <ele>112.9</ele>
        <time>2015-07-13T20:43:08.727Z</time>
      </trkpt>
      <trkpt lat="48.83552" lon="2.32897">
        <ele>112.8</ele>
        <time>2015-07-13T20:43:09.766Z</time>
      </trkpt>
      <trkpt lat="48.83547" lon="2.32906">
        <ele>113.7</ele>
        <time>2015-07-13T20:43:41.787Z</time>
      </trkpt>
      <trkpt lat="48.83546" lon="2.32909">
        <ele>113.8</ele>
        <time>2015-07-13T20:43:42.791Z</time>
      </trkpt>
      <trkpt lat="48.83545" lon="2.32919">
        <ele>113.5</ele>
        <time>2015-07-13T20:43:44.707Z</time>
      </trkpt>
      <trkpt lat="48.83545" lon="2.32924">
        <ele>113.7</ele>
        <time>2015-07-13T20:43:45.730Z</time>
      </trkpt>
      <trkpt lat="48.83543" lon="2.32936">
        <ele>113.5</ele>
        <time>2015-07-13T20:43:49.523Z</time>
      </trkpt>
      <trkpt lat="48.83543" lon="2.32941">
        <ele>113.8</ele>
        <time>2015-07-13T20:43:49.767Z</time>
      </trkpt>
      <trkpt lat="48.83539" lon="2.32953">
        <ele>113.1</ele>
        <time>2015-07-13T20:43:54.630Z</time>
      </trkpt>
      <trkpt lat="48.83538" lon="2.32957">
        <ele>113</ele>
        <time>2015-07-13T20:43:54.789Z</time>
      </trkpt>
      <trkpt lat="48.83532" lon="2.32967">
        <ele>113.7</ele>
        <time>2015-07-13T20:43:57.762Z</time>
      </trkpt>
      <trkpt lat="48.83531" lon="2.3297">
        <ele>114.1</ele>
        <time>2015-07-13T20:43:58.773Z</time>
      </trkpt>
      <trkpt lat="48.83525" lon="2.32978">
        <ele>114.3</ele>
        <time>2015-07-13T20:44:01.708Z</time>
      </trkpt>
      <trkpt lat="48.83523" lon="2.32981">
        <ele>114.9</ele>
        <time>2015-07-13T20:44:02.741Z</time>
      </trkpt>
      <trkpt lat="48.83521" lon="2.32992">
        <ele>116.3</ele>
        <time>2015-07-13T20:44:05.591Z</time>
      </trkpt>
      <trkpt lat="48.83521" lon="2.32996">
        <ele>116.9</ele>
        <time>2015-07-13T20:44:06.822Z</time>
      </trkpt>
      <trkpt lat="48.83528" lon="2.32999">
        <ele>116.8</ele>
        <time>2015-07-13T20:44:21.828Z</time>
      </trkpt>
      <trkpt lat="48.8353" lon="2.33">
        <ele>116.7</ele>
        <time>2015-07-13T20:44:22.791Z</time>
      </trkpt>
      <trkpt lat="48.83537" lon="2.33007">
        <ele>117.5</ele>
        <time>2015-07-13T20:44:26.823Z</time>
      </trkpt>
      <trkpt lat="48.83538" lon="2.33007">
        <ele>117.7</ele>
        <time>2015-07-13T20:44:27.827Z</time>
      </trkpt>
      <trkpt lat="48.83543" lon="2.33012">
        <ele>117.7</ele>
        <time>2015-07-13T20:44:29.834Z</time>
      </trkpt>
      <trkpt lat="48.83546" lon="2.33016">
        <ele>117.8</ele>
        <time>2015-07-13T20:44:30.745Z</time>
      </trkpt>
      <trkpt lat="48.83553" lon="2.33025">
        <ele>117.6</ele>
        <time>2015-07-13T20:44:32.754Z</time>
      </trkpt>
      <trkpt lat="48.83556" lon="2.33028">
        <ele>117.7</ele>
        <time>2015-07-13T20:44:33.776Z</time>
      </trkpt>
      <trkpt lat="48.83563" lon="2.33033">
        <ele>117.8</ele>
        <time>2015-07-13T20:44:35.839Z</time>
      </trkpt>
      <trkpt lat="48.83568" lon="2.33036">
        <ele>117.9</ele>
        <time>2015-07-13T20:44:36.823Z</time>
      </trkpt>
      <trkpt lat="48.83572" lon="2.33039">
        <ele>118.1</ele>
        <time>2015-07-13T20:44:37.798Z</time>
      </trkpt>
      <trkpt lat="48.83576" lon="2.33042">
        <ele>118</ele>
        <time>2015-07-13T20:44:38.717Z</time>
      </trkpt>
      <trkpt lat="48.83581" lon="2.33046">
        <ele>118.1</ele>
        <time>2015-07-13T20:44:40.752Z</time>
      </trkpt>
      <trkpt lat="48.83584" lon="2.33047">
        <ele>118.1</ele>
        <time>2015-07-13T20:44:41.779Z</time>
      </trkpt>
      <trkpt lat="48.83591" lon="2.33052">
        <ele>117.8</ele>
        <time>2015-07-13T20:44:44.236Z</time>
      </trkpt>
      <trkpt lat="48.83594" lon="2.33054">
        <ele>117.6</ele>
        <time>2015-07-13T20:44:44.726Z</time>
      </trkpt>
      <trkpt lat="48.83599" lon="2.33059">
        <ele>117.7</ele>
        <time>2015-07-13T20:44:46.729Z</time>
      </trkpt>
      <trkpt lat="48.83602" lon="2.33062">
        <ele>117.7</ele>
        <time>2015-07-13T20:44:47.727Z</time>
      </trkpt>
      <trkpt lat="48.83608" lon="2.33067">
        <ele>117.9</ele>
        <time>2015-07-13T20:44:50.192Z</time>
      </trkpt>
      <trkpt lat="48.83612" lon="2.33071">
        <ele>118.1</ele>
        <time>2015-07-13T20:44:50.727Z</time>
      </trkpt>
      <trkpt lat="48.83617" lon="2.33074">
        <ele>118.1</ele>
        <time>2015-07-13T20:44:51.736Z</time>
      </trkpt>
      <trkpt lat="48.83621" lon="2.33077">
        <ele>118.2</ele>
        <time>2015-07-13T20:44:52.811Z</time>
      </trkpt>
      <trkpt lat="48.83626" lon="2.3308">
        <ele>118.2</ele>
        <time>2015-07-13T20:44:54.361Z</time>
      </trkpt>
      <trkpt lat="48.83629" lon="2.33082">
        <ele>118.3</ele>
        <time>2015-07-13T20:44:54.757Z</time>
      </trkpt>
      <trkpt lat="48.83634" lon="2.33085">
        <ele>118.4</ele>
        <time>2015-07-13T20:44:55.770Z</time>
      </trkpt>
      <trkpt lat="48.83639" lon="2.33088">
        <ele>118.1</ele>
        <time>2015-07-13T20:44:56.790Z</time>
      </trkpt>
      <trkpt lat="48.83643" lon="2.33091">
        <ele>117.9</ele>
        <time>2015-07-13T20:44:57.747Z</time>
      </trkpt>
      <trkpt lat="48.83648" lon="2.33096">
        <ele>117.7</ele>
        <time>2015-07-13T20:44:58.744Z</time>
      </trkpt>
      <trkpt lat="48.83652" lon="2.331">
        <ele>117.5</ele>
        <time>2015-07-13T20:44:59.866Z</time>
      </trkpt>
      <trkpt lat="48.83658" lon="2.33105">
        <ele>117</ele>
        <time>2015-07-13T20:45:00.745Z</time>
      </trkpt>
      <trkpt lat="48.83663" lon="2.3311">
        <ele>116.9</ele>
        <time>2015-07-13T20:45:01.889Z</time>
      </trkpt>
      <trkpt lat="48.83665" lon="2.33115">
        <ele>117</ele>
        <time>2015-07-13T20:45:02.758Z</time>
      </trkpt>
      <trkpt lat="48.83669" lon="2.33126">
        <ele>117.2</ele>
        <time>2015-07-13T20:45:04.799Z</time>
      </trkpt>
      <trkpt lat="48.83671" lon="2.33132">
        <ele>117.3</ele>
        <time>2015-07-13T20:45:05.800Z</time>
      </trkpt>
      <trkpt lat="48.83677" lon="2.3314">
        <ele>117.9</ele>
        <time>2015-07-13T20:45:07.744Z</time>
      </trkpt>
      <trkpt lat="48.83679" lon="2.33143">
        <ele>118.2</ele>
        <time>2015-07-13T20:45:08.770Z</time>
      </trkpt>
      <trkpt lat="48.83685" lon="2.33152">
        <ele>119.7</ele>
        <time>2015-07-13T20:45:11.836Z</time>
      </trkpt>
      <trkpt lat="48.83689" lon="2.33151">
        <ele>120.1</ele>
        <time>2015-07-13T20:45:12.817Z</time>
      </trkpt>
      <trkpt lat="48.83696" lon="2.33148">
        <ele>120.3</ele>
        <time>2015-07-13T20:45:14.735Z</time>
      </trkpt>
      <trkpt lat="48.837" lon="2.33148">
        <ele>120.5</ele>
        <time>2015-07-13T20:45:15.744Z</time>
      </trkpt>
      <trkpt lat="48.83705" lon="2.33149">
        <ele>120.4</ele>
        <time>2015-07-13T20:45:16.748Z</time>
      </trkpt>
      <trkpt lat="48.83711" lon="2.33147">
        <ele>120.2</ele>
        <time>2015-07-13T20:45:17.752Z</time>
      </trkpt>
      <trkpt lat="48.83717" lon="2.33146">
        <ele>120</ele>
        <time>2015-07-13T20:45:18.782Z</time>
      </trkpt>
      <trkpt lat="48.83722" lon="2.33145">
        <ele>119.9</ele>
        <time>2015-07-13T20:45:19.805Z</time>
      </trkpt>
      <trkpt lat="48.83727" lon="2.33144">
        <ele>120.1</ele>
        <time>2015-07-13T20:45:20.740Z</time>
      </trkpt>
      <trkpt lat="48.83731" lon="2.33142">
        <ele>120.1</ele>
        <time>2015-07-13T20:45:21.780Z</time>
      </trkpt>
      <trkpt lat="48.83738" lon="2.3314">
        <ele>119.4</ele>
        <time>2015-07-13T20:45:23.792Z</time>
      </trkpt>
      <trkpt lat="48.83743" lon="2.33138">
        <ele>119</ele>
        <time>2015-07-13T20:45:24.826Z</time>
      </trkpt>
      <trkpt lat="48.83748" lon="2.33137">
        <ele>119.2</ele>
        <time>2015-07-13T20:45:25.790Z</time>
      </trkpt>
      <trkpt lat="48.83753" lon="2.33135">
        <ele>119.6</ele>
        <time>2015-07-13T20:45:26.754Z</time>
      </trkpt>
      <trkpt lat="48.83761" lon="2.3313">
        <ele>120</ele>
        <time>2015-07-13T20:45:28.753Z</time>
      </trkpt>
      <trkpt lat="48.83766" lon="2.33128">
        <ele>120.5</ele>
        <time>2015-07-13T20:45:29.872Z</time>
      </trkpt>
      <trkpt lat="48.83771" lon="2.33125">
        <ele>121.3</ele>
        <time>2015-07-13T20:45:30.722Z</time>
      </trkpt>
      <trkpt lat="48.83777" lon="2.33123">
        <ele>121.5</ele>
        <time>2015-07-13T20:45:31.739Z</time>
      </trkpt>
      <trkpt lat="48.83783" lon="2.33125">
        <ele>121.1</ele>
        <time>2015-07-13T20:45:32.780Z</time>
      </trkpt>
      <trkpt lat="48.83788" lon="2.33127">
        <ele>120.8</ele>
        <time>2015-07-13T20:45:33.792Z</time>
      </trkpt>
      <trkpt lat="48.83796" lon="2.33133">
        <ele>120.3</ele>
        <time>2015-07-13T20:45:35.820Z</time>
      </trkpt>
      <trkpt lat="48.838" lon="2.33137">
        <ele>120.7</ele>
        <time>2015-07-13T20:45:36.750Z</time>
      </trkpt>
      <trkpt lat="48.83805" lon="2.3314">
        <ele>121</ele>
        <time>2015-07-13T20:45:37.757Z</time>
      </trkpt>
      <trkpt lat="48.83808" lon="2.33145">
        <ele>121</ele>
        <time>2015-07-13T20:45:38.773Z</time>
      </trkpt>
      <trkpt lat="48.83814" lon="2.33153">
        <ele>120.3</ele>
        <time>2015-07-13T20:45:40.829Z</time>
      </trkpt>
      <trkpt lat="48.83817" lon="2.33156">
        <ele>119.8</ele>
        <time>2015-07-13T20:45:41.836Z</time>
      </trkpt>
      <trkpt lat="48.83823" lon="2.33165">
        <ele>119.3</ele>
        <time>2015-07-13T20:45:43.739Z</time>
      </trkpt>
      <trkpt lat="48.83825" lon="2.33173">
        <ele>118.9</ele>
        <time>2015-07-13T20:45:44.784Z</time>
      </trkpt>
      <trkpt lat="48.83827" lon="2.33178">
        <ele>118.9</ele>
        <time>2015-07-13T20:45:45.806Z</time>
      </trkpt>
      <trkpt lat="48.83831" lon="2.33184">
        <ele>118.9</ele>
        <time>2015-07-13T20:45:46.822Z</time>
      </trkpt>
      <trkpt lat="48.83834" lon="2.3319">
        <ele>118.7</ele>
        <time>2015-07-13T20:45:47.837Z</time>
      </trkpt>
      <trkpt lat="48.83837" lon="2.33196">
        <ele>118.4</ele>
        <time>2015-07-13T20:45:48.762Z</time>
      </trkpt>
      <trkpt lat="48.83844" lon="2.33205">
        <ele>118.3</ele>
        <time>2015-07-13T20:45:50.793Z</time>
      </trkpt>
      <trkpt lat="48.83847" lon="2.33211">
        <ele>118.2</ele>
        <time>2015-07-13T20:45:51.850Z</time>
      </trkpt>
      <trkpt lat="48.83852" lon="2.3322">
        <ele>117.6</ele>
        <time>2015-07-13T20:45:53.809Z</time>
      </trkpt>
      <trkpt lat="48.83855" lon="2.33225">
        <ele>117.2</ele>
        <time>2015-07-13T20:45:54.833Z</time>
      </trkpt>
      <trkpt lat="48.83859" lon="2.33229">
        <ele>116.8</ele>
        <time>2015-07-13T20:45:55.750Z</time>
      </trkpt>
      <trkpt lat="48.83863" lon="2.33235">
        <ele>116.6</ele>
        <time>2015-07-13T20:45:56.744Z</time>
      </trkpt>
      <trkpt lat="48.83867" lon="2.3324">
        <ele>116.5</ele>
        <time>2015-07-13T20:45:57.756Z</time>
      </trkpt>
      <trkpt lat="48.8387" lon="2.33246">
        <ele>116.5</ele>
        <time>2015-07-13T20:45:58.772Z</time>
      </trkpt>
      <trkpt lat="48.83873" lon="2.33252">
        <ele>116.3</ele>
        <time>2015-07-13T20:45:59.838Z</time>
      </trkpt>
      <trkpt lat="48.83876" lon="2.33258">
        <ele>116.4</ele>
        <time>2015-07-13T20:46:00.707Z</time>
      </trkpt>
      <trkpt lat="48.8388" lon="2.33263">
        <ele>116.4</ele>
        <time>2015-07-13T20:46:01.725Z</time>
      </trkpt>
      <trkpt lat="48.83883" lon="2.33269">
        <ele>116.5</ele>
        <time>2015-07-13T20:46:02.733Z</time>
      </trkpt>
      <trkpt lat="48.83889" lon="2.33277">
        <ele>117</ele>
        <time>2015-07-13T20:46:04.785Z</time>
      </trkpt>
      <trkpt lat="48.83893" lon="2.33281">
        <ele>116.9</ele>
        <time>2015-07-13T20:46:05.784Z</time>
      </trkpt>
      <trkpt lat="48.839" lon="2.33289">
        <ele>117.2</ele>
        <time>2015-07-13T20:46:07.721Z</time>
      </trkpt>
      <trkpt lat="48.83904" lon="2.33293">
        <ele>117.3</ele>
        <time>2015-07-13T20:46:08.752Z</time>
      </trkpt>
      <trkpt lat="48.83908" lon="2.33298">
        <ele>117.5</ele>
        <time>2015-07-13T20:46:09.804Z</time>
      </trkpt>
      <trkpt lat="48.83912" lon="2.33303">
        <ele>117.8</ele>
        <time>2015-07-13T20:46:10.829Z</time>
      </trkpt>
      <trkpt lat="48.83916" lon="2.33308">
        <ele>118</ele>
        <time>2015-07-13T20:46:11.842Z</time>
      </trkpt>
      <trkpt lat="48.8392" lon="2.33313">
        <ele>117.9</ele>
        <time>2015-07-13T20:46:12.731Z</time>
      </trkpt>
      <trkpt lat="48.83924" lon="2.33319">
        <ele>117.8</ele>
        <time>2015-07-13T20:46:13.738Z</time>
      </trkpt>
      <trkpt lat="48.83929" lon="2.33324">
        <ele>117.7</ele>
        <time>2015-07-13T20:46:14.746Z</time>
      </trkpt>
      <trkpt lat="48.83933" lon="2.33331">
        <ele>117.5</ele>
        <time>2015-07-13T20:46:15.756Z</time>
      </trkpt>
      <trkpt lat="48.83937" lon="2.33337">
        <ele>117.5</ele>
        <time>2015-07-13T20:46:16.762Z</time>
      </trkpt>
      <trkpt lat="48.83941" lon="2.33344">
        <ele>117.2</ele>
        <time>2015-07-13T20:46:17.777Z</time>
      </trkpt>
      <trkpt lat="48.83946" lon="2.33351">
        <ele>116.9</ele>
        <time>2015-07-13T20:46:18.783Z</time>
      </trkpt>
      <trkpt lat="48.83949" lon="2.33358">
        <ele>116.5</ele>
        <time>2015-07-13T20:46:19.811Z</time>
      </trkpt>
      <trkpt lat="48.83952" lon="2.33364">
        <ele>116.2</ele>
        <time>2015-07-13T20:46:20.735Z</time>
      </trkpt>
      <trkpt lat="48.83956" lon="2.3337">
        <ele>116</ele>
        <time>2015-07-13T20:46:21.737Z</time>
      </trkpt>
      <trkpt lat="48.8396" lon="2.33377">
        <ele>116.1</ele>
        <time>2015-07-13T20:46:22.735Z</time>
      </trkpt>
      <trkpt lat="48.83964" lon="2.33385">
        <ele>116.5</ele>
        <time>2015-07-13T20:46:23.781Z</time>
      </trkpt>
      <trkpt lat="48.83969" lon="2.33391">
        <ele>117</ele>
        <time>2015-07-13T20:46:24.778Z</time>
      </trkpt>
      <trkpt lat="48.83973" lon="2.33398">
        <ele>117.6</ele>
        <time>2015-07-13T20:46:25.808Z</time>
      </trkpt>
      <trkpt lat="48.83978" lon="2.33405">
        <ele>117.7</ele>
        <time>2015-07-13T20:46:26.737Z</time>
      </trkpt>
      <trkpt lat="48.83982" lon="2.33413">
        <ele>118.1</ele>
        <time>2015-07-13T20:46:27.738Z</time>
      </trkpt>
      <trkpt lat="48.83987" lon="2.33418">
        <ele>118.5</ele>
        <time>2015-07-13T20:46:28.736Z</time>
      </trkpt>
      <trkpt lat="48.83991" lon="2.33425">
        <ele>118.3</ele>
        <time>2015-07-13T20:46:29.831Z</time>
      </trkpt>
      <trkpt lat="48.83994" lon="2.33432">
        <ele>118.4</ele>
        <time>2015-07-13T20:46:30.730Z</time>
      </trkpt>
      <trkpt lat="48.83998" lon="2.33437">
        <ele>118.6</ele>
        <time>2015-07-13T20:46:31.749Z</time>
      </trkpt>
      <trkpt lat="48.84001" lon="2.33444">
        <ele>118.7</ele>
        <time>2015-07-13T20:46:32.773Z</time>
      </trkpt>
      <trkpt lat="48.84003" lon="2.33452">
        <ele>119.1</ele>
        <time>2015-07-13T20:46:33.793Z</time>
      </trkpt>
      <trkpt lat="48.84006" lon="2.33457">
        <ele>119.2</ele>
        <time>2015-07-13T20:46:34.799Z</time>
      </trkpt>
      <trkpt lat="48.84013" lon="2.33464">
        <ele>119.9</ele>
        <time>2015-07-13T20:46:36.727Z</time>
      </trkpt>
      <trkpt lat="48.84016" lon="2.33467">
        <ele>120.4</ele>
        <time>2015-07-13T20:46:37.768Z</time>
      </trkpt>
      <trkpt lat="48.84024" lon="2.33473">
        <ele>122.1</ele>
        <time>2015-07-13T20:46:46.756Z</time>
      </trkpt>
      <trkpt lat="48.84024" lon="2.33485">
        <ele>123.8</ele>
        <time>2015-07-13T20:46:47.836Z</time>
      </trkpt>
      <trkpt lat="48.84021" lon="2.33495">
        <ele>124</ele>
        <time>2015-07-13T20:46:49.773Z</time>
      </trkpt>
      <trkpt lat="48.84019" lon="2.33499">
        <ele>124</ele>
        <time>2015-07-13T20:46:50.786Z</time>
      </trkpt>
      <trkpt lat="48.84017" lon="2.3351">
        <ele>123.7</ele>
        <time>2015-07-13T20:46:52.840Z</time>
      </trkpt>
      <trkpt lat="48.84016" lon="2.33516">
        <ele>123.7</ele>
        <time>2015-07-13T20:46:53.839Z</time>
      </trkpt>
      <trkpt lat="48.84012" lon="2.33528">
        <ele>124.1</ele>
        <time>2015-07-13T20:46:55.787Z</time>
      </trkpt>
      <trkpt lat="48.84011" lon="2.33535">
        <ele>124.3</ele>
        <time>2015-07-13T20:46:56.844Z</time>
      </trkpt>
      <trkpt lat="48.84007" lon="2.33546">
        <ele>124.3</ele>
        <time>2015-07-13T20:46:58.767Z</time>
      </trkpt>
      <trkpt lat="48.84006" lon="2.33553">
        <ele>124.2</ele>
        <time>2015-07-13T20:46:59.853Z</time>
      </trkpt>
      <trkpt lat="48.84005" lon="2.3356">
        <ele>124.4</ele>
        <time>2015-07-13T20:47:00.736Z</time>
      </trkpt>
      <trkpt lat="48.84004" lon="2.33568">
        <ele>124.3</ele>
        <time>2015-07-13T20:47:01.759Z</time>
      </trkpt>
      <trkpt lat="48.84002" lon="2.33574">
        <ele>124.4</ele>
        <time>2015-07-13T20:47:02.789Z</time>
      </trkpt>
      <trkpt lat="48.84" lon="2.33582">
        <ele>124.4</ele>
        <time>2015-07-13T20:47:03.790Z</time>
      </trkpt>
      <trkpt lat="48.83997" lon="2.33589">
        <ele>124.6</ele>
        <time>2015-07-13T20:47:04.806Z</time>
      </trkpt>
      <trkpt lat="48.83995" lon="2.33597">
        <ele>125.2</ele>
        <time>2015-07-13T20:47:05.824Z</time>
      </trkpt>
      <trkpt lat="48.83991" lon="2.33607">
        <ele>125.5</ele>
        <time>2015-07-13T20:47:07.751Z</time>
      </trkpt>
      <trkpt lat="48.83989" lon="2.33612">
        <ele>125.3</ele>
        <time>2015-07-13T20:47:08.780Z</time>
      </trkpt>
      <trkpt lat="48.83987" lon="2.33619">
        <ele>125.5</ele>
        <time>2015-07-13T20:47:09.779Z</time>
      </trkpt>
      <trkpt lat="48.83985" lon="2.33626">
        <ele>125.4</ele>
        <time>2015-07-13T20:47:10.790Z</time>
      </trkpt>
      <trkpt lat="48.83984" lon="2.33632">
        <ele>125.1</ele>
        <time>2015-07-13T20:47:11.831Z</time>
      </trkpt>
      <trkpt lat="48.83983" lon="2.3364">
        <ele>124.4</ele>
        <time>2015-07-13T20:47:12.757Z</time>
      </trkpt>
      <trkpt lat="48.83984" lon="2.3365">
        <ele>124.3</ele>
        <time>2015-07-13T20:47:14.779Z</time>
      </trkpt>
      <trkpt lat="48.83983" lon="2.33657">
        <ele>124.9</ele>
        <time>2015-07-13T20:47:15.793Z</time>
      </trkpt>
      <trkpt lat="48.83986" lon="2.33669">
        <ele>122.2</ele>
        <time>2015-07-13T20:47:21.787Z</time>
      </trkpt>
      <trkpt lat="48.83987" lon="2.33673">
        <ele>121.9</ele>
        <time>2015-07-13T20:47:22.732Z</time>
      </trkpt>
      <trkpt lat="48.83987" lon="2.33684">
        <ele>119</ele>
        <time>2015-07-13T20:47:26.761Z</time>
      </trkpt>
      <trkpt lat="48.83988" lon="2.33687">
        <ele>119.1</ele>
        <time>2015-07-13T20:47:27.762Z</time>
      </trkpt>
      <trkpt lat="48.83995" lon="2.33695">
        <ele>119.2</ele>
        <time>2015-07-13T20:47:30.790Z</time>
      </trkpt>
      <trkpt lat="48.83998" lon="2.33695">
        <ele>119</ele>
        <time>2015-07-13T20:47:31.804Z</time>
      </trkpt>
      <trkpt lat="48.84006" lon="2.33693">
        <ele>118.1</ele>
        <time>2015-07-13T20:47:33.723Z</time>
      </trkpt>
      <trkpt lat="48.8401" lon="2.33693">
        <ele>118</ele>
        <time>2015-07-13T20:47:34.733Z</time>
      </trkpt>
      <trkpt lat="48.84018" lon="2.33694">
        <ele>117.6</ele>
        <time>2015-07-13T20:47:36.779Z</time>
      </trkpt>
      <trkpt lat="48.84022" lon="2.33695">
        <ele>117.3</ele>
        <time>2015-07-13T20:47:37.792Z</time>
      </trkpt>
      <trkpt lat="48.84029" lon="2.33699">
        <ele>117</ele>
        <time>2015-07-13T20:47:39.913Z</time>
      </trkpt>
      <trkpt lat="48.84033" lon="2.33701">
        <ele>116.9</ele>
        <time>2015-07-13T20:47:40.809Z</time>
      </trkpt>
      <trkpt lat="48.8404" lon="2.33706">
        <ele>116.7</ele>
        <time>2015-07-13T20:47:42.836Z</time>
      </trkpt>
      <trkpt lat="48.84045" lon="2.33708">
        <ele>116.8</ele>
        <time>2015-07-13T20:47:43.737Z</time>
      </trkpt>
      <trkpt lat="48.84049" lon="2.3371">
        <ele>116.9</ele>
        <time>2015-07-13T20:47:44.928Z</time>
      </trkpt>
      <trkpt lat="48.84054" lon="2.33713">
        <ele>117.2</ele>
        <time>2015-07-13T20:47:45.753Z</time>
      </trkpt>
      <trkpt lat="48.84058" lon="2.33714">
        <ele>117.1</ele>
        <time>2015-07-13T20:47:46.760Z</time>
      </trkpt>
      <trkpt lat="48.84063" lon="2.33716">
        <ele>117.3</ele>
        <time>2015-07-13T20:47:47.810Z</time>
      </trkpt>
      <trkpt lat="48.84068" lon="2.33718">
        <ele>117.7</ele>
        <time>2015-07-13T20:47:48.719Z</time>
      </trkpt>
      <trkpt lat="48.84073" lon="2.3372">
        <ele>118.2</ele>
        <time>2015-07-13T20:47:49.743Z</time>
      </trkpt>
      <trkpt lat="48.84077" lon="2.33722">
        <ele>118.7</ele>
        <time>2015-07-13T20:47:50.756Z</time>
      </trkpt>
      <trkpt lat="48.84082" lon="2.33723">
        <ele>119.2</ele>
        <time>2015-07-13T20:47:51.756Z</time>
      </trkpt>
      <trkpt lat="48.84086" lon="2.33725">
        <ele>119.6</ele>
        <time>2015-07-13T20:47:52.770Z</time>
      </trkpt>
      <trkpt lat="48.84091" lon="2.33728">
        <ele>119.9</ele>
        <time>2015-07-13T20:47:53.829Z</time>
      </trkpt>
      <trkpt lat="48.84096" lon="2.3373">
        <ele>119.9</ele>
        <time>2015-07-13T20:47:54.790Z</time>
      </trkpt>
      <trkpt lat="48.84102" lon="2.33733">
        <ele>119.9</ele>
        <time>2015-07-13T20:47:55.711Z</time>
      </trkpt>
      <trkpt lat="48.84107" lon="2.33736">
        <ele>119.9</ele>
        <time>2015-07-13T20:47:56.826Z</time>
      </trkpt>
      <trkpt lat="48.84114" lon="2.33739">
        <ele>119.8</ele>
        <time>2015-07-13T20:47:57.750Z</time>
      </trkpt>
      <trkpt lat="48.84119" lon="2.33742">
        <ele>119.7</ele>
        <time>2015-07-13T20:47:58.771Z</time>
      </trkpt>
      <trkpt lat="48.84123" lon="2.33745">
        <ele>119.7</ele>
        <time>2015-07-13T20:47:59.835Z</time>
      </trkpt>
      <trkpt lat="48.84129" lon="2.33749">
        <ele>119.9</ele>
        <time>2015-07-13T20:48:00.698Z</time>
      </trkpt>
      <trkpt lat="48.84135" lon="2.33753">
        <ele>120.3</ele>
        <time>2015-07-13T20:48:01.728Z</time>
      </trkpt>
      <trkpt lat="48.84141" lon="2.33755">
        <ele>120.2</ele>
        <time>2015-07-13T20:48:02.734Z</time>
      </trkpt>
      <trkpt lat="48.84146" lon="2.33757">
        <ele>120.4</ele>
        <time>2015-07-13T20:48:03.766Z</time>
      </trkpt>
      <trkpt lat="48.84152" lon="2.3376">
        <ele>120.8</ele>
        <time>2015-07-13T20:48:04.770Z</time>
      </trkpt>
      <trkpt lat="48.84159" lon="2.33764">
        <ele>120.7</ele>
        <time>2015-07-13T20:48:05.813Z</time>
      </trkpt>
      <trkpt lat="48.84165" lon="2.33768">
        <ele>121.1</ele>
        <time>2015-07-13T20:48:06.791Z</time>
      </trkpt>
      <trkpt lat="48.84172" lon="2.33774">
        <ele>121.2</ele>
        <time>2015-07-13T20:48:07.809Z</time>
      </trkpt>
      <trkpt lat="48.84177" lon="2.33777">
        <ele>121</ele>
        <time>2015-07-13T20:48:08.831Z</time>
      </trkpt>
      <trkpt lat="48.84181" lon="2.33779">
        <ele>121.3</ele>
        <time>2015-07-13T20:48:09.786Z</time>
      </trkpt>
      <trkpt lat="48.84185" lon="2.3378">
        <ele>121.6</ele>
        <time>2015-07-13T20:48:10.788Z</time>
      </trkpt>
      <trkpt lat="48.8419" lon="2.33783">
        <ele>121.9</ele>
        <time>2015-07-13T20:48:11.790Z</time>
      </trkpt>
      <trkpt lat="48.84194" lon="2.33788">
        <ele>122.1</ele>
        <time>2015-07-13T20:48:12.795Z</time>
      </trkpt>
      <trkpt lat="48.84199" lon="2.33794">
        <ele>122.2</ele>
        <time>2015-07-13T20:48:13.804Z</time>
      </trkpt>
      <trkpt lat="48.84203" lon="2.33799">
        <ele>122.5</ele>
        <time>2015-07-13T20:48:14.749Z</time>
      </trkpt>
      <trkpt lat="48.84209" lon="2.33803">
        <ele>122.7</ele>
        <time>2015-07-13T20:48:15.750Z</time>
      </trkpt>
      <trkpt lat="48.84215" lon="2.33807">
        <ele>122.9</ele>
        <time>2015-07-13T20:48:16.752Z</time>
      </trkpt>
      <trkpt lat="48.84227" lon="2.33806">
        <ele>122.5</ele>
        <time>2015-07-13T20:48:17.769Z</time>
      </trkpt>
      <trkpt lat="48.84233" lon="2.3381">
        <ele>122.4</ele>
        <time>2015-07-13T20:48:18.769Z</time>
      </trkpt>
      <trkpt lat="48.8424" lon="2.33814">
        <ele>122.4</ele>
        <time>2015-07-13T20:48:19.776Z</time>
      </trkpt>
      <trkpt lat="48.84248" lon="2.33818">
        <ele>122.4</ele>
        <time>2015-07-13T20:48:20.828Z</time>
      </trkpt>
      <trkpt lat="48.84255" lon="2.33823">
        <ele>122.2</ele>
        <time>2015-07-13T20:48:21.820Z</time>
      </trkpt>
      <trkpt lat="48.84262" lon="2.33829">
        <ele>122.5</ele>
        <time>2015-07-13T20:48:22.831Z</time>
      </trkpt>
      <trkpt lat="48.8427" lon="2.33832">
        <ele>123</ele>
        <time>2015-07-13T20:48:23.830Z</time>
      </trkpt>
      <trkpt lat="48.84277" lon="2.33835">
        <ele>123.4</ele>
        <time>2015-07-13T20:48:24.742Z</time>
      </trkpt>
      <trkpt lat="48.84283" lon="2.3384">
        <ele>123.8</ele>
        <time>2015-07-13T20:48:25.763Z</time>
      </trkpt>
      <trkpt lat="48.8429" lon="2.33844">
        <ele>124.2</ele>
        <time>2015-07-13T20:48:26.776Z</time>
      </trkpt>
      <trkpt lat="48.84296" lon="2.33848">
        <ele>124.7</ele>
        <time>2015-07-13T20:48:27.831Z</time>
      </trkpt>
      <trkpt lat="48.84302" lon="2.33855">
        <ele>124.8</ele>
        <time>2015-07-13T20:48:29.827Z</time>
      </trkpt>
      <trkpt lat="48.84306" lon="2.3386">
        <ele>124.5</ele>
        <time>2015-07-13T20:48:30.775Z</time>
      </trkpt>
      <trkpt lat="48.8431" lon="2.33864">
        <ele>124.2</ele>
        <time>2015-07-13T20:48:31.735Z</time>
      </trkpt>
      <trkpt lat="48.84315" lon="2.33866">
        <ele>124.1</ele>
        <time>2015-07-13T20:48:32.732Z</time>
      </trkpt>
      <trkpt lat="48.8432" lon="2.33869">
        <ele>123.9</ele>
        <time>2015-07-13T20:48:33.741Z</time>
      </trkpt>
      <trkpt lat="48.84324" lon="2.33873">
        <ele>123.7</ele>
        <time>2015-07-13T20:48:34.750Z</time>
      </trkpt>
      <trkpt lat="48.84329" lon="2.33878">
        <ele>123.6</ele>
        <time>2015-07-13T20:48:35.785Z</time>
      </trkpt>
      <trkpt lat="48.84332" lon="2.33884">
        <ele>123.7</ele>
        <time>2015-07-13T20:48:36.790Z</time>
      </trkpt>
      <trkpt lat="48.84335" lon="2.33889">
        <ele>123.7</ele>
        <time>2015-07-13T20:48:37.806Z</time>
      </trkpt>
      <trkpt lat="48.84341" lon="2.33892">
        <ele>123.6</ele>
        <time>2015-07-13T20:48:38.821Z</time>
      </trkpt>
      <trkpt lat="48.84347" lon="2.33895">
        <ele>123.7</ele>
        <time>2015-07-13T20:48:39.767Z</time>
      </trkpt>
      <trkpt lat="48.84353" lon="2.33896">
        <ele>123.7</ele>
        <time>2015-07-13T20:48:41.000Z</time>
      </trkpt>
      <trkpt lat="48.84364" lon="2.33895">
        <ele>123.4</ele>
        <time>2015-07-13T20:48:41.804Z</time>
      </trkpt>
      <trkpt lat="48.84375" lon="2.33896">
        <ele>123</ele>
        <time>2015-07-13T20:48:42.792Z</time>
      </trkpt>
      <trkpt lat="48.84384" lon="2.33897">
        <ele>122.8</ele>
        <time>2015-07-13T20:48:43.805Z</time>
      </trkpt>
      <trkpt lat="48.84394" lon="2.339">
        <ele>122.8</ele>
        <time>2015-07-13T20:48:44.807Z</time>
      </trkpt>
      <trkpt lat="48.84401" lon="2.33905">
        <ele>122.7</ele>
        <time>2015-07-13T20:48:45.817Z</time>
      </trkpt>
      <trkpt lat="48.84408" lon="2.33906">
        <ele>122.6</ele>
        <time>2015-07-13T20:48:46.740Z</time>
      </trkpt>
      <trkpt lat="48.84414" lon="2.33908">
        <ele>122.3</ele>
        <time>2015-07-13T20:48:47.853Z</time>
      </trkpt>
      <trkpt lat="48.84421" lon="2.33911">
        <ele>121.8</ele>
        <time>2015-07-13T20:48:48.744Z</time>
      </trkpt>
      <trkpt lat="48.84427" lon="2.33913">
        <ele>121.7</ele>
        <time>2015-07-13T20:48:49.747Z</time>
      </trkpt>
      <trkpt lat="48.84432" lon="2.33915">
        <ele>121.8</ele>
        <time>2015-07-13T20:48:50.750Z</time>
      </trkpt>
      <trkpt lat="48.84437" lon="2.33917">
        <ele>122.5</ele>
        <time>2015-07-13T20:48:51.760Z</time>
      </trkpt>
      <trkpt lat="48.84443" lon="2.33922">
        <ele>122.8</ele>
        <time>2015-07-13T20:48:52.760Z</time>
      </trkpt>
      <trkpt lat="48.84447" lon="2.33927">
        <ele>122.8</ele>
        <time>2015-07-13T20:48:53.795Z</time>
      </trkpt>
      <trkpt lat="48.84452" lon="2.33931">
        <ele>123.1</ele>
        <time>2015-07-13T20:48:54.826Z</time>
      </trkpt>
      <trkpt lat="48.84458" lon="2.33936">
        <ele>123.4</ele>
        <time>2015-07-13T20:48:55.756Z</time>
      </trkpt>
      <trkpt lat="48.84466" lon="2.33939">
        <ele>123.9</ele>
        <time>2015-07-13T20:48:56.754Z</time>
      </trkpt>
      <trkpt lat="48.84474" lon="2.3394">
        <ele>124.1</ele>
        <time>2015-07-13T20:48:57.783Z</time>
      </trkpt>
      <trkpt lat="48.8448" lon="2.33944">
        <ele>124.8</ele>
        <time>2015-07-13T20:48:58.836Z</time>
      </trkpt>
      <trkpt lat="48.84487" lon="2.33947">
        <ele>124.6</ele>
        <time>2015-07-13T20:48:59.853Z</time>
      </trkpt>
      <trkpt lat="48.84494" lon="2.33949">
        <ele>124.3</ele>
        <time>2015-07-13T20:49:00.701Z</time>
      </trkpt>
      <trkpt lat="48.84499" lon="2.33952">
        <ele>123.9</ele>
        <time>2015-07-13T20:49:01.730Z</time>
      </trkpt>
      <trkpt lat="48.84505" lon="2.33955">
        <ele>123.7</ele>
        <time>2015-07-13T20:49:02.740Z</time>
      </trkpt>
      <trkpt lat="48.84511" lon="2.33957">
        <ele>123.3</ele>
        <time>2015-07-13T20:49:03.777Z</time>
      </trkpt>
      <trkpt lat="48.84516" lon="2.3396">
        <ele>123.3</ele>
        <time>2015-07-13T20:49:04.781Z</time>
      </trkpt>
      <trkpt lat="48.84521" lon="2.33962">
        <ele>123.4</ele>
        <time>2015-07-13T20:49:05.800Z</time>
      </trkpt>
      <trkpt lat="48.84526" lon="2.33965">
        <ele>123.4</ele>
        <time>2015-07-13T20:49:06.820Z</time>
      </trkpt>
      <trkpt lat="48.84532" lon="2.33968">
        <ele>123.3</ele>
        <time>2015-07-13T20:49:07.734Z</time>
      </trkpt>
      <trkpt lat="48.84537" lon="2.3397">
        <ele>123.4</ele>
        <time>2015-07-13T20:49:08.732Z</time>
      </trkpt>
      <trkpt lat="48.84544" lon="2.33972">
        <ele>123.4</ele>
        <time>2015-07-13T20:49:09.737Z</time>
      </trkpt>
      <trkpt lat="48.8455" lon="2.33976">
        <ele>123.2</ele>
        <time>2015-07-13T20:49:10.750Z</time>
      </trkpt>
      <trkpt lat="48.84556" lon="2.33979">
        <ele>123</ele>
        <time>2015-07-13T20:49:11.790Z</time>
      </trkpt>
      <trkpt lat="48.84563" lon="2.33984">
        <ele>123.1</ele>
        <time>2015-07-13T20:49:12.818Z</time>
      </trkpt>
      <trkpt lat="48.84571" lon="2.33989">
        <ele>123.1</ele>
        <time>2015-07-13T20:49:13.735Z</time>
      </trkpt>
      <trkpt lat="48.84578" lon="2.33993">
        <ele>123</ele>
        <time>2015-07-13T20:49:14.737Z</time>
      </trkpt>
      <trkpt lat="48.84584" lon="2.33994">
        <ele>122.9</ele>
        <time>2015-07-13T20:49:15.766Z</time>
      </trkpt>
      <trkpt lat="48.8459" lon="2.33997">
        <ele>122.9</ele>
        <time>2015-07-13T20:49:16.779Z</time>
      </trkpt>
      <trkpt lat="48.84596" lon="2.33998">
        <ele>122.9</ele>
        <time>2015-07-13T20:49:17.819Z</time>
      </trkpt>
      <trkpt lat="48.84602" lon="2.34001">
        <ele>122.8</ele>
        <time>2015-07-13T20:49:18.810Z</time>
      </trkpt>
      <trkpt lat="48.84607" lon="2.34004">
        <ele>122.4</ele>
        <time>2015-07-13T20:49:19.734Z</time>
      </trkpt>
      <trkpt lat="48.84611" lon="2.34008">
        <ele>122.4</ele>
        <time>2015-07-13T20:49:20.734Z</time>
      </trkpt>
      <trkpt lat="48.84617" lon="2.34011">
        <ele>122.3</ele>
        <time>2015-07-13T20:49:21.747Z</time>
      </trkpt>
      <trkpt lat="48.84621" lon="2.34013">
        <ele>121.9</ele>
        <time>2015-07-13T20:49:22.758Z</time>
      </trkpt>
      <trkpt lat="48.84625" lon="2.34017">
        <ele>121.3</ele>
        <time>2015-07-13T20:49:23.781Z</time>
      </trkpt>
      <trkpt lat="48.8463" lon="2.34021">
        <ele>121.1</ele>
        <time>2015-07-13T20:49:24.766Z</time>
      </trkpt>
      <trkpt lat="48.84635" lon="2.34025">
        <ele>120.4</ele>
        <time>2015-07-13T20:49:25.782Z</time>
      </trkpt>
      <trkpt lat="48.8464" lon="2.3403">
        <ele>119.6</ele>
        <time>2015-07-13T20:49:26.802Z</time>
      </trkpt>
      <trkpt lat="48.84646" lon="2.34033">
        <ele>119.6</ele>
        <time>2015-07-13T20:49:27.810Z</time>
      </trkpt>
      <trkpt lat="48.84652" lon="2.34037">
        <ele>119.1</ele>
        <time>2015-07-13T20:49:28.819Z</time>
      </trkpt>
      <trkpt lat="48.84657" lon="2.34039">
        <ele>118.5</ele>
        <time>2015-07-13T20:49:29.835Z</time>
      </trkpt>
      <trkpt lat="48.84663" lon="2.34043">
        <ele>118.2</ele>
        <time>2015-07-13T20:49:30.733Z</time>
      </trkpt>
      <trkpt lat="48.84668" lon="2.34047">
        <ele>117.9</ele>
        <time>2015-07-13T20:49:31.747Z</time>
      </trkpt>
      <trkpt lat="48.84673" lon="2.34051">
        <ele>118.1</ele>
        <time>2015-07-13T20:49:32.767Z</time>
      </trkpt>
      <trkpt lat="48.84677" lon="2.34056">
        <ele>117.7</ele>
        <time>2015-07-13T20:49:33.762Z</time>
      </trkpt>
      <trkpt lat="48.84682" lon="2.34062">
        <ele>117.6</ele>
        <time>2015-07-13T20:49:34.777Z</time>
      </trkpt>
      <trkpt lat="48.84686" lon="2.34067">
        <ele>117.6</ele>
        <time>2015-07-13T20:49:35.794Z</time>
      </trkpt>
      <trkpt lat="48.84691" lon="2.34071">
        <ele>117.6</ele>
        <time>2015-07-13T20:49:36.813Z</time>
      </trkpt>
      <trkpt lat="48.84696" lon="2.34071">
        <ele>118.8</ele>
        <time>2015-07-13T20:49:38.734Z</time>
      </trkpt>
      <trkpt lat="48.847" lon="2.34072">
        <ele>119</ele>
        <time>2015-07-13T20:49:39.779Z</time>
      </trkpt>
      <trkpt lat="48.84709" lon="2.34073">
        <ele>121.4</ele>
        <time>2015-07-13T20:49:41.859Z</time>
      </trkpt>
      <trkpt lat="48.84711" lon="2.34074">
        <ele>121.4</ele>
        <time>2015-07-13T20:49:42.768Z</time>
      </trkpt>
      <trkpt lat="48.84719" lon="2.34077">
        <ele>121.8</ele>
        <time>2015-07-13T20:49:45.776Z</time>
      </trkpt>
      <trkpt lat="48.84722" lon="2.34077">
        <ele>121.7</ele>
        <time>2015-07-13T20:49:46.789Z</time>
      </trkpt>
      <trkpt lat="48.84731" lon="2.34077">
        <ele>123.4</ele>
        <time>2015-07-13T20:49:50.723Z</time>
      </trkpt>
      <trkpt lat="48.84733" lon="2.34078">
        <ele>123.8</ele>
        <time>2015-07-13T20:49:51.737Z</time>
      </trkpt>
      <trkpt lat="48.84742" lon="2.34079">
        <ele>125.8</ele>
        <time>2015-07-13T20:49:54.773Z</time>
      </trkpt>
      <trkpt lat="48.84744" lon="2.3408">
        <ele>126.1</ele>
        <time>2015-07-13T20:49:55.789Z</time>
      </trkpt>
      <trkpt lat="48.84746" lon="2.34082">
        <ele>127.2</ele>
        <time>2015-07-13T20:50:14.754Z</time>
      </trkpt>
      <trkpt lat="48.84751" lon="2.34097">
        <ele>124.9</ele>
        <time>2015-07-13T20:50:15.759Z</time>
      </trkpt>
      <trkpt lat="48.84758" lon="2.34098">
        <ele>124.3</ele>
        <time>2015-07-13T20:50:18.823Z</time>
      </trkpt>
      <trkpt lat="48.8476" lon="2.34099">
        <ele>124.5</ele>
        <time>2015-07-13T20:50:19.758Z</time>
      </trkpt>
      <trkpt lat="48.84768" lon="2.34101">
        <ele>126.1</ele>
        <time>2015-07-13T20:50:23.779Z</time>
      </trkpt>
      <trkpt lat="48.84773" lon="2.34103">
        <ele>126.5</ele>
        <time>2015-07-13T20:50:24.792Z</time>
      </trkpt>
      <trkpt lat="48.84778" lon="2.34105">
        <ele>126.5</ele>
        <time>2015-07-13T20:50:25.805Z</time>
      </trkpt>
      <trkpt lat="48.84786" lon="2.34107">
        <ele>126.4</ele>
        <time>2015-07-13T20:50:26.813Z</time>
      </trkpt>
      <trkpt lat="48.84792" lon="2.34111">
        <ele>126.6</ele>
        <time>2015-07-13T20:50:27.919Z</time>
      </trkpt>
      <trkpt lat="48.84798" lon="2.34115">
        <ele>126.7</ele>
        <time>2015-07-13T20:50:28.753Z</time>
      </trkpt>
      <trkpt lat="48.84804" lon="2.34118">
        <ele>126.7</ele>
        <time>2015-07-13T20:50:29.821Z</time>
      </trkpt>
      <trkpt lat="48.84809" lon="2.34121">
        <ele>126.6</ele>
        <time>2015-07-13T20:50:30.803Z</time>
      </trkpt>
      <trkpt lat="48.84813" lon="2.34126">
        <ele>126.6</ele>
        <time>2015-07-13T20:50:31.711Z</time>
      </trkpt>
      <trkpt lat="48.84818" lon="2.34131">
        <ele>126.4</ele>
        <time>2015-07-13T20:50:32.722Z</time>
      </trkpt>
      <trkpt lat="48.84823" lon="2.34136">
        <ele>126.4</ele>
        <time>2015-07-13T20:50:33.742Z</time>
      </trkpt>
      <trkpt lat="48.84827" lon="2.34141">
        <ele>126.3</ele>
        <time>2015-07-13T20:50:34.758Z</time>
      </trkpt>
      <trkpt lat="48.84832" lon="2.34148">
        <ele>126.1</ele>
        <time>2015-07-13T20:50:35.787Z</time>
      </trkpt>
      <trkpt lat="48.84845" lon="2.34157">
        <ele>123.7</ele>
        <time>2015-07-13T20:50:36.794Z</time>
      </trkpt>
      <trkpt lat="48.84853" lon="2.3416">
        <ele>123.3</ele>
        <time>2015-07-13T20:50:37.804Z</time>
      </trkpt>
      <trkpt lat="48.84859" lon="2.34164">
        <ele>123.4</ele>
        <time>2015-07-13T20:50:38.815Z</time>
      </trkpt>
      <trkpt lat="48.84869" lon="2.34164">
        <ele>123.4</ele>
        <time>2015-07-13T20:50:39.765Z</time>
      </trkpt>
      <trkpt lat="48.84875" lon="2.34168">
        <ele>123.6</ele>
        <time>2015-07-13T20:50:40.766Z</time>
      </trkpt>
      <trkpt lat="48.84881" lon="2.34174">
        <ele>123.6</ele>
        <time>2015-07-13T20:50:41.840Z</time>
      </trkpt>
      <trkpt lat="48.84885" lon="2.34179">
        <ele>123.4</ele>
        <time>2015-07-13T20:50:42.784Z</time>
      </trkpt>
      <trkpt lat="48.8489" lon="2.34184">
        <ele>123.6</ele>
        <time>2015-07-13T20:50:43.780Z</time>
      </trkpt>
      <trkpt lat="48.84894" lon="2.34188">
        <ele>123.5</ele>
        <time>2015-07-13T20:50:44.788Z</time>
      </trkpt>
      <trkpt lat="48.84899" lon="2.34194">
        <ele>123.3</ele>
        <time>2015-07-13T20:50:45.798Z</time>
      </trkpt>
      <trkpt lat="48.84904" lon="2.342">
        <ele>123.2</ele>
        <time>2015-07-13T20:50:46.815Z</time>
      </trkpt>
      <trkpt lat="48.8491" lon="2.34205">
        <ele>122.7</ele>
        <time>2015-07-13T20:50:47.824Z</time>
      </trkpt>
      <trkpt lat="48.84916" lon="2.3421">
        <ele>122.2</ele>
        <time>2015-07-13T20:50:48.751Z</time>
      </trkpt>
      <trkpt lat="48.84922" lon="2.34212">
        <ele>122</ele>
        <time>2015-07-13T20:50:49.746Z</time>
      </trkpt>
      <trkpt lat="48.8493" lon="2.34212">
        <ele>121.7</ele>
        <time>2015-07-13T20:50:50.785Z</time>
      </trkpt>
      <trkpt lat="48.84937" lon="2.34213">
        <ele>121.5</ele>
        <time>2015-07-13T20:50:51.784Z</time>
      </trkpt>
      <trkpt lat="48.84944" lon="2.34214">
        <ele>121.3</ele>
        <time>2015-07-13T20:50:52.799Z</time>
      </trkpt>
      <trkpt lat="48.84949" lon="2.34213">
        <ele>121.3</ele>
        <time>2015-07-13T20:50:53.845Z</time>
      </trkpt>
      <trkpt lat="48.84954" lon="2.34215">
        <ele>121.4</ele>
        <time>2015-07-13T20:50:54.739Z</time>
      </trkpt>
      <trkpt lat="48.8496" lon="2.34217">
        <ele>121.8</ele>
        <time>2015-07-13T20:50:55.741Z</time>
      </trkpt>
      <trkpt lat="48.84966" lon="2.34219">
        <ele>122.1</ele>
        <time>2015-07-13T20:50:56.765Z</time>
      </trkpt>
      <trkpt lat="48.84972" lon="2.34222">
        <ele>122.5</ele>
        <time>2015-07-13T20:50:57.772Z</time>
      </trkpt>
      <trkpt lat="48.84978" lon="2.34224">
        <ele>123.2</ele>
        <time>2015-07-13T20:50:58.778Z</time>
      </trkpt>
      <trkpt lat="48.84988" lon="2.34227">
        <ele>124.5</ele>
        <time>2015-07-13T20:50:59.795Z</time>
      </trkpt>
      <trkpt lat="48.84995" lon="2.3423">
        <ele>125</ele>
        <time>2015-07-13T20:51:00.806Z</time>
      </trkpt>
      <trkpt lat="48.85002" lon="2.34233">
        <ele>124.6</ele>
        <time>2015-07-13T20:51:01.825Z</time>
      </trkpt>
      <trkpt lat="48.85013" lon="2.34238">
        <ele>123.3</ele>
        <time>2015-07-13T20:51:02.827Z</time>
      </trkpt>
      <trkpt lat="48.85022" lon="2.34245">
        <ele>121.4</ele>
        <time>2015-07-13T20:51:03.730Z</time>
      </trkpt>
      <trkpt lat="48.85032" lon="2.34252">
        <ele>119.4</ele>
        <time>2015-07-13T20:51:04.730Z</time>
      </trkpt>
      <trkpt lat="48.85042" lon="2.34259">
        <ele>118</ele>
        <time>2015-07-13T20:51:05.783Z</time>
      </trkpt>
      <trkpt lat="48.8505" lon="2.34265">
        <ele>118.7</ele>
        <time>2015-07-13T20:51:06.792Z</time>
      </trkpt>
      <trkpt lat="48.85058" lon="2.34269">
        <ele>119</ele>
        <time>2015-07-13T20:51:07.732Z</time>
      </trkpt>
      <trkpt lat="48.85066" lon="2.34274">
        <ele>119.3</ele>
        <time>2015-07-13T20:51:08.761Z</time>
      </trkpt>
      <trkpt lat="48.85073" lon="2.34278">
        <ele>119.2</ele>
        <time>2015-07-13T20:51:09.777Z</time>
      </trkpt>
      <trkpt lat="48.85079" lon="2.34283">
        <ele>118.6</ele>
        <time>2015-07-13T20:51:10.785Z</time>
      </trkpt>
      <trkpt lat="48.85087" lon="2.34289">
        <ele>118.1</ele>
        <time>2015-07-13T20:51:11.795Z</time>
      </trkpt>
      <trkpt lat="48.85093" lon="2.34295">
        <ele>117.6</ele>
        <time>2015-07-13T20:51:12.808Z</time>
      </trkpt>
      <trkpt lat="48.85101" lon="2.34301">
        <ele>116.3</ele>
        <time>2015-07-13T20:51:13.728Z</time>
      </trkpt>
      <trkpt lat="48.85111" lon="2.34307">
        <ele>115.1</ele>
        <time>2015-07-13T20:51:14.727Z</time>
      </trkpt>
      <trkpt lat="48.85121" lon="2.3431">
        <ele>113.4</ele>
        <time>2015-07-13T20:51:15.738Z</time>
      </trkpt>
      <trkpt lat="48.85126" lon="2.34312">
        <ele>113.3</ele>
        <time>2015-07-13T20:51:16.749Z</time>
      </trkpt>
      <trkpt lat="48.85131" lon="2.34314">
        <ele>113.2</ele>
        <time>2015-07-13T20:51:17.862Z</time>
      </trkpt>
      <trkpt lat="48.85136" lon="2.34315">
        <ele>112.2</ele>
        <time>2015-07-13T20:51:18.736Z</time>
      </trkpt>
      <trkpt lat="48.85141" lon="2.34317">
        <ele>111.9</ele>
        <time>2015-07-13T20:51:19.744Z</time>
      </trkpt>
      <trkpt lat="48.85145" lon="2.3432">
        <ele>111.7</ele>
        <time>2015-07-13T20:51:20.763Z</time>
      </trkpt>
      <trkpt lat="48.8515" lon="2.34323">
        <ele>111.8</ele>
        <time>2015-07-13T20:51:21.772Z</time>
      </trkpt>
      <trkpt lat="48.85154" lon="2.34325">
        <ele>111.7</ele>
        <time>2015-07-13T20:51:22.783Z</time>
      </trkpt>
      <trkpt lat="48.85158" lon="2.34329">
        <ele>112.1</ele>
        <time>2015-07-13T20:51:23.805Z</time>
      </trkpt>
      <trkpt lat="48.85162" lon="2.34332">
        <ele>112</ele>
        <time>2015-07-13T20:51:24.809Z</time>
      </trkpt>
      <trkpt lat="48.85167" lon="2.34336">
        <ele>112.6</ele>
        <time>2015-07-13T20:51:25.838Z</time>
      </trkpt>
      <trkpt lat="48.85176" lon="2.34337">
        <ele>112.6</ele>
        <time>2015-07-13T20:51:26.739Z</time>
      </trkpt>
      <trkpt lat="48.85185" lon="2.3434">
        <ele>112.9</ele>
        <time>2015-07-13T20:51:27.742Z</time>
      </trkpt>
      <trkpt lat="48.85193" lon="2.34342">
        <ele>113</ele>
        <time>2015-07-13T20:51:28.746Z</time>
      </trkpt>
      <trkpt lat="48.85201" lon="2.34345">
        <ele>113.3</ele>
        <time>2015-07-13T20:51:29.799Z</time>
      </trkpt>
      <trkpt lat="48.85208" lon="2.34346">
        <ele>113.4</ele>
        <time>2015-07-13T20:51:30.797Z</time>
      </trkpt>
      <trkpt lat="48.85215" lon="2.34349">
        <ele>113.9</ele>
        <time>2015-07-13T20:51:31.739Z</time>
      </trkpt>
      <trkpt lat="48.85221" lon="2.34352">
        <ele>114</ele>
        <time>2015-07-13T20:51:32.736Z</time>
      </trkpt>
      <trkpt lat="48.85226" lon="2.34354">
        <ele>113.7</ele>
        <time>2015-07-13T20:51:33.740Z</time>
      </trkpt>
      <trkpt lat="48.85233" lon="2.34355">
        <ele>113.3</ele>
        <time>2015-07-13T20:51:34.749Z</time>
      </trkpt>
      <trkpt lat="48.8524" lon="2.34358">
        <ele>113.2</ele>
        <time>2015-07-13T20:51:35.788Z</time>
      </trkpt>
      <trkpt lat="48.85245" lon="2.34362">
        <ele>113.2</ele>
        <time>2015-07-13T20:51:36.794Z</time>
      </trkpt>
      <trkpt lat="48.85249" lon="2.34366">
        <ele>113.1</ele>
        <time>2015-07-13T20:51:37.802Z</time>
      </trkpt>
      <trkpt lat="48.85255" lon="2.34369">
        <ele>113</ele>
        <time>2015-07-13T20:51:38.818Z</time>
      </trkpt>
      <trkpt lat="48.85262" lon="2.34371">
        <ele>112.5</ele>
        <time>2015-07-13T20:51:39.735Z</time>
      </trkpt>
      <trkpt lat="48.85268" lon="2.34374">
        <ele>111.7</ele>
        <time>2015-07-13T20:51:40.741Z</time>
      </trkpt>
      <trkpt lat="48.85275" lon="2.34376">
        <ele>111</ele>
        <time>2015-07-13T20:51:41.785Z</time>
      </trkpt>
      <trkpt lat="48.85282" lon="2.3438">
        <ele>111.1</ele>
        <time>2015-07-13T20:51:42.798Z</time>
      </trkpt>
      <trkpt lat="48.85288" lon="2.34383">
        <ele>111.4</ele>
        <time>2015-07-13T20:51:43.806Z</time>
      </trkpt>
      <trkpt lat="48.85294" lon="2.34387">
        <ele>111.7</ele>
        <time>2015-07-13T20:51:44.813Z</time>
      </trkpt>
      <trkpt lat="48.85302" lon="2.34391">
        <ele>111.4</ele>
        <time>2015-07-13T20:51:45.741Z</time>
      </trkpt>
      <trkpt lat="48.85311" lon="2.34391">
        <ele>110.7</ele>
        <time>2015-07-13T20:51:46.741Z</time>
      </trkpt>
      <trkpt lat="48.8532" lon="2.34391">
        <ele>109.3</ele>
        <time>2015-07-13T20:51:47.784Z</time>
      </trkpt>
      <trkpt lat="48.85326" lon="2.34389">
        <ele>108.8</ele>
        <time>2015-07-13T20:51:48.779Z</time>
      </trkpt>
      <trkpt lat="48.85336" lon="2.34394">
        <ele>107</ele>
        <time>2015-07-13T20:51:49.801Z</time>
      </trkpt>
      <trkpt lat="48.85344" lon="2.34398">
        <ele>106.1</ele>
        <time>2015-07-13T20:51:50.809Z</time>
      </trkpt>
      <trkpt lat="48.85351" lon="2.34403">
        <ele>105.7</ele>
        <time>2015-07-13T20:51:51.819Z</time>
      </trkpt>
      <trkpt lat="48.85358" lon="2.34408">
        <ele>105.4</ele>
        <time>2015-07-13T20:51:52.743Z</time>
      </trkpt>
      <trkpt lat="48.85364" lon="2.34413">
        <ele>105.2</ele>
        <time>2015-07-13T20:51:53.774Z</time>
      </trkpt>
      <trkpt lat="48.85369" lon="2.34418">
        <ele>105</ele>
        <time>2015-07-13T20:51:54.779Z</time>
      </trkpt>
      <trkpt lat="48.85374" lon="2.34423">
        <ele>105.1</ele>
        <time>2015-07-13T20:51:55.786Z</time>
      </trkpt>
      <trkpt lat="48.85379" lon="2.34428">
        <ele>104.5</ele>
        <time>2015-07-13T20:51:56.711Z</time>
      </trkpt>
      <trkpt lat="48.85384" lon="2.34433">
        <ele>104.1</ele>
        <time>2015-07-13T20:51:57.746Z</time>
      </trkpt>
      <trkpt lat="48.8539" lon="2.34438">
        <ele>103.4</ele>
        <time>2015-07-13T20:51:58.749Z</time>
      </trkpt>
      <trkpt lat="48.85394" lon="2.34442">
        <ele>100.9</ele>
        <time>2015-07-13T20:51:59.838Z</time>
      </trkpt>
      <trkpt lat="48.854" lon="2.34446">
        <ele>100.8</ele>
        <time>2015-07-13T20:52:00.744Z</time>
      </trkpt>
      <trkpt lat="48.85405" lon="2.34451">
        <ele>100.8</ele>
        <time>2015-07-13T20:52:01.837Z</time>
      </trkpt>
      <trkpt lat="48.8541" lon="2.34457">
        <ele>100.7</ele>
        <time>2015-07-13T20:52:02.777Z</time>
      </trkpt>
      <trkpt lat="48.85416" lon="2.34463">
        <ele>100.8</ele>
        <time>2015-07-13T20:52:03.793Z</time>
      </trkpt>
      <trkpt lat="48.85421" lon="2.34468">
        <ele>101.1</ele>
        <time>2015-07-13T20:52:04.796Z</time>
      </trkpt>
      <trkpt lat="48.85426" lon="2.34474">
        <ele>101.4</ele>
        <time>2015-07-13T20:52:05.805Z</time>
      </trkpt>
      <trkpt lat="48.85432" lon="2.34479">
        <ele>102</ele>
        <time>2015-07-13T20:52:06.813Z</time>
      </trkpt>
      <trkpt lat="48.85438" lon="2.34483">
        <ele>103.2</ele>
        <time>2015-07-13T20:52:07.825Z</time>
      </trkpt>
      <trkpt lat="48.85444" lon="2.34488">
        <ele>103.9</ele>
        <time>2015-07-13T20:52:08.743Z</time>
      </trkpt>
      <trkpt lat="48.8545" lon="2.34491">
        <ele>104.5</ele>
        <time>2015-07-13T20:52:09.749Z</time>
      </trkpt>
      <trkpt lat="48.85454" lon="2.34496">
        <ele>104.4</ele>
        <time>2015-07-13T20:52:10.766Z</time>
      </trkpt>
      <trkpt lat="48.85457" lon="2.34501">
        <ele>104.1</ele>
        <time>2015-07-13T20:52:11.804Z</time>
      </trkpt>
      <trkpt lat="48.85461" lon="2.34508">
        <ele>103.8</ele>
        <time>2015-07-13T20:52:12.817Z</time>
      </trkpt>
      <trkpt lat="48.85465" lon="2.34516">
        <ele>103.6</ele>
        <time>2015-07-13T20:52:13.838Z</time>
      </trkpt>
      <trkpt lat="48.85469" lon="2.34525">
        <ele>103.7</ele>
        <time>2015-07-13T20:52:14.719Z</time>
      </trkpt>
      <trkpt lat="48.85474" lon="2.34534">
        <ele>103.8</ele>
        <time>2015-07-13T20:52:15.749Z</time>
      </trkpt>
      <trkpt lat="48.85478" lon="2.34543">
        <ele>103.8</ele>
        <time>2015-07-13T20:52:16.756Z</time>
      </trkpt>
      <trkpt lat="48.85483" lon="2.34552">
        <ele>103.9</ele>
        <time>2015-07-13T20:52:17.767Z</time>
      </trkpt>
      <trkpt lat="48.85489" lon="2.34561">
        <ele>104.1</ele>
        <time>2015-07-13T20:52:18.777Z</time>
      </trkpt>
      <trkpt lat="48.85494" lon="2.3457">
        <ele>104.2</ele>
        <time>2015-07-13T20:52:19.783Z</time>
      </trkpt>
      <trkpt lat="48.85499" lon="2.34577">
        <ele>104.2</ele>
        <time>2015-07-13T20:52:20.791Z</time>
      </trkpt>
      <trkpt lat="48.85503" lon="2.34585">
        <ele>104.1</ele>
        <time>2015-07-13T20:52:21.797Z</time>
      </trkpt>
      <trkpt lat="48.85508" lon="2.34592">
        <ele>104.2</ele>
        <time>2015-07-13T20:52:22.799Z</time>
      </trkpt>
      <trkpt lat="48.85512" lon="2.346">
        <ele>104.3</ele>
        <time>2015-07-13T20:52:23.805Z</time>
      </trkpt>
      <trkpt lat="48.85515" lon="2.34608">
        <ele>104.3</ele>
        <time>2015-07-13T20:52:24.718Z</time>
      </trkpt>
      <trkpt lat="48.85526" lon="2.34609">
        <ele>103.6</ele>
        <time>2015-07-13T20:52:25.741Z</time>
      </trkpt>
      <trkpt lat="48.85537" lon="2.34608">
        <ele>102.7</ele>
        <time>2015-07-13T20:52:26.753Z</time>
      </trkpt>
      <trkpt lat="48.85546" lon="2.34608">
        <ele>101.6</ele>
        <time>2015-07-13T20:52:27.764Z</time>
      </trkpt>
      <trkpt lat="48.85554" lon="2.34609">
        <ele>100.6</ele>
        <time>2015-07-13T20:52:28.763Z</time>
      </trkpt>
      <trkpt lat="48.85558" lon="2.34611">
        <ele>100.6</ele>
        <time>2015-07-13T20:52:29.804Z</time>
      </trkpt>
      <trkpt lat="48.85563" lon="2.34619">
        <ele>100.7</ele>
        <time>2015-07-13T20:52:31.827Z</time>
      </trkpt>
      <trkpt lat="48.85568" lon="2.34624">
        <ele>101.2</ele>
        <time>2015-07-13T20:52:32.765Z</time>
      </trkpt>
      <trkpt lat="48.85572" lon="2.34629">
        <ele>101.3</ele>
        <time>2015-07-13T20:52:33.739Z</time>
      </trkpt>
      <trkpt lat="48.85578" lon="2.34634">
        <ele>100.9</ele>
        <time>2015-07-13T20:52:34.745Z</time>
      </trkpt>
      <trkpt lat="48.85585" lon="2.34637">
        <ele>100.1</ele>
        <time>2015-07-13T20:52:35.782Z</time>
      </trkpt>
      <trkpt lat="48.85589" lon="2.34638">
        <ele>99.7</ele>
        <time>2015-07-13T20:52:36.769Z</time>
      </trkpt>
      <trkpt lat="48.85593" lon="2.34639">
        <ele>99.5</ele>
        <time>2015-07-13T20:52:37.771Z</time>
      </trkpt>
      <trkpt lat="48.85599" lon="2.34639">
        <ele>99.2</ele>
        <time>2015-07-13T20:52:38.783Z</time>
      </trkpt>
      <trkpt lat="48.85607" lon="2.3464">
        <ele>98.3</ele>
        <time>2015-07-13T20:52:39.808Z</time>
      </trkpt>
      <trkpt lat="48.85611" lon="2.34642">
        <ele>97.8</ele>
        <time>2015-07-13T20:52:40.816Z</time>
      </trkpt>
      <trkpt lat="48.85616" lon="2.34653">
        <ele>95.5</ele>
        <time>2015-07-13T20:52:42.706Z</time>
      </trkpt>
      <trkpt lat="48.8562" lon="2.34658">
        <ele>94.3</ele>
        <time>2015-07-13T20:52:43.770Z</time>
      </trkpt>
      <trkpt lat="48.85627" lon="2.34665">
        <ele>92.4</ele>
        <time>2015-07-13T20:52:45.738Z</time>
      </trkpt>
      <trkpt lat="48.85631" lon="2.34668">
        <ele>91.3</ele>
        <time>2015-07-13T20:52:46.814Z</time>
      </trkpt>
      <trkpt lat="48.85638" lon="2.34675">
        <ele>90.8</ele>
        <time>2015-07-13T20:52:48.856Z</time>
      </trkpt>
      <trkpt lat="48.85643" lon="2.34677">
        <ele>90.7</ele>
        <time>2015-07-13T20:52:49.838Z</time>
      </trkpt>
      <trkpt lat="48.85647" lon="2.34681">
        <ele>90.7</ele>
        <time>2015-07-13T20:52:50.738Z</time>
      </trkpt>
      <trkpt lat="48.85651" lon="2.34683">
        <ele>90.4</ele>
        <time>2015-07-13T20:52:51.735Z</time>
      </trkpt>
      <trkpt lat="48.85659" lon="2.34688">
        <ele>90.2</ele>
        <time>2015-07-13T20:52:53.845Z</time>
      </trkpt>
      <trkpt lat="48.85663" lon="2.34689">
        <ele>90</ele>
        <time>2015-07-13T20:52:54.774Z</time>
      </trkpt>
      <trkpt lat="48.8567" lon="2.34693">
        <ele>90</ele>
        <time>2015-07-13T20:52:56.822Z</time>
      </trkpt>
      <trkpt lat="48.85673" lon="2.34695">
        <ele>89.9</ele>
        <time>2015-07-13T20:52:57.852Z</time>
      </trkpt>
      <trkpt lat="48.85679" lon="2.34699">
        <ele>89.8</ele>
        <time>2015-07-13T20:52:59.819Z</time>
      </trkpt>
      <trkpt lat="48.85682" lon="2.34701">
        <ele>89.6</ele>
        <time>2015-07-13T20:53:00.849Z</time>
      </trkpt>
      <trkpt lat="48.85688" lon="2.34705">
        <ele>89.5</ele>
        <time>2015-07-13T20:53:02.785Z</time>
      </trkpt>
      <trkpt lat="48.85691" lon="2.34707">
        <ele>89.6</ele>
        <time>2015-07-13T20:53:03.756Z</time>
      </trkpt>
      <trkpt lat="48.85698" lon="2.3471">
        <ele>90.1</ele>
        <time>2015-07-13T20:53:05.824Z</time>
      </trkpt>
      <trkpt lat="48.85701" lon="2.34713">
        <ele>90.7</ele>
        <time>2015-07-13T20:53:06.785Z</time>
      </trkpt>
      <trkpt lat="48.85706" lon="2.34719">
        <ele>91.4</ele>
        <time>2015-07-13T20:53:08.826Z</time>
      </trkpt>
      <trkpt lat="48.85708" lon="2.34721">
        <ele>91.5</ele>
        <time>2015-07-13T20:53:09.783Z</time>
      </trkpt>
      <trkpt lat="48.85714" lon="2.34728">
        <ele>91.9</ele>
        <time>2015-07-13T20:53:20.847Z</time>
      </trkpt>
      <trkpt lat="48.85716" lon="2.34731">
        <ele>90.5</ele>
        <time>2015-07-13T20:53:21.755Z</time>
      </trkpt>
      <trkpt lat="48.8572" lon="2.34738">
        <ele>90.4</ele>
        <time>2015-07-13T20:53:24.782Z</time>
      </trkpt>
      <trkpt lat="48.85722" lon="2.34741">
        <ele>90</ele>
        <time>2015-07-13T20:53:25.800Z</time>
      </trkpt>
      <trkpt lat="48.8573" lon="2.34747">
        <ele>89.8</ele>
        <time>2015-07-13T20:53:27.730Z</time>
      </trkpt>
      <trkpt lat="48.85735" lon="2.34751">
        <ele>89.4</ele>
        <time>2015-07-13T20:53:28.795Z</time>
      </trkpt>
      <trkpt lat="48.85739" lon="2.34754">
        <ele>89.3</ele>
        <time>2015-07-13T20:53:29.861Z</time>
      </trkpt>
      <trkpt lat="48.85744" lon="2.34757">
        <ele>89.2</ele>
        <time>2015-07-13T20:53:30.741Z</time>
      </trkpt>
      <trkpt lat="48.85749" lon="2.3476">
        <ele>89.2</ele>
        <time>2015-07-13T20:53:31.772Z</time>
      </trkpt>
      <trkpt lat="48.85754" lon="2.34762">
        <ele>89.2</ele>
        <time>2015-07-13T20:53:32.779Z</time>
      </trkpt>
      <trkpt lat="48.85759" lon="2.34765">
        <ele>89</ele>
        <time>2015-07-13T20:53:33.794Z</time>
      </trkpt>
      <trkpt lat="48.85763" lon="2.34766">
        <ele>89.2</ele>
        <time>2015-07-13T20:53:34.736Z</time>
      </trkpt>
      <trkpt lat="48.85767" lon="2.34766">
        <ele>89.2</ele>
        <time>2015-07-13T20:53:35.772Z</time>
      </trkpt>
      <trkpt lat="48.85772" lon="2.34763">
        <ele>88.9</ele>
        <time>2015-07-13T20:53:36.722Z</time>
      </trkpt>
      <trkpt lat="48.85777" lon="2.34759">
        <ele>88.9</ele>
        <time>2015-07-13T20:53:37.729Z</time>
      </trkpt>
      <trkpt lat="48.8578" lon="2.34754">
        <ele>88.7</ele>
        <time>2015-07-13T20:53:38.738Z</time>
      </trkpt>
      <trkpt lat="48.85784" lon="2.34749">
        <ele>88.7</ele>
        <time>2015-07-13T20:53:39.751Z</time>
      </trkpt>
      <trkpt lat="48.85787" lon="2.34741">
        <ele>89.1</ele>
        <time>2015-07-13T20:53:40.775Z</time>
      </trkpt>
      <trkpt lat="48.8579" lon="2.34735">
        <ele>89.4</ele>
        <time>2015-07-13T20:53:41.794Z</time>
      </trkpt>
      <trkpt lat="48.85793" lon="2.3473">
        <ele>89.9</ele>
        <time>2015-07-13T20:53:42.797Z</time>
      </trkpt>
      <trkpt lat="48.85797" lon="2.34728">
        <ele>90.4</ele>
        <time>2015-07-13T20:53:43.821Z</time>
      </trkpt>
      <trkpt lat="48.85802" lon="2.34729">
        <ele>91</ele>
        <time>2015-07-13T20:53:44.825Z</time>
      </trkpt>
      <trkpt lat="48.85807" lon="2.34732">
        <ele>91.7</ele>
        <time>2015-07-13T20:53:45.993Z</time>
      </trkpt>
      <trkpt lat="48.85811" lon="2.34735">
        <ele>92.3</ele>
        <time>2015-07-13T20:53:46.809Z</time>
      </trkpt>
      <trkpt lat="48.85814" lon="2.34737">
        <ele>92.8</ele>
        <time>2015-07-13T20:53:47.823Z</time>
      </trkpt>
      <trkpt lat="48.85821" lon="2.34736">
        <ele>92.9</ele>
        <time>2015-07-13T20:53:48.821Z</time>
      </trkpt>
      <trkpt lat="48.85826" lon="2.34739">
        <ele>93.3</ele>
        <time>2015-07-13T20:53:49.829Z</time>
      </trkpt>
      <trkpt lat="48.8583" lon="2.34742">
        <ele>93.7</ele>
        <time>2015-07-13T20:53:50.846Z</time>
      </trkpt>
      <trkpt lat="48.85837" lon="2.34749">
        <ele>94.8</ele>
        <time>2015-07-13T20:53:52.804Z</time>
      </trkpt>
      <trkpt lat="48.85841" lon="2.34751">
        <ele>95.2</ele>
        <time>2015-07-13T20:53:53.826Z</time>
      </trkpt>
      <trkpt lat="48.85849" lon="2.34754">
        <ele>95.9</ele>
        <time>2015-07-13T20:53:55.741Z</time>
      </trkpt>
      <trkpt lat="48.85855" lon="2.3475">
        <ele>95.6</ele>
        <time>2015-07-13T20:53:56.742Z</time>
      </trkpt>
      <trkpt lat="48.85862" lon="2.34745">
        <ele>97.3</ele>
        <time>2015-07-13T20:54:21.803Z</time>
      </trkpt>
      <trkpt lat="48.85876" lon="2.34744">
        <ele>102.8</ele>
        <time>2015-07-13T20:54:22.752Z</time>
      </trkpt>
      <trkpt lat="48.85885" lon="2.34744">
        <ele>104</ele>
        <time>2015-07-13T20:54:25.809Z</time>
      </trkpt>
      <trkpt lat="48.85888" lon="2.34743">
        <ele>104.4</ele>
        <time>2015-07-13T20:54:26.771Z</time>
      </trkpt>
      <trkpt lat="48.85894" lon="2.34742">
        <ele>105</ele>
        <time>2015-07-13T20:54:28.758Z</time>
      </trkpt>
      <trkpt lat="48.85898" lon="2.34742">
        <ele>105.2</ele>
        <time>2015-07-13T20:54:29.878Z</time>
      </trkpt>
      <trkpt lat="48.85903" lon="2.34741">
        <ele>105.5</ele>
        <time>2015-07-13T20:54:30.752Z</time>
      </trkpt>
      <trkpt lat="48.85908" lon="2.34739">
        <ele>105.4</ele>
        <time>2015-07-13T20:54:31.749Z</time>
      </trkpt>
      <trkpt lat="48.85915" lon="2.34736">
        <ele>104.9</ele>
        <time>2015-07-13T20:54:33.785Z</time>
      </trkpt>
      <trkpt lat="48.85919" lon="2.34734">
        <ele>104.6</ele>
        <time>2015-07-13T20:54:34.724Z</time>
      </trkpt>
      <trkpt lat="48.85924" lon="2.34728">
        <ele>104</ele>
        <time>2015-07-13T20:54:36.815Z</time>
      </trkpt>
      <trkpt lat="48.85927" lon="2.34725">
        <ele>103.8</ele>
        <time>2015-07-13T20:54:37.847Z</time>
      </trkpt>
      <trkpt lat="48.85934" lon="2.3472">
        <ele>103.6</ele>
        <time>2015-07-13T20:54:39.788Z</time>
      </trkpt>
      <trkpt lat="48.85938" lon="2.34718">
        <ele>103.6</ele>
        <time>2015-07-13T20:54:40.800Z</time>
      </trkpt>
      <trkpt lat="48.85944" lon="2.34715">
        <ele>103.8</ele>
        <time>2015-07-13T20:54:42.734Z</time>
      </trkpt>
      <trkpt lat="48.85947" lon="2.34714">
        <ele>104.1</ele>
        <time>2015-07-13T20:54:43.723Z</time>
      </trkpt>
      <trkpt lat="48.85955" lon="2.3471">
        <ele>105</ele>
        <time>2015-07-13T20:54:47.864Z</time>
      </trkpt>
      <trkpt lat="48.85956" lon="2.34711">
        <ele>105.1</ele>
        <time>2015-07-13T20:54:48.780Z</time>
      </trkpt>
      <trkpt lat="48.85959" lon="2.34719">
        <ele>106.5</ele>
        <time>2015-07-13T20:56:06.038Z</time>
      </trkpt>
    </trkseg>
  </trk>
</gpx>